<?xml version="1.0" encoding="UTF-8" standalone="no" ?>
<gpx xmlns="http://www.topografix.com/GPX/1/1" xmlns:xsi="http://www.w3.org/2001/XMLSchema-instance" xsi:schemaLocation="http://www.topografix.com/GPX/1/1 http://www.topografix.com/GPX/1/1/gpx.xsd" version="1.1" creator="VisuGPX - https://www.visugpx.com">
  <metadata>
    <name>La côte d'opale,le sentier des Crans</name>
  </metadata>
  <trk>
    <name><![CDATA[La côte d'opale,le sentier des Crans_1]]></name>
    <trkseg>
      <trkpt lat="50.88494" lon="1.66652">
        <ele>27.1</ele>
        <time>2019-10-05T08:30:09Z</time>
      </trkpt>
      <trkpt lat="50.88488" lon="1.66655">
        <ele>26.2</ele>
        <time>2019-10-05T08:30:11Z</time>
      </trkpt>
      <trkpt lat="50.88483" lon="1.66651">
        <ele>16.3</ele>
        <time>2019-10-05T08:31:03Z</time>
      </trkpt>
      <trkpt lat="50.88482" lon="1.66658">
        <ele>14.3</ele>
        <time>2019-10-05T08:31:36Z</time>
      </trkpt>
      <trkpt lat="50.88478" lon="1.66657">
        <ele>13</ele>
        <time>2019-10-05T08:33:10Z</time>
      </trkpt>
      <trkpt lat="50.88477" lon="1.6665">
        <ele>15.3</ele>
        <time>2019-10-05T08:36:29Z</time>
      </trkpt>
      <trkpt lat="50.88474" lon="1.66644">
        <ele>15.5</ele>
        <time>2019-10-05T08:36:36Z</time>
      </trkpt>
      <trkpt lat="50.88471" lon="1.66638">
        <ele>15.7</ele>
        <time>2019-10-05T08:36:42Z</time>
      </trkpt>
      <trkpt lat="50.88468" lon="1.66632">
        <ele>15.8</ele>
        <time>2019-10-05T08:36:49Z</time>
      </trkpt>
      <trkpt lat="50.88463" lon="1.6663">
        <ele>15.6</ele>
        <time>2019-10-05T08:37:20Z</time>
      </trkpt>
      <trkpt lat="50.88459" lon="1.66626">
        <ele>15.2</ele>
        <time>2019-10-05T08:37:35Z</time>
      </trkpt>
      <trkpt lat="50.88457" lon="1.66618">
        <ele>15</ele>
        <time>2019-10-05T08:37:41Z</time>
      </trkpt>
      <trkpt lat="50.88454" lon="1.66612">
        <ele>14.7</ele>
        <time>2019-10-05T08:37:46Z</time>
      </trkpt>
      <trkpt lat="50.88451" lon="1.66606">
        <ele>14.7</ele>
        <time>2019-10-05T08:37:51Z</time>
      </trkpt>
      <trkpt lat="50.88449" lon="1.666">
        <ele>14.8</ele>
        <time>2019-10-05T08:37:57Z</time>
      </trkpt>
      <trkpt lat="50.88445" lon="1.66594">
        <ele>14.9</ele>
        <time>2019-10-05T08:38:07Z</time>
      </trkpt>
      <trkpt lat="50.88444" lon="1.66586">
        <ele>15.2</ele>
        <time>2019-10-05T08:38:13Z</time>
      </trkpt>
      <trkpt lat="50.88445" lon="1.66579">
        <ele>15.6</ele>
        <time>2019-10-05T08:38:18Z</time>
      </trkpt>
      <trkpt lat="50.88447" lon="1.66572">
        <ele>16.3</ele>
        <time>2019-10-05T08:38:24Z</time>
      </trkpt>
      <trkpt lat="50.88445" lon="1.66564">
        <ele>17.9</ele>
        <time>2019-10-05T08:38:38Z</time>
      </trkpt>
      <trkpt lat="50.88443" lon="1.66557">
        <ele>18.1</ele>
        <time>2019-10-05T08:38:44Z</time>
      </trkpt>
      <trkpt lat="50.88442" lon="1.6655">
        <ele>18.4</ele>
        <time>2019-10-05T08:38:52Z</time>
      </trkpt>
      <trkpt lat="50.88444" lon="1.66543">
        <ele>18.6</ele>
        <time>2019-10-05T08:39:01Z</time>
      </trkpt>
      <trkpt lat="50.88446" lon="1.66535">
        <ele>19</ele>
        <time>2019-10-05T08:39:06Z</time>
      </trkpt>
      <trkpt lat="50.88449" lon="1.66528">
        <ele>19.3</ele>
        <time>2019-10-05T08:39:11Z</time>
      </trkpt>
      <trkpt lat="50.88452" lon="1.66522">
        <ele>19.3</ele>
        <time>2019-10-05T08:39:15Z</time>
      </trkpt>
      <trkpt lat="50.88455" lon="1.66515">
        <ele>19.3</ele>
        <time>2019-10-05T08:39:20Z</time>
      </trkpt>
      <trkpt lat="50.88458" lon="1.6651">
        <ele>19.4</ele>
        <time>2019-10-05T08:39:26Z</time>
      </trkpt>
      <trkpt lat="50.88461" lon="1.66503">
        <ele>19.4</ele>
        <time>2019-10-05T08:39:30Z</time>
      </trkpt>
      <trkpt lat="50.88465" lon="1.66497">
        <ele>19.6</ele>
        <time>2019-10-05T08:39:35Z</time>
      </trkpt>
      <trkpt lat="50.88468" lon="1.66491">
        <ele>19.7</ele>
        <time>2019-10-05T08:39:39Z</time>
      </trkpt>
      <trkpt lat="50.88471" lon="1.66484">
        <ele>19.5</ele>
        <time>2019-10-05T08:39:44Z</time>
      </trkpt>
      <trkpt lat="50.88474" lon="1.66478">
        <ele>19.2</ele>
        <time>2019-10-05T08:39:50Z</time>
      </trkpt>
      <trkpt lat="50.88478" lon="1.66474">
        <ele>18.9</ele>
        <time>2019-10-05T08:39:55Z</time>
      </trkpt>
      <trkpt lat="50.8848" lon="1.66467">
        <ele>18.6</ele>
        <time>2019-10-05T08:40:00Z</time>
      </trkpt>
      <trkpt lat="50.88482" lon="1.66458">
        <ele>18.5</ele>
        <time>2019-10-05T08:40:04Z</time>
      </trkpt>
      <trkpt lat="50.88486" lon="1.66453">
        <ele>18.4</ele>
        <time>2019-10-05T08:40:09Z</time>
      </trkpt>
      <trkpt lat="50.8849" lon="1.66449">
        <ele>18.3</ele>
        <time>2019-10-05T08:40:13Z</time>
      </trkpt>
      <trkpt lat="50.88494" lon="1.66443">
        <ele>18.2</ele>
        <time>2019-10-05T08:40:17Z</time>
      </trkpt>
      <trkpt lat="50.88497" lon="1.66439">
        <ele>18.3</ele>
        <time>2019-10-05T08:40:21Z</time>
      </trkpt>
      <trkpt lat="50.88501" lon="1.66435">
        <ele>18.2</ele>
        <time>2019-10-05T08:40:25Z</time>
      </trkpt>
      <trkpt lat="50.88504" lon="1.66429">
        <ele>18</ele>
        <time>2019-10-05T08:40:33Z</time>
      </trkpt>
      <trkpt lat="50.88505" lon="1.66422">
        <ele>17.8</ele>
        <time>2019-10-05T08:40:40Z</time>
      </trkpt>
      <trkpt lat="50.88505" lon="1.66414">
        <ele>17.6</ele>
        <time>2019-10-05T08:41:08Z</time>
      </trkpt>
      <trkpt lat="50.885" lon="1.66415">
        <ele>17.2</ele>
        <time>2019-10-05T08:41:46Z</time>
      </trkpt>
      <trkpt lat="50.88496" lon="1.66412">
        <ele>16.2</ele>
        <time>2019-10-05T08:45:14Z</time>
      </trkpt>
      <trkpt lat="50.88501" lon="1.66415">
        <ele>16.2</ele>
        <time>2019-10-05T08:45:55Z</time>
      </trkpt>
      <trkpt lat="50.88497" lon="1.66411">
        <ele>16</ele>
        <time>2019-10-05T08:46:38Z</time>
      </trkpt>
      <trkpt lat="50.88501" lon="1.66415">
        <ele>15.9</ele>
        <time>2019-10-05T08:47:20Z</time>
      </trkpt>
      <trkpt lat="50.88497" lon="1.66411">
        <ele>16.9</ele>
        <time>2019-10-05T08:50:20Z</time>
      </trkpt>
      <trkpt lat="50.88499" lon="1.66417">
        <ele>16.6</ele>
        <time>2019-10-05T08:50:48Z</time>
      </trkpt>
      <trkpt lat="50.88502" lon="1.66423">
        <ele>17</ele>
        <time>2019-10-05T08:50:59Z</time>
      </trkpt>
      <trkpt lat="50.88507" lon="1.66428">
        <ele>16.3</ele>
        <time>2019-10-05T08:51:06Z</time>
      </trkpt>
      <trkpt lat="50.88512" lon="1.66427">
        <ele>15.6</ele>
        <time>2019-10-05T08:51:12Z</time>
      </trkpt>
      <trkpt lat="50.88517" lon="1.66425">
        <ele>15</ele>
        <time>2019-10-05T08:51:19Z</time>
      </trkpt>
      <trkpt lat="50.88522" lon="1.66422">
        <ele>14.9</ele>
        <time>2019-10-05T08:51:24Z</time>
      </trkpt>
      <trkpt lat="50.88527" lon="1.66418">
        <ele>14.8</ele>
        <time>2019-10-05T08:51:28Z</time>
      </trkpt>
      <trkpt lat="50.88531" lon="1.66415">
        <ele>14.7</ele>
        <time>2019-10-05T08:51:31Z</time>
      </trkpt>
      <trkpt lat="50.88536" lon="1.66412">
        <ele>14.7</ele>
        <time>2019-10-05T08:51:35Z</time>
      </trkpt>
      <trkpt lat="50.8854" lon="1.66407">
        <ele>14.8</ele>
        <time>2019-10-05T08:51:39Z</time>
      </trkpt>
      <trkpt lat="50.88544" lon="1.66403">
        <ele>15</ele>
        <time>2019-10-05T08:51:44Z</time>
      </trkpt>
      <trkpt lat="50.88549" lon="1.66398">
        <ele>15.2</ele>
        <time>2019-10-05T08:51:49Z</time>
      </trkpt>
      <trkpt lat="50.88553" lon="1.66399">
        <ele>15.2</ele>
        <time>2019-10-05T08:51:53Z</time>
      </trkpt>
      <trkpt lat="50.88557" lon="1.66404">
        <ele>15</ele>
        <time>2019-10-05T08:51:57Z</time>
      </trkpt>
      <trkpt lat="50.88559" lon="1.66411">
        <ele>14.6</ele>
        <time>2019-10-05T08:52:01Z</time>
      </trkpt>
      <trkpt lat="50.88561" lon="1.66419">
        <ele>14.3</ele>
        <time>2019-10-05T08:52:05Z</time>
      </trkpt>
      <trkpt lat="50.88563" lon="1.66426">
        <ele>14.2</ele>
        <time>2019-10-05T08:52:09Z</time>
      </trkpt>
      <trkpt lat="50.88564" lon="1.66434">
        <ele>14.1</ele>
        <time>2019-10-05T08:52:13Z</time>
      </trkpt>
      <trkpt lat="50.88566" lon="1.66441">
        <ele>14.1</ele>
        <time>2019-10-05T08:52:20Z</time>
      </trkpt>
      <trkpt lat="50.8857" lon="1.66445">
        <ele>14.1</ele>
        <time>2019-10-05T08:52:45Z</time>
      </trkpt>
      <trkpt lat="50.88573" lon="1.66451">
        <ele>13.7</ele>
        <time>2019-10-05T08:53:01Z</time>
      </trkpt>
      <trkpt lat="50.88577" lon="1.66457">
        <ele>13.3</ele>
        <time>2019-10-05T08:53:06Z</time>
      </trkpt>
      <trkpt lat="50.88581" lon="1.66461">
        <ele>13.1</ele>
        <time>2019-10-05T08:53:10Z</time>
      </trkpt>
      <trkpt lat="50.88585" lon="1.66466">
        <ele>12.9</ele>
        <time>2019-10-05T08:53:15Z</time>
      </trkpt>
      <trkpt lat="50.8859" lon="1.66469">
        <ele>12.6</ele>
        <time>2019-10-05T08:53:26Z</time>
      </trkpt>
      <trkpt lat="50.88596" lon="1.66472">
        <ele>12.4</ele>
        <time>2019-10-05T08:53:30Z</time>
      </trkpt>
      <trkpt lat="50.886" lon="1.66474">
        <ele>12.2</ele>
        <time>2019-10-05T08:53:34Z</time>
      </trkpt>
      <trkpt lat="50.88606" lon="1.66477">
        <ele>12</ele>
        <time>2019-10-05T08:53:38Z</time>
      </trkpt>
      <trkpt lat="50.88611" lon="1.6648">
        <ele>11.9</ele>
        <time>2019-10-05T08:53:42Z</time>
      </trkpt>
      <trkpt lat="50.88617" lon="1.66483">
        <ele>12</ele>
        <time>2019-10-05T08:53:46Z</time>
      </trkpt>
      <trkpt lat="50.88621" lon="1.66486">
        <ele>12.2</ele>
        <time>2019-10-05T08:53:50Z</time>
      </trkpt>
      <trkpt lat="50.88626" lon="1.6649">
        <ele>12.4</ele>
        <time>2019-10-05T08:53:54Z</time>
      </trkpt>
      <trkpt lat="50.8863" lon="1.66497">
        <ele>12.5</ele>
        <time>2019-10-05T08:53:59Z</time>
      </trkpt>
      <trkpt lat="50.8863" lon="1.66506">
        <ele>12.6</ele>
        <time>2019-10-05T08:54:03Z</time>
      </trkpt>
      <trkpt lat="50.8863" lon="1.66514">
        <ele>12.7</ele>
        <time>2019-10-05T08:54:07Z</time>
      </trkpt>
      <trkpt lat="50.88628" lon="1.66522">
        <ele>12.8</ele>
        <time>2019-10-05T08:54:11Z</time>
      </trkpt>
      <trkpt lat="50.88626" lon="1.6653">
        <ele>13</ele>
        <time>2019-10-05T08:54:15Z</time>
      </trkpt>
      <trkpt lat="50.88625" lon="1.66539">
        <ele>13.2</ele>
        <time>2019-10-05T08:54:19Z</time>
      </trkpt>
      <trkpt lat="50.88624" lon="1.66547">
        <ele>13.4</ele>
        <time>2019-10-05T08:54:24Z</time>
      </trkpt>
      <trkpt lat="50.88624" lon="1.66555">
        <ele>13.5</ele>
        <time>2019-10-05T08:54:29Z</time>
      </trkpt>
      <trkpt lat="50.88623" lon="1.66562">
        <ele>13.5</ele>
        <time>2019-10-05T08:54:34Z</time>
      </trkpt>
      <trkpt lat="50.88623" lon="1.6657">
        <ele>13.7</ele>
        <time>2019-10-05T08:54:39Z</time>
      </trkpt>
      <trkpt lat="50.88622" lon="1.66577">
        <ele>13.9</ele>
        <time>2019-10-05T08:54:43Z</time>
      </trkpt>
      <trkpt lat="50.88621" lon="1.66586">
        <ele>14.2</ele>
        <time>2019-10-05T08:54:48Z</time>
      </trkpt>
      <trkpt lat="50.88621" lon="1.66595">
        <ele>14.4</ele>
        <time>2019-10-05T08:54:52Z</time>
      </trkpt>
      <trkpt lat="50.88621" lon="1.66604">
        <ele>14.7</ele>
        <time>2019-10-05T08:54:57Z</time>
      </trkpt>
      <trkpt lat="50.88621" lon="1.66612">
        <ele>14.8</ele>
        <time>2019-10-05T08:55:01Z</time>
      </trkpt>
      <trkpt lat="50.88621" lon="1.66621">
        <ele>14.8</ele>
        <time>2019-10-05T08:55:06Z</time>
      </trkpt>
      <trkpt lat="50.8862" lon="1.66629">
        <ele>14.8</ele>
        <time>2019-10-05T08:55:11Z</time>
      </trkpt>
      <trkpt lat="50.8862" lon="1.66637">
        <ele>14.9</ele>
        <time>2019-10-05T08:55:15Z</time>
      </trkpt>
      <trkpt lat="50.8862" lon="1.66645">
        <ele>14.9</ele>
        <time>2019-10-05T08:55:18Z</time>
      </trkpt>
      <trkpt lat="50.88621" lon="1.66652">
        <ele>14.9</ele>
        <time>2019-10-05T08:55:21Z</time>
      </trkpt>
      <trkpt lat="50.88622" lon="1.6666">
        <ele>15.2</ele>
        <time>2019-10-05T08:55:25Z</time>
      </trkpt>
      <trkpt lat="50.88622" lon="1.66668">
        <ele>15.6</ele>
        <time>2019-10-05T08:55:30Z</time>
      </trkpt>
      <trkpt lat="50.88621" lon="1.66676">
        <ele>16</ele>
        <time>2019-10-05T08:55:34Z</time>
      </trkpt>
      <trkpt lat="50.8862" lon="1.66683">
        <ele>16.4</ele>
        <time>2019-10-05T08:55:38Z</time>
      </trkpt>
      <trkpt lat="50.88616" lon="1.66689">
        <ele>16.8</ele>
        <time>2019-10-05T08:55:43Z</time>
      </trkpt>
      <trkpt lat="50.88614" lon="1.66697">
        <ele>17.1</ele>
        <time>2019-10-05T08:55:47Z</time>
      </trkpt>
      <trkpt lat="50.88611" lon="1.66705">
        <ele>17.5</ele>
        <time>2019-10-05T08:55:52Z</time>
      </trkpt>
      <trkpt lat="50.88607" lon="1.6671">
        <ele>18</ele>
        <time>2019-10-05T08:55:57Z</time>
      </trkpt>
      <trkpt lat="50.88603" lon="1.66716">
        <ele>18.3</ele>
        <time>2019-10-05T08:56:02Z</time>
      </trkpt>
      <trkpt lat="50.88599" lon="1.66721">
        <ele>18.5</ele>
        <time>2019-10-05T08:56:06Z</time>
      </trkpt>
      <trkpt lat="50.88595" lon="1.66725">
        <ele>18.5</ele>
        <time>2019-10-05T08:56:10Z</time>
      </trkpt>
      <trkpt lat="50.8859" lon="1.66729">
        <ele>18.4</ele>
        <time>2019-10-05T08:56:14Z</time>
      </trkpt>
      <trkpt lat="50.88586" lon="1.66732">
        <ele>18.2</ele>
        <time>2019-10-05T08:56:19Z</time>
      </trkpt>
      <trkpt lat="50.88581" lon="1.66736">
        <ele>18.1</ele>
        <time>2019-10-05T08:56:23Z</time>
      </trkpt>
      <trkpt lat="50.88577" lon="1.6674">
        <ele>18</ele>
        <time>2019-10-05T08:56:27Z</time>
      </trkpt>
      <trkpt lat="50.88572" lon="1.66745">
        <ele>17.8</ele>
        <time>2019-10-05T08:56:31Z</time>
      </trkpt>
      <trkpt lat="50.88568" lon="1.6675">
        <ele>17.6</ele>
        <time>2019-10-05T08:56:35Z</time>
      </trkpt>
      <trkpt lat="50.88564" lon="1.66755">
        <ele>17.4</ele>
        <time>2019-10-05T08:56:39Z</time>
      </trkpt>
      <trkpt lat="50.88561" lon="1.6676">
        <ele>17.1</ele>
        <time>2019-10-05T08:56:43Z</time>
      </trkpt>
      <trkpt lat="50.88561" lon="1.66768">
        <ele>16.8</ele>
        <time>2019-10-05T08:56:48Z</time>
      </trkpt>
      <trkpt lat="50.88563" lon="1.66774">
        <ele>16.4</ele>
        <time>2019-10-05T08:56:53Z</time>
      </trkpt>
      <trkpt lat="50.88567" lon="1.66779">
        <ele>16</ele>
        <time>2019-10-05T08:56:57Z</time>
      </trkpt>
      <trkpt lat="50.8857" lon="1.66786">
        <ele>15.6</ele>
        <time>2019-10-05T08:57:01Z</time>
      </trkpt>
      <trkpt lat="50.88574" lon="1.66792">
        <ele>15.5</ele>
        <time>2019-10-05T08:57:05Z</time>
      </trkpt>
      <trkpt lat="50.88578" lon="1.66799">
        <ele>15.4</ele>
        <time>2019-10-05T08:57:09Z</time>
      </trkpt>
      <trkpt lat="50.88581" lon="1.66805">
        <ele>15.3</ele>
        <time>2019-10-05T08:57:12Z</time>
      </trkpt>
      <trkpt lat="50.88584" lon="1.66811">
        <ele>15.3</ele>
        <time>2019-10-05T08:57:15Z</time>
      </trkpt>
      <trkpt lat="50.88588" lon="1.66817">
        <ele>15.5</ele>
        <time>2019-10-05T08:57:19Z</time>
      </trkpt>
      <trkpt lat="50.8859" lon="1.66823">
        <ele>15.8</ele>
        <time>2019-10-05T08:57:23Z</time>
      </trkpt>
      <trkpt lat="50.88593" lon="1.66829">
        <ele>16</ele>
        <time>2019-10-05T08:57:27Z</time>
      </trkpt>
      <trkpt lat="50.88597" lon="1.66836">
        <ele>16.3</ele>
        <time>2019-10-05T08:57:33Z</time>
      </trkpt>
      <trkpt lat="50.88599" lon="1.66842">
        <ele>16.4</ele>
        <time>2019-10-05T08:57:37Z</time>
      </trkpt>
      <trkpt lat="50.88601" lon="1.6685">
        <ele>16.5</ele>
        <time>2019-10-05T08:57:41Z</time>
      </trkpt>
      <trkpt lat="50.88605" lon="1.66856">
        <ele>16.8</ele>
        <time>2019-10-05T08:57:46Z</time>
      </trkpt>
      <trkpt lat="50.88609" lon="1.66861">
        <ele>16.9</ele>
        <time>2019-10-05T08:57:50Z</time>
      </trkpt>
      <trkpt lat="50.88613" lon="1.66868">
        <ele>17</ele>
        <time>2019-10-05T08:57:54Z</time>
      </trkpt>
      <trkpt lat="50.88615" lon="1.66874">
        <ele>17.1</ele>
        <time>2019-10-05T08:57:58Z</time>
      </trkpt>
      <trkpt lat="50.88618" lon="1.66881">
        <ele>17</ele>
        <time>2019-10-05T08:58:02Z</time>
      </trkpt>
      <trkpt lat="50.88621" lon="1.66887">
        <ele>17.1</ele>
        <time>2019-10-05T08:58:06Z</time>
      </trkpt>
      <trkpt lat="50.88624" lon="1.66894">
        <ele>17.2</ele>
        <time>2019-10-05T08:58:11Z</time>
      </trkpt>
      <trkpt lat="50.88627" lon="1.66899">
        <ele>17.5</ele>
        <time>2019-10-05T08:58:17Z</time>
      </trkpt>
      <trkpt lat="50.8863" lon="1.66907">
        <ele>17.6</ele>
        <time>2019-10-05T08:58:21Z</time>
      </trkpt>
      <trkpt lat="50.88632" lon="1.66914">
        <ele>17.7</ele>
        <time>2019-10-05T08:58:25Z</time>
      </trkpt>
      <trkpt lat="50.88635" lon="1.66921">
        <ele>17.8</ele>
        <time>2019-10-05T08:58:29Z</time>
      </trkpt>
      <trkpt lat="50.88637" lon="1.66929">
        <ele>18</ele>
        <time>2019-10-05T08:58:33Z</time>
      </trkpt>
      <trkpt lat="50.8864" lon="1.66937">
        <ele>18.1</ele>
        <time>2019-10-05T08:58:37Z</time>
      </trkpt>
      <trkpt lat="50.88643" lon="1.66943">
        <ele>18.2</ele>
        <time>2019-10-05T08:58:41Z</time>
      </trkpt>
      <trkpt lat="50.88646" lon="1.66951">
        <ele>18.5</ele>
        <time>2019-10-05T08:58:45Z</time>
      </trkpt>
      <trkpt lat="50.88649" lon="1.66958">
        <ele>18.7</ele>
        <time>2019-10-05T08:58:49Z</time>
      </trkpt>
      <trkpt lat="50.88652" lon="1.66966">
        <ele>19</ele>
        <time>2019-10-05T08:58:53Z</time>
      </trkpt>
      <trkpt lat="50.88655" lon="1.66972">
        <ele>19.3</ele>
        <time>2019-10-05T08:58:58Z</time>
      </trkpt>
      <trkpt lat="50.88658" lon="1.66978">
        <ele>19.4</ele>
        <time>2019-10-05T08:59:02Z</time>
      </trkpt>
      <trkpt lat="50.88661" lon="1.66983">
        <ele>19.3</ele>
        <time>2019-10-05T08:59:06Z</time>
      </trkpt>
      <trkpt lat="50.88664" lon="1.66989">
        <ele>19.2</ele>
        <time>2019-10-05T08:59:10Z</time>
      </trkpt>
      <trkpt lat="50.88667" lon="1.66996">
        <ele>19</ele>
        <time>2019-10-05T08:59:14Z</time>
      </trkpt>
      <trkpt lat="50.88669" lon="1.67002">
        <ele>18.8</ele>
        <time>2019-10-05T08:59:19Z</time>
      </trkpt>
      <trkpt lat="50.88672" lon="1.67009">
        <ele>18.7</ele>
        <time>2019-10-05T08:59:23Z</time>
      </trkpt>
      <trkpt lat="50.88675" lon="1.67015">
        <ele>18.6</ele>
        <time>2019-10-05T08:59:27Z</time>
      </trkpt>
      <trkpt lat="50.88678" lon="1.6702">
        <ele>18.7</ele>
        <time>2019-10-05T08:59:33Z</time>
      </trkpt>
      <trkpt lat="50.88683" lon="1.67025">
        <ele>18.7</ele>
        <time>2019-10-05T08:59:40Z</time>
      </trkpt>
      <trkpt lat="50.88685" lon="1.67031">
        <ele>18.7</ele>
        <time>2019-10-05T08:59:46Z</time>
      </trkpt>
      <trkpt lat="50.88688" lon="1.67037">
        <ele>18.5</ele>
        <time>2019-10-05T08:59:52Z</time>
      </trkpt>
      <trkpt lat="50.88691" lon="1.67042">
        <ele>18.5</ele>
        <time>2019-10-05T08:59:59Z</time>
      </trkpt>
      <trkpt lat="50.88693" lon="1.67049">
        <ele>18.4</ele>
        <time>2019-10-05T09:00:06Z</time>
      </trkpt>
      <trkpt lat="50.88694" lon="1.67056">
        <ele>18.2</ele>
        <time>2019-10-05T09:00:10Z</time>
      </trkpt>
      <trkpt lat="50.88695" lon="1.67065">
        <ele>17.6</ele>
        <time>2019-10-05T09:00:15Z</time>
      </trkpt>
      <trkpt lat="50.88697" lon="1.67072">
        <ele>17.1</ele>
        <time>2019-10-05T09:00:20Z</time>
      </trkpt>
      <trkpt lat="50.88699" lon="1.67078">
        <ele>16.9</ele>
        <time>2019-10-05T09:00:25Z</time>
      </trkpt>
      <trkpt lat="50.88702" lon="1.67084">
        <ele>16.7</ele>
        <time>2019-10-05T09:00:31Z</time>
      </trkpt>
      <trkpt lat="50.88705" lon="1.6709">
        <ele>16.5</ele>
        <time>2019-10-05T09:00:36Z</time>
      </trkpt>
      <trkpt lat="50.88708" lon="1.67097">
        <ele>16.4</ele>
        <time>2019-10-05T09:00:40Z</time>
      </trkpt>
      <trkpt lat="50.8871" lon="1.67103">
        <ele>16.1</ele>
        <time>2019-10-05T09:00:44Z</time>
      </trkpt>
      <trkpt lat="50.88712" lon="1.6711">
        <ele>16</ele>
        <time>2019-10-05T09:00:48Z</time>
      </trkpt>
      <trkpt lat="50.88714" lon="1.67117">
        <ele>15.8</ele>
        <time>2019-10-05T09:00:52Z</time>
      </trkpt>
      <trkpt lat="50.88719" lon="1.67119">
        <ele>15.4</ele>
        <time>2019-10-05T09:01:01Z</time>
      </trkpt>
      <trkpt lat="50.88722" lon="1.67125">
        <ele>15.3</ele>
        <time>2019-10-05T09:01:05Z</time>
      </trkpt>
      <trkpt lat="50.88723" lon="1.67133">
        <ele>15.2</ele>
        <time>2019-10-05T09:01:10Z</time>
      </trkpt>
      <trkpt lat="50.88725" lon="1.67139">
        <ele>15.2</ele>
        <time>2019-10-05T09:01:16Z</time>
      </trkpt>
      <trkpt lat="50.88727" lon="1.67146">
        <ele>15.2</ele>
        <time>2019-10-05T09:01:24Z</time>
      </trkpt>
      <trkpt lat="50.88733" lon="1.67146">
        <ele>15.3</ele>
        <time>2019-10-05T09:01:32Z</time>
      </trkpt>
      <trkpt lat="50.88738" lon="1.67146">
        <ele>15.6</ele>
        <time>2019-10-05T09:01:37Z</time>
      </trkpt>
      <trkpt lat="50.88742" lon="1.67149">
        <ele>16.1</ele>
        <time>2019-10-05T09:01:43Z</time>
      </trkpt>
      <trkpt lat="50.88747" lon="1.67152">
        <ele>16.4</ele>
        <time>2019-10-05T09:01:48Z</time>
      </trkpt>
      <trkpt lat="50.8875" lon="1.67157">
        <ele>16.5</ele>
        <time>2019-10-05T09:01:52Z</time>
      </trkpt>
      <trkpt lat="50.88752" lon="1.67165">
        <ele>16.3</ele>
        <time>2019-10-05T09:01:58Z</time>
      </trkpt>
      <trkpt lat="50.88752" lon="1.67175">
        <ele>16.2</ele>
        <time>2019-10-05T09:02:02Z</time>
      </trkpt>
      <trkpt lat="50.88753" lon="1.67182">
        <ele>15.8</ele>
        <time>2019-10-05T09:02:06Z</time>
      </trkpt>
      <trkpt lat="50.88753" lon="1.67191">
        <ele>15.5</ele>
        <time>2019-10-05T09:02:10Z</time>
      </trkpt>
      <trkpt lat="50.88756" lon="1.67198">
        <ele>15.1</ele>
        <time>2019-10-05T09:02:14Z</time>
      </trkpt>
      <trkpt lat="50.88759" lon="1.67203">
        <ele>14.9</ele>
        <time>2019-10-05T09:02:18Z</time>
      </trkpt>
      <trkpt lat="50.88764" lon="1.67206">
        <ele>14.8</ele>
        <time>2019-10-05T09:02:21Z</time>
      </trkpt>
      <trkpt lat="50.88769" lon="1.67208">
        <ele>14.8</ele>
        <time>2019-10-05T09:02:25Z</time>
      </trkpt>
      <trkpt lat="50.88775" lon="1.67209">
        <ele>14.9</ele>
        <time>2019-10-05T09:02:30Z</time>
      </trkpt>
      <trkpt lat="50.8878" lon="1.67208">
        <ele>15.2</ele>
        <time>2019-10-05T09:02:34Z</time>
      </trkpt>
      <trkpt lat="50.88785" lon="1.67207">
        <ele>15.6</ele>
        <time>2019-10-05T09:02:38Z</time>
      </trkpt>
      <trkpt lat="50.8879" lon="1.67205">
        <ele>16</ele>
        <time>2019-10-05T09:02:43Z</time>
      </trkpt>
      <trkpt lat="50.88794" lon="1.67204">
        <ele>16.3</ele>
        <time>2019-10-05T09:02:48Z</time>
      </trkpt>
      <trkpt lat="50.888" lon="1.67204">
        <ele>16.5</ele>
        <time>2019-10-05T09:02:53Z</time>
      </trkpt>
      <trkpt lat="50.88805" lon="1.67205">
        <ele>16.9</ele>
        <time>2019-10-05T09:02:58Z</time>
      </trkpt>
      <trkpt lat="50.88811" lon="1.67206">
        <ele>17.4</ele>
        <time>2019-10-05T09:03:02Z</time>
      </trkpt>
      <trkpt lat="50.88815" lon="1.67207">
        <ele>17.8</ele>
        <time>2019-10-05T09:03:06Z</time>
      </trkpt>
      <trkpt lat="50.8882" lon="1.67209">
        <ele>18.2</ele>
        <time>2019-10-05T09:03:10Z</time>
      </trkpt>
      <trkpt lat="50.88824" lon="1.67212">
        <ele>18.3</ele>
        <time>2019-10-05T09:03:13Z</time>
      </trkpt>
      <trkpt lat="50.88829" lon="1.67215">
        <ele>18.5</ele>
        <time>2019-10-05T09:03:18Z</time>
      </trkpt>
      <trkpt lat="50.88833" lon="1.67218">
        <ele>18.8</ele>
        <time>2019-10-05T09:03:23Z</time>
      </trkpt>
      <trkpt lat="50.88838" lon="1.67221">
        <ele>19.2</ele>
        <time>2019-10-05T09:03:28Z</time>
      </trkpt>
      <trkpt lat="50.88843" lon="1.67221">
        <ele>19.6</ele>
        <time>2019-10-05T09:03:32Z</time>
      </trkpt>
      <trkpt lat="50.88847" lon="1.67218">
        <ele>20</ele>
        <time>2019-10-05T09:03:36Z</time>
      </trkpt>
      <trkpt lat="50.8885" lon="1.67213">
        <ele>20.4</ele>
        <time>2019-10-05T09:03:40Z</time>
      </trkpt>
      <trkpt lat="50.88851" lon="1.67205">
        <ele>20.5</ele>
        <time>2019-10-05T09:03:43Z</time>
      </trkpt>
      <trkpt lat="50.88851" lon="1.67197">
        <ele>20.8</ele>
        <time>2019-10-05T09:03:47Z</time>
      </trkpt>
      <trkpt lat="50.88853" lon="1.67189">
        <ele>21.1</ele>
        <time>2019-10-05T09:03:52Z</time>
      </trkpt>
      <trkpt lat="50.88854" lon="1.67182">
        <ele>21.3</ele>
        <time>2019-10-05T09:03:57Z</time>
      </trkpt>
      <trkpt lat="50.88855" lon="1.67174">
        <ele>21.5</ele>
        <time>2019-10-05T09:04:02Z</time>
      </trkpt>
      <trkpt lat="50.88855" lon="1.67166">
        <ele>21.7</ele>
        <time>2019-10-05T09:04:06Z</time>
      </trkpt>
      <trkpt lat="50.88856" lon="1.67158">
        <ele>21.9</ele>
        <time>2019-10-05T09:04:10Z</time>
      </trkpt>
      <trkpt lat="50.88855" lon="1.6715">
        <ele>22</ele>
        <time>2019-10-05T09:04:15Z</time>
      </trkpt>
      <trkpt lat="50.88854" lon="1.67141">
        <ele>22</ele>
        <time>2019-10-05T09:04:19Z</time>
      </trkpt>
      <trkpt lat="50.88853" lon="1.67133">
        <ele>21.9</ele>
        <time>2019-10-05T09:04:23Z</time>
      </trkpt>
      <trkpt lat="50.88852" lon="1.67125">
        <ele>21.9</ele>
        <time>2019-10-05T09:04:28Z</time>
      </trkpt>
      <trkpt lat="50.8885" lon="1.67117">
        <ele>22</ele>
        <time>2019-10-05T09:04:33Z</time>
      </trkpt>
      <trkpt lat="50.88849" lon="1.67109">
        <ele>22.1</ele>
        <time>2019-10-05T09:04:37Z</time>
      </trkpt>
      <trkpt lat="50.88847" lon="1.67101">
        <ele>22.1</ele>
        <time>2019-10-05T09:04:41Z</time>
      </trkpt>
      <trkpt lat="50.88845" lon="1.67093">
        <ele>22.2</ele>
        <time>2019-10-05T09:04:45Z</time>
      </trkpt>
      <trkpt lat="50.88843" lon="1.67085">
        <ele>22.4</ele>
        <time>2019-10-05T09:04:49Z</time>
      </trkpt>
      <trkpt lat="50.88841" lon="1.67078">
        <ele>22.6</ele>
        <time>2019-10-05T09:04:53Z</time>
      </trkpt>
      <trkpt lat="50.88839" lon="1.67071">
        <ele>22.9</ele>
        <time>2019-10-05T09:04:57Z</time>
      </trkpt>
      <trkpt lat="50.88838" lon="1.67064">
        <ele>23.2</ele>
        <time>2019-10-05T09:05:01Z</time>
      </trkpt>
      <trkpt lat="50.88836" lon="1.67057">
        <ele>23.3</ele>
        <time>2019-10-05T09:05:05Z</time>
      </trkpt>
      <trkpt lat="50.88834" lon="1.67049">
        <ele>23.3</ele>
        <time>2019-10-05T09:05:10Z</time>
      </trkpt>
      <trkpt lat="50.88833" lon="1.67042">
        <ele>23.3</ele>
        <time>2019-10-05T09:05:13Z</time>
      </trkpt>
      <trkpt lat="50.88831" lon="1.67035">
        <ele>23.3</ele>
        <time>2019-10-05T09:05:17Z</time>
      </trkpt>
      <trkpt lat="50.8883" lon="1.67027">
        <ele>23.3</ele>
        <time>2019-10-05T09:05:21Z</time>
      </trkpt>
      <trkpt lat="50.88829" lon="1.6702">
        <ele>23.3</ele>
        <time>2019-10-05T09:05:25Z</time>
      </trkpt>
      <trkpt lat="50.88827" lon="1.67013">
        <ele>23.5</ele>
        <time>2019-10-05T09:05:30Z</time>
      </trkpt>
      <trkpt lat="50.88826" lon="1.67006">
        <ele>23.7</ele>
        <time>2019-10-05T09:05:34Z</time>
      </trkpt>
      <trkpt lat="50.88824" lon="1.66998">
        <ele>23.8</ele>
        <time>2019-10-05T09:05:39Z</time>
      </trkpt>
      <trkpt lat="50.88822" lon="1.66992">
        <ele>23.8</ele>
        <time>2019-10-05T09:05:42Z</time>
      </trkpt>
      <trkpt lat="50.88819" lon="1.66986">
        <ele>23.8</ele>
        <time>2019-10-05T09:05:45Z</time>
      </trkpt>
      <trkpt lat="50.88817" lon="1.66979">
        <ele>23.8</ele>
        <time>2019-10-05T09:05:48Z</time>
      </trkpt>
      <trkpt lat="50.88815" lon="1.66972">
        <ele>23.7</ele>
        <time>2019-10-05T09:05:51Z</time>
      </trkpt>
      <trkpt lat="50.88813" lon="1.66965">
        <ele>23.7</ele>
        <time>2019-10-05T09:05:55Z</time>
      </trkpt>
      <trkpt lat="50.8881" lon="1.66957">
        <ele>23.7</ele>
        <time>2019-10-05T09:05:59Z</time>
      </trkpt>
      <trkpt lat="50.88809" lon="1.66951">
        <ele>23.7</ele>
        <time>2019-10-05T09:06:02Z</time>
      </trkpt>
      <trkpt lat="50.88807" lon="1.66943">
        <ele>23.7</ele>
        <time>2019-10-05T09:06:07Z</time>
      </trkpt>
      <trkpt lat="50.88805" lon="1.66936">
        <ele>23.8</ele>
        <time>2019-10-05T09:06:11Z</time>
      </trkpt>
      <trkpt lat="50.88804" lon="1.66929">
        <ele>23.8</ele>
        <time>2019-10-05T09:06:15Z</time>
      </trkpt>
      <trkpt lat="50.88803" lon="1.6692">
        <ele>23.8</ele>
        <time>2019-10-05T09:06:20Z</time>
      </trkpt>
      <trkpt lat="50.88802" lon="1.66912">
        <ele>23.9</ele>
        <time>2019-10-05T09:06:25Z</time>
      </trkpt>
      <trkpt lat="50.88801" lon="1.66904">
        <ele>23.8</ele>
        <time>2019-10-05T09:06:30Z</time>
      </trkpt>
      <trkpt lat="50.88799" lon="1.66897">
        <ele>23.8</ele>
        <time>2019-10-05T09:06:34Z</time>
      </trkpt>
      <trkpt lat="50.88797" lon="1.6689">
        <ele>23.6</ele>
        <time>2019-10-05T09:06:38Z</time>
      </trkpt>
      <trkpt lat="50.88796" lon="1.66883">
        <ele>23.6</ele>
        <time>2019-10-05T09:06:43Z</time>
      </trkpt>
      <trkpt lat="50.88795" lon="1.66875">
        <ele>23.5</ele>
        <time>2019-10-05T09:06:49Z</time>
      </trkpt>
      <trkpt lat="50.88793" lon="1.66861">
        <ele>22.1</ele>
        <time>2019-10-05T09:06:57Z</time>
      </trkpt>
      <trkpt lat="50.88793" lon="1.66851">
        <ele>21.6</ele>
        <time>2019-10-05T09:07:01Z</time>
      </trkpt>
      <trkpt lat="50.88793" lon="1.66844">
        <ele>21.2</ele>
        <time>2019-10-05T09:07:04Z</time>
      </trkpt>
      <trkpt lat="50.88792" lon="1.66837">
        <ele>20.7</ele>
        <time>2019-10-05T09:07:08Z</time>
      </trkpt>
      <trkpt lat="50.88792" lon="1.66829">
        <ele>20.3</ele>
        <time>2019-10-05T09:07:12Z</time>
      </trkpt>
      <trkpt lat="50.8879" lon="1.66822">
        <ele>20.2</ele>
        <time>2019-10-05T09:07:17Z</time>
      </trkpt>
      <trkpt lat="50.8879" lon="1.66815">
        <ele>20.3</ele>
        <time>2019-10-05T09:07:23Z</time>
      </trkpt>
      <trkpt lat="50.88788" lon="1.66808">
        <ele>20.8</ele>
        <time>2019-10-05T09:08:06Z</time>
      </trkpt>
      <trkpt lat="50.88793" lon="1.66809">
        <ele>21.7</ele>
        <time>2019-10-05T09:08:41Z</time>
      </trkpt>
      <trkpt lat="50.88797" lon="1.66805">
        <ele>21.1</ele>
        <time>2019-10-05T09:09:27Z</time>
      </trkpt>
      <trkpt lat="50.88802" lon="1.66803">
        <ele>21.4</ele>
        <time>2019-10-05T09:09:44Z</time>
      </trkpt>
      <trkpt lat="50.88806" lon="1.66797">
        <ele>21.7</ele>
        <time>2019-10-05T09:09:51Z</time>
      </trkpt>
      <trkpt lat="50.88805" lon="1.66788">
        <ele>22</ele>
        <time>2019-10-05T09:09:58Z</time>
      </trkpt>
      <trkpt lat="50.88804" lon="1.66781">
        <ele>22.6</ele>
        <time>2019-10-05T09:10:04Z</time>
      </trkpt>
      <trkpt lat="50.88802" lon="1.66772">
        <ele>23</ele>
        <time>2019-10-05T09:10:08Z</time>
      </trkpt>
      <trkpt lat="50.88801" lon="1.66765">
        <ele>23.2</ele>
        <time>2019-10-05T09:10:12Z</time>
      </trkpt>
      <trkpt lat="50.888" lon="1.66757">
        <ele>23.5</ele>
        <time>2019-10-05T09:10:17Z</time>
      </trkpt>
      <trkpt lat="50.88799" lon="1.66748">
        <ele>23.8</ele>
        <time>2019-10-05T09:10:22Z</time>
      </trkpt>
      <trkpt lat="50.88798" lon="1.66741">
        <ele>24.2</ele>
        <time>2019-10-05T09:10:27Z</time>
      </trkpt>
      <trkpt lat="50.88796" lon="1.66732">
        <ele>24.5</ele>
        <time>2019-10-05T09:10:32Z</time>
      </trkpt>
      <trkpt lat="50.88795" lon="1.66725">
        <ele>24.6</ele>
        <time>2019-10-05T09:10:36Z</time>
      </trkpt>
      <trkpt lat="50.88794" lon="1.66718">
        <ele>24.8</ele>
        <time>2019-10-05T09:10:41Z</time>
      </trkpt>
      <trkpt lat="50.88793" lon="1.6671">
        <ele>25.1</ele>
        <time>2019-10-05T09:10:45Z</time>
      </trkpt>
      <trkpt lat="50.8879" lon="1.66702">
        <ele>25.3</ele>
        <time>2019-10-05T09:10:50Z</time>
      </trkpt>
      <trkpt lat="50.88789" lon="1.66694">
        <ele>25.5</ele>
        <time>2019-10-05T09:10:55Z</time>
      </trkpt>
      <trkpt lat="50.88789" lon="1.66686">
        <ele>25.6</ele>
        <time>2019-10-05T09:10:59Z</time>
      </trkpt>
      <trkpt lat="50.88788" lon="1.66677">
        <ele>25.6</ele>
        <time>2019-10-05T09:11:04Z</time>
      </trkpt>
      <trkpt lat="50.88788" lon="1.66669">
        <ele>25.7</ele>
        <time>2019-10-05T09:11:10Z</time>
      </trkpt>
      <trkpt lat="50.88786" lon="1.66662">
        <ele>25.6</ele>
        <time>2019-10-05T09:11:17Z</time>
      </trkpt>
      <trkpt lat="50.88784" lon="1.66655">
        <ele>25.6</ele>
        <time>2019-10-05T09:11:21Z</time>
      </trkpt>
      <trkpt lat="50.88783" lon="1.66647">
        <ele>25.7</ele>
        <time>2019-10-05T09:11:28Z</time>
      </trkpt>
      <trkpt lat="50.88782" lon="1.6664">
        <ele>25.7</ele>
        <time>2019-10-05T09:11:38Z</time>
      </trkpt>
      <trkpt lat="50.88781" lon="1.66632">
        <ele>25.8</ele>
        <time>2019-10-05T09:11:45Z</time>
      </trkpt>
      <trkpt lat="50.88779" lon="1.66623">
        <ele>25.8</ele>
        <time>2019-10-05T09:11:49Z</time>
      </trkpt>
      <trkpt lat="50.88777" lon="1.66615">
        <ele>25.7</ele>
        <time>2019-10-05T09:11:52Z</time>
      </trkpt>
      <trkpt lat="50.88775" lon="1.66609">
        <ele>25.6</ele>
        <time>2019-10-05T09:11:55Z</time>
      </trkpt>
      <trkpt lat="50.88774" lon="1.66602">
        <ele>25.5</ele>
        <time>2019-10-05T09:11:59Z</time>
      </trkpt>
      <trkpt lat="50.88774" lon="1.66592">
        <ele>25.5</ele>
        <time>2019-10-05T09:12:03Z</time>
      </trkpt>
      <trkpt lat="50.88776" lon="1.66586">
        <ele>25.4</ele>
        <time>2019-10-05T09:12:07Z</time>
      </trkpt>
      <trkpt lat="50.88781" lon="1.66582">
        <ele>25.3</ele>
        <time>2019-10-05T09:12:11Z</time>
      </trkpt>
      <trkpt lat="50.88785" lon="1.66578">
        <ele>25</ele>
        <time>2019-10-05T09:12:17Z</time>
      </trkpt>
      <trkpt lat="50.88789" lon="1.66573">
        <ele>24.9</ele>
        <time>2019-10-05T09:12:21Z</time>
      </trkpt>
      <trkpt lat="50.88792" lon="1.66567">
        <ele>24.8</ele>
        <time>2019-10-05T09:12:26Z</time>
      </trkpt>
      <trkpt lat="50.88795" lon="1.66561">
        <ele>24.8</ele>
        <time>2019-10-05T09:12:34Z</time>
      </trkpt>
      <trkpt lat="50.88797" lon="1.66555">
        <ele>25.1</ele>
        <time>2019-10-05T09:12:39Z</time>
      </trkpt>
      <trkpt lat="50.888" lon="1.66548">
        <ele>25.4</ele>
        <time>2019-10-05T09:12:44Z</time>
      </trkpt>
      <trkpt lat="50.88803" lon="1.66542">
        <ele>25.6</ele>
        <time>2019-10-05T09:12:48Z</time>
      </trkpt>
      <trkpt lat="50.88807" lon="1.66536">
        <ele>25.9</ele>
        <time>2019-10-05T09:12:53Z</time>
      </trkpt>
      <trkpt lat="50.88808" lon="1.66527">
        <ele>26.2</ele>
        <time>2019-10-05T09:12:58Z</time>
      </trkpt>
      <trkpt lat="50.88808" lon="1.66519">
        <ele>26.6</ele>
        <time>2019-10-05T09:13:03Z</time>
      </trkpt>
      <trkpt lat="50.88808" lon="1.66511">
        <ele>27</ele>
        <time>2019-10-05T09:13:08Z</time>
      </trkpt>
      <trkpt lat="50.88807" lon="1.66503">
        <ele>27.4</ele>
        <time>2019-10-05T09:13:13Z</time>
      </trkpt>
      <trkpt lat="50.88806" lon="1.66496">
        <ele>27.8</ele>
        <time>2019-10-05T09:13:18Z</time>
      </trkpt>
      <trkpt lat="50.88806" lon="1.66489">
        <ele>28.2</ele>
        <time>2019-10-05T09:13:24Z</time>
      </trkpt>
      <trkpt lat="50.88806" lon="1.66481">
        <ele>27.2</ele>
        <time>2019-10-05T09:13:43Z</time>
      </trkpt>
      <trkpt lat="50.88808" lon="1.66474">
        <ele>27.2</ele>
        <time>2019-10-05T09:14:05Z</time>
      </trkpt>
      <trkpt lat="50.88807" lon="1.66467">
        <ele>27.6</ele>
        <time>2019-10-05T09:14:18Z</time>
      </trkpt>
      <trkpt lat="50.88805" lon="1.66461">
        <ele>27.8</ele>
        <time>2019-10-05T09:14:27Z</time>
      </trkpt>
      <trkpt lat="50.88802" lon="1.66455">
        <ele>27.8</ele>
        <time>2019-10-05T09:14:31Z</time>
      </trkpt>
      <trkpt lat="50.88799" lon="1.66448">
        <ele>27.8</ele>
        <time>2019-10-05T09:14:36Z</time>
      </trkpt>
      <trkpt lat="50.88796" lon="1.66439">
        <ele>27.8</ele>
        <time>2019-10-05T09:14:40Z</time>
      </trkpt>
      <trkpt lat="50.88794" lon="1.66433">
        <ele>27.9</ele>
        <time>2019-10-05T09:14:43Z</time>
      </trkpt>
      <trkpt lat="50.8879" lon="1.66427">
        <ele>28</ele>
        <time>2019-10-05T09:14:48Z</time>
      </trkpt>
      <trkpt lat="50.88787" lon="1.66421">
        <ele>28</ele>
        <time>2019-10-05T09:14:52Z</time>
      </trkpt>
      <trkpt lat="50.88785" lon="1.66413">
        <ele>28.1</ele>
        <time>2019-10-05T09:14:57Z</time>
      </trkpt>
      <trkpt lat="50.88783" lon="1.66405">
        <ele>28.3</ele>
        <time>2019-10-05T09:15:01Z</time>
      </trkpt>
      <trkpt lat="50.88782" lon="1.66396">
        <ele>28.4</ele>
        <time>2019-10-05T09:15:06Z</time>
      </trkpt>
      <trkpt lat="50.88781" lon="1.6639">
        <ele>28.4</ele>
        <time>2019-10-05T09:15:10Z</time>
      </trkpt>
      <trkpt lat="50.88779" lon="1.66382">
        <ele>28.3</ele>
        <time>2019-10-05T09:15:14Z</time>
      </trkpt>
      <trkpt lat="50.88777" lon="1.66375">
        <ele>28.3</ele>
        <time>2019-10-05T09:15:18Z</time>
      </trkpt>
      <trkpt lat="50.88774" lon="1.66368">
        <ele>28.2</ele>
        <time>2019-10-05T09:15:23Z</time>
      </trkpt>
      <trkpt lat="50.88772" lon="1.66361">
        <ele>28.1</ele>
        <time>2019-10-05T09:15:27Z</time>
      </trkpt>
      <trkpt lat="50.88769" lon="1.66354">
        <ele>28.1</ele>
        <time>2019-10-05T09:15:33Z</time>
      </trkpt>
      <trkpt lat="50.88768" lon="1.66347">
        <ele>28.2</ele>
        <time>2019-10-05T09:15:38Z</time>
      </trkpt>
      <trkpt lat="50.88767" lon="1.66339">
        <ele>28.1</ele>
        <time>2019-10-05T09:15:43Z</time>
      </trkpt>
      <trkpt lat="50.88765" lon="1.66332">
        <ele>28</ele>
        <time>2019-10-05T09:15:48Z</time>
      </trkpt>
      <trkpt lat="50.88764" lon="1.66324">
        <ele>28</ele>
        <time>2019-10-05T09:15:52Z</time>
      </trkpt>
      <trkpt lat="50.88762" lon="1.66316">
        <ele>27.7</ele>
        <time>2019-10-05T09:15:57Z</time>
      </trkpt>
      <trkpt lat="50.8876" lon="1.66309">
        <ele>26.6</ele>
        <time>2019-10-05T09:16:06Z</time>
      </trkpt>
      <trkpt lat="50.88757" lon="1.66303">
        <ele>25.7</ele>
        <time>2019-10-05T09:16:12Z</time>
      </trkpt>
      <trkpt lat="50.88754" lon="1.66297">
        <ele>25.2</ele>
        <time>2019-10-05T09:16:16Z</time>
      </trkpt>
      <trkpt lat="50.8875" lon="1.66291">
        <ele>24.6</ele>
        <time>2019-10-05T09:16:21Z</time>
      </trkpt>
      <trkpt lat="50.88745" lon="1.66285">
        <ele>24.2</ele>
        <time>2019-10-05T09:16:25Z</time>
      </trkpt>
      <trkpt lat="50.88742" lon="1.6628">
        <ele>23.4</ele>
        <time>2019-10-05T09:16:35Z</time>
      </trkpt>
      <trkpt lat="50.88737" lon="1.6628">
        <ele>20.7</ele>
        <time>2019-10-05T09:17:05Z</time>
      </trkpt>
      <trkpt lat="50.88732" lon="1.6628">
        <ele>20</ele>
        <time>2019-10-05T09:17:16Z</time>
      </trkpt>
      <trkpt lat="50.88727" lon="1.66283">
        <ele>19.8</ele>
        <time>2019-10-05T09:17:23Z</time>
      </trkpt>
      <trkpt lat="50.88722" lon="1.66287">
        <ele>19.7</ele>
        <time>2019-10-05T09:17:28Z</time>
      </trkpt>
      <trkpt lat="50.88719" lon="1.66292">
        <ele>19.6</ele>
        <time>2019-10-05T09:17:37Z</time>
      </trkpt>
      <trkpt lat="50.88715" lon="1.66295">
        <ele>19.4</ele>
        <time>2019-10-05T09:17:49Z</time>
      </trkpt>
      <trkpt lat="50.88711" lon="1.66298">
        <ele>18.9</ele>
        <time>2019-10-05T09:18:03Z</time>
      </trkpt>
      <trkpt lat="50.88705" lon="1.66297">
        <ele>18.2</ele>
        <time>2019-10-05T09:20:10Z</time>
      </trkpt>
      <trkpt lat="50.88701" lon="1.66296">
        <ele>17.7</ele>
        <time>2019-10-05T09:20:16Z</time>
      </trkpt>
      <trkpt lat="50.88696" lon="1.66299">
        <ele>17.1</ele>
        <time>2019-10-05T09:20:24Z</time>
      </trkpt>
      <trkpt lat="50.88692" lon="1.66296">
        <ele>15.1</ele>
        <time>2019-10-05T09:20:55Z</time>
      </trkpt>
      <trkpt lat="50.88688" lon="1.6629">
        <ele>14.8</ele>
        <time>2019-10-05T09:21:02Z</time>
      </trkpt>
      <trkpt lat="50.88687" lon="1.66283">
        <ele>14.7</ele>
        <time>2019-10-05T09:21:11Z</time>
      </trkpt>
      <trkpt lat="50.88687" lon="1.66275">
        <ele>15</ele>
        <time>2019-10-05T09:21:16Z</time>
      </trkpt>
      <trkpt lat="50.88685" lon="1.66268">
        <ele>15.2</ele>
        <time>2019-10-05T09:21:21Z</time>
      </trkpt>
      <trkpt lat="50.88685" lon="1.6626">
        <ele>15.6</ele>
        <time>2019-10-05T09:21:27Z</time>
      </trkpt>
      <trkpt lat="50.88686" lon="1.66252">
        <ele>15.6</ele>
        <time>2019-10-05T09:21:31Z</time>
      </trkpt>
      <trkpt lat="50.88686" lon="1.66244">
        <ele>15.5</ele>
        <time>2019-10-05T09:21:35Z</time>
      </trkpt>
      <trkpt lat="50.88688" lon="1.66238">
        <ele>15.1</ele>
        <time>2019-10-05T09:21:40Z</time>
      </trkpt>
      <trkpt lat="50.88691" lon="1.66232">
        <ele>14.6</ele>
        <time>2019-10-05T09:21:44Z</time>
      </trkpt>
      <trkpt lat="50.88695" lon="1.66227">
        <ele>13.9</ele>
        <time>2019-10-05T09:21:49Z</time>
      </trkpt>
      <trkpt lat="50.887" lon="1.66225">
        <ele>13.4</ele>
        <time>2019-10-05T09:21:52Z</time>
      </trkpt>
      <trkpt lat="50.88712" lon="1.66207">
        <ele>11.8</ele>
        <time>2019-10-05T09:22:06Z</time>
      </trkpt>
      <trkpt lat="50.88716" lon="1.66201">
        <ele>11.5</ele>
        <time>2019-10-05T09:22:11Z</time>
      </trkpt>
      <trkpt lat="50.8872" lon="1.66195">
        <ele>11.1</ele>
        <time>2019-10-05T09:22:16Z</time>
      </trkpt>
      <trkpt lat="50.88723" lon="1.6619">
        <ele>10.8</ele>
        <time>2019-10-05T09:22:20Z</time>
      </trkpt>
      <trkpt lat="50.88725" lon="1.66183">
        <ele>10.5</ele>
        <time>2019-10-05T09:22:23Z</time>
      </trkpt>
      <trkpt lat="50.88727" lon="1.66177">
        <ele>10.2</ele>
        <time>2019-10-05T09:22:27Z</time>
      </trkpt>
      <trkpt lat="50.88731" lon="1.66172">
        <ele>9.9</ele>
        <time>2019-10-05T09:22:32Z</time>
      </trkpt>
      <trkpt lat="50.88735" lon="1.66166">
        <ele>9.7</ele>
        <time>2019-10-05T09:22:37Z</time>
      </trkpt>
      <trkpt lat="50.88738" lon="1.66161">
        <ele>9.6</ele>
        <time>2019-10-05T09:22:40Z</time>
      </trkpt>
      <trkpt lat="50.88742" lon="1.66156">
        <ele>9.4</ele>
        <time>2019-10-05T09:22:44Z</time>
      </trkpt>
      <trkpt lat="50.88746" lon="1.66151">
        <ele>9.3</ele>
        <time>2019-10-05T09:22:50Z</time>
      </trkpt>
      <trkpt lat="50.88749" lon="1.66144">
        <ele>9.1</ele>
        <time>2019-10-05T09:22:55Z</time>
      </trkpt>
      <trkpt lat="50.88751" lon="1.66137">
        <ele>8.9</ele>
        <time>2019-10-05T09:23:00Z</time>
      </trkpt>
      <trkpt lat="50.88754" lon="1.66131">
        <ele>8.7</ele>
        <time>2019-10-05T09:23:05Z</time>
      </trkpt>
      <trkpt lat="50.88759" lon="1.66129">
        <ele>7.4</ele>
        <time>2019-10-05T09:23:25Z</time>
      </trkpt>
      <trkpt lat="50.88761" lon="1.66122">
        <ele>7.4</ele>
        <time>2019-10-05T09:23:44Z</time>
      </trkpt>
      <trkpt lat="50.8876" lon="1.66114">
        <ele>7</ele>
        <time>2019-10-05T09:23:53Z</time>
      </trkpt>
      <trkpt lat="50.88761" lon="1.66107">
        <ele>6.9</ele>
        <time>2019-10-05T09:23:58Z</time>
      </trkpt>
      <trkpt lat="50.88762" lon="1.661">
        <ele>6.8</ele>
        <time>2019-10-05T09:24:08Z</time>
      </trkpt>
      <trkpt lat="50.88767" lon="1.66096">
        <ele>6.8</ele>
        <time>2019-10-05T09:24:12Z</time>
      </trkpt>
      <trkpt lat="50.8877" lon="1.66092">
        <ele>6.8</ele>
        <time>2019-10-05T09:24:17Z</time>
      </trkpt>
      <trkpt lat="50.88775" lon="1.66089">
        <ele>6.6</ele>
        <time>2019-10-05T09:24:24Z</time>
      </trkpt>
      <trkpt lat="50.8878" lon="1.66088">
        <ele>5.8</ele>
        <time>2019-10-05T09:24:36Z</time>
      </trkpt>
      <trkpt lat="50.88782" lon="1.66083">
        <ele>5.5</ele>
        <time>2019-10-05T09:24:59Z</time>
      </trkpt>
      <trkpt lat="50.88787" lon="1.6608">
        <ele>5.4</ele>
        <time>2019-10-05T09:26:08Z</time>
      </trkpt>
      <trkpt lat="50.88792" lon="1.6608">
        <ele>5.2</ele>
        <time>2019-10-05T09:26:12Z</time>
      </trkpt>
      <trkpt lat="50.88796" lon="1.66082">
        <ele>5.1</ele>
        <time>2019-10-05T09:26:16Z</time>
      </trkpt>
      <trkpt lat="50.88801" lon="1.66082">
        <ele>4.8</ele>
        <time>2019-10-05T09:26:23Z</time>
      </trkpt>
      <trkpt lat="50.88796" lon="1.66082">
        <ele>4.9</ele>
        <time>2019-10-05T09:28:59Z</time>
      </trkpt>
      <trkpt lat="50.88791" lon="1.66083">
        <ele>4.5</ele>
        <time>2019-10-05T09:29:04Z</time>
      </trkpt>
      <trkpt lat="50.88786" lon="1.66084">
        <ele>4.1</ele>
        <time>2019-10-05T09:29:11Z</time>
      </trkpt>
      <trkpt lat="50.88781" lon="1.66084">
        <ele>3.5</ele>
        <time>2019-10-05T09:29:25Z</time>
      </trkpt>
      <trkpt lat="50.88777" lon="1.6608">
        <ele>2.9</ele>
        <time>2019-10-05T09:29:37Z</time>
      </trkpt>
      <trkpt lat="50.8878" lon="1.66085">
        <ele>5.9</ele>
        <time>2019-10-05T09:30:20Z</time>
      </trkpt>
      <trkpt lat="50.88776" lon="1.66087">
        <ele>5.5</ele>
        <time>2019-10-05T09:30:49Z</time>
      </trkpt>
      <trkpt lat="50.88772" lon="1.66081">
        <ele>5.7</ele>
        <time>2019-10-05T09:32:22Z</time>
      </trkpt>
      <trkpt lat="50.8877" lon="1.66074">
        <ele>6</ele>
        <time>2019-10-05T09:32:28Z</time>
      </trkpt>
      <trkpt lat="50.88768" lon="1.66068">
        <ele>6.4</ele>
        <time>2019-10-05T09:32:35Z</time>
      </trkpt>
      <trkpt lat="50.88767" lon="1.66059">
        <ele>6.5</ele>
        <time>2019-10-05T09:32:41Z</time>
      </trkpt>
      <trkpt lat="50.88766" lon="1.66052">
        <ele>6.4</ele>
        <time>2019-10-05T09:32:48Z</time>
      </trkpt>
      <trkpt lat="50.88762" lon="1.66046">
        <ele>6.2</ele>
        <time>2019-10-05T09:32:53Z</time>
      </trkpt>
      <trkpt lat="50.88759" lon="1.6604">
        <ele>6.2</ele>
        <time>2019-10-05T09:32:58Z</time>
      </trkpt>
      <trkpt lat="50.88757" lon="1.66034">
        <ele>6.2</ele>
        <time>2019-10-05T09:33:03Z</time>
      </trkpt>
      <trkpt lat="50.88754" lon="1.66028">
        <ele>6.4</ele>
        <time>2019-10-05T09:33:09Z</time>
      </trkpt>
      <trkpt lat="50.88751" lon="1.66022">
        <ele>6.4</ele>
        <time>2019-10-05T09:33:15Z</time>
      </trkpt>
      <trkpt lat="50.88749" lon="1.66014">
        <ele>6.5</ele>
        <time>2019-10-05T09:33:20Z</time>
      </trkpt>
      <trkpt lat="50.88746" lon="1.66007">
        <ele>6.6</ele>
        <time>2019-10-05T09:33:25Z</time>
      </trkpt>
      <trkpt lat="50.88744" lon="1.66001">
        <ele>7</ele>
        <time>2019-10-05T09:33:30Z</time>
      </trkpt>
      <trkpt lat="50.88742" lon="1.65994">
        <ele>7.3</ele>
        <time>2019-10-05T09:33:34Z</time>
      </trkpt>
      <trkpt lat="50.88739" lon="1.65988">
        <ele>7.7</ele>
        <time>2019-10-05T09:33:38Z</time>
      </trkpt>
      <trkpt lat="50.88738" lon="1.65981">
        <ele>8.2</ele>
        <time>2019-10-05T09:33:44Z</time>
      </trkpt>
      <trkpt lat="50.88742" lon="1.65975">
        <ele>8.7</ele>
        <time>2019-10-05T09:33:49Z</time>
      </trkpt>
      <trkpt lat="50.88746" lon="1.6597">
        <ele>9</ele>
        <time>2019-10-05T09:33:53Z</time>
      </trkpt>
      <trkpt lat="50.88751" lon="1.65965">
        <ele>9</ele>
        <time>2019-10-05T09:33:57Z</time>
      </trkpt>
      <trkpt lat="50.88756" lon="1.65966">
        <ele>8.9</ele>
        <time>2019-10-05T09:34:06Z</time>
      </trkpt>
      <trkpt lat="50.88755" lon="1.65958">
        <ele>9.2</ele>
        <time>2019-10-05T09:34:29Z</time>
      </trkpt>
      <trkpt lat="50.88753" lon="1.65952">
        <ele>9.1</ele>
        <time>2019-10-05T09:34:32Z</time>
      </trkpt>
      <trkpt lat="50.88749" lon="1.65946">
        <ele>9.1</ele>
        <time>2019-10-05T09:34:36Z</time>
      </trkpt>
      <trkpt lat="50.88747" lon="1.65939">
        <ele>9.1</ele>
        <time>2019-10-05T09:34:40Z</time>
      </trkpt>
      <trkpt lat="50.88744" lon="1.65932">
        <ele>8.9</ele>
        <time>2019-10-05T09:34:45Z</time>
      </trkpt>
      <trkpt lat="50.8874" lon="1.65926">
        <ele>8.5</ele>
        <time>2019-10-05T09:34:49Z</time>
      </trkpt>
      <trkpt lat="50.88738" lon="1.6592">
        <ele>8.1</ele>
        <time>2019-10-05T09:34:56Z</time>
      </trkpt>
      <trkpt lat="50.88735" lon="1.65912">
        <ele>8</ele>
        <time>2019-10-05T09:35:01Z</time>
      </trkpt>
      <trkpt lat="50.88732" lon="1.65906">
        <ele>8</ele>
        <time>2019-10-05T09:35:05Z</time>
      </trkpt>
      <trkpt lat="50.88729" lon="1.65901">
        <ele>8.2</ele>
        <time>2019-10-05T09:35:10Z</time>
      </trkpt>
      <trkpt lat="50.88726" lon="1.65894">
        <ele>8.4</ele>
        <time>2019-10-05T09:35:17Z</time>
      </trkpt>
      <trkpt lat="50.88725" lon="1.65887">
        <ele>8.7</ele>
        <time>2019-10-05T09:35:21Z</time>
      </trkpt>
      <trkpt lat="50.88722" lon="1.65882">
        <ele>9.2</ele>
        <time>2019-10-05T09:35:27Z</time>
      </trkpt>
      <trkpt lat="50.88723" lon="1.65875">
        <ele>9.8</ele>
        <time>2019-10-05T09:35:39Z</time>
      </trkpt>
      <trkpt lat="50.88728" lon="1.65874">
        <ele>9.7</ele>
        <time>2019-10-05T09:35:46Z</time>
      </trkpt>
      <trkpt lat="50.88732" lon="1.65875">
        <ele>9.5</ele>
        <time>2019-10-05T09:36:01Z</time>
      </trkpt>
      <trkpt lat="50.88732" lon="1.65883">
        <ele>8.9</ele>
        <time>2019-10-05T09:36:09Z</time>
      </trkpt>
      <trkpt lat="50.88733" lon="1.65891">
        <ele>8.5</ele>
        <time>2019-10-05T09:36:15Z</time>
      </trkpt>
      <trkpt lat="50.88737" lon="1.65896">
        <ele>8.3</ele>
        <time>2019-10-05T09:36:22Z</time>
      </trkpt>
      <trkpt lat="50.88731" lon="1.65896">
        <ele>7.7</ele>
        <time>2019-10-05T09:36:35Z</time>
      </trkpt>
      <trkpt lat="50.88731" lon="1.65888">
        <ele>7.1</ele>
        <time>2019-10-05T09:37:21Z</time>
      </trkpt>
      <trkpt lat="50.88735" lon="1.65884">
        <ele>7.5</ele>
        <time>2019-10-05T09:37:28Z</time>
      </trkpt>
      <trkpt lat="50.88739" lon="1.65885">
        <ele>7.7</ele>
        <time>2019-10-05T09:37:40Z</time>
      </trkpt>
      <trkpt lat="50.88735" lon="1.65885">
        <ele>8</ele>
        <time>2019-10-05T09:38:25Z</time>
      </trkpt>
      <trkpt lat="50.8873" lon="1.65883">
        <ele>10.7</ele>
        <time>2019-10-05T09:38:50Z</time>
      </trkpt>
      <trkpt lat="50.88728" lon="1.65876">
        <ele>9.7</ele>
        <time>2019-10-05T09:39:10Z</time>
      </trkpt>
      <trkpt lat="50.88724" lon="1.6587">
        <ele>7.8</ele>
        <time>2019-10-05T09:40:01Z</time>
      </trkpt>
      <trkpt lat="50.88721" lon="1.65864">
        <ele>7.8</ele>
        <time>2019-10-05T09:40:05Z</time>
      </trkpt>
      <trkpt lat="50.88718" lon="1.65858">
        <ele>7.7</ele>
        <time>2019-10-05T09:40:12Z</time>
      </trkpt>
      <trkpt lat="50.88715" lon="1.65851">
        <ele>7.6</ele>
        <time>2019-10-05T09:40:17Z</time>
      </trkpt>
      <trkpt lat="50.88712" lon="1.65844">
        <ele>7.2</ele>
        <time>2019-10-05T09:40:24Z</time>
      </trkpt>
      <trkpt lat="50.88709" lon="1.65836">
        <ele>7.1</ele>
        <time>2019-10-05T09:40:29Z</time>
      </trkpt>
      <trkpt lat="50.88707" lon="1.6583">
        <ele>7.1</ele>
        <time>2019-10-05T09:40:34Z</time>
      </trkpt>
      <trkpt lat="50.88704" lon="1.65823">
        <ele>7.3</ele>
        <time>2019-10-05T09:40:39Z</time>
      </trkpt>
      <trkpt lat="50.887" lon="1.65817">
        <ele>7.5</ele>
        <time>2019-10-05T09:40:44Z</time>
      </trkpt>
      <trkpt lat="50.88698" lon="1.6581">
        <ele>7.6</ele>
        <time>2019-10-05T09:40:50Z</time>
      </trkpt>
      <trkpt lat="50.88694" lon="1.65804">
        <ele>7.8</ele>
        <time>2019-10-05T09:40:56Z</time>
      </trkpt>
      <trkpt lat="50.88691" lon="1.65798">
        <ele>8</ele>
        <time>2019-10-05T09:41:00Z</time>
      </trkpt>
      <trkpt lat="50.88688" lon="1.65791">
        <ele>8.2</ele>
        <time>2019-10-05T09:41:06Z</time>
      </trkpt>
      <trkpt lat="50.88685" lon="1.65785">
        <ele>8.2</ele>
        <time>2019-10-05T09:41:12Z</time>
      </trkpt>
      <trkpt lat="50.88682" lon="1.65779">
        <ele>8</ele>
        <time>2019-10-05T09:41:16Z</time>
      </trkpt>
      <trkpt lat="50.88678" lon="1.65773">
        <ele>7.7</ele>
        <time>2019-10-05T09:41:21Z</time>
      </trkpt>
      <trkpt lat="50.88675" lon="1.65767">
        <ele>7.4</ele>
        <time>2019-10-05T09:41:27Z</time>
      </trkpt>
      <trkpt lat="50.88672" lon="1.65761">
        <ele>7.1</ele>
        <time>2019-10-05T09:41:32Z</time>
      </trkpt>
      <trkpt lat="50.88669" lon="1.65754">
        <ele>7</ele>
        <time>2019-10-05T09:41:37Z</time>
      </trkpt>
      <trkpt lat="50.88665" lon="1.65749">
        <ele>7</ele>
        <time>2019-10-05T09:41:41Z</time>
      </trkpt>
      <trkpt lat="50.88662" lon="1.65742">
        <ele>7.1</ele>
        <time>2019-10-05T09:41:46Z</time>
      </trkpt>
      <trkpt lat="50.88658" lon="1.65735">
        <ele>7.1</ele>
        <time>2019-10-05T09:41:51Z</time>
      </trkpt>
      <trkpt lat="50.88655" lon="1.6573">
        <ele>7.2</ele>
        <time>2019-10-05T09:41:56Z</time>
      </trkpt>
      <trkpt lat="50.88652" lon="1.65723">
        <ele>7.2</ele>
        <time>2019-10-05T09:42:02Z</time>
      </trkpt>
      <trkpt lat="50.88648" lon="1.65716">
        <ele>7.3</ele>
        <time>2019-10-05T09:42:07Z</time>
      </trkpt>
      <trkpt lat="50.88646" lon="1.65709">
        <ele>7.4</ele>
        <time>2019-10-05T09:42:12Z</time>
      </trkpt>
      <trkpt lat="50.88643" lon="1.65703">
        <ele>7.5</ele>
        <time>2019-10-05T09:42:17Z</time>
      </trkpt>
      <trkpt lat="50.88639" lon="1.65697">
        <ele>7.7</ele>
        <time>2019-10-05T09:42:22Z</time>
      </trkpt>
      <trkpt lat="50.88635" lon="1.65691">
        <ele>7.8</ele>
        <time>2019-10-05T09:42:27Z</time>
      </trkpt>
      <trkpt lat="50.88631" lon="1.65686">
        <ele>7.8</ele>
        <time>2019-10-05T09:42:32Z</time>
      </trkpt>
      <trkpt lat="50.88628" lon="1.65679">
        <ele>7.7</ele>
        <time>2019-10-05T09:42:37Z</time>
      </trkpt>
      <trkpt lat="50.88626" lon="1.65672">
        <ele>7.7</ele>
        <time>2019-10-05T09:42:41Z</time>
      </trkpt>
      <trkpt lat="50.88623" lon="1.65665">
        <ele>7.6</ele>
        <time>2019-10-05T09:42:45Z</time>
      </trkpt>
      <trkpt lat="50.88621" lon="1.65659">
        <ele>7.5</ele>
        <time>2019-10-05T09:42:49Z</time>
      </trkpt>
      <trkpt lat="50.88618" lon="1.65654">
        <ele>7.4</ele>
        <time>2019-10-05T09:42:54Z</time>
      </trkpt>
      <trkpt lat="50.88614" lon="1.65647">
        <ele>7.4</ele>
        <time>2019-10-05T09:42:59Z</time>
      </trkpt>
      <trkpt lat="50.88611" lon="1.65642">
        <ele>7.6</ele>
        <time>2019-10-05T09:43:03Z</time>
      </trkpt>
      <trkpt lat="50.88608" lon="1.65636">
        <ele>7.7</ele>
        <time>2019-10-05T09:43:08Z</time>
      </trkpt>
      <trkpt lat="50.88605" lon="1.65629">
        <ele>7.7</ele>
        <time>2019-10-05T09:43:13Z</time>
      </trkpt>
      <trkpt lat="50.88602" lon="1.65622">
        <ele>7.7</ele>
        <time>2019-10-05T09:43:18Z</time>
      </trkpt>
      <trkpt lat="50.88598" lon="1.65616">
        <ele>7.7</ele>
        <time>2019-10-05T09:43:23Z</time>
      </trkpt>
      <trkpt lat="50.88594" lon="1.6561">
        <ele>7.6</ele>
        <time>2019-10-05T09:43:28Z</time>
      </trkpt>
      <trkpt lat="50.88591" lon="1.65603">
        <ele>7.4</ele>
        <time>2019-10-05T09:43:33Z</time>
      </trkpt>
      <trkpt lat="50.88588" lon="1.65597">
        <ele>7.2</ele>
        <time>2019-10-05T09:43:37Z</time>
      </trkpt>
      <trkpt lat="50.88584" lon="1.6559">
        <ele>7</ele>
        <time>2019-10-05T09:43:42Z</time>
      </trkpt>
      <trkpt lat="50.88582" lon="1.65584">
        <ele>7.1</ele>
        <time>2019-10-05T09:43:47Z</time>
      </trkpt>
      <trkpt lat="50.88579" lon="1.65577">
        <ele>7.3</ele>
        <time>2019-10-05T09:43:53Z</time>
      </trkpt>
      <trkpt lat="50.88576" lon="1.65572">
        <ele>7.5</ele>
        <time>2019-10-05T09:43:57Z</time>
      </trkpt>
      <trkpt lat="50.88572" lon="1.65567">
        <ele>7.8</ele>
        <time>2019-10-05T09:44:02Z</time>
      </trkpt>
      <trkpt lat="50.88568" lon="1.65561">
        <ele>7.7</ele>
        <time>2019-10-05T09:44:08Z</time>
      </trkpt>
      <trkpt lat="50.88565" lon="1.65555">
        <ele>7.6</ele>
        <time>2019-10-05T09:44:13Z</time>
      </trkpt>
      <trkpt lat="50.88562" lon="1.65548">
        <ele>7.4</ele>
        <time>2019-10-05T09:44:18Z</time>
      </trkpt>
      <trkpt lat="50.8856" lon="1.65542">
        <ele>7.1</ele>
        <time>2019-10-05T09:44:23Z</time>
      </trkpt>
      <trkpt lat="50.88556" lon="1.65536">
        <ele>6.8</ele>
        <time>2019-10-05T09:44:28Z</time>
      </trkpt>
      <trkpt lat="50.88553" lon="1.6553">
        <ele>6.6</ele>
        <time>2019-10-05T09:44:32Z</time>
      </trkpt>
      <trkpt lat="50.8855" lon="1.65523">
        <ele>6.3</ele>
        <time>2019-10-05T09:44:37Z</time>
      </trkpt>
      <trkpt lat="50.88548" lon="1.65516">
        <ele>6.2</ele>
        <time>2019-10-05T09:44:41Z</time>
      </trkpt>
      <trkpt lat="50.88546" lon="1.65509">
        <ele>6.2</ele>
        <time>2019-10-05T09:44:46Z</time>
      </trkpt>
      <trkpt lat="50.88542" lon="1.65503">
        <ele>6.5</ele>
        <time>2019-10-05T09:44:51Z</time>
      </trkpt>
      <trkpt lat="50.88538" lon="1.65498">
        <ele>6.7</ele>
        <time>2019-10-05T09:44:55Z</time>
      </trkpt>
      <trkpt lat="50.88536" lon="1.65491">
        <ele>6.8</ele>
        <time>2019-10-05T09:45:00Z</time>
      </trkpt>
      <trkpt lat="50.88532" lon="1.65484">
        <ele>6.8</ele>
        <time>2019-10-05T09:45:04Z</time>
      </trkpt>
      <trkpt lat="50.88529" lon="1.65478">
        <ele>6.7</ele>
        <time>2019-10-05T09:45:09Z</time>
      </trkpt>
      <trkpt lat="50.88527" lon="1.65471">
        <ele>6.6</ele>
        <time>2019-10-05T09:45:13Z</time>
      </trkpt>
      <trkpt lat="50.88524" lon="1.65464">
        <ele>6.6</ele>
        <time>2019-10-05T09:45:18Z</time>
      </trkpt>
      <trkpt lat="50.88521" lon="1.65458">
        <ele>6.4</ele>
        <time>2019-10-05T09:45:24Z</time>
      </trkpt>
      <trkpt lat="50.88517" lon="1.65451">
        <ele>6.2</ele>
        <time>2019-10-05T09:45:30Z</time>
      </trkpt>
      <trkpt lat="50.88513" lon="1.65444">
        <ele>6</ele>
        <time>2019-10-05T09:45:34Z</time>
      </trkpt>
      <trkpt lat="50.8851" lon="1.65439">
        <ele>6</ele>
        <time>2019-10-05T09:45:37Z</time>
      </trkpt>
      <trkpt lat="50.88506" lon="1.65433">
        <ele>6.1</ele>
        <time>2019-10-05T09:45:43Z</time>
      </trkpt>
      <trkpt lat="50.88503" lon="1.65428">
        <ele>6.1</ele>
        <time>2019-10-05T09:45:47Z</time>
      </trkpt>
      <trkpt lat="50.88499" lon="1.65423">
        <ele>6</ele>
        <time>2019-10-05T09:45:51Z</time>
      </trkpt>
      <trkpt lat="50.88496" lon="1.65416">
        <ele>5.8</ele>
        <time>2019-10-05T09:45:55Z</time>
      </trkpt>
      <trkpt lat="50.88494" lon="1.65409">
        <ele>5.8</ele>
        <time>2019-10-05T09:46:01Z</time>
      </trkpt>
      <trkpt lat="50.8849" lon="1.65403">
        <ele>6</ele>
        <time>2019-10-05T09:46:06Z</time>
      </trkpt>
      <trkpt lat="50.88486" lon="1.65397">
        <ele>6</ele>
        <time>2019-10-05T09:46:10Z</time>
      </trkpt>
      <trkpt lat="50.88483" lon="1.65393">
        <ele>6</ele>
        <time>2019-10-05T09:46:14Z</time>
      </trkpt>
      <trkpt lat="50.88479" lon="1.65386">
        <ele>5.9</ele>
        <time>2019-10-05T09:46:19Z</time>
      </trkpt>
      <trkpt lat="50.88475" lon="1.65381">
        <ele>5.9</ele>
        <time>2019-10-05T09:46:23Z</time>
      </trkpt>
      <trkpt lat="50.88472" lon="1.65374">
        <ele>5.9</ele>
        <time>2019-10-05T09:46:28Z</time>
      </trkpt>
      <trkpt lat="50.8847" lon="1.65368">
        <ele>5.8</ele>
        <time>2019-10-05T09:46:32Z</time>
      </trkpt>
      <trkpt lat="50.88466" lon="1.65362">
        <ele>5.9</ele>
        <time>2019-10-05T09:46:36Z</time>
      </trkpt>
      <trkpt lat="50.88463" lon="1.65356">
        <ele>6</ele>
        <time>2019-10-05T09:46:40Z</time>
      </trkpt>
      <trkpt lat="50.8846" lon="1.65348">
        <ele>6.4</ele>
        <time>2019-10-05T09:46:47Z</time>
      </trkpt>
      <trkpt lat="50.88458" lon="1.65342">
        <ele>6.7</ele>
        <time>2019-10-05T09:46:51Z</time>
      </trkpt>
      <trkpt lat="50.88455" lon="1.65335">
        <ele>6.8</ele>
        <time>2019-10-05T09:46:56Z</time>
      </trkpt>
      <trkpt lat="50.88451" lon="1.6533">
        <ele>6.9</ele>
        <time>2019-10-05T09:47:01Z</time>
      </trkpt>
      <trkpt lat="50.88447" lon="1.65325">
        <ele>6.9</ele>
        <time>2019-10-05T09:47:05Z</time>
      </trkpt>
      <trkpt lat="50.88444" lon="1.65318">
        <ele>7.1</ele>
        <time>2019-10-05T09:47:10Z</time>
      </trkpt>
      <trkpt lat="50.88442" lon="1.65312">
        <ele>7.3</ele>
        <time>2019-10-05T09:47:15Z</time>
      </trkpt>
      <trkpt lat="50.88439" lon="1.65306">
        <ele>7.6</ele>
        <time>2019-10-05T09:47:19Z</time>
      </trkpt>
      <trkpt lat="50.88435" lon="1.653">
        <ele>7.8</ele>
        <time>2019-10-05T09:47:23Z</time>
      </trkpt>
      <trkpt lat="50.88432" lon="1.65293">
        <ele>8.1</ele>
        <time>2019-10-05T09:47:29Z</time>
      </trkpt>
      <trkpt lat="50.88429" lon="1.65287">
        <ele>8.3</ele>
        <time>2019-10-05T09:47:34Z</time>
      </trkpt>
      <trkpt lat="50.88426" lon="1.6528">
        <ele>8.5</ele>
        <time>2019-10-05T09:47:39Z</time>
      </trkpt>
      <trkpt lat="50.88423" lon="1.65273">
        <ele>8.7</ele>
        <time>2019-10-05T09:47:43Z</time>
      </trkpt>
      <trkpt lat="50.8842" lon="1.65267">
        <ele>8.9</ele>
        <time>2019-10-05T09:47:47Z</time>
      </trkpt>
      <trkpt lat="50.88416" lon="1.65261">
        <ele>9.3</ele>
        <time>2019-10-05T09:47:51Z</time>
      </trkpt>
      <trkpt lat="50.88413" lon="1.65255">
        <ele>9.9</ele>
        <time>2019-10-05T09:47:56Z</time>
      </trkpt>
      <trkpt lat="50.8841" lon="1.65248">
        <ele>10.6</ele>
        <time>2019-10-05T09:48:02Z</time>
      </trkpt>
      <trkpt lat="50.88407" lon="1.65243">
        <ele>10.9</ele>
        <time>2019-10-05T09:48:07Z</time>
      </trkpt>
      <trkpt lat="50.88405" lon="1.65235">
        <ele>11</ele>
        <time>2019-10-05T09:48:12Z</time>
      </trkpt>
      <trkpt lat="50.88403" lon="1.65229">
        <ele>10.8</ele>
        <time>2019-10-05T09:48:17Z</time>
      </trkpt>
      <trkpt lat="50.88399" lon="1.65224">
        <ele>10.4</ele>
        <time>2019-10-05T09:48:23Z</time>
      </trkpt>
      <trkpt lat="50.88396" lon="1.65217">
        <ele>10.1</ele>
        <time>2019-10-05T09:48:31Z</time>
      </trkpt>
      <trkpt lat="50.88394" lon="1.65211">
        <ele>9.9</ele>
        <time>2019-10-05T09:48:39Z</time>
      </trkpt>
      <trkpt lat="50.88391" lon="1.65204">
        <ele>9.8</ele>
        <time>2019-10-05T09:48:44Z</time>
      </trkpt>
      <trkpt lat="50.8839" lon="1.65196">
        <ele>9.7</ele>
        <time>2019-10-05T09:48:50Z</time>
      </trkpt>
      <trkpt lat="50.88388" lon="1.6519">
        <ele>9.7</ele>
        <time>2019-10-05T09:48:57Z</time>
      </trkpt>
      <trkpt lat="50.88383" lon="1.65189">
        <ele>9.9</ele>
        <time>2019-10-05T09:49:46Z</time>
      </trkpt>
      <trkpt lat="50.88379" lon="1.65183">
        <ele>9.6</ele>
        <time>2019-10-05T09:49:51Z</time>
      </trkpt>
      <trkpt lat="50.88376" lon="1.65178">
        <ele>9.2</ele>
        <time>2019-10-05T09:49:59Z</time>
      </trkpt>
      <trkpt lat="50.88371" lon="1.65177">
        <ele>8.8</ele>
        <time>2019-10-05T09:50:07Z</time>
      </trkpt>
      <trkpt lat="50.88367" lon="1.65175">
        <ele>8.8</ele>
        <time>2019-10-05T09:50:12Z</time>
      </trkpt>
      <trkpt lat="50.88362" lon="1.65171">
        <ele>8.7</ele>
        <time>2019-10-05T09:50:18Z</time>
      </trkpt>
      <trkpt lat="50.88357" lon="1.65175">
        <ele>8</ele>
        <time>2019-10-05T09:50:53Z</time>
      </trkpt>
      <trkpt lat="50.88353" lon="1.65172">
        <ele>9.3</ele>
        <time>2019-10-05T09:51:41Z</time>
      </trkpt>
      <trkpt lat="50.88349" lon="1.65167">
        <ele>9.3</ele>
        <time>2019-10-05T09:51:47Z</time>
      </trkpt>
      <trkpt lat="50.88347" lon="1.6516">
        <ele>8.1</ele>
        <time>2019-10-05T09:52:00Z</time>
      </trkpt>
      <trkpt lat="50.88343" lon="1.65157">
        <ele>7.2</ele>
        <time>2019-10-05T09:52:09Z</time>
      </trkpt>
      <trkpt lat="50.88339" lon="1.65152">
        <ele>6.8</ele>
        <time>2019-10-05T09:52:14Z</time>
      </trkpt>
      <trkpt lat="50.88336" lon="1.65146">
        <ele>6.3</ele>
        <time>2019-10-05T09:52:19Z</time>
      </trkpt>
      <trkpt lat="50.8834" lon="1.65146">
        <ele>5.3</ele>
        <time>2019-10-05T09:52:33Z</time>
      </trkpt>
      <trkpt lat="50.88345" lon="1.65147">
        <ele>5.1</ele>
        <time>2019-10-05T09:52:36Z</time>
      </trkpt>
      <trkpt lat="50.8835" lon="1.65145">
        <ele>4.9</ele>
        <time>2019-10-05T09:52:42Z</time>
      </trkpt>
      <trkpt lat="50.88345" lon="1.65142">
        <ele>4.6</ele>
        <time>2019-10-05T09:52:53Z</time>
      </trkpt>
      <trkpt lat="50.8834" lon="1.65141">
        <ele>3.1</ele>
        <time>2019-10-05T09:53:20Z</time>
      </trkpt>
      <trkpt lat="50.88335" lon="1.65138">
        <ele>3</ele>
        <time>2019-10-05T09:53:24Z</time>
      </trkpt>
      <trkpt lat="50.88331" lon="1.65132">
        <ele>2.9</ele>
        <time>2019-10-05T09:53:28Z</time>
      </trkpt>
      <trkpt lat="50.88327" lon="1.65128">
        <ele>2.9</ele>
        <time>2019-10-05T09:53:32Z</time>
      </trkpt>
      <trkpt lat="50.88322" lon="1.65125">
        <ele>2.8</ele>
        <time>2019-10-05T09:53:37Z</time>
      </trkpt>
      <trkpt lat="50.88317" lon="1.65121">
        <ele>2.8</ele>
        <time>2019-10-05T09:53:41Z</time>
      </trkpt>
      <trkpt lat="50.88313" lon="1.65115">
        <ele>2.7</ele>
        <time>2019-10-05T09:53:45Z</time>
      </trkpt>
      <trkpt lat="50.88309" lon="1.65111">
        <ele>2.8</ele>
        <time>2019-10-05T09:53:49Z</time>
      </trkpt>
      <trkpt lat="50.88306" lon="1.65105">
        <ele>2.9</ele>
        <time>2019-10-05T09:53:53Z</time>
      </trkpt>
      <trkpt lat="50.88302" lon="1.65099">
        <ele>3</ele>
        <time>2019-10-05T09:53:57Z</time>
      </trkpt>
      <trkpt lat="50.88299" lon="1.65093">
        <ele>3</ele>
        <time>2019-10-05T09:54:02Z</time>
      </trkpt>
      <trkpt lat="50.88294" lon="1.65091">
        <ele>2.8</ele>
        <time>2019-10-05T09:54:10Z</time>
      </trkpt>
      <trkpt lat="50.88289" lon="1.65087">
        <ele>2.7</ele>
        <time>2019-10-05T09:54:14Z</time>
      </trkpt>
      <trkpt lat="50.88285" lon="1.65081">
        <ele>2.6</ele>
        <time>2019-10-05T09:54:18Z</time>
      </trkpt>
      <trkpt lat="50.88281" lon="1.65076">
        <ele>2.6</ele>
        <time>2019-10-05T09:54:22Z</time>
      </trkpt>
      <trkpt lat="50.88277" lon="1.65072">
        <ele>2.6</ele>
        <time>2019-10-05T09:54:26Z</time>
      </trkpt>
      <trkpt lat="50.88273" lon="1.65067">
        <ele>2.6</ele>
        <time>2019-10-05T09:54:30Z</time>
      </trkpt>
      <trkpt lat="50.88269" lon="1.65063">
        <ele>2.7</ele>
        <time>2019-10-05T09:54:34Z</time>
      </trkpt>
      <trkpt lat="50.88265" lon="1.65057">
        <ele>2.9</ele>
        <time>2019-10-05T09:54:38Z</time>
      </trkpt>
      <trkpt lat="50.88261" lon="1.65052">
        <ele>3</ele>
        <time>2019-10-05T09:54:43Z</time>
      </trkpt>
      <trkpt lat="50.88257" lon="1.65047">
        <ele>3.2</ele>
        <time>2019-10-05T09:54:47Z</time>
      </trkpt>
      <trkpt lat="50.88253" lon="1.65042">
        <ele>3.4</ele>
        <time>2019-10-05T09:54:51Z</time>
      </trkpt>
      <trkpt lat="50.8825" lon="1.65037">
        <ele>3.5</ele>
        <time>2019-10-05T09:54:55Z</time>
      </trkpt>
      <trkpt lat="50.88246" lon="1.65031">
        <ele>3.5</ele>
        <time>2019-10-05T09:54:59Z</time>
      </trkpt>
      <trkpt lat="50.88243" lon="1.65025">
        <ele>3.5</ele>
        <time>2019-10-05T09:55:03Z</time>
      </trkpt>
      <trkpt lat="50.88239" lon="1.6502">
        <ele>3.6</ele>
        <time>2019-10-05T09:55:07Z</time>
      </trkpt>
      <trkpt lat="50.88235" lon="1.65016">
        <ele>3.7</ele>
        <time>2019-10-05T09:55:11Z</time>
      </trkpt>
      <trkpt lat="50.88231" lon="1.6501">
        <ele>3.8</ele>
        <time>2019-10-05T09:55:15Z</time>
      </trkpt>
      <trkpt lat="50.88228" lon="1.65005">
        <ele>4</ele>
        <time>2019-10-05T09:55:19Z</time>
      </trkpt>
      <trkpt lat="50.88224" lon="1.65">
        <ele>4.1</ele>
        <time>2019-10-05T09:55:23Z</time>
      </trkpt>
      <trkpt lat="50.88219" lon="1.64994">
        <ele>4.1</ele>
        <time>2019-10-05T09:55:27Z</time>
      </trkpt>
      <trkpt lat="50.88216" lon="1.64989">
        <ele>4</ele>
        <time>2019-10-05T09:55:31Z</time>
      </trkpt>
      <trkpt lat="50.88212" lon="1.64985">
        <ele>3.1</ele>
        <time>2019-10-05T09:55:45Z</time>
      </trkpt>
      <trkpt lat="50.8821" lon="1.64978">
        <ele>3.4</ele>
        <time>2019-10-05T09:55:53Z</time>
      </trkpt>
      <trkpt lat="50.88206" lon="1.64973">
        <ele>3.9</ele>
        <time>2019-10-05T09:55:58Z</time>
      </trkpt>
      <trkpt lat="50.88202" lon="1.64967">
        <ele>4.2</ele>
        <time>2019-10-05T09:56:02Z</time>
      </trkpt>
      <trkpt lat="50.88197" lon="1.64961">
        <ele>4.5</ele>
        <time>2019-10-05T09:56:06Z</time>
      </trkpt>
      <trkpt lat="50.88193" lon="1.64957">
        <ele>4.9</ele>
        <time>2019-10-05T09:56:11Z</time>
      </trkpt>
      <trkpt lat="50.88191" lon="1.6495">
        <ele>6.3</ele>
        <time>2019-10-05T09:56:41Z</time>
      </trkpt>
      <trkpt lat="50.88187" lon="1.64944">
        <ele>6.3</ele>
        <time>2019-10-05T09:56:46Z</time>
      </trkpt>
      <trkpt lat="50.88184" lon="1.6494">
        <ele>6.4</ele>
        <time>2019-10-05T09:56:49Z</time>
      </trkpt>
      <trkpt lat="50.8818" lon="1.64934">
        <ele>6.4</ele>
        <time>2019-10-05T09:56:52Z</time>
      </trkpt>
      <trkpt lat="50.88176" lon="1.6493">
        <ele>6.5</ele>
        <time>2019-10-05T09:56:57Z</time>
      </trkpt>
      <trkpt lat="50.88171" lon="1.64928">
        <ele>6.4</ele>
        <time>2019-10-05T09:57:01Z</time>
      </trkpt>
      <trkpt lat="50.88167" lon="1.64925">
        <ele>6.2</ele>
        <time>2019-10-05T09:57:09Z</time>
      </trkpt>
      <trkpt lat="50.88163" lon="1.6492">
        <ele>6</ele>
        <time>2019-10-05T09:57:17Z</time>
      </trkpt>
      <trkpt lat="50.88159" lon="1.64917">
        <ele>5.8</ele>
        <time>2019-10-05T09:57:30Z</time>
      </trkpt>
      <trkpt lat="50.88155" lon="1.64913">
        <ele>2.7</ele>
        <time>2019-10-05T09:58:26Z</time>
      </trkpt>
      <trkpt lat="50.88152" lon="1.64907">
        <ele>2.7</ele>
        <time>2019-10-05T09:58:31Z</time>
      </trkpt>
      <trkpt lat="50.88149" lon="1.64901">
        <ele>2.6</ele>
        <time>2019-10-05T09:58:37Z</time>
      </trkpt>
      <trkpt lat="50.88147" lon="1.64894">
        <ele>2.6</ele>
        <time>2019-10-05T09:58:44Z</time>
      </trkpt>
      <trkpt lat="50.88144" lon="1.64889">
        <ele>2.8</ele>
        <time>2019-10-05T09:59:03Z</time>
      </trkpt>
      <trkpt lat="50.8814" lon="1.64885">
        <ele>3.3</ele>
        <time>2019-10-05T09:59:10Z</time>
      </trkpt>
      <trkpt lat="50.88138" lon="1.64879">
        <ele>3.6</ele>
        <time>2019-10-05T09:59:17Z</time>
      </trkpt>
      <trkpt lat="50.88134" lon="1.64878">
        <ele>3.4</ele>
        <time>2019-10-05T09:59:45Z</time>
      </trkpt>
      <trkpt lat="50.88137" lon="1.64882">
        <ele>4.1</ele>
        <time>2019-10-05T10:00:03Z</time>
      </trkpt>
      <trkpt lat="50.88141" lon="1.64888">
        <ele>3.8</ele>
        <time>2019-10-05T10:00:29Z</time>
      </trkpt>
      <trkpt lat="50.88142" lon="1.64895">
        <ele>2.9</ele>
        <time>2019-10-05T10:00:42Z</time>
      </trkpt>
      <trkpt lat="50.88139" lon="1.6489">
        <ele>2.6</ele>
        <time>2019-10-05T10:00:58Z</time>
      </trkpt>
      <trkpt lat="50.88136" lon="1.64885">
        <ele>2.5</ele>
        <time>2019-10-05T10:01:17Z</time>
      </trkpt>
      <trkpt lat="50.88138" lon="1.64891">
        <ele>3.1</ele>
        <time>2019-10-05T10:01:39Z</time>
      </trkpt>
      <trkpt lat="50.88142" lon="1.64895">
        <ele>2.9</ele>
        <time>2019-10-05T10:01:49Z</time>
      </trkpt>
      <trkpt lat="50.88143" lon="1.64902">
        <ele>3.6</ele>
        <time>2019-10-05T10:02:40Z</time>
      </trkpt>
      <trkpt lat="50.88148" lon="1.64903">
        <ele>3.3</ele>
        <time>2019-10-05T10:02:47Z</time>
      </trkpt>
      <trkpt lat="50.88152" lon="1.64901">
        <ele>3.2</ele>
        <time>2019-10-05T10:02:53Z</time>
      </trkpt>
      <trkpt lat="50.88153" lon="1.64908">
        <ele>3.4</ele>
        <time>2019-10-05T10:03:19Z</time>
      </trkpt>
      <trkpt lat="50.88157" lon="1.64912">
        <ele>4</ele>
        <time>2019-10-05T10:03:27Z</time>
      </trkpt>
      <trkpt lat="50.88158" lon="1.64919">
        <ele>5.3</ele>
        <time>2019-10-05T10:03:45Z</time>
      </trkpt>
      <trkpt lat="50.8816" lon="1.64925">
        <ele>5.7</ele>
        <time>2019-10-05T10:03:50Z</time>
      </trkpt>
      <trkpt lat="50.88165" lon="1.64927">
        <ele>5.9</ele>
        <time>2019-10-05T10:03:55Z</time>
      </trkpt>
      <trkpt lat="50.88169" lon="1.6493">
        <ele>5.8</ele>
        <time>2019-10-05T10:04:00Z</time>
      </trkpt>
      <trkpt lat="50.88173" lon="1.64933">
        <ele>5.7</ele>
        <time>2019-10-05T10:04:05Z</time>
      </trkpt>
      <trkpt lat="50.88177" lon="1.64937">
        <ele>5.5</ele>
        <time>2019-10-05T10:04:10Z</time>
      </trkpt>
      <trkpt lat="50.88181" lon="1.64942">
        <ele>5.1</ele>
        <time>2019-10-05T10:04:15Z</time>
      </trkpt>
      <trkpt lat="50.88185" lon="1.64947">
        <ele>4.6</ele>
        <time>2019-10-05T10:04:20Z</time>
      </trkpt>
      <trkpt lat="50.88189" lon="1.64951">
        <ele>4.2</ele>
        <time>2019-10-05T10:04:26Z</time>
      </trkpt>
      <trkpt lat="50.88193" lon="1.64957">
        <ele>3.7</ele>
        <time>2019-10-05T10:04:31Z</time>
      </trkpt>
      <trkpt lat="50.88196" lon="1.64963">
        <ele>3.1</ele>
        <time>2019-10-05T10:04:37Z</time>
      </trkpt>
      <trkpt lat="50.88198" lon="1.64971">
        <ele>2.8</ele>
        <time>2019-10-05T10:04:42Z</time>
      </trkpt>
      <trkpt lat="50.88201" lon="1.64977">
        <ele>2.7</ele>
        <time>2019-10-05T10:04:47Z</time>
      </trkpt>
      <trkpt lat="50.88205" lon="1.64982">
        <ele>2.6</ele>
        <time>2019-10-05T10:04:54Z</time>
      </trkpt>
      <trkpt lat="50.88209" lon="1.64988">
        <ele>2.6</ele>
        <time>2019-10-05T10:05:01Z</time>
      </trkpt>
      <trkpt lat="50.88213" lon="1.64993">
        <ele>2.6</ele>
        <time>2019-10-05T10:05:06Z</time>
      </trkpt>
      <trkpt lat="50.88214" lon="1.65001">
        <ele>2.5</ele>
        <time>2019-10-05T10:05:14Z</time>
      </trkpt>
      <trkpt lat="50.88216" lon="1.65008">
        <ele>2.5</ele>
        <time>2019-10-05T10:06:14Z</time>
      </trkpt>
      <trkpt lat="50.8822" lon="1.6501">
        <ele>2.5</ele>
        <time>2019-10-05T10:06:19Z</time>
      </trkpt>
      <trkpt lat="50.88225" lon="1.65013">
        <ele>2.5</ele>
        <time>2019-10-05T10:06:25Z</time>
      </trkpt>
      <trkpt lat="50.88229" lon="1.65018">
        <ele>2.5</ele>
        <time>2019-10-05T10:06:30Z</time>
      </trkpt>
      <trkpt lat="50.88233" lon="1.65021">
        <ele>2.5</ele>
        <time>2019-10-05T10:06:36Z</time>
      </trkpt>
      <trkpt lat="50.88237" lon="1.65026">
        <ele>2.5</ele>
        <time>2019-10-05T10:06:41Z</time>
      </trkpt>
      <trkpt lat="50.88241" lon="1.65031">
        <ele>2.5</ele>
        <time>2019-10-05T10:06:48Z</time>
      </trkpt>
      <trkpt lat="50.88244" lon="1.65037">
        <ele>2.5</ele>
        <time>2019-10-05T10:06:54Z</time>
      </trkpt>
      <trkpt lat="50.88248" lon="1.65042">
        <ele>2.5</ele>
        <time>2019-10-05T10:06:59Z</time>
      </trkpt>
      <trkpt lat="50.88252" lon="1.65047">
        <ele>2.5</ele>
        <time>2019-10-05T10:07:06Z</time>
      </trkpt>
      <trkpt lat="50.88256" lon="1.65052">
        <ele>2.5</ele>
        <time>2019-10-05T10:07:11Z</time>
      </trkpt>
      <trkpt lat="50.8826" lon="1.65056">
        <ele>2.5</ele>
        <time>2019-10-05T10:07:16Z</time>
      </trkpt>
      <trkpt lat="50.88264" lon="1.65061">
        <ele>2.5</ele>
        <time>2019-10-05T10:07:21Z</time>
      </trkpt>
      <trkpt lat="50.88269" lon="1.65066">
        <ele>2.5</ele>
        <time>2019-10-05T10:07:26Z</time>
      </trkpt>
      <trkpt lat="50.88273" lon="1.6507">
        <ele>2.5</ele>
        <time>2019-10-05T10:07:31Z</time>
      </trkpt>
      <trkpt lat="50.88276" lon="1.65075">
        <ele>2.5</ele>
        <time>2019-10-05T10:07:35Z</time>
      </trkpt>
      <trkpt lat="50.8828" lon="1.6508">
        <ele>2.5</ele>
        <time>2019-10-05T10:07:41Z</time>
      </trkpt>
      <trkpt lat="50.88284" lon="1.65084">
        <ele>2.5</ele>
        <time>2019-10-05T10:07:46Z</time>
      </trkpt>
      <trkpt lat="50.88288" lon="1.65089">
        <ele>2.5</ele>
        <time>2019-10-05T10:07:50Z</time>
      </trkpt>
      <trkpt lat="50.88292" lon="1.65094">
        <ele>2.5</ele>
        <time>2019-10-05T10:07:55Z</time>
      </trkpt>
      <trkpt lat="50.88296" lon="1.65099">
        <ele>2.5</ele>
        <time>2019-10-05T10:08:01Z</time>
      </trkpt>
      <trkpt lat="50.88301" lon="1.65103">
        <ele>2.5</ele>
        <time>2019-10-05T10:08:07Z</time>
      </trkpt>
      <trkpt lat="50.88306" lon="1.65108">
        <ele>2.5</ele>
        <time>2019-10-05T10:08:12Z</time>
      </trkpt>
      <trkpt lat="50.8831" lon="1.65113">
        <ele>2.5</ele>
        <time>2019-10-05T10:08:17Z</time>
      </trkpt>
      <trkpt lat="50.88315" lon="1.65117">
        <ele>2.5</ele>
        <time>2019-10-05T10:08:21Z</time>
      </trkpt>
      <trkpt lat="50.88319" lon="1.65122">
        <ele>2.5</ele>
        <time>2019-10-05T10:08:25Z</time>
      </trkpt>
      <trkpt lat="50.88322" lon="1.65127">
        <ele>2.5</ele>
        <time>2019-10-05T10:08:29Z</time>
      </trkpt>
      <trkpt lat="50.88327" lon="1.65132">
        <ele>2.5</ele>
        <time>2019-10-05T10:08:34Z</time>
      </trkpt>
      <trkpt lat="50.88331" lon="1.65135">
        <ele>2.5</ele>
        <time>2019-10-05T10:08:39Z</time>
      </trkpt>
      <trkpt lat="50.88336" lon="1.65138">
        <ele>2.5</ele>
        <time>2019-10-05T10:08:44Z</time>
      </trkpt>
      <trkpt lat="50.88339" lon="1.65144">
        <ele>2.5</ele>
        <time>2019-10-05T10:08:50Z</time>
      </trkpt>
      <trkpt lat="50.88342" lon="1.6515">
        <ele>2.5</ele>
        <time>2019-10-05T10:08:59Z</time>
      </trkpt>
      <trkpt lat="50.88346" lon="1.65155">
        <ele>2.5</ele>
        <time>2019-10-05T10:09:07Z</time>
      </trkpt>
      <trkpt lat="50.88349" lon="1.6516">
        <ele>2.5</ele>
        <time>2019-10-05T10:09:15Z</time>
      </trkpt>
      <trkpt lat="50.88353" lon="1.65165">
        <ele>2.5</ele>
        <time>2019-10-05T10:09:33Z</time>
      </trkpt>
      <trkpt lat="50.88357" lon="1.65169">
        <ele>2.5</ele>
        <time>2019-10-05T10:09:41Z</time>
      </trkpt>
      <trkpt lat="50.88361" lon="1.6517">
        <ele>2.7</ele>
        <time>2019-10-05T10:09:48Z</time>
      </trkpt>
      <trkpt lat="50.88366" lon="1.65173">
        <ele>2.9</ele>
        <time>2019-10-05T10:09:55Z</time>
      </trkpt>
      <trkpt lat="50.8837" lon="1.65176">
        <ele>3.1</ele>
        <time>2019-10-05T10:10:00Z</time>
      </trkpt>
      <trkpt lat="50.88375" lon="1.6518">
        <ele>3.6</ele>
        <time>2019-10-05T10:10:05Z</time>
      </trkpt>
      <trkpt lat="50.88379" lon="1.65186">
        <ele>4.1</ele>
        <time>2019-10-05T10:10:10Z</time>
      </trkpt>
      <trkpt lat="50.88381" lon="1.65193">
        <ele>4.6</ele>
        <time>2019-10-05T10:10:15Z</time>
      </trkpt>
      <trkpt lat="50.88384" lon="1.65198">
        <ele>5</ele>
        <time>2019-10-05T10:10:20Z</time>
      </trkpt>
      <trkpt lat="50.88388" lon="1.65202">
        <ele>5.5</ele>
        <time>2019-10-05T10:10:26Z</time>
      </trkpt>
      <trkpt lat="50.88391" lon="1.65208">
        <ele>5.6</ele>
        <time>2019-10-05T10:10:35Z</time>
      </trkpt>
      <trkpt lat="50.88396" lon="1.65212">
        <ele>5.5</ele>
        <time>2019-10-05T10:10:42Z</time>
      </trkpt>
      <trkpt lat="50.884" lon="1.65214">
        <ele>5.5</ele>
        <time>2019-10-05T10:10:49Z</time>
      </trkpt>
      <trkpt lat="50.88396" lon="1.65219">
        <ele>4.2</ele>
        <time>2019-10-05T10:11:14Z</time>
      </trkpt>
      <trkpt lat="50.88391" lon="1.65222">
        <ele>4.1</ele>
        <time>2019-10-05T10:11:18Z</time>
      </trkpt>
      <trkpt lat="50.88387" lon="1.65227">
        <ele>4.2</ele>
        <time>2019-10-05T10:11:23Z</time>
      </trkpt>
      <trkpt lat="50.88384" lon="1.65232">
        <ele>4.6</ele>
        <time>2019-10-05T10:11:38Z</time>
      </trkpt>
      <trkpt lat="50.88381" lon="1.65227">
        <ele>4.3</ele>
        <time>2019-10-05T10:12:27Z</time>
      </trkpt>
      <trkpt lat="50.88377" lon="1.65226">
        <ele>3.9</ele>
        <time>2019-10-05T10:13:06Z</time>
      </trkpt>
      <trkpt lat="50.88372" lon="1.65226">
        <ele>5.1</ele>
        <time>2019-10-05T10:13:40Z</time>
      </trkpt>
      <trkpt lat="50.88367" lon="1.65223">
        <ele>5.9</ele>
        <time>2019-10-05T10:13:51Z</time>
      </trkpt>
      <trkpt lat="50.88362" lon="1.65221">
        <ele>6.6</ele>
        <time>2019-10-05T10:13:56Z</time>
      </trkpt>
      <trkpt lat="50.88357" lon="1.6522">
        <ele>7.3</ele>
        <time>2019-10-05T10:14:01Z</time>
      </trkpt>
      <trkpt lat="50.88353" lon="1.65221">
        <ele>8</ele>
        <time>2019-10-05T10:14:06Z</time>
      </trkpt>
      <trkpt lat="50.88348" lon="1.6522">
        <ele>8.6</ele>
        <time>2019-10-05T10:14:11Z</time>
      </trkpt>
      <trkpt lat="50.88345" lon="1.65214">
        <ele>9.2</ele>
        <time>2019-10-05T10:14:17Z</time>
      </trkpt>
      <trkpt lat="50.88341" lon="1.65208">
        <ele>9.6</ele>
        <time>2019-10-05T10:14:25Z</time>
      </trkpt>
      <trkpt lat="50.88336" lon="1.65206">
        <ele>9.8</ele>
        <time>2019-10-05T10:14:37Z</time>
      </trkpt>
      <trkpt lat="50.88331" lon="1.65205">
        <ele>9.9</ele>
        <time>2019-10-05T10:14:43Z</time>
      </trkpt>
      <trkpt lat="50.88327" lon="1.65207">
        <ele>10</ele>
        <time>2019-10-05T10:14:49Z</time>
      </trkpt>
      <trkpt lat="50.88323" lon="1.65212">
        <ele>10</ele>
        <time>2019-10-05T10:14:56Z</time>
      </trkpt>
      <trkpt lat="50.8832" lon="1.65217">
        <ele>9.9</ele>
        <time>2019-10-05T10:15:04Z</time>
      </trkpt>
      <trkpt lat="50.88316" lon="1.65218">
        <ele>9.9</ele>
        <time>2019-10-05T10:15:12Z</time>
      </trkpt>
      <trkpt lat="50.8831" lon="1.65219">
        <ele>9.8</ele>
        <time>2019-10-05T10:15:16Z</time>
      </trkpt>
      <trkpt lat="50.88306" lon="1.65216">
        <ele>9.5</ele>
        <time>2019-10-05T10:15:22Z</time>
      </trkpt>
      <trkpt lat="50.88302" lon="1.6521">
        <ele>8.9</ele>
        <time>2019-10-05T10:15:28Z</time>
      </trkpt>
      <trkpt lat="50.88301" lon="1.65202">
        <ele>8</ele>
        <time>2019-10-05T10:15:37Z</time>
      </trkpt>
      <trkpt lat="50.88299" lon="1.65195">
        <ele>7.3</ele>
        <time>2019-10-05T10:15:43Z</time>
      </trkpt>
      <trkpt lat="50.88295" lon="1.65191">
        <ele>6.7</ele>
        <time>2019-10-05T10:15:51Z</time>
      </trkpt>
      <trkpt lat="50.8829" lon="1.65189">
        <ele>6.7</ele>
        <time>2019-10-05T10:16:07Z</time>
      </trkpt>
      <trkpt lat="50.88285" lon="1.65189">
        <ele>7.1</ele>
        <time>2019-10-05T10:16:12Z</time>
      </trkpt>
      <trkpt lat="50.8828" lon="1.6519">
        <ele>7.5</ele>
        <time>2019-10-05T10:16:17Z</time>
      </trkpt>
      <trkpt lat="50.88275" lon="1.65191">
        <ele>7.9</ele>
        <time>2019-10-05T10:16:23Z</time>
      </trkpt>
      <trkpt lat="50.88271" lon="1.65188">
        <ele>8.1</ele>
        <time>2019-10-05T10:16:28Z</time>
      </trkpt>
      <trkpt lat="50.88267" lon="1.65183">
        <ele>8.3</ele>
        <time>2019-10-05T10:16:33Z</time>
      </trkpt>
      <trkpt lat="50.88265" lon="1.65177">
        <ele>8.1</ele>
        <time>2019-10-05T10:16:38Z</time>
      </trkpt>
      <trkpt lat="50.88262" lon="1.65171">
        <ele>7.5</ele>
        <time>2019-10-05T10:16:44Z</time>
      </trkpt>
      <trkpt lat="50.88258" lon="1.65168">
        <ele>6.8</ele>
        <time>2019-10-05T10:16:49Z</time>
      </trkpt>
      <trkpt lat="50.88254" lon="1.65163">
        <ele>6.4</ele>
        <time>2019-10-05T10:16:53Z</time>
      </trkpt>
      <trkpt lat="50.8825" lon="1.65158">
        <ele>6.2</ele>
        <time>2019-10-05T10:16:58Z</time>
      </trkpt>
      <trkpt lat="50.88246" lon="1.65155">
        <ele>5.9</ele>
        <time>2019-10-05T10:17:05Z</time>
      </trkpt>
      <trkpt lat="50.88242" lon="1.65151">
        <ele>5.7</ele>
        <time>2019-10-05T10:17:12Z</time>
      </trkpt>
      <trkpt lat="50.88238" lon="1.65147">
        <ele>5.3</ele>
        <time>2019-10-05T10:17:18Z</time>
      </trkpt>
      <trkpt lat="50.88233" lon="1.65144">
        <ele>5</ele>
        <time>2019-10-05T10:17:26Z</time>
      </trkpt>
      <trkpt lat="50.88228" lon="1.65142">
        <ele>4.8</ele>
        <time>2019-10-05T10:17:30Z</time>
      </trkpt>
      <trkpt lat="50.88223" lon="1.65141">
        <ele>4.7</ele>
        <time>2019-10-05T10:17:34Z</time>
      </trkpt>
      <trkpt lat="50.88218" lon="1.65139">
        <ele>4.9</ele>
        <time>2019-10-05T10:17:42Z</time>
      </trkpt>
      <trkpt lat="50.88214" lon="1.65136">
        <ele>5.6</ele>
        <time>2019-10-05T10:17:59Z</time>
      </trkpt>
      <trkpt lat="50.88211" lon="1.65141">
        <ele>5.4</ele>
        <time>2019-10-05T10:18:08Z</time>
      </trkpt>
      <trkpt lat="50.88208" lon="1.65148">
        <ele>5.4</ele>
        <time>2019-10-05T10:18:13Z</time>
      </trkpt>
      <trkpt lat="50.88208" lon="1.65156">
        <ele>5.6</ele>
        <time>2019-10-05T10:18:19Z</time>
      </trkpt>
      <trkpt lat="50.88209" lon="1.65164">
        <ele>5.7</ele>
        <time>2019-10-05T10:18:23Z</time>
      </trkpt>
      <trkpt lat="50.88209" lon="1.65172">
        <ele>5.6</ele>
        <time>2019-10-05T10:18:28Z</time>
      </trkpt>
      <trkpt lat="50.88207" lon="1.65179">
        <ele>5.4</ele>
        <time>2019-10-05T10:18:33Z</time>
      </trkpt>
      <trkpt lat="50.88206" lon="1.65186">
        <ele>5.3</ele>
        <time>2019-10-05T10:18:37Z</time>
      </trkpt>
      <trkpt lat="50.88204" lon="1.65193">
        <ele>5.3</ele>
        <time>2019-10-05T10:18:54Z</time>
      </trkpt>
      <trkpt lat="50.88203" lon="1.65201">
        <ele>5.2</ele>
        <time>2019-10-05T10:19:02Z</time>
      </trkpt>
      <trkpt lat="50.88203" lon="1.65209">
        <ele>5.1</ele>
        <time>2019-10-05T10:19:09Z</time>
      </trkpt>
      <trkpt lat="50.88203" lon="1.65217">
        <ele>5.1</ele>
        <time>2019-10-05T10:19:14Z</time>
      </trkpt>
      <trkpt lat="50.88203" lon="1.65224">
        <ele>4.8</ele>
        <time>2019-10-05T10:19:19Z</time>
      </trkpt>
      <trkpt lat="50.88206" lon="1.6523">
        <ele>4.5</ele>
        <time>2019-10-05T10:19:25Z</time>
      </trkpt>
      <trkpt lat="50.88212" lon="1.65231">
        <ele>4.4</ele>
        <time>2019-10-05T10:19:29Z</time>
      </trkpt>
      <trkpt lat="50.88217" lon="1.65231">
        <ele>4.4</ele>
        <time>2019-10-05T10:19:33Z</time>
      </trkpt>
      <trkpt lat="50.88221" lon="1.65232">
        <ele>4.2</ele>
        <time>2019-10-05T10:19:37Z</time>
      </trkpt>
      <trkpt lat="50.88227" lon="1.65233">
        <ele>3.9</ele>
        <time>2019-10-05T10:19:42Z</time>
      </trkpt>
      <trkpt lat="50.88232" lon="1.65232">
        <ele>3.7</ele>
        <time>2019-10-05T10:19:48Z</time>
      </trkpt>
      <trkpt lat="50.88237" lon="1.65234">
        <ele>3.6</ele>
        <time>2019-10-05T10:19:51Z</time>
      </trkpt>
      <trkpt lat="50.88242" lon="1.65236">
        <ele>3.3</ele>
        <time>2019-10-05T10:19:54Z</time>
      </trkpt>
      <trkpt lat="50.88246" lon="1.6524">
        <ele>3.1</ele>
        <time>2019-10-05T10:19:58Z</time>
      </trkpt>
      <trkpt lat="50.8825" lon="1.65243">
        <ele>2.8</ele>
        <time>2019-10-05T10:20:02Z</time>
      </trkpt>
      <trkpt lat="50.88255" lon="1.65245">
        <ele>2.7</ele>
        <time>2019-10-05T10:20:06Z</time>
      </trkpt>
      <trkpt lat="50.88259" lon="1.65246">
        <ele>2.6</ele>
        <time>2019-10-05T10:20:12Z</time>
      </trkpt>
      <trkpt lat="50.88265" lon="1.65249">
        <ele>2.8</ele>
        <time>2019-10-05T10:20:19Z</time>
      </trkpt>
      <trkpt lat="50.88269" lon="1.65251">
        <ele>2.8</ele>
        <time>2019-10-05T10:20:22Z</time>
      </trkpt>
      <trkpt lat="50.88275" lon="1.65251">
        <ele>2.8</ele>
        <time>2019-10-05T10:20:26Z</time>
      </trkpt>
      <trkpt lat="50.8828" lon="1.65253">
        <ele>2.7</ele>
        <time>2019-10-05T10:20:31Z</time>
      </trkpt>
      <trkpt lat="50.88284" lon="1.65257">
        <ele>2.7</ele>
        <time>2019-10-05T10:20:36Z</time>
      </trkpt>
      <trkpt lat="50.88288" lon="1.6526">
        <ele>2.6</ele>
        <time>2019-10-05T10:20:40Z</time>
      </trkpt>
      <trkpt lat="50.88292" lon="1.65264">
        <ele>2.6</ele>
        <time>2019-10-05T10:20:45Z</time>
      </trkpt>
      <trkpt lat="50.88297" lon="1.65268">
        <ele>2.6</ele>
        <time>2019-10-05T10:20:50Z</time>
      </trkpt>
      <trkpt lat="50.88302" lon="1.65272">
        <ele>2.6</ele>
        <time>2019-10-05T10:20:53Z</time>
      </trkpt>
      <trkpt lat="50.88307" lon="1.65276">
        <ele>2.6</ele>
        <time>2019-10-05T10:20:57Z</time>
      </trkpt>
      <trkpt lat="50.88311" lon="1.6528">
        <ele>2.5</ele>
        <time>2019-10-05T10:21:01Z</time>
      </trkpt>
      <trkpt lat="50.88316" lon="1.65283">
        <ele>2.6</ele>
        <time>2019-10-05T10:21:06Z</time>
      </trkpt>
      <trkpt lat="50.8832" lon="1.65286">
        <ele>2.6</ele>
        <time>2019-10-05T10:21:11Z</time>
      </trkpt>
      <trkpt lat="50.88326" lon="1.65289">
        <ele>2.6</ele>
        <time>2019-10-05T10:21:16Z</time>
      </trkpt>
      <trkpt lat="50.8833" lon="1.65292">
        <ele>2.6</ele>
        <time>2019-10-05T10:21:19Z</time>
      </trkpt>
      <trkpt lat="50.88335" lon="1.65295">
        <ele>2.6</ele>
        <time>2019-10-05T10:21:23Z</time>
      </trkpt>
      <trkpt lat="50.88339" lon="1.65299">
        <ele>2.5</ele>
        <time>2019-10-05T10:21:27Z</time>
      </trkpt>
      <trkpt lat="50.88344" lon="1.65302">
        <ele>2.5</ele>
        <time>2019-10-05T10:21:31Z</time>
      </trkpt>
      <trkpt lat="50.88348" lon="1.65306">
        <ele>2.5</ele>
        <time>2019-10-05T10:21:35Z</time>
      </trkpt>
      <trkpt lat="50.88352" lon="1.6531">
        <ele>2.5</ele>
        <time>2019-10-05T10:21:39Z</time>
      </trkpt>
      <trkpt lat="50.88357" lon="1.65314">
        <ele>2.5</ele>
        <time>2019-10-05T10:21:44Z</time>
      </trkpt>
      <trkpt lat="50.88361" lon="1.65318">
        <ele>2.5</ele>
        <time>2019-10-05T10:21:48Z</time>
      </trkpt>
      <trkpt lat="50.88365" lon="1.65322">
        <ele>2.5</ele>
        <time>2019-10-05T10:21:52Z</time>
      </trkpt>
      <trkpt lat="50.88367" lon="1.6533">
        <ele>2.5</ele>
        <time>2019-10-05T10:21:56Z</time>
      </trkpt>
      <trkpt lat="50.88366" lon="1.65337">
        <ele>2.5</ele>
        <time>2019-10-05T10:22:00Z</time>
      </trkpt>
      <trkpt lat="50.88363" lon="1.65344">
        <ele>2.5</ele>
        <time>2019-10-05T10:22:04Z</time>
      </trkpt>
      <trkpt lat="50.8836" lon="1.65351">
        <ele>2.5</ele>
        <time>2019-10-05T10:22:08Z</time>
      </trkpt>
      <trkpt lat="50.88355" lon="1.65357">
        <ele>2.5</ele>
        <time>2019-10-05T10:22:13Z</time>
      </trkpt>
      <trkpt lat="50.88352" lon="1.65361">
        <ele>2.5</ele>
        <time>2019-10-05T10:22:18Z</time>
      </trkpt>
      <trkpt lat="50.88347" lon="1.65367">
        <ele>2.5</ele>
        <time>2019-10-05T10:22:22Z</time>
      </trkpt>
      <trkpt lat="50.88344" lon="1.65373">
        <ele>2.5</ele>
        <time>2019-10-05T10:22:27Z</time>
      </trkpt>
      <trkpt lat="50.88341" lon="1.65381">
        <ele>2.5</ele>
        <time>2019-10-05T10:22:31Z</time>
      </trkpt>
      <trkpt lat="50.88338" lon="1.65388">
        <ele>2.5</ele>
        <time>2019-10-05T10:22:35Z</time>
      </trkpt>
      <trkpt lat="50.88336" lon="1.65395">
        <ele>2.5</ele>
        <time>2019-10-05T10:22:40Z</time>
      </trkpt>
      <trkpt lat="50.88333" lon="1.65402">
        <ele>2.5</ele>
        <time>2019-10-05T10:22:46Z</time>
      </trkpt>
      <trkpt lat="50.8833" lon="1.65409">
        <ele>2.5</ele>
        <time>2019-10-05T10:22:51Z</time>
      </trkpt>
      <trkpt lat="50.88327" lon="1.65416">
        <ele>2.5</ele>
        <time>2019-10-05T10:22:55Z</time>
      </trkpt>
      <trkpt lat="50.88324" lon="1.65422">
        <ele>2.5</ele>
        <time>2019-10-05T10:22:59Z</time>
      </trkpt>
      <trkpt lat="50.8832" lon="1.65429">
        <ele>2.5</ele>
        <time>2019-10-05T10:23:03Z</time>
      </trkpt>
      <trkpt lat="50.88317" lon="1.65436">
        <ele>2.5</ele>
        <time>2019-10-05T10:23:07Z</time>
      </trkpt>
      <trkpt lat="50.88315" lon="1.65442">
        <ele>2.5</ele>
        <time>2019-10-05T10:23:11Z</time>
      </trkpt>
      <trkpt lat="50.88312" lon="1.65451">
        <ele>2.5</ele>
        <time>2019-10-05T10:23:15Z</time>
      </trkpt>
      <trkpt lat="50.8831" lon="1.65459">
        <ele>2.5</ele>
        <time>2019-10-05T10:23:20Z</time>
      </trkpt>
      <trkpt lat="50.8831" lon="1.65468">
        <ele>2.5</ele>
        <time>2019-10-05T10:23:24Z</time>
      </trkpt>
      <trkpt lat="50.8831" lon="1.65476">
        <ele>2.5</ele>
        <time>2019-10-05T10:23:29Z</time>
      </trkpt>
      <trkpt lat="50.88311" lon="1.65484">
        <ele>2.5</ele>
        <time>2019-10-05T10:23:34Z</time>
      </trkpt>
      <trkpt lat="50.88314" lon="1.65491">
        <ele>2.5</ele>
        <time>2019-10-05T10:23:40Z</time>
      </trkpt>
      <trkpt lat="50.88316" lon="1.65497">
        <ele>2.5</ele>
        <time>2019-10-05T10:23:44Z</time>
      </trkpt>
      <trkpt lat="50.88319" lon="1.65504">
        <ele>2.5</ele>
        <time>2019-10-05T10:23:49Z</time>
      </trkpt>
      <trkpt lat="50.88321" lon="1.6551">
        <ele>2.5</ele>
        <time>2019-10-05T10:23:53Z</time>
      </trkpt>
      <trkpt lat="50.88324" lon="1.65517">
        <ele>2.5</ele>
        <time>2019-10-05T10:23:59Z</time>
      </trkpt>
      <trkpt lat="50.88327" lon="1.65523">
        <ele>2.5</ele>
        <time>2019-10-05T10:24:02Z</time>
      </trkpt>
      <trkpt lat="50.88329" lon="1.6553">
        <ele>2.5</ele>
        <time>2019-10-05T10:24:07Z</time>
      </trkpt>
      <trkpt lat="50.88332" lon="1.65537">
        <ele>2.5</ele>
        <time>2019-10-05T10:24:12Z</time>
      </trkpt>
      <trkpt lat="50.88335" lon="1.65543">
        <ele>2.5</ele>
        <time>2019-10-05T10:24:16Z</time>
      </trkpt>
      <trkpt lat="50.88338" lon="1.65549">
        <ele>2.5</ele>
        <time>2019-10-05T10:24:21Z</time>
      </trkpt>
      <trkpt lat="50.88341" lon="1.65555">
        <ele>2.5</ele>
        <time>2019-10-05T10:24:26Z</time>
      </trkpt>
      <trkpt lat="50.88344" lon="1.65561">
        <ele>2.5</ele>
        <time>2019-10-05T10:24:29Z</time>
      </trkpt>
      <trkpt lat="50.88348" lon="1.65568">
        <ele>2.5</ele>
        <time>2019-10-05T10:24:33Z</time>
      </trkpt>
      <trkpt lat="50.88351" lon="1.65574">
        <ele>2.5</ele>
        <time>2019-10-05T10:24:37Z</time>
      </trkpt>
      <trkpt lat="50.88355" lon="1.65579">
        <ele>2.5</ele>
        <time>2019-10-05T10:24:43Z</time>
      </trkpt>
      <trkpt lat="50.88358" lon="1.65585">
        <ele>2.5</ele>
        <time>2019-10-05T10:24:49Z</time>
      </trkpt>
      <trkpt lat="50.88359" lon="1.65593">
        <ele>2.5</ele>
        <time>2019-10-05T10:24:55Z</time>
      </trkpt>
      <trkpt lat="50.88358" lon="1.656">
        <ele>2.5</ele>
        <time>2019-10-05T10:25:01Z</time>
      </trkpt>
      <trkpt lat="50.88354" lon="1.65605">
        <ele>2.5</ele>
        <time>2019-10-05T10:25:07Z</time>
      </trkpt>
      <trkpt lat="50.88351" lon="1.65611">
        <ele>2.5</ele>
        <time>2019-10-05T10:25:13Z</time>
      </trkpt>
      <trkpt lat="50.88349" lon="1.65619">
        <ele>2.5</ele>
        <time>2019-10-05T10:25:18Z</time>
      </trkpt>
      <trkpt lat="50.88347" lon="1.65628">
        <ele>2.5</ele>
        <time>2019-10-05T10:25:22Z</time>
      </trkpt>
      <trkpt lat="50.88346" lon="1.65636">
        <ele>2.5</ele>
        <time>2019-10-05T10:25:26Z</time>
      </trkpt>
      <trkpt lat="50.88348" lon="1.65645">
        <ele>2.5</ele>
        <time>2019-10-05T10:25:31Z</time>
      </trkpt>
      <trkpt lat="50.8835" lon="1.65652">
        <ele>2.5</ele>
        <time>2019-10-05T10:25:35Z</time>
      </trkpt>
      <trkpt lat="50.88352" lon="1.65659">
        <ele>2.5</ele>
        <time>2019-10-05T10:25:40Z</time>
      </trkpt>
      <trkpt lat="50.88355" lon="1.65666">
        <ele>2.6</ele>
        <time>2019-10-05T10:25:44Z</time>
      </trkpt>
      <trkpt lat="50.88358" lon="1.65673">
        <ele>2.6</ele>
        <time>2019-10-05T10:25:48Z</time>
      </trkpt>
      <trkpt lat="50.88361" lon="1.65678">
        <ele>2.7</ele>
        <time>2019-10-05T10:25:52Z</time>
      </trkpt>
      <trkpt lat="50.88364" lon="1.65685">
        <ele>2.9</ele>
        <time>2019-10-05T10:25:57Z</time>
      </trkpt>
      <trkpt lat="50.88367" lon="1.65691">
        <ele>3</ele>
        <time>2019-10-05T10:26:01Z</time>
      </trkpt>
      <trkpt lat="50.8837" lon="1.65697">
        <ele>3.1</ele>
        <time>2019-10-05T10:26:05Z</time>
      </trkpt>
      <trkpt lat="50.88373" lon="1.65703">
        <ele>3.2</ele>
        <time>2019-10-05T10:26:09Z</time>
      </trkpt>
      <trkpt lat="50.88376" lon="1.65709">
        <ele>2.9</ele>
        <time>2019-10-05T10:26:15Z</time>
      </trkpt>
      <trkpt lat="50.88379" lon="1.65714">
        <ele>2.8</ele>
        <time>2019-10-05T10:26:20Z</time>
      </trkpt>
      <trkpt lat="50.88382" lon="1.65721">
        <ele>2.7</ele>
        <time>2019-10-05T10:26:24Z</time>
      </trkpt>
      <trkpt lat="50.88386" lon="1.65727">
        <ele>2.6</ele>
        <time>2019-10-05T10:26:29Z</time>
      </trkpt>
      <trkpt lat="50.88389" lon="1.65733">
        <ele>2.6</ele>
        <time>2019-10-05T10:26:34Z</time>
      </trkpt>
      <trkpt lat="50.88392" lon="1.6574">
        <ele>2.8</ele>
        <time>2019-10-05T10:26:39Z</time>
      </trkpt>
      <trkpt lat="50.88395" lon="1.65746">
        <ele>2.9</ele>
        <time>2019-10-05T10:26:43Z</time>
      </trkpt>
      <trkpt lat="50.88397" lon="1.65752">
        <ele>2.9</ele>
        <time>2019-10-05T10:26:47Z</time>
      </trkpt>
      <trkpt lat="50.884" lon="1.65758">
        <ele>2.9</ele>
        <time>2019-10-05T10:26:51Z</time>
      </trkpt>
      <trkpt lat="50.88403" lon="1.65765">
        <ele>2.8</ele>
        <time>2019-10-05T10:26:56Z</time>
      </trkpt>
      <trkpt lat="50.88404" lon="1.65772">
        <ele>2.8</ele>
        <time>2019-10-05T10:27:00Z</time>
      </trkpt>
      <trkpt lat="50.88404" lon="1.65781">
        <ele>3</ele>
        <time>2019-10-05T10:27:05Z</time>
      </trkpt>
      <trkpt lat="50.88403" lon="1.65788">
        <ele>3.2</ele>
        <time>2019-10-05T10:27:10Z</time>
      </trkpt>
      <trkpt lat="50.88401" lon="1.65795">
        <ele>3.5</ele>
        <time>2019-10-05T10:27:15Z</time>
      </trkpt>
      <trkpt lat="50.88398" lon="1.65801">
        <ele>3.8</ele>
        <time>2019-10-05T10:27:20Z</time>
      </trkpt>
      <trkpt lat="50.88395" lon="1.65808">
        <ele>4</ele>
        <time>2019-10-05T10:27:25Z</time>
      </trkpt>
      <trkpt lat="50.88392" lon="1.65815">
        <ele>4.2</ele>
        <time>2019-10-05T10:27:30Z</time>
      </trkpt>
      <trkpt lat="50.88391" lon="1.65821">
        <ele>4.2</ele>
        <time>2019-10-05T10:27:35Z</time>
      </trkpt>
      <trkpt lat="50.88388" lon="1.65827">
        <ele>4.2</ele>
        <time>2019-10-05T10:27:40Z</time>
      </trkpt>
      <trkpt lat="50.88384" lon="1.65833">
        <ele>4.3</ele>
        <time>2019-10-05T10:27:45Z</time>
      </trkpt>
      <trkpt lat="50.88383" lon="1.65841">
        <ele>4.1</ele>
        <time>2019-10-05T10:27:50Z</time>
      </trkpt>
      <trkpt lat="50.88382" lon="1.65849">
        <ele>4</ele>
        <time>2019-10-05T10:27:55Z</time>
      </trkpt>
      <trkpt lat="50.88381" lon="1.65857">
        <ele>4.1</ele>
        <time>2019-10-05T10:28:00Z</time>
      </trkpt>
      <trkpt lat="50.88381" lon="1.65865">
        <ele>4.1</ele>
        <time>2019-10-05T10:28:05Z</time>
      </trkpt>
      <trkpt lat="50.88379" lon="1.65873">
        <ele>4.3</ele>
        <time>2019-10-05T10:28:11Z</time>
      </trkpt>
      <trkpt lat="50.88375" lon="1.65878">
        <ele>4.8</ele>
        <time>2019-10-05T10:28:16Z</time>
      </trkpt>
      <trkpt lat="50.88371" lon="1.65884">
        <ele>5.1</ele>
        <time>2019-10-05T10:28:21Z</time>
      </trkpt>
      <trkpt lat="50.88374" lon="1.6589">
        <ele>5.1</ele>
        <time>2019-10-05T10:28:33Z</time>
      </trkpt>
      <trkpt lat="50.88374" lon="1.65898">
        <ele>4.3</ele>
        <time>2019-10-05T10:28:52Z</time>
      </trkpt>
      <trkpt lat="50.88379" lon="1.65901">
        <ele>4.4</ele>
        <time>2019-10-05T10:28:58Z</time>
      </trkpt>
      <trkpt lat="50.88382" lon="1.65907">
        <ele>4.6</ele>
        <time>2019-10-05T10:29:03Z</time>
      </trkpt>
      <trkpt lat="50.88387" lon="1.65913">
        <ele>4.6</ele>
        <time>2019-10-05T10:29:08Z</time>
      </trkpt>
      <trkpt lat="50.8839" lon="1.65918">
        <ele>4.5</ele>
        <time>2019-10-05T10:29:11Z</time>
      </trkpt>
      <trkpt lat="50.88395" lon="1.65923">
        <ele>4.2</ele>
        <time>2019-10-05T10:29:15Z</time>
      </trkpt>
      <trkpt lat="50.88399" lon="1.65926">
        <ele>3.7</ele>
        <time>2019-10-05T10:29:20Z</time>
      </trkpt>
      <trkpt lat="50.88403" lon="1.65928">
        <ele>3.3</ele>
        <time>2019-10-05T10:29:25Z</time>
      </trkpt>
      <trkpt lat="50.88408" lon="1.6593">
        <ele>3.1</ele>
        <time>2019-10-05T10:29:28Z</time>
      </trkpt>
      <trkpt lat="50.88413" lon="1.65933">
        <ele>3</ele>
        <time>2019-10-05T10:29:32Z</time>
      </trkpt>
      <trkpt lat="50.88418" lon="1.65936">
        <ele>2.8</ele>
        <time>2019-10-05T10:29:37Z</time>
      </trkpt>
      <trkpt lat="50.88423" lon="1.65939">
        <ele>2.7</ele>
        <time>2019-10-05T10:29:41Z</time>
      </trkpt>
      <trkpt lat="50.88428" lon="1.65942">
        <ele>2.8</ele>
        <time>2019-10-05T10:29:44Z</time>
      </trkpt>
      <trkpt lat="50.88433" lon="1.65947">
        <ele>3</ele>
        <time>2019-10-05T10:29:48Z</time>
      </trkpt>
      <trkpt lat="50.88436" lon="1.65952">
        <ele>3.3</ele>
        <time>2019-10-05T10:29:52Z</time>
      </trkpt>
      <trkpt lat="50.8844" lon="1.65957">
        <ele>3.6</ele>
        <time>2019-10-05T10:29:56Z</time>
      </trkpt>
      <trkpt lat="50.88444" lon="1.65961">
        <ele>4.2</ele>
        <time>2019-10-05T10:30:02Z</time>
      </trkpt>
      <trkpt lat="50.88448" lon="1.65966">
        <ele>4.5</ele>
        <time>2019-10-05T10:30:11Z</time>
      </trkpt>
      <trkpt lat="50.88452" lon="1.65968">
        <ele>4.4</ele>
        <time>2019-10-05T10:30:15Z</time>
      </trkpt>
      <trkpt lat="50.88456" lon="1.65972">
        <ele>4</ele>
        <time>2019-10-05T10:30:20Z</time>
      </trkpt>
      <trkpt lat="50.8846" lon="1.65976">
        <ele>3.4</ele>
        <time>2019-10-05T10:30:25Z</time>
      </trkpt>
      <trkpt lat="50.88465" lon="1.65979">
        <ele>3.1</ele>
        <time>2019-10-05T10:30:30Z</time>
      </trkpt>
      <trkpt lat="50.88469" lon="1.65981">
        <ele>3</ele>
        <time>2019-10-05T10:30:35Z</time>
      </trkpt>
      <trkpt lat="50.88474" lon="1.65985">
        <ele>3.1</ele>
        <time>2019-10-05T10:30:41Z</time>
      </trkpt>
      <trkpt lat="50.88477" lon="1.65991">
        <ele>3.5</ele>
        <time>2019-10-05T10:30:46Z</time>
      </trkpt>
      <trkpt lat="50.88481" lon="1.65996">
        <ele>3.9</ele>
        <time>2019-10-05T10:30:51Z</time>
      </trkpt>
      <trkpt lat="50.88486" lon="1.65998">
        <ele>4.2</ele>
        <time>2019-10-05T10:30:55Z</time>
      </trkpt>
      <trkpt lat="50.8849" lon="1.66">
        <ele>4.5</ele>
        <time>2019-10-05T10:30:58Z</time>
      </trkpt>
      <trkpt lat="50.88495" lon="1.66002">
        <ele>4.9</ele>
        <time>2019-10-05T10:31:02Z</time>
      </trkpt>
      <trkpt lat="50.885" lon="1.66006">
        <ele>5.3</ele>
        <time>2019-10-05T10:31:07Z</time>
      </trkpt>
      <trkpt lat="50.88504" lon="1.66012">
        <ele>5.7</ele>
        <time>2019-10-05T10:31:12Z</time>
      </trkpt>
      <trkpt lat="50.88508" lon="1.66017">
        <ele>5.8</ele>
        <time>2019-10-05T10:31:17Z</time>
      </trkpt>
      <trkpt lat="50.88513" lon="1.66021">
        <ele>5.9</ele>
        <time>2019-10-05T10:31:21Z</time>
      </trkpt>
      <trkpt lat="50.88517" lon="1.66025">
        <ele>5.8</ele>
        <time>2019-10-05T10:31:25Z</time>
      </trkpt>
      <trkpt lat="50.88521" lon="1.66029">
        <ele>5.6</ele>
        <time>2019-10-05T10:31:30Z</time>
      </trkpt>
      <trkpt lat="50.88525" lon="1.66033">
        <ele>5.2</ele>
        <time>2019-10-05T10:31:34Z</time>
      </trkpt>
      <trkpt lat="50.8853" lon="1.66037">
        <ele>5</ele>
        <time>2019-10-05T10:31:39Z</time>
      </trkpt>
      <trkpt lat="50.88534" lon="1.66042">
        <ele>4.9</ele>
        <time>2019-10-05T10:31:44Z</time>
      </trkpt>
      <trkpt lat="50.88537" lon="1.66048">
        <ele>4.9</ele>
        <time>2019-10-05T10:31:49Z</time>
      </trkpt>
      <trkpt lat="50.88541" lon="1.66053">
        <ele>4.5</ele>
        <time>2019-10-05T10:31:56Z</time>
      </trkpt>
      <trkpt lat="50.88545" lon="1.66056">
        <ele>4.1</ele>
        <time>2019-10-05T10:32:02Z</time>
      </trkpt>
      <trkpt lat="50.88548" lon="1.66064">
        <ele>3.9</ele>
        <time>2019-10-05T10:32:08Z</time>
      </trkpt>
      <trkpt lat="50.88553" lon="1.66067">
        <ele>3.9</ele>
        <time>2019-10-05T10:32:11Z</time>
      </trkpt>
      <trkpt lat="50.88557" lon="1.6607">
        <ele>3.9</ele>
        <time>2019-10-05T10:32:14Z</time>
      </trkpt>
      <trkpt lat="50.88562" lon="1.66075">
        <ele>4.3</ele>
        <time>2019-10-05T10:32:19Z</time>
      </trkpt>
      <trkpt lat="50.88565" lon="1.66081">
        <ele>4.8</ele>
        <time>2019-10-05T10:32:24Z</time>
      </trkpt>
      <trkpt lat="50.88567" lon="1.66089">
        <ele>5.1</ele>
        <time>2019-10-05T10:32:28Z</time>
      </trkpt>
      <trkpt lat="50.88568" lon="1.66096">
        <ele>5.5</ele>
        <time>2019-10-05T10:32:31Z</time>
      </trkpt>
      <trkpt lat="50.88568" lon="1.66104">
        <ele>6</ele>
        <time>2019-10-05T10:32:36Z</time>
      </trkpt>
      <trkpt lat="50.88567" lon="1.66112">
        <ele>6.5</ele>
        <time>2019-10-05T10:32:40Z</time>
      </trkpt>
      <trkpt lat="50.88565" lon="1.66118">
        <ele>7</ele>
        <time>2019-10-05T10:32:44Z</time>
      </trkpt>
      <trkpt lat="50.88563" lon="1.66126">
        <ele>8</ele>
        <time>2019-10-05T10:32:53Z</time>
      </trkpt>
      <trkpt lat="50.88562" lon="1.66134">
        <ele>8.6</ele>
        <time>2019-10-05T10:32:58Z</time>
      </trkpt>
      <trkpt lat="50.88562" lon="1.66142">
        <ele>8.8</ele>
        <time>2019-10-05T10:33:03Z</time>
      </trkpt>
      <trkpt lat="50.8856" lon="1.66149">
        <ele>9</ele>
        <time>2019-10-05T10:33:08Z</time>
      </trkpt>
      <trkpt lat="50.88557" lon="1.66154">
        <ele>9.2</ele>
        <time>2019-10-05T10:33:14Z</time>
      </trkpt>
      <trkpt lat="50.88552" lon="1.66155">
        <ele>9.2</ele>
        <time>2019-10-05T10:33:21Z</time>
      </trkpt>
      <trkpt lat="50.8855" lon="1.66162">
        <ele>9.1</ele>
        <time>2019-10-05T10:33:42Z</time>
      </trkpt>
      <trkpt lat="50.88551" lon="1.66169">
        <ele>9</ele>
        <time>2019-10-05T10:33:50Z</time>
      </trkpt>
      <trkpt lat="50.88551" lon="1.66178">
        <ele>8.8</ele>
        <time>2019-10-05T10:33:56Z</time>
      </trkpt>
      <trkpt lat="50.88549" lon="1.66185">
        <ele>8.8</ele>
        <time>2019-10-05T10:34:00Z</time>
      </trkpt>
      <trkpt lat="50.88547" lon="1.66192">
        <ele>8.6</ele>
        <time>2019-10-05T10:34:05Z</time>
      </trkpt>
      <trkpt lat="50.88545" lon="1.66199">
        <ele>8.6</ele>
        <time>2019-10-05T10:34:09Z</time>
      </trkpt>
      <trkpt lat="50.88542" lon="1.66204">
        <ele>8.5</ele>
        <time>2019-10-05T10:34:13Z</time>
      </trkpt>
      <trkpt lat="50.8854" lon="1.66211">
        <ele>8.4</ele>
        <time>2019-10-05T10:34:20Z</time>
      </trkpt>
      <trkpt lat="50.8854" lon="1.66219">
        <ele>8.2</ele>
        <time>2019-10-05T10:34:27Z</time>
      </trkpt>
      <trkpt lat="50.88541" lon="1.66226">
        <ele>7.2</ele>
        <time>2019-10-05T10:34:38Z</time>
      </trkpt>
      <trkpt lat="50.88542" lon="1.66233">
        <ele>5.4</ele>
        <time>2019-10-05T10:34:51Z</time>
      </trkpt>
      <trkpt lat="50.88542" lon="1.66241">
        <ele>4.2</ele>
        <time>2019-10-05T10:35:03Z</time>
      </trkpt>
      <trkpt lat="50.88545" lon="1.66256">
        <ele>8</ele>
        <time>2019-10-05T10:36:06Z</time>
      </trkpt>
      <trkpt lat="50.88548" lon="1.66262">
        <ele>8.3</ele>
        <time>2019-10-05T10:36:15Z</time>
      </trkpt>
      <trkpt lat="50.88547" lon="1.66269">
        <ele>9.4</ele>
        <time>2019-10-05T10:36:25Z</time>
      </trkpt>
      <trkpt lat="50.88547" lon="1.66276">
        <ele>10.4</ele>
        <time>2019-10-05T10:36:32Z</time>
      </trkpt>
      <trkpt lat="50.88548" lon="1.66284">
        <ele>11.8</ele>
        <time>2019-10-05T10:36:40Z</time>
      </trkpt>
      <trkpt lat="50.88548" lon="1.66291">
        <ele>12.6</ele>
        <time>2019-10-05T10:36:47Z</time>
      </trkpt>
      <trkpt lat="50.88546" lon="1.66298">
        <ele>12.7</ele>
        <time>2019-10-05T10:36:52Z</time>
      </trkpt>
      <trkpt lat="50.88545" lon="1.66305">
        <ele>12.5</ele>
        <time>2019-10-05T10:36:58Z</time>
      </trkpt>
      <trkpt lat="50.88546" lon="1.66313">
        <ele>12.2</ele>
        <time>2019-10-05T10:37:04Z</time>
      </trkpt>
      <trkpt lat="50.88543" lon="1.66319">
        <ele>11.8</ele>
        <time>2019-10-05T10:37:10Z</time>
      </trkpt>
      <trkpt lat="50.88539" lon="1.66323">
        <ele>10.3</ele>
        <time>2019-10-05T10:37:27Z</time>
      </trkpt>
      <trkpt lat="50.88533" lon="1.66326">
        <ele>10</ele>
        <time>2019-10-05T10:37:35Z</time>
      </trkpt>
      <trkpt lat="50.8853" lon="1.66334">
        <ele>9.9</ele>
        <time>2019-10-05T10:37:39Z</time>
      </trkpt>
      <trkpt lat="50.88526" lon="1.6634">
        <ele>9.8</ele>
        <time>2019-10-05T10:37:43Z</time>
      </trkpt>
      <trkpt lat="50.88522" lon="1.66344">
        <ele>9.8</ele>
        <time>2019-10-05T10:37:48Z</time>
      </trkpt>
      <trkpt lat="50.88518" lon="1.66349">
        <ele>9.6</ele>
        <time>2019-10-05T10:37:54Z</time>
      </trkpt>
      <trkpt lat="50.88514" lon="1.66353">
        <ele>9.6</ele>
        <time>2019-10-05T10:37:57Z</time>
      </trkpt>
      <trkpt lat="50.88509" lon="1.66356">
        <ele>9.6</ele>
        <time>2019-10-05T10:38:00Z</time>
      </trkpt>
      <trkpt lat="50.88504" lon="1.66359">
        <ele>9.5</ele>
        <time>2019-10-05T10:38:04Z</time>
      </trkpt>
      <trkpt lat="50.88499" lon="1.66359">
        <ele>9.4</ele>
        <time>2019-10-05T10:38:07Z</time>
      </trkpt>
      <trkpt lat="50.88495" lon="1.66359">
        <ele>9.4</ele>
        <time>2019-10-05T10:38:10Z</time>
      </trkpt>
      <trkpt lat="50.88489" lon="1.6636">
        <ele>9.3</ele>
        <time>2019-10-05T10:38:14Z</time>
      </trkpt>
      <trkpt lat="50.88484" lon="1.66361">
        <ele>9.2</ele>
        <time>2019-10-05T10:38:18Z</time>
      </trkpt>
      <trkpt lat="50.88478" lon="1.66362">
        <ele>9.2</ele>
        <time>2019-10-05T10:38:22Z</time>
      </trkpt>
      <trkpt lat="50.88474" lon="1.66364">
        <ele>9.4</ele>
        <time>2019-10-05T10:38:26Z</time>
      </trkpt>
      <trkpt lat="50.88469" lon="1.66367">
        <ele>9.6</ele>
        <time>2019-10-05T10:38:30Z</time>
      </trkpt>
      <trkpt lat="50.88464" lon="1.66367">
        <ele>10</ele>
        <time>2019-10-05T10:38:34Z</time>
      </trkpt>
      <trkpt lat="50.8846" lon="1.66367">
        <ele>10.5</ele>
        <time>2019-10-05T10:38:39Z</time>
      </trkpt>
      <trkpt lat="50.88454" lon="1.66369">
        <ele>10.9</ele>
        <time>2019-10-05T10:38:43Z</time>
      </trkpt>
      <trkpt lat="50.8845" lon="1.66372">
        <ele>11.4</ele>
        <time>2019-10-05T10:38:47Z</time>
      </trkpt>
      <trkpt lat="50.88444" lon="1.66372">
        <ele>11.8</ele>
        <time>2019-10-05T10:38:51Z</time>
      </trkpt>
      <trkpt lat="50.8844" lon="1.6637">
        <ele>12.1</ele>
        <time>2019-10-05T10:38:58Z</time>
      </trkpt>
      <trkpt lat="50.88435" lon="1.66371">
        <ele>12.2</ele>
        <time>2019-10-05T10:39:03Z</time>
      </trkpt>
      <trkpt lat="50.88429" lon="1.66373">
        <ele>12.4</ele>
        <time>2019-10-05T10:39:09Z</time>
      </trkpt>
      <trkpt lat="50.88425" lon="1.66377">
        <ele>12.6</ele>
        <time>2019-10-05T10:39:13Z</time>
      </trkpt>
      <trkpt lat="50.8842" lon="1.66379">
        <ele>12.7</ele>
        <time>2019-10-05T10:39:17Z</time>
      </trkpt>
      <trkpt lat="50.88415" lon="1.6638">
        <ele>12.8</ele>
        <time>2019-10-05T10:39:20Z</time>
      </trkpt>
      <trkpt lat="50.8841" lon="1.66383">
        <ele>13.1</ele>
        <time>2019-10-05T10:39:24Z</time>
      </trkpt>
      <trkpt lat="50.88405" lon="1.66386">
        <ele>13.5</ele>
        <time>2019-10-05T10:39:28Z</time>
      </trkpt>
      <trkpt lat="50.884" lon="1.6639">
        <ele>13.7</ele>
        <time>2019-10-05T10:39:33Z</time>
      </trkpt>
      <trkpt lat="50.88397" lon="1.66397">
        <ele>13.9</ele>
        <time>2019-10-05T10:39:38Z</time>
      </trkpt>
      <trkpt lat="50.88394" lon="1.66404">
        <ele>14.2</ele>
        <time>2019-10-05T10:39:43Z</time>
      </trkpt>
      <trkpt lat="50.88393" lon="1.66411">
        <ele>14.8</ele>
        <time>2019-10-05T10:39:52Z</time>
      </trkpt>
      <trkpt lat="50.88391" lon="1.66417">
        <ele>15.1</ele>
        <time>2019-10-05T10:39:56Z</time>
      </trkpt>
      <trkpt lat="50.88387" lon="1.66425">
        <ele>15.1</ele>
        <time>2019-10-05T10:40:00Z</time>
      </trkpt>
      <trkpt lat="50.88385" lon="1.66431">
        <ele>15.1</ele>
        <time>2019-10-05T10:40:04Z</time>
      </trkpt>
      <trkpt lat="50.88385" lon="1.6644">
        <ele>15.4</ele>
        <time>2019-10-05T10:40:10Z</time>
      </trkpt>
      <trkpt lat="50.88385" lon="1.66448">
        <ele>15.5</ele>
        <time>2019-10-05T10:40:14Z</time>
      </trkpt>
      <trkpt lat="50.88386" lon="1.66456">
        <ele>15.4</ele>
        <time>2019-10-05T10:40:19Z</time>
      </trkpt>
      <trkpt lat="50.88388" lon="1.66462">
        <ele>15.2</ele>
        <time>2019-10-05T10:40:24Z</time>
      </trkpt>
      <trkpt lat="50.88389" lon="1.66469">
        <ele>14.9</ele>
        <time>2019-10-05T10:40:28Z</time>
      </trkpt>
      <trkpt lat="50.8839" lon="1.66477">
        <ele>14.5</ele>
        <time>2019-10-05T10:40:33Z</time>
      </trkpt>
      <trkpt lat="50.88392" lon="1.66484">
        <ele>14.3</ele>
        <time>2019-10-05T10:40:37Z</time>
      </trkpt>
      <trkpt lat="50.88394" lon="1.66491">
        <ele>13.8</ele>
        <time>2019-10-05T10:40:42Z</time>
      </trkpt>
      <trkpt lat="50.88397" lon="1.66499">
        <ele>13.2</ele>
        <time>2019-10-05T10:40:46Z</time>
      </trkpt>
      <trkpt lat="50.884" lon="1.66505">
        <ele>12.8</ele>
        <time>2019-10-05T10:40:49Z</time>
      </trkpt>
      <trkpt lat="50.88403" lon="1.66512">
        <ele>12.5</ele>
        <time>2019-10-05T10:40:54Z</time>
      </trkpt>
      <trkpt lat="50.88406" lon="1.66518">
        <ele>12.3</ele>
        <time>2019-10-05T10:40:59Z</time>
      </trkpt>
      <trkpt lat="50.88409" lon="1.66525">
        <ele>12.2</ele>
        <time>2019-10-05T10:41:03Z</time>
      </trkpt>
      <trkpt lat="50.88411" lon="1.66532">
        <ele>12.1</ele>
        <time>2019-10-05T10:41:09Z</time>
      </trkpt>
      <trkpt lat="50.88414" lon="1.66538">
        <ele>12</ele>
        <time>2019-10-05T10:41:14Z</time>
      </trkpt>
      <trkpt lat="50.88417" lon="1.66544">
        <ele>11.8</ele>
        <time>2019-10-05T10:41:18Z</time>
      </trkpt>
      <trkpt lat="50.8842" lon="1.66551">
        <ele>11.5</ele>
        <time>2019-10-05T10:41:22Z</time>
      </trkpt>
      <trkpt lat="50.88424" lon="1.66557">
        <ele>10.9</ele>
        <time>2019-10-05T10:41:27Z</time>
      </trkpt>
      <trkpt lat="50.88426" lon="1.66563">
        <ele>10.4</ele>
        <time>2019-10-05T10:41:31Z</time>
      </trkpt>
      <trkpt lat="50.88429" lon="1.6657">
        <ele>9.9</ele>
        <time>2019-10-05T10:41:35Z</time>
      </trkpt>
      <trkpt lat="50.88432" lon="1.66576">
        <ele>9.5</ele>
        <time>2019-10-05T10:41:39Z</time>
      </trkpt>
      <trkpt lat="50.88436" lon="1.66582">
        <ele>9.1</ele>
        <time>2019-10-05T10:41:43Z</time>
      </trkpt>
      <trkpt lat="50.88439" lon="1.66588">
        <ele>8.8</ele>
        <time>2019-10-05T10:41:47Z</time>
      </trkpt>
      <trkpt lat="50.88442" lon="1.66595">
        <ele>8.7</ele>
        <time>2019-10-05T10:41:50Z</time>
      </trkpt>
      <trkpt lat="50.88445" lon="1.66601">
        <ele>8.3</ele>
        <time>2019-10-05T10:41:56Z</time>
      </trkpt>
      <trkpt lat="50.88448" lon="1.66609">
        <ele>7.8</ele>
        <time>2019-10-05T10:42:01Z</time>
      </trkpt>
      <trkpt lat="50.88451" lon="1.66616">
        <ele>7.3</ele>
        <time>2019-10-05T10:42:05Z</time>
      </trkpt>
      <trkpt lat="50.88455" lon="1.66623">
        <ele>6.7</ele>
        <time>2019-10-05T10:42:09Z</time>
      </trkpt>
      <trkpt lat="50.88457" lon="1.6663">
        <ele>6.2</ele>
        <time>2019-10-05T10:42:13Z</time>
      </trkpt>
      <trkpt lat="50.88461" lon="1.66636">
        <ele>5.9</ele>
        <time>2019-10-05T10:42:18Z</time>
      </trkpt>
      <trkpt lat="50.88464" lon="1.66642">
        <ele>5.8</ele>
        <time>2019-10-05T10:42:25Z</time>
      </trkpt>
      <trkpt lat="50.88467" lon="1.66647">
        <ele>6</ele>
        <time>2019-10-05T10:42:43Z</time>
      </trkpt>
      <trkpt lat="50.88469" lon="1.66654">
        <ele>8.4</ele>
        <time>2019-10-05T10:43:19Z</time>
      </trkpt>
      <trkpt lat="50.8847" lon="1.6666">
        <ele>9.3</ele>
        <time>2019-10-05T10:43:49Z</time>
      </trkpt>
      <trkpt lat="50.88475" lon="1.6666">
        <ele>11.4</ele>
        <time>2019-10-05T10:44:36Z</time>
      </trkpt>
      <trkpt lat="50.88478" lon="1.66665">
        <ele>9</ele>
        <time>2019-10-05T10:47:56Z</time>
      </trkpt>
      <trkpt lat="50.88475" lon="1.6666">
        <ele>8.3</ele>
        <time>2019-10-05T10:48:46Z</time>
      </trkpt>
      <trkpt lat="50.88471" lon="1.66653">
        <ele>8.1</ele>
        <time>2019-10-05T10:48:55Z</time>
      </trkpt>
      <trkpt lat="50.88467" lon="1.66646">
        <ele>8</ele>
        <time>2019-10-05T10:48:59Z</time>
      </trkpt>
      <trkpt lat="50.88464" lon="1.6664">
        <ele>7.9</ele>
        <time>2019-10-05T10:49:03Z</time>
      </trkpt>
      <trkpt lat="50.88461" lon="1.66634">
        <ele>7.7</ele>
        <time>2019-10-05T10:49:08Z</time>
      </trkpt>
      <trkpt lat="50.88456" lon="1.66629">
        <ele>7.7</ele>
        <time>2019-10-05T10:49:12Z</time>
      </trkpt>
      <trkpt lat="50.88453" lon="1.66623">
        <ele>7.5</ele>
        <time>2019-10-05T10:49:17Z</time>
      </trkpt>
      <trkpt lat="50.88451" lon="1.66616">
        <ele>6.9</ele>
        <time>2019-10-05T10:49:27Z</time>
      </trkpt>
      <trkpt lat="50.88453" lon="1.66609">
        <ele>6.3</ele>
        <time>2019-10-05T10:49:33Z</time>
      </trkpt>
      <trkpt lat="50.88455" lon="1.66602">
        <ele>5.9</ele>
        <time>2019-10-05T10:49:38Z</time>
      </trkpt>
      <trkpt lat="50.88455" lon="1.66594">
        <ele>5.6</ele>
        <time>2019-10-05T10:49:43Z</time>
      </trkpt>
      <trkpt lat="50.88458" lon="1.66588">
        <ele>5.2</ele>
        <time>2019-10-05T10:49:48Z</time>
      </trkpt>
      <trkpt lat="50.88463" lon="1.66586">
        <ele>4.8</ele>
        <time>2019-10-05T10:49:53Z</time>
      </trkpt>
      <trkpt lat="50.88468" lon="1.66585">
        <ele>4.4</ele>
        <time>2019-10-05T10:49:58Z</time>
      </trkpt>
      <trkpt lat="50.88473" lon="1.66584">
        <ele>4</ele>
        <time>2019-10-05T10:50:02Z</time>
      </trkpt>
      <trkpt lat="50.88477" lon="1.6658">
        <ele>3.6</ele>
        <time>2019-10-05T10:50:07Z</time>
      </trkpt>
      <trkpt lat="50.88481" lon="1.66575">
        <ele>3.2</ele>
        <time>2019-10-05T10:50:12Z</time>
      </trkpt>
      <trkpt lat="50.88486" lon="1.6657">
        <ele>2.8</ele>
        <time>2019-10-05T10:50:17Z</time>
      </trkpt>
      <trkpt lat="50.8849" lon="1.66566">
        <ele>2.7</ele>
        <time>2019-10-05T10:50:21Z</time>
      </trkpt>
      <trkpt lat="50.88493" lon="1.6656">
        <ele>2.6</ele>
        <time>2019-10-05T10:50:25Z</time>
      </trkpt>
      <trkpt lat="50.88497" lon="1.66555">
        <ele>2.6</ele>
        <time>2019-10-05T10:50:30Z</time>
      </trkpt>
      <trkpt lat="50.88501" lon="1.6655">
        <ele>2.6</ele>
        <time>2019-10-05T10:50:36Z</time>
      </trkpt>
      <trkpt lat="50.88505" lon="1.66545">
        <ele>2.6</ele>
        <time>2019-10-05T10:50:41Z</time>
      </trkpt>
      <trkpt lat="50.88507" lon="1.66539">
        <ele>2.6</ele>
        <time>2019-10-05T10:50:45Z</time>
      </trkpt>
      <trkpt lat="50.8851" lon="1.6653">
        <ele>2.6</ele>
        <time>2019-10-05T10:50:49Z</time>
      </trkpt>
      <trkpt lat="50.88512" lon="1.66524">
        <ele>2.6</ele>
        <time>2019-10-05T10:50:53Z</time>
      </trkpt>
      <trkpt lat="50.88514" lon="1.66515">
        <ele>2.6</ele>
        <time>2019-10-05T10:50:58Z</time>
      </trkpt>
      <trkpt lat="50.88516" lon="1.66508">
        <ele>2.6</ele>
        <time>2019-10-05T10:51:01Z</time>
      </trkpt>
      <trkpt lat="50.88519" lon="1.66502">
        <ele>2.6</ele>
        <time>2019-10-05T10:51:05Z</time>
      </trkpt>
      <trkpt lat="50.88522" lon="1.66498">
        <ele>2.6</ele>
        <time>2019-10-05T10:51:09Z</time>
      </trkpt>
      <trkpt lat="50.88527" lon="1.66492">
        <ele>2.6</ele>
        <time>2019-10-05T10:51:14Z</time>
      </trkpt>
      <trkpt lat="50.88532" lon="1.66489">
        <ele>2.6</ele>
        <time>2019-10-05T10:51:19Z</time>
      </trkpt>
      <trkpt lat="50.88536" lon="1.66483">
        <ele>2.6</ele>
        <time>2019-10-05T10:51:25Z</time>
      </trkpt>
      <trkpt lat="50.8854" lon="1.66478">
        <ele>2.6</ele>
        <time>2019-10-05T10:51:31Z</time>
      </trkpt>
      <trkpt lat="50.88545" lon="1.66474">
        <ele>2.6</ele>
        <time>2019-10-05T10:51:36Z</time>
      </trkpt>
      <trkpt lat="50.88549" lon="1.66467">
        <ele>2.6</ele>
        <time>2019-10-05T10:51:40Z</time>
      </trkpt>
      <trkpt lat="50.88551" lon="1.6646">
        <ele>2.6</ele>
        <time>2019-10-05T10:51:44Z</time>
      </trkpt>
      <trkpt lat="50.88553" lon="1.66453">
        <ele>2.6</ele>
        <time>2019-10-05T10:51:48Z</time>
      </trkpt>
      <trkpt lat="50.88554" lon="1.66445">
        <ele>2.6</ele>
        <time>2019-10-05T10:51:52Z</time>
      </trkpt>
      <trkpt lat="50.88556" lon="1.66438">
        <ele>2.6</ele>
        <time>2019-10-05T10:52:00Z</time>
      </trkpt>
      <trkpt lat="50.88556" lon="1.6643">
        <ele>2.6</ele>
        <time>2019-10-05T10:52:06Z</time>
      </trkpt>
      <trkpt lat="50.88557" lon="1.6642">
        <ele>2.6</ele>
        <time>2019-10-05T10:52:10Z</time>
      </trkpt>
      <trkpt lat="50.88558" lon="1.66413">
        <ele>2.6</ele>
        <time>2019-10-05T10:52:13Z</time>
      </trkpt>
      <trkpt lat="50.88557" lon="1.66406">
        <ele>2.6</ele>
        <time>2019-10-05T10:52:18Z</time>
      </trkpt>
      <trkpt lat="50.88556" lon="1.66398">
        <ele>2.6</ele>
        <time>2019-10-05T10:52:24Z</time>
      </trkpt>
      <trkpt lat="50.8856" lon="1.66393">
        <ele>2.6</ele>
        <time>2019-10-05T10:52:30Z</time>
      </trkpt>
      <trkpt lat="50.88564" lon="1.66388">
        <ele>2.6</ele>
        <time>2019-10-05T10:52:33Z</time>
      </trkpt>
      <trkpt lat="50.88569" lon="1.66383">
        <ele>2.6</ele>
        <time>2019-10-05T10:52:38Z</time>
      </trkpt>
      <trkpt lat="50.88573" lon="1.66378">
        <ele>2.6</ele>
        <time>2019-10-05T10:52:42Z</time>
      </trkpt>
      <trkpt lat="50.88577" lon="1.66374">
        <ele>2.6</ele>
        <time>2019-10-05T10:52:46Z</time>
      </trkpt>
      <trkpt lat="50.88582" lon="1.66369">
        <ele>2.6</ele>
        <time>2019-10-05T10:52:51Z</time>
      </trkpt>
      <trkpt lat="50.88586" lon="1.66366">
        <ele>2.6</ele>
        <time>2019-10-05T10:52:56Z</time>
      </trkpt>
      <trkpt lat="50.88591" lon="1.66363">
        <ele>2.6</ele>
        <time>2019-10-05T10:53:01Z</time>
      </trkpt>
      <trkpt lat="50.88596" lon="1.66359">
        <ele>2.6</ele>
        <time>2019-10-05T10:53:06Z</time>
      </trkpt>
      <trkpt lat="50.886" lon="1.66355">
        <ele>2.6</ele>
        <time>2019-10-05T10:53:10Z</time>
      </trkpt>
      <trkpt lat="50.88603" lon="1.6635">
        <ele>2.6</ele>
        <time>2019-10-05T10:53:17Z</time>
      </trkpt>
      <trkpt lat="50.88605" lon="1.66342">
        <ele>2.6</ele>
        <time>2019-10-05T10:53:20Z</time>
      </trkpt>
      <trkpt lat="50.88606" lon="1.66335">
        <ele>2.6</ele>
        <time>2019-10-05T10:53:24Z</time>
      </trkpt>
      <trkpt lat="50.88608" lon="1.66328">
        <ele>2.6</ele>
        <time>2019-10-05T10:53:30Z</time>
      </trkpt>
      <trkpt lat="50.88608" lon="1.66321">
        <ele>2.6</ele>
        <time>2019-10-05T10:53:37Z</time>
      </trkpt>
      <trkpt lat="50.88611" lon="1.66314">
        <ele>2.6</ele>
        <time>2019-10-05T10:53:43Z</time>
      </trkpt>
      <trkpt lat="50.88612" lon="1.66306">
        <ele>2.6</ele>
        <time>2019-10-05T10:53:49Z</time>
      </trkpt>
      <trkpt lat="50.88612" lon="1.66298">
        <ele>2.6</ele>
        <time>2019-10-05T10:53:55Z</time>
      </trkpt>
      <trkpt lat="50.88612" lon="1.6629">
        <ele>2.6</ele>
        <time>2019-10-05T10:54:01Z</time>
      </trkpt>
      <trkpt lat="50.88613" lon="1.66282">
        <ele>2.6</ele>
        <time>2019-10-05T10:54:08Z</time>
      </trkpt>
      <trkpt lat="50.88614" lon="1.66273">
        <ele>2.6</ele>
        <time>2019-10-05T10:54:15Z</time>
      </trkpt>
      <trkpt lat="50.88613" lon="1.66264">
        <ele>2.6</ele>
        <time>2019-10-05T10:54:20Z</time>
      </trkpt>
      <trkpt lat="50.88613" lon="1.66257">
        <ele>2.6</ele>
        <time>2019-10-05T10:54:23Z</time>
      </trkpt>
      <trkpt lat="50.88612" lon="1.66249">
        <ele>2.6</ele>
        <time>2019-10-05T10:54:27Z</time>
      </trkpt>
      <trkpt lat="50.88611" lon="1.6624">
        <ele>2.6</ele>
        <time>2019-10-05T10:54:31Z</time>
      </trkpt>
      <trkpt lat="50.88611" lon="1.66232">
        <ele>2.6</ele>
        <time>2019-10-05T10:54:35Z</time>
      </trkpt>
      <trkpt lat="50.8861" lon="1.66225">
        <ele>2.6</ele>
        <time>2019-10-05T10:54:39Z</time>
      </trkpt>
      <trkpt lat="50.88611" lon="1.66217">
        <ele>2.6</ele>
        <time>2019-10-05T10:54:43Z</time>
      </trkpt>
      <trkpt lat="50.88612" lon="1.66209">
        <ele>2.6</ele>
        <time>2019-10-05T10:54:48Z</time>
      </trkpt>
      <trkpt lat="50.88613" lon="1.66202">
        <ele>2.6</ele>
        <time>2019-10-05T10:54:52Z</time>
      </trkpt>
      <trkpt lat="50.88615" lon="1.66195">
        <ele>2.6</ele>
        <time>2019-10-05T10:54:56Z</time>
      </trkpt>
      <trkpt lat="50.88616" lon="1.66186">
        <ele>2.6</ele>
        <time>2019-10-05T10:55:02Z</time>
      </trkpt>
      <trkpt lat="50.88618" lon="1.66178">
        <ele>2.6</ele>
        <time>2019-10-05T10:55:07Z</time>
      </trkpt>
      <trkpt lat="50.88622" lon="1.6617">
        <ele>2.6</ele>
        <time>2019-10-05T10:55:12Z</time>
      </trkpt>
      <trkpt lat="50.88625" lon="1.66164">
        <ele>2.6</ele>
        <time>2019-10-05T10:55:14Z</time>
      </trkpt>
      <trkpt lat="50.88628" lon="1.66156">
        <ele>2.6</ele>
        <time>2019-10-05T10:55:17Z</time>
      </trkpt>
      <trkpt lat="50.88629" lon="1.66149">
        <ele>2.6</ele>
        <time>2019-10-05T10:55:21Z</time>
      </trkpt>
      <trkpt lat="50.88628" lon="1.6614">
        <ele>2.6</ele>
        <time>2019-10-05T10:55:28Z</time>
      </trkpt>
      <trkpt lat="50.8863" lon="1.66133">
        <ele>2.6</ele>
        <time>2019-10-05T10:55:35Z</time>
      </trkpt>
      <trkpt lat="50.88632" lon="1.66125">
        <ele>2.6</ele>
        <time>2019-10-05T10:55:40Z</time>
      </trkpt>
      <trkpt lat="50.88634" lon="1.66117">
        <ele>2.5</ele>
        <time>2019-10-05T10:55:44Z</time>
      </trkpt>
      <trkpt lat="50.88638" lon="1.66111">
        <ele>2.5</ele>
        <time>2019-10-05T10:55:49Z</time>
      </trkpt>
      <trkpt lat="50.88642" lon="1.66107">
        <ele>2.5</ele>
        <time>2019-10-05T10:55:53Z</time>
      </trkpt>
      <trkpt lat="50.88643" lon="1.66099">
        <ele>2.5</ele>
        <time>2019-10-05T10:55:56Z</time>
      </trkpt>
      <trkpt lat="50.88646" lon="1.66093">
        <ele>2.5</ele>
        <time>2019-10-05T10:56:00Z</time>
      </trkpt>
      <trkpt lat="50.88649" lon="1.66086">
        <ele>2.5</ele>
        <time>2019-10-05T10:56:04Z</time>
      </trkpt>
      <trkpt lat="50.88651" lon="1.66079">
        <ele>2.5</ele>
        <time>2019-10-05T10:56:09Z</time>
      </trkpt>
      <trkpt lat="50.88655" lon="1.66073">
        <ele>2.5</ele>
        <time>2019-10-05T10:56:15Z</time>
      </trkpt>
      <trkpt lat="50.88658" lon="1.66066">
        <ele>2.5</ele>
        <time>2019-10-05T10:56:21Z</time>
      </trkpt>
      <trkpt lat="50.88663" lon="1.66063">
        <ele>2.5</ele>
        <time>2019-10-05T10:56:24Z</time>
      </trkpt>
      <trkpt lat="50.88667" lon="1.6606">
        <ele>2.5</ele>
        <time>2019-10-05T10:56:27Z</time>
      </trkpt>
      <trkpt lat="50.88671" lon="1.66054">
        <ele>2.5</ele>
        <time>2019-10-05T10:56:31Z</time>
      </trkpt>
      <trkpt lat="50.88675" lon="1.6605">
        <ele>2.5</ele>
        <time>2019-10-05T10:56:34Z</time>
      </trkpt>
      <trkpt lat="50.88679" lon="1.66046">
        <ele>2.5</ele>
        <time>2019-10-05T10:56:37Z</time>
      </trkpt>
      <trkpt lat="50.88684" lon="1.66041">
        <ele>2.5</ele>
        <time>2019-10-05T10:56:41Z</time>
      </trkpt>
      <trkpt lat="50.88688" lon="1.66036">
        <ele>2.5</ele>
        <time>2019-10-05T10:56:45Z</time>
      </trkpt>
      <trkpt lat="50.88693" lon="1.66032">
        <ele>2.5</ele>
        <time>2019-10-05T10:56:50Z</time>
      </trkpt>
      <trkpt lat="50.88698" lon="1.66031">
        <ele>2.5</ele>
        <time>2019-10-05T10:56:58Z</time>
      </trkpt>
      <trkpt lat="50.88703" lon="1.66031">
        <ele>2.5</ele>
        <time>2019-10-05T10:57:03Z</time>
      </trkpt>
      <trkpt lat="50.88707" lon="1.66033">
        <ele>2.5</ele>
        <time>2019-10-05T10:57:12Z</time>
      </trkpt>
      <trkpt lat="50.88712" lon="1.66034">
        <ele>2.5</ele>
        <time>2019-10-05T10:57:19Z</time>
      </trkpt>
      <trkpt lat="50.88716" lon="1.66032">
        <ele>2.5</ele>
        <time>2019-10-05T10:57:22Z</time>
      </trkpt>
      <trkpt lat="50.88721" lon="1.66028">
        <ele>2.5</ele>
        <time>2019-10-05T10:57:26Z</time>
      </trkpt>
      <trkpt lat="50.88724" lon="1.66021">
        <ele>2.5</ele>
        <time>2019-10-05T10:57:30Z</time>
      </trkpt>
      <trkpt lat="50.88727" lon="1.66015">
        <ele>2.5</ele>
        <time>2019-10-05T10:57:35Z</time>
      </trkpt>
      <trkpt lat="50.8873" lon="1.66009">
        <ele>2.5</ele>
        <time>2019-10-05T10:57:40Z</time>
      </trkpt>
      <trkpt lat="50.88734" lon="1.66006">
        <ele>2.5</ele>
        <time>2019-10-05T10:57:46Z</time>
      </trkpt>
      <trkpt lat="50.88739" lon="1.66005">
        <ele>2.5</ele>
        <time>2019-10-05T10:57:52Z</time>
      </trkpt>
      <trkpt lat="50.88743" lon="1.66003">
        <ele>2.5</ele>
        <time>2019-10-05T10:57:58Z</time>
      </trkpt>
      <trkpt lat="50.88747" lon="1.66007">
        <ele>2.5</ele>
        <time>2019-10-05T10:58:09Z</time>
      </trkpt>
      <trkpt lat="50.8875" lon="1.66013">
        <ele>2.5</ele>
        <time>2019-10-05T10:58:14Z</time>
      </trkpt>
      <trkpt lat="50.88753" lon="1.6602">
        <ele>2.5</ele>
        <time>2019-10-05T10:58:19Z</time>
      </trkpt>
      <trkpt lat="50.88755" lon="1.66027">
        <ele>2.5</ele>
        <time>2019-10-05T10:58:25Z</time>
      </trkpt>
      <trkpt lat="50.88756" lon="1.66035">
        <ele>2.5</ele>
        <time>2019-10-05T10:58:32Z</time>
      </trkpt>
      <trkpt lat="50.88757" lon="1.66042">
        <ele>2.5</ele>
        <time>2019-10-05T10:58:38Z</time>
      </trkpt>
      <trkpt lat="50.8876" lon="1.66049">
        <ele>2.5</ele>
        <time>2019-10-05T10:58:44Z</time>
      </trkpt>
      <trkpt lat="50.88763" lon="1.66055">
        <ele>2.5</ele>
        <time>2019-10-05T10:58:50Z</time>
      </trkpt>
      <trkpt lat="50.88766" lon="1.66061">
        <ele>2.5</ele>
        <time>2019-10-05T10:58:56Z</time>
      </trkpt>
      <trkpt lat="50.88768" lon="1.66069">
        <ele>2.5</ele>
        <time>2019-10-05T10:59:02Z</time>
      </trkpt>
      <trkpt lat="50.88769" lon="1.66076">
        <ele>2.5</ele>
        <time>2019-10-05T10:59:10Z</time>
      </trkpt>
      <trkpt lat="50.88771" lon="1.66083">
        <ele>2.5</ele>
        <time>2019-10-05T10:59:15Z</time>
      </trkpt>
      <trkpt lat="50.88775" lon="1.66087">
        <ele>2.5</ele>
        <time>2019-10-05T10:59:20Z</time>
      </trkpt>
      <trkpt lat="50.8878" lon="1.66089">
        <ele>2.5</ele>
        <time>2019-10-05T10:59:28Z</time>
      </trkpt>
      <trkpt lat="50.88783" lon="1.66094">
        <ele>2.5</ele>
        <time>2019-10-05T11:00:24Z</time>
      </trkpt>
      <trkpt lat="50.88785" lon="1.66101">
        <ele>2.5</ele>
        <time>2019-10-05T11:34:40Z</time>
      </trkpt>
      <trkpt lat="50.88787" lon="1.66095">
        <ele>4</ele>
        <time>2019-10-05T11:36:14Z</time>
      </trkpt>
      <trkpt lat="50.88783" lon="1.66096">
        <ele>5.7</ele>
        <time>2019-10-05T11:42:15Z</time>
      </trkpt>
      <trkpt lat="50.88787" lon="1.66092">
        <ele>4.1</ele>
        <time>2019-10-05T12:01:34Z</time>
      </trkpt>
      <trkpt lat="50.88792" lon="1.6609">
        <ele>5.2</ele>
        <time>2019-10-05T12:01:48Z</time>
      </trkpt>
      <trkpt lat="50.88796" lon="1.66088">
        <ele>5.6</ele>
        <time>2019-10-05T12:01:53Z</time>
      </trkpt>
      <trkpt lat="50.88801" lon="1.66087">
        <ele>5.8</ele>
        <time>2019-10-05T12:01:58Z</time>
      </trkpt>
      <trkpt lat="50.88806" lon="1.66085">
        <ele>6</ele>
        <time>2019-10-05T12:02:04Z</time>
      </trkpt>
      <trkpt lat="50.88811" lon="1.66085">
        <ele>6.2</ele>
        <time>2019-10-05T12:02:09Z</time>
      </trkpt>
      <trkpt lat="50.88815" lon="1.66085">
        <ele>6.3</ele>
        <time>2019-10-05T12:02:13Z</time>
      </trkpt>
      <trkpt lat="50.8882" lon="1.66087">
        <ele>6.3</ele>
        <time>2019-10-05T12:02:19Z</time>
      </trkpt>
      <trkpt lat="50.88825" lon="1.66088">
        <ele>6.2</ele>
        <time>2019-10-05T12:02:24Z</time>
      </trkpt>
      <trkpt lat="50.88831" lon="1.66087">
        <ele>6.4</ele>
        <time>2019-10-05T12:02:29Z</time>
      </trkpt>
      <trkpt lat="50.88835" lon="1.66086">
        <ele>6.6</ele>
        <time>2019-10-05T12:02:33Z</time>
      </trkpt>
      <trkpt lat="50.88841" lon="1.66085">
        <ele>7</ele>
        <time>2019-10-05T12:02:38Z</time>
      </trkpt>
      <trkpt lat="50.88846" lon="1.66083">
        <ele>7.5</ele>
        <time>2019-10-05T12:02:43Z</time>
      </trkpt>
      <trkpt lat="50.88851" lon="1.66082">
        <ele>8.1</ele>
        <time>2019-10-05T12:02:54Z</time>
      </trkpt>
      <trkpt lat="50.88853" lon="1.66089">
        <ele>8</ele>
        <time>2019-10-05T12:03:01Z</time>
      </trkpt>
      <trkpt lat="50.88857" lon="1.66094">
        <ele>8</ele>
        <time>2019-10-05T12:03:06Z</time>
      </trkpt>
      <trkpt lat="50.88861" lon="1.66097">
        <ele>7.9</ele>
        <time>2019-10-05T12:03:09Z</time>
      </trkpt>
      <trkpt lat="50.88866" lon="1.66099">
        <ele>7.9</ele>
        <time>2019-10-05T12:03:12Z</time>
      </trkpt>
      <trkpt lat="50.88871" lon="1.66102">
        <ele>7.8</ele>
        <time>2019-10-05T12:03:16Z</time>
      </trkpt>
      <trkpt lat="50.88876" lon="1.66106">
        <ele>7.5</ele>
        <time>2019-10-05T12:03:20Z</time>
      </trkpt>
      <trkpt lat="50.88881" lon="1.6611">
        <ele>7.3</ele>
        <time>2019-10-05T12:03:25Z</time>
      </trkpt>
      <trkpt lat="50.88885" lon="1.66114">
        <ele>6.9</ele>
        <time>2019-10-05T12:03:29Z</time>
      </trkpt>
      <trkpt lat="50.8889" lon="1.66118">
        <ele>6.6</ele>
        <time>2019-10-05T12:03:34Z</time>
      </trkpt>
      <trkpt lat="50.88894" lon="1.66122">
        <ele>6.4</ele>
        <time>2019-10-05T12:03:38Z</time>
      </trkpt>
      <trkpt lat="50.88898" lon="1.66126">
        <ele>6.3</ele>
        <time>2019-10-05T12:03:42Z</time>
      </trkpt>
      <trkpt lat="50.88903" lon="1.66129">
        <ele>6</ele>
        <time>2019-10-05T12:03:49Z</time>
      </trkpt>
      <trkpt lat="50.88906" lon="1.66134">
        <ele>5.5</ele>
        <time>2019-10-05T12:03:55Z</time>
      </trkpt>
      <trkpt lat="50.8891" lon="1.66139">
        <ele>5.1</ele>
        <time>2019-10-05T12:03:59Z</time>
      </trkpt>
      <trkpt lat="50.88914" lon="1.66143">
        <ele>4.6</ele>
        <time>2019-10-05T12:04:04Z</time>
      </trkpt>
      <trkpt lat="50.88918" lon="1.6615">
        <ele>4.3</ele>
        <time>2019-10-05T12:04:09Z</time>
      </trkpt>
      <trkpt lat="50.88922" lon="1.66155">
        <ele>4.2</ele>
        <time>2019-10-05T12:04:14Z</time>
      </trkpt>
      <trkpt lat="50.88927" lon="1.66159">
        <ele>4</ele>
        <time>2019-10-05T12:04:19Z</time>
      </trkpt>
      <trkpt lat="50.88932" lon="1.66162">
        <ele>4</ele>
        <time>2019-10-05T12:04:22Z</time>
      </trkpt>
      <trkpt lat="50.88937" lon="1.66166">
        <ele>4.1</ele>
        <time>2019-10-05T12:04:26Z</time>
      </trkpt>
      <trkpt lat="50.88939" lon="1.66173">
        <ele>4.3</ele>
        <time>2019-10-05T12:04:40Z</time>
      </trkpt>
      <trkpt lat="50.88942" lon="1.66179">
        <ele>5</ele>
        <time>2019-10-05T12:04:47Z</time>
      </trkpt>
      <trkpt lat="50.88946" lon="1.66181">
        <ele>5.6</ele>
        <time>2019-10-05T12:04:53Z</time>
      </trkpt>
      <trkpt lat="50.88951" lon="1.66185">
        <ele>5.7</ele>
        <time>2019-10-05T12:04:59Z</time>
      </trkpt>
      <trkpt lat="50.88955" lon="1.6619">
        <ele>5.4</ele>
        <time>2019-10-05T12:05:07Z</time>
      </trkpt>
      <trkpt lat="50.88958" lon="1.66195">
        <ele>5.2</ele>
        <time>2019-10-05T12:05:12Z</time>
      </trkpt>
      <trkpt lat="50.88963" lon="1.662">
        <ele>5.1</ele>
        <time>2019-10-05T12:05:16Z</time>
      </trkpt>
      <trkpt lat="50.88966" lon="1.66205">
        <ele>5</ele>
        <time>2019-10-05T12:05:20Z</time>
      </trkpt>
      <trkpt lat="50.8897" lon="1.6621">
        <ele>5</ele>
        <time>2019-10-05T12:05:24Z</time>
      </trkpt>
      <trkpt lat="50.88974" lon="1.66216">
        <ele>4.9</ele>
        <time>2019-10-05T12:05:28Z</time>
      </trkpt>
      <trkpt lat="50.88979" lon="1.66221">
        <ele>4.9</ele>
        <time>2019-10-05T12:05:32Z</time>
      </trkpt>
      <trkpt lat="50.88984" lon="1.66227">
        <ele>4.8</ele>
        <time>2019-10-05T12:05:36Z</time>
      </trkpt>
      <trkpt lat="50.88988" lon="1.66232">
        <ele>4.8</ele>
        <time>2019-10-05T12:05:39Z</time>
      </trkpt>
      <trkpt lat="50.88993" lon="1.66237">
        <ele>4.6</ele>
        <time>2019-10-05T12:05:43Z</time>
      </trkpt>
      <trkpt lat="50.88997" lon="1.66241">
        <ele>4.5</ele>
        <time>2019-10-05T12:05:47Z</time>
      </trkpt>
      <trkpt lat="50.89001" lon="1.66246">
        <ele>4.3</ele>
        <time>2019-10-05T12:05:51Z</time>
      </trkpt>
      <trkpt lat="50.89006" lon="1.66252">
        <ele>4</ele>
        <time>2019-10-05T12:05:55Z</time>
      </trkpt>
      <trkpt lat="50.8901" lon="1.66257">
        <ele>3.5</ele>
        <time>2019-10-05T12:06:01Z</time>
      </trkpt>
      <trkpt lat="50.89014" lon="1.66262">
        <ele>3.1</ele>
        <time>2019-10-05T12:06:05Z</time>
      </trkpt>
      <trkpt lat="50.89019" lon="1.66267">
        <ele>2.8</ele>
        <time>2019-10-05T12:06:09Z</time>
      </trkpt>
      <trkpt lat="50.89023" lon="1.66271">
        <ele>2.7</ele>
        <time>2019-10-05T12:06:13Z</time>
      </trkpt>
      <trkpt lat="50.89027" lon="1.66277">
        <ele>2.6</ele>
        <time>2019-10-05T12:06:16Z</time>
      </trkpt>
      <trkpt lat="50.89031" lon="1.66282">
        <ele>2.6</ele>
        <time>2019-10-05T12:06:20Z</time>
      </trkpt>
      <trkpt lat="50.89035" lon="1.66287">
        <ele>2.6</ele>
        <time>2019-10-05T12:06:24Z</time>
      </trkpt>
      <trkpt lat="50.8904" lon="1.66292">
        <ele>2.6</ele>
        <time>2019-10-05T12:06:28Z</time>
      </trkpt>
      <trkpt lat="50.89044" lon="1.66296">
        <ele>2.6</ele>
        <time>2019-10-05T12:06:32Z</time>
      </trkpt>
      <trkpt lat="50.89049" lon="1.66298">
        <ele>2.6</ele>
        <time>2019-10-05T12:06:36Z</time>
      </trkpt>
      <trkpt lat="50.89053" lon="1.66298">
        <ele>2.6</ele>
        <time>2019-10-05T12:06:40Z</time>
      </trkpt>
      <trkpt lat="50.89059" lon="1.66297">
        <ele>2.6</ele>
        <time>2019-10-05T12:06:46Z</time>
      </trkpt>
      <trkpt lat="50.89063" lon="1.66294">
        <ele>2.6</ele>
        <time>2019-10-05T12:06:49Z</time>
      </trkpt>
      <trkpt lat="50.89068" lon="1.66292">
        <ele>2.6</ele>
        <time>2019-10-05T12:06:56Z</time>
      </trkpt>
      <trkpt lat="50.89072" lon="1.66286">
        <ele>2.8</ele>
        <time>2019-10-05T12:07:02Z</time>
      </trkpt>
      <trkpt lat="50.89076" lon="1.6628">
        <ele>3.7</ele>
        <time>2019-10-05T12:07:07Z</time>
      </trkpt>
      <trkpt lat="50.89082" lon="1.66277">
        <ele>4.4</ele>
        <time>2019-10-05T12:07:12Z</time>
      </trkpt>
      <trkpt lat="50.89086" lon="1.66274">
        <ele>5</ele>
        <time>2019-10-05T12:07:16Z</time>
      </trkpt>
      <trkpt lat="50.89086" lon="1.66282">
        <ele>6</ele>
        <time>2019-10-05T12:07:27Z</time>
      </trkpt>
      <trkpt lat="50.89091" lon="1.66282">
        <ele>5.5</ele>
        <time>2019-10-05T12:07:50Z</time>
      </trkpt>
      <trkpt lat="50.89095" lon="1.6628">
        <ele>5.3</ele>
        <time>2019-10-05T12:07:54Z</time>
      </trkpt>
      <trkpt lat="50.89101" lon="1.66281">
        <ele>5.2</ele>
        <time>2019-10-05T12:07:58Z</time>
      </trkpt>
      <trkpt lat="50.89106" lon="1.66283">
        <ele>5.2</ele>
        <time>2019-10-05T12:08:01Z</time>
      </trkpt>
      <trkpt lat="50.8911" lon="1.66284">
        <ele>5.1</ele>
        <time>2019-10-05T12:08:04Z</time>
      </trkpt>
      <trkpt lat="50.89115" lon="1.66285">
        <ele>5.1</ele>
        <time>2019-10-05T12:08:07Z</time>
      </trkpt>
      <trkpt lat="50.89121" lon="1.66287">
        <ele>5.2</ele>
        <time>2019-10-05T12:08:11Z</time>
      </trkpt>
      <trkpt lat="50.89126" lon="1.66289">
        <ele>5.3</ele>
        <time>2019-10-05T12:08:14Z</time>
      </trkpt>
      <trkpt lat="50.89131" lon="1.66291">
        <ele>5.4</ele>
        <time>2019-10-05T12:08:17Z</time>
      </trkpt>
      <trkpt lat="50.89136" lon="1.66294">
        <ele>5.7</ele>
        <time>2019-10-05T12:08:20Z</time>
      </trkpt>
      <trkpt lat="50.89141" lon="1.66296">
        <ele>5.9</ele>
        <time>2019-10-05T12:08:23Z</time>
      </trkpt>
      <trkpt lat="50.89146" lon="1.66297">
        <ele>6.2</ele>
        <time>2019-10-05T12:08:26Z</time>
      </trkpt>
      <trkpt lat="50.89151" lon="1.66299">
        <ele>6.5</ele>
        <time>2019-10-05T12:08:30Z</time>
      </trkpt>
      <trkpt lat="50.89157" lon="1.663">
        <ele>6.8</ele>
        <time>2019-10-05T12:08:33Z</time>
      </trkpt>
      <trkpt lat="50.89162" lon="1.66302">
        <ele>7</ele>
        <time>2019-10-05T12:08:36Z</time>
      </trkpt>
      <trkpt lat="50.89168" lon="1.66304">
        <ele>7.2</ele>
        <time>2019-10-05T12:08:40Z</time>
      </trkpt>
      <trkpt lat="50.89172" lon="1.66305">
        <ele>7.3</ele>
        <time>2019-10-05T12:08:43Z</time>
      </trkpt>
      <trkpt lat="50.89176" lon="1.66308">
        <ele>7.5</ele>
        <time>2019-10-05T12:08:46Z</time>
      </trkpt>
      <trkpt lat="50.89181" lon="1.66313">
        <ele>7.9</ele>
        <time>2019-10-05T12:08:52Z</time>
      </trkpt>
      <trkpt lat="50.89185" lon="1.66316">
        <ele>8.1</ele>
        <time>2019-10-05T12:08:57Z</time>
      </trkpt>
      <trkpt lat="50.89191" lon="1.66317">
        <ele>8.2</ele>
        <time>2019-10-05T12:09:01Z</time>
      </trkpt>
      <trkpt lat="50.89196" lon="1.66318">
        <ele>8.4</ele>
        <time>2019-10-05T12:09:04Z</time>
      </trkpt>
      <trkpt lat="50.89201" lon="1.66318">
        <ele>8.4</ele>
        <time>2019-10-05T12:09:08Z</time>
      </trkpt>
      <trkpt lat="50.89207" lon="1.66318">
        <ele>8.4</ele>
        <time>2019-10-05T12:09:12Z</time>
      </trkpt>
      <trkpt lat="50.89212" lon="1.66318">
        <ele>8.4</ele>
        <time>2019-10-05T12:09:16Z</time>
      </trkpt>
      <trkpt lat="50.89217" lon="1.66318">
        <ele>8.5</ele>
        <time>2019-10-05T12:09:21Z</time>
      </trkpt>
      <trkpt lat="50.89222" lon="1.66318">
        <ele>8.4</ele>
        <time>2019-10-05T12:09:24Z</time>
      </trkpt>
      <trkpt lat="50.89227" lon="1.66318">
        <ele>8.3</ele>
        <time>2019-10-05T12:09:28Z</time>
      </trkpt>
      <trkpt lat="50.89232" lon="1.66317">
        <ele>8.1</ele>
        <time>2019-10-05T12:09:33Z</time>
      </trkpt>
      <trkpt lat="50.89238" lon="1.66316">
        <ele>7.9</ele>
        <time>2019-10-05T12:09:38Z</time>
      </trkpt>
      <trkpt lat="50.89242" lon="1.66314">
        <ele>7.7</ele>
        <time>2019-10-05T12:09:43Z</time>
      </trkpt>
      <trkpt lat="50.89246" lon="1.66311">
        <ele>7.3</ele>
        <time>2019-10-05T12:09:49Z</time>
      </trkpt>
      <trkpt lat="50.89249" lon="1.66305">
        <ele>7.1</ele>
        <time>2019-10-05T12:09:55Z</time>
      </trkpt>
      <trkpt lat="50.89252" lon="1.66312">
        <ele>7.8</ele>
        <time>2019-10-05T12:10:17Z</time>
      </trkpt>
      <trkpt lat="50.8925" lon="1.66319">
        <ele>7.7</ele>
        <time>2019-10-05T12:10:23Z</time>
      </trkpt>
      <trkpt lat="50.89248" lon="1.66326">
        <ele>6.5</ele>
        <time>2019-10-05T12:10:34Z</time>
      </trkpt>
      <trkpt lat="50.8925" lon="1.66333">
        <ele>4.4</ele>
        <time>2019-10-05T12:10:43Z</time>
      </trkpt>
      <trkpt lat="50.89254" lon="1.66336">
        <ele>3</ele>
        <time>2019-10-05T12:10:52Z</time>
      </trkpt>
      <trkpt lat="50.89258" lon="1.66333">
        <ele>2.6</ele>
        <time>2019-10-05T12:11:32Z</time>
      </trkpt>
      <trkpt lat="50.89258" lon="1.66341">
        <ele>3.7</ele>
        <time>2019-10-05T12:11:56Z</time>
      </trkpt>
      <trkpt lat="50.89257" lon="1.66348">
        <ele>3.8</ele>
        <time>2019-10-05T12:12:02Z</time>
      </trkpt>
      <trkpt lat="50.89256" lon="1.66356">
        <ele>3.1</ele>
        <time>2019-10-05T12:12:09Z</time>
      </trkpt>
      <trkpt lat="50.89256" lon="1.66363">
        <ele>2.6</ele>
        <time>2019-10-05T12:12:20Z</time>
      </trkpt>
      <trkpt lat="50.89261" lon="1.66367">
        <ele>2.6</ele>
        <time>2019-10-05T12:12:27Z</time>
      </trkpt>
      <trkpt lat="50.8926" lon="1.66374">
        <ele>2.6</ele>
        <time>2019-10-05T12:12:44Z</time>
      </trkpt>
      <trkpt lat="50.89262" lon="1.66381">
        <ele>2.6</ele>
        <time>2019-10-05T12:12:47Z</time>
      </trkpt>
      <trkpt lat="50.89266" lon="1.66387">
        <ele>2.6</ele>
        <time>2019-10-05T12:12:50Z</time>
      </trkpt>
      <trkpt lat="50.89268" lon="1.66394">
        <ele>2.6</ele>
        <time>2019-10-05T12:12:54Z</time>
      </trkpt>
      <trkpt lat="50.8927" lon="1.66403">
        <ele>2.6</ele>
        <time>2019-10-05T12:12:58Z</time>
      </trkpt>
      <trkpt lat="50.89273" lon="1.6641">
        <ele>2.6</ele>
        <time>2019-10-05T12:13:03Z</time>
      </trkpt>
      <trkpt lat="50.89276" lon="1.66415">
        <ele>2.6</ele>
        <time>2019-10-05T12:13:08Z</time>
      </trkpt>
      <trkpt lat="50.8928" lon="1.6642">
        <ele>2.6</ele>
        <time>2019-10-05T12:13:13Z</time>
      </trkpt>
      <trkpt lat="50.89284" lon="1.66425">
        <ele>2.6</ele>
        <time>2019-10-05T12:13:17Z</time>
      </trkpt>
      <trkpt lat="50.89289" lon="1.66431">
        <ele>2.6</ele>
        <time>2019-10-05T12:13:21Z</time>
      </trkpt>
      <trkpt lat="50.89294" lon="1.66437">
        <ele>2.6</ele>
        <time>2019-10-05T12:13:25Z</time>
      </trkpt>
      <trkpt lat="50.89298" lon="1.66441">
        <ele>2.6</ele>
        <time>2019-10-05T12:13:30Z</time>
      </trkpt>
      <trkpt lat="50.89302" lon="1.66445">
        <ele>2.6</ele>
        <time>2019-10-05T12:13:34Z</time>
      </trkpt>
      <trkpt lat="50.89305" lon="1.6645">
        <ele>2.6</ele>
        <time>2019-10-05T12:13:40Z</time>
      </trkpt>
      <trkpt lat="50.89309" lon="1.66456">
        <ele>2.6</ele>
        <time>2019-10-05T12:13:54Z</time>
      </trkpt>
      <trkpt lat="50.89314" lon="1.66459">
        <ele>2.6</ele>
        <time>2019-10-05T12:13:58Z</time>
      </trkpt>
      <trkpt lat="50.89319" lon="1.66464">
        <ele>2.6</ele>
        <time>2019-10-05T12:14:02Z</time>
      </trkpt>
      <trkpt lat="50.89323" lon="1.6647">
        <ele>2.6</ele>
        <time>2019-10-05T12:14:06Z</time>
      </trkpt>
      <trkpt lat="50.89326" lon="1.66477">
        <ele>2.6</ele>
        <time>2019-10-05T12:14:10Z</time>
      </trkpt>
      <trkpt lat="50.8933" lon="1.66483">
        <ele>2.6</ele>
        <time>2019-10-05T12:14:15Z</time>
      </trkpt>
      <trkpt lat="50.89332" lon="1.6649">
        <ele>2.6</ele>
        <time>2019-10-05T12:14:19Z</time>
      </trkpt>
      <trkpt lat="50.89335" lon="1.66496">
        <ele>2.6</ele>
        <time>2019-10-05T12:14:24Z</time>
      </trkpt>
      <trkpt lat="50.89338" lon="1.66505">
        <ele>2.6</ele>
        <time>2019-10-05T12:14:29Z</time>
      </trkpt>
      <trkpt lat="50.89341" lon="1.66511">
        <ele>2.6</ele>
        <time>2019-10-05T12:14:32Z</time>
      </trkpt>
      <trkpt lat="50.89345" lon="1.66518">
        <ele>2.6</ele>
        <time>2019-10-05T12:14:36Z</time>
      </trkpt>
      <trkpt lat="50.89348" lon="1.66523">
        <ele>2.6</ele>
        <time>2019-10-05T12:14:40Z</time>
      </trkpt>
      <trkpt lat="50.89352" lon="1.66529">
        <ele>2.6</ele>
        <time>2019-10-05T12:14:44Z</time>
      </trkpt>
      <trkpt lat="50.89357" lon="1.66534">
        <ele>2.6</ele>
        <time>2019-10-05T12:14:48Z</time>
      </trkpt>
      <trkpt lat="50.8936" lon="1.66541">
        <ele>2.6</ele>
        <time>2019-10-05T12:14:52Z</time>
      </trkpt>
      <trkpt lat="50.89361" lon="1.66548">
        <ele>2.6</ele>
        <time>2019-10-05T12:14:56Z</time>
      </trkpt>
      <trkpt lat="50.89357" lon="1.66552">
        <ele>2.6</ele>
        <time>2019-10-05T12:15:08Z</time>
      </trkpt>
      <trkpt lat="50.89358" lon="1.6656">
        <ele>2.6</ele>
        <time>2019-10-05T12:15:14Z</time>
      </trkpt>
      <trkpt lat="50.8936" lon="1.66567">
        <ele>2.6</ele>
        <time>2019-10-05T12:15:19Z</time>
      </trkpt>
      <trkpt lat="50.89361" lon="1.66574">
        <ele>2.6</ele>
        <time>2019-10-05T12:15:23Z</time>
      </trkpt>
      <trkpt lat="50.89363" lon="1.66583">
        <ele>2.6</ele>
        <time>2019-10-05T12:15:27Z</time>
      </trkpt>
      <trkpt lat="50.89364" lon="1.66591">
        <ele>2.6</ele>
        <time>2019-10-05T12:15:31Z</time>
      </trkpt>
      <trkpt lat="50.89364" lon="1.66599">
        <ele>2.6</ele>
        <time>2019-10-05T12:15:35Z</time>
      </trkpt>
      <trkpt lat="50.89365" lon="1.66607">
        <ele>2.6</ele>
        <time>2019-10-05T12:15:40Z</time>
      </trkpt>
      <trkpt lat="50.89366" lon="1.66615">
        <ele>2.6</ele>
        <time>2019-10-05T12:15:45Z</time>
      </trkpt>
      <trkpt lat="50.8937" lon="1.6662">
        <ele>2.6</ele>
        <time>2019-10-05T12:16:00Z</time>
      </trkpt>
      <trkpt lat="50.89374" lon="1.66627">
        <ele>2.6</ele>
        <time>2019-10-05T12:16:04Z</time>
      </trkpt>
      <trkpt lat="50.89378" lon="1.66634">
        <ele>2.6</ele>
        <time>2019-10-05T12:16:07Z</time>
      </trkpt>
      <trkpt lat="50.89382" lon="1.66636">
        <ele>2.6</ele>
        <time>2019-10-05T12:16:10Z</time>
      </trkpt>
      <trkpt lat="50.89388" lon="1.66639">
        <ele>2.6</ele>
        <time>2019-10-05T12:16:14Z</time>
      </trkpt>
      <trkpt lat="50.89393" lon="1.66637">
        <ele>2.6</ele>
        <time>2019-10-05T12:16:18Z</time>
      </trkpt>
      <trkpt lat="50.89398" lon="1.66635">
        <ele>2.6</ele>
        <time>2019-10-05T12:16:22Z</time>
      </trkpt>
      <trkpt lat="50.89402" lon="1.66631">
        <ele>2.6</ele>
        <time>2019-10-05T12:16:26Z</time>
      </trkpt>
      <trkpt lat="50.89406" lon="1.66626">
        <ele>2.6</ele>
        <time>2019-10-05T12:16:31Z</time>
      </trkpt>
      <trkpt lat="50.8941" lon="1.66632">
        <ele>3.1</ele>
        <time>2019-10-05T12:16:44Z</time>
      </trkpt>
      <trkpt lat="50.89412" lon="1.66639">
        <ele>4.2</ele>
        <time>2019-10-05T12:16:52Z</time>
      </trkpt>
      <trkpt lat="50.89415" lon="1.66645">
        <ele>5</ele>
        <time>2019-10-05T12:16:58Z</time>
      </trkpt>
      <trkpt lat="50.89417" lon="1.66652">
        <ele>5.5</ele>
        <time>2019-10-05T12:17:03Z</time>
      </trkpt>
      <trkpt lat="50.89419" lon="1.66659">
        <ele>5.5</ele>
        <time>2019-10-05T12:17:09Z</time>
      </trkpt>
      <trkpt lat="50.89422" lon="1.66666">
        <ele>5.3</ele>
        <time>2019-10-05T12:17:14Z</time>
      </trkpt>
      <trkpt lat="50.89426" lon="1.66671">
        <ele>5.1</ele>
        <time>2019-10-05T12:17:20Z</time>
      </trkpt>
      <trkpt lat="50.8943" lon="1.66673">
        <ele>5</ele>
        <time>2019-10-05T12:17:27Z</time>
      </trkpt>
      <trkpt lat="50.89435" lon="1.66677">
        <ele>4.7</ele>
        <time>2019-10-05T12:17:31Z</time>
      </trkpt>
      <trkpt lat="50.8944" lon="1.66681">
        <ele>4.5</ele>
        <time>2019-10-05T12:17:35Z</time>
      </trkpt>
      <trkpt lat="50.89444" lon="1.66686">
        <ele>4.3</ele>
        <time>2019-10-05T12:17:40Z</time>
      </trkpt>
      <trkpt lat="50.89448" lon="1.6669">
        <ele>4</ele>
        <time>2019-10-05T12:17:46Z</time>
      </trkpt>
      <trkpt lat="50.89452" lon="1.66693">
        <ele>4</ele>
        <time>2019-10-05T12:17:53Z</time>
      </trkpt>
      <trkpt lat="50.89454" lon="1.667">
        <ele>4</ele>
        <time>2019-10-05T12:17:58Z</time>
      </trkpt>
      <trkpt lat="50.89458" lon="1.66705">
        <ele>3.8</ele>
        <time>2019-10-05T12:18:02Z</time>
      </trkpt>
      <trkpt lat="50.89462" lon="1.6671">
        <ele>3.5</ele>
        <time>2019-10-05T12:18:06Z</time>
      </trkpt>
      <trkpt lat="50.89466" lon="1.66714">
        <ele>3.1</ele>
        <time>2019-10-05T12:18:10Z</time>
      </trkpt>
      <trkpt lat="50.89471" lon="1.66718">
        <ele>2.8</ele>
        <time>2019-10-05T12:18:14Z</time>
      </trkpt>
      <trkpt lat="50.89475" lon="1.66721">
        <ele>2.7</ele>
        <time>2019-10-05T12:18:18Z</time>
      </trkpt>
      <trkpt lat="50.8948" lon="1.66724">
        <ele>2.6</ele>
        <time>2019-10-05T12:18:23Z</time>
      </trkpt>
      <trkpt lat="50.89484" lon="1.66726">
        <ele>2.6</ele>
        <time>2019-10-05T12:18:26Z</time>
      </trkpt>
      <trkpt lat="50.8949" lon="1.6673">
        <ele>2.6</ele>
        <time>2019-10-05T12:18:30Z</time>
      </trkpt>
      <trkpt lat="50.89494" lon="1.66735">
        <ele>2.6</ele>
        <time>2019-10-05T12:18:34Z</time>
      </trkpt>
      <trkpt lat="50.89499" lon="1.66739">
        <ele>2.6</ele>
        <time>2019-10-05T12:18:38Z</time>
      </trkpt>
      <trkpt lat="50.89503" lon="1.66742">
        <ele>2.6</ele>
        <time>2019-10-05T12:18:42Z</time>
      </trkpt>
      <trkpt lat="50.89507" lon="1.66746">
        <ele>2.7</ele>
        <time>2019-10-05T12:18:46Z</time>
      </trkpt>
      <trkpt lat="50.89512" lon="1.6675">
        <ele>3.2</ele>
        <time>2019-10-05T12:18:51Z</time>
      </trkpt>
      <trkpt lat="50.89517" lon="1.66753">
        <ele>3.9</ele>
        <time>2019-10-05T12:18:56Z</time>
      </trkpt>
      <trkpt lat="50.89521" lon="1.66759">
        <ele>4.4</ele>
        <time>2019-10-05T12:19:01Z</time>
      </trkpt>
      <trkpt lat="50.89525" lon="1.66763">
        <ele>4.6</ele>
        <time>2019-10-05T12:19:05Z</time>
      </trkpt>
      <trkpt lat="50.89529" lon="1.66768">
        <ele>4.8</ele>
        <time>2019-10-05T12:19:09Z</time>
      </trkpt>
      <trkpt lat="50.89533" lon="1.66774">
        <ele>4.9</ele>
        <time>2019-10-05T12:19:15Z</time>
      </trkpt>
      <trkpt lat="50.89537" lon="1.66779">
        <ele>4.9</ele>
        <time>2019-10-05T12:19:20Z</time>
      </trkpt>
      <trkpt lat="50.89541" lon="1.66785">
        <ele>4.9</ele>
        <time>2019-10-05T12:19:25Z</time>
      </trkpt>
      <trkpt lat="50.89545" lon="1.6679">
        <ele>4.9</ele>
        <time>2019-10-05T12:19:29Z</time>
      </trkpt>
      <trkpt lat="50.89548" lon="1.66796">
        <ele>5</ele>
        <time>2019-10-05T12:19:34Z</time>
      </trkpt>
      <trkpt lat="50.89552" lon="1.66801">
        <ele>5.1</ele>
        <time>2019-10-05T12:19:39Z</time>
      </trkpt>
      <trkpt lat="50.89556" lon="1.66806">
        <ele>5.3</ele>
        <time>2019-10-05T12:19:43Z</time>
      </trkpt>
      <trkpt lat="50.8956" lon="1.66812">
        <ele>5.5</ele>
        <time>2019-10-05T12:19:47Z</time>
      </trkpt>
      <trkpt lat="50.89563" lon="1.66818">
        <ele>5.9</ele>
        <time>2019-10-05T12:19:54Z</time>
      </trkpt>
      <trkpt lat="50.89566" lon="1.66823">
        <ele>6.1</ele>
        <time>2019-10-05T12:19:59Z</time>
      </trkpt>
      <trkpt lat="50.8957" lon="1.66827">
        <ele>6</ele>
        <time>2019-10-05T12:20:03Z</time>
      </trkpt>
      <trkpt lat="50.89574" lon="1.66832">
        <ele>5.7</ele>
        <time>2019-10-05T12:20:07Z</time>
      </trkpt>
      <trkpt lat="50.89578" lon="1.66838">
        <ele>5.2</ele>
        <time>2019-10-05T12:20:11Z</time>
      </trkpt>
      <trkpt lat="50.89581" lon="1.66843">
        <ele>4.8</ele>
        <time>2019-10-05T12:20:15Z</time>
      </trkpt>
      <trkpt lat="50.89584" lon="1.66847">
        <ele>4.5</ele>
        <time>2019-10-05T12:20:19Z</time>
      </trkpt>
      <trkpt lat="50.89589" lon="1.66852">
        <ele>4</ele>
        <time>2019-10-05T12:20:24Z</time>
      </trkpt>
      <trkpt lat="50.89592" lon="1.66857">
        <ele>3.7</ele>
        <time>2019-10-05T12:20:28Z</time>
      </trkpt>
      <trkpt lat="50.89596" lon="1.66863">
        <ele>3.3</ele>
        <time>2019-10-05T12:20:32Z</time>
      </trkpt>
      <trkpt lat="50.89599" lon="1.66869">
        <ele>3.1</ele>
        <time>2019-10-05T12:20:36Z</time>
      </trkpt>
      <trkpt lat="50.89603" lon="1.66875">
        <ele>3.1</ele>
        <time>2019-10-05T12:20:41Z</time>
      </trkpt>
      <trkpt lat="50.89606" lon="1.66881">
        <ele>3.2</ele>
        <time>2019-10-05T12:20:46Z</time>
      </trkpt>
      <trkpt lat="50.8961" lon="1.66886">
        <ele>3.2</ele>
        <time>2019-10-05T12:20:50Z</time>
      </trkpt>
      <trkpt lat="50.89614" lon="1.66891">
        <ele>3.2</ele>
        <time>2019-10-05T12:20:55Z</time>
      </trkpt>
      <trkpt lat="50.89619" lon="1.66895">
        <ele>3.2</ele>
        <time>2019-10-05T12:21:00Z</time>
      </trkpt>
      <trkpt lat="50.89623" lon="1.66898">
        <ele>3.1</ele>
        <time>2019-10-05T12:21:05Z</time>
      </trkpt>
      <trkpt lat="50.89628" lon="1.66902">
        <ele>3.3</ele>
        <time>2019-10-05T12:21:10Z</time>
      </trkpt>
      <trkpt lat="50.89632" lon="1.66905">
        <ele>3.4</ele>
        <time>2019-10-05T12:21:14Z</time>
      </trkpt>
      <trkpt lat="50.89633" lon="1.66912">
        <ele>4.4</ele>
        <time>2019-10-05T12:21:30Z</time>
      </trkpt>
      <trkpt lat="50.89629" lon="1.6691">
        <ele>4.3</ele>
        <time>2019-10-05T12:21:42Z</time>
      </trkpt>
      <trkpt lat="50.89633" lon="1.66908">
        <ele>3.9</ele>
        <time>2019-10-05T12:22:02Z</time>
      </trkpt>
      <trkpt lat="50.89638" lon="1.66907">
        <ele>3.8</ele>
        <time>2019-10-05T12:22:09Z</time>
      </trkpt>
      <trkpt lat="50.89644" lon="1.66908">
        <ele>3.9</ele>
        <time>2019-10-05T12:22:15Z</time>
      </trkpt>
      <trkpt lat="50.89649" lon="1.6691">
        <ele>4</ele>
        <time>2019-10-05T12:22:20Z</time>
      </trkpt>
      <trkpt lat="50.89653" lon="1.66912">
        <ele>4</ele>
        <time>2019-10-05T12:22:24Z</time>
      </trkpt>
      <trkpt lat="50.89658" lon="1.66913">
        <ele>4</ele>
        <time>2019-10-05T12:22:28Z</time>
      </trkpt>
      <trkpt lat="50.89663" lon="1.66916">
        <ele>4.1</ele>
        <time>2019-10-05T12:22:34Z</time>
      </trkpt>
      <trkpt lat="50.89667" lon="1.66919">
        <ele>4.1</ele>
        <time>2019-10-05T12:22:39Z</time>
      </trkpt>
      <trkpt lat="50.89672" lon="1.66922">
        <ele>4.4</ele>
        <time>2019-10-05T12:22:45Z</time>
      </trkpt>
      <trkpt lat="50.89677" lon="1.66923">
        <ele>4.6</ele>
        <time>2019-10-05T12:22:49Z</time>
      </trkpt>
      <trkpt lat="50.89682" lon="1.66923">
        <ele>4.9</ele>
        <time>2019-10-05T12:22:54Z</time>
      </trkpt>
      <trkpt lat="50.89688" lon="1.66922">
        <ele>5.3</ele>
        <time>2019-10-05T12:22:59Z</time>
      </trkpt>
      <trkpt lat="50.89693" lon="1.66924">
        <ele>5.8</ele>
        <time>2019-10-05T12:23:04Z</time>
      </trkpt>
      <trkpt lat="50.89698" lon="1.66923">
        <ele>6.5</ele>
        <time>2019-10-05T12:23:13Z</time>
      </trkpt>
      <trkpt lat="50.89702" lon="1.66921">
        <ele>7</ele>
        <time>2019-10-05T12:23:19Z</time>
      </trkpt>
      <trkpt lat="50.89707" lon="1.66923">
        <ele>7.6</ele>
        <time>2019-10-05T12:23:26Z</time>
      </trkpt>
      <trkpt lat="50.89709" lon="1.6693">
        <ele>7.9</ele>
        <time>2019-10-05T12:23:32Z</time>
      </trkpt>
      <trkpt lat="50.89708" lon="1.66938">
        <ele>7.9</ele>
        <time>2019-10-05T12:23:37Z</time>
      </trkpt>
      <trkpt lat="50.89706" lon="1.66944">
        <ele>5.8</ele>
        <time>2019-10-05T12:23:58Z</time>
      </trkpt>
      <trkpt lat="50.89709" lon="1.6695">
        <ele>5.4</ele>
        <time>2019-10-05T12:24:02Z</time>
      </trkpt>
      <trkpt lat="50.89713" lon="1.66956">
        <ele>5</ele>
        <time>2019-10-05T12:24:07Z</time>
      </trkpt>
      <trkpt lat="50.89717" lon="1.6696">
        <ele>4.7</ele>
        <time>2019-10-05T12:24:12Z</time>
      </trkpt>
      <trkpt lat="50.89722" lon="1.66964">
        <ele>4.2</ele>
        <time>2019-10-05T12:24:17Z</time>
      </trkpt>
      <trkpt lat="50.89726" lon="1.66964">
        <ele>3.3</ele>
        <time>2019-10-05T12:25:06Z</time>
      </trkpt>
      <trkpt lat="50.8973" lon="1.6697">
        <ele>3</ele>
        <time>2019-10-05T12:25:45Z</time>
      </trkpt>
      <trkpt lat="50.89733" lon="1.66976">
        <ele>3</ele>
        <time>2019-10-05T12:25:49Z</time>
      </trkpt>
      <trkpt lat="50.89736" lon="1.6698">
        <ele>3</ele>
        <time>2019-10-05T12:25:55Z</time>
      </trkpt>
      <trkpt lat="50.8974" lon="1.66984">
        <ele>2.9</ele>
        <time>2019-10-05T12:25:59Z</time>
      </trkpt>
      <trkpt lat="50.89745" lon="1.66988">
        <ele>2.8</ele>
        <time>2019-10-05T12:26:04Z</time>
      </trkpt>
      <trkpt lat="50.89749" lon="1.66991">
        <ele>2.7</ele>
        <time>2019-10-05T12:26:08Z</time>
      </trkpt>
      <trkpt lat="50.89753" lon="1.66996">
        <ele>2.7</ele>
        <time>2019-10-05T12:26:12Z</time>
      </trkpt>
      <trkpt lat="50.89757" lon="1.67">
        <ele>2.6</ele>
        <time>2019-10-05T12:26:16Z</time>
      </trkpt>
      <trkpt lat="50.89761" lon="1.67005">
        <ele>2.6</ele>
        <time>2019-10-05T12:26:21Z</time>
      </trkpt>
      <trkpt lat="50.89765" lon="1.67009">
        <ele>2.6</ele>
        <time>2019-10-05T12:26:25Z</time>
      </trkpt>
      <trkpt lat="50.89768" lon="1.67014">
        <ele>2.6</ele>
        <time>2019-10-05T12:26:28Z</time>
      </trkpt>
      <trkpt lat="50.89772" lon="1.67018">
        <ele>2.6</ele>
        <time>2019-10-05T12:26:32Z</time>
      </trkpt>
      <trkpt lat="50.89777" lon="1.67023">
        <ele>2.6</ele>
        <time>2019-10-05T12:26:36Z</time>
      </trkpt>
      <trkpt lat="50.8978" lon="1.67028">
        <ele>2.6</ele>
        <time>2019-10-05T12:26:40Z</time>
      </trkpt>
      <trkpt lat="50.89784" lon="1.67032">
        <ele>2.6</ele>
        <time>2019-10-05T12:26:44Z</time>
      </trkpt>
      <trkpt lat="50.89789" lon="1.67037">
        <ele>2.6</ele>
        <time>2019-10-05T12:26:49Z</time>
      </trkpt>
      <trkpt lat="50.89793" lon="1.67041">
        <ele>2.6</ele>
        <time>2019-10-05T12:26:53Z</time>
      </trkpt>
      <trkpt lat="50.89798" lon="1.67044">
        <ele>2.6</ele>
        <time>2019-10-05T12:26:57Z</time>
      </trkpt>
      <trkpt lat="50.89803" lon="1.67048">
        <ele>2.6</ele>
        <time>2019-10-05T12:27:02Z</time>
      </trkpt>
      <trkpt lat="50.89807" lon="1.67051">
        <ele>2.6</ele>
        <time>2019-10-05T12:27:07Z</time>
      </trkpt>
      <trkpt lat="50.89811" lon="1.67056">
        <ele>2.6</ele>
        <time>2019-10-05T12:27:12Z</time>
      </trkpt>
      <trkpt lat="50.89814" lon="1.67063">
        <ele>2.6</ele>
        <time>2019-10-05T12:27:16Z</time>
      </trkpt>
      <trkpt lat="50.89817" lon="1.6707">
        <ele>2.6</ele>
        <time>2019-10-05T12:27:20Z</time>
      </trkpt>
      <trkpt lat="50.8982" lon="1.67077">
        <ele>2.6</ele>
        <time>2019-10-05T12:27:32Z</time>
      </trkpt>
      <trkpt lat="50.89824" lon="1.67083">
        <ele>2.6</ele>
        <time>2019-10-05T12:27:36Z</time>
      </trkpt>
      <trkpt lat="50.89828" lon="1.67088">
        <ele>2.6</ele>
        <time>2019-10-05T12:27:41Z</time>
      </trkpt>
      <trkpt lat="50.89833" lon="1.67092">
        <ele>2.6</ele>
        <time>2019-10-05T12:27:45Z</time>
      </trkpt>
      <trkpt lat="50.89837" lon="1.67097">
        <ele>2.6</ele>
        <time>2019-10-05T12:27:48Z</time>
      </trkpt>
      <trkpt lat="50.89841" lon="1.67102">
        <ele>2.6</ele>
        <time>2019-10-05T12:27:52Z</time>
      </trkpt>
      <trkpt lat="50.89846" lon="1.67107">
        <ele>2.6</ele>
        <time>2019-10-05T12:27:56Z</time>
      </trkpt>
      <trkpt lat="50.8985" lon="1.67111">
        <ele>2.6</ele>
        <time>2019-10-05T12:27:59Z</time>
      </trkpt>
      <trkpt lat="50.89855" lon="1.67115">
        <ele>2.6</ele>
        <time>2019-10-05T12:28:03Z</time>
      </trkpt>
      <trkpt lat="50.89858" lon="1.67121">
        <ele>2.6</ele>
        <time>2019-10-05T12:28:07Z</time>
      </trkpt>
      <trkpt lat="50.89862" lon="1.67125">
        <ele>2.6</ele>
        <time>2019-10-05T12:28:14Z</time>
      </trkpt>
      <trkpt lat="50.89867" lon="1.67128">
        <ele>2.6</ele>
        <time>2019-10-05T12:28:27Z</time>
      </trkpt>
      <trkpt lat="50.89871" lon="1.67134">
        <ele>2.6</ele>
        <time>2019-10-05T12:28:31Z</time>
      </trkpt>
      <trkpt lat="50.89875" lon="1.67139">
        <ele>2.6</ele>
        <time>2019-10-05T12:28:34Z</time>
      </trkpt>
      <trkpt lat="50.89879" lon="1.67146">
        <ele>2.6</ele>
        <time>2019-10-05T12:28:38Z</time>
      </trkpt>
      <trkpt lat="50.89883" lon="1.67151">
        <ele>2.6</ele>
        <time>2019-10-05T12:28:41Z</time>
      </trkpt>
      <trkpt lat="50.89887" lon="1.67156">
        <ele>2.6</ele>
        <time>2019-10-05T12:28:44Z</time>
      </trkpt>
      <trkpt lat="50.89892" lon="1.67161">
        <ele>2.6</ele>
        <time>2019-10-05T12:28:48Z</time>
      </trkpt>
      <trkpt lat="50.89896" lon="1.67167">
        <ele>2.6</ele>
        <time>2019-10-05T12:28:52Z</time>
      </trkpt>
      <trkpt lat="50.899" lon="1.67173">
        <ele>2.6</ele>
        <time>2019-10-05T12:28:56Z</time>
      </trkpt>
      <trkpt lat="50.89904" lon="1.67179">
        <ele>2.6</ele>
        <time>2019-10-05T12:29:00Z</time>
      </trkpt>
      <trkpt lat="50.89907" lon="1.67185">
        <ele>2.6</ele>
        <time>2019-10-05T12:29:04Z</time>
      </trkpt>
      <trkpt lat="50.89911" lon="1.67191">
        <ele>2.6</ele>
        <time>2019-10-05T12:29:08Z</time>
      </trkpt>
      <trkpt lat="50.89916" lon="1.67192">
        <ele>2.6</ele>
        <time>2019-10-05T12:29:23Z</time>
      </trkpt>
      <trkpt lat="50.8992" lon="1.67194">
        <ele>2.6</ele>
        <time>2019-10-05T12:29:27Z</time>
      </trkpt>
      <trkpt lat="50.89925" lon="1.67196">
        <ele>2.6</ele>
        <time>2019-10-05T12:29:30Z</time>
      </trkpt>
      <trkpt lat="50.8993" lon="1.67197">
        <ele>2.6</ele>
        <time>2019-10-05T12:29:32Z</time>
      </trkpt>
      <trkpt lat="50.89935" lon="1.67198">
        <ele>2.6</ele>
        <time>2019-10-05T12:29:35Z</time>
      </trkpt>
      <trkpt lat="50.8994" lon="1.67201">
        <ele>2.6</ele>
        <time>2019-10-05T12:29:40Z</time>
      </trkpt>
      <trkpt lat="50.89943" lon="1.67206">
        <ele>2.6</ele>
        <time>2019-10-05T12:29:46Z</time>
      </trkpt>
      <trkpt lat="50.89946" lon="1.67212">
        <ele>2.6</ele>
        <time>2019-10-05T12:29:51Z</time>
      </trkpt>
      <trkpt lat="50.8995" lon="1.67217">
        <ele>2.6</ele>
        <time>2019-10-05T12:29:57Z</time>
      </trkpt>
      <trkpt lat="50.89955" lon="1.67221">
        <ele>2.6</ele>
        <time>2019-10-05T12:30:01Z</time>
      </trkpt>
      <trkpt lat="50.8996" lon="1.67225">
        <ele>2.6</ele>
        <time>2019-10-05T12:30:05Z</time>
      </trkpt>
      <trkpt lat="50.89964" lon="1.67229">
        <ele>2.6</ele>
        <time>2019-10-05T12:30:09Z</time>
      </trkpt>
      <trkpt lat="50.89969" lon="1.67234">
        <ele>2.6</ele>
        <time>2019-10-05T12:30:13Z</time>
      </trkpt>
      <trkpt lat="50.89973" lon="1.67239">
        <ele>2.6</ele>
        <time>2019-10-05T12:30:17Z</time>
      </trkpt>
      <trkpt lat="50.89978" lon="1.67244">
        <ele>2.6</ele>
        <time>2019-10-05T12:30:22Z</time>
      </trkpt>
      <trkpt lat="50.89982" lon="1.6725">
        <ele>2.6</ele>
        <time>2019-10-05T12:30:26Z</time>
      </trkpt>
      <trkpt lat="50.89986" lon="1.67254">
        <ele>2.6</ele>
        <time>2019-10-05T12:30:29Z</time>
      </trkpt>
      <trkpt lat="50.8999" lon="1.67259">
        <ele>2.6</ele>
        <time>2019-10-05T12:30:33Z</time>
      </trkpt>
      <trkpt lat="50.89995" lon="1.67262">
        <ele>2.6</ele>
        <time>2019-10-05T12:30:37Z</time>
      </trkpt>
      <trkpt lat="50.9" lon="1.67267">
        <ele>2.6</ele>
        <time>2019-10-05T12:30:41Z</time>
      </trkpt>
      <trkpt lat="50.90004" lon="1.67271">
        <ele>2.6</ele>
        <time>2019-10-05T12:30:44Z</time>
      </trkpt>
      <trkpt lat="50.90007" lon="1.67276">
        <ele>2.6</ele>
        <time>2019-10-05T12:30:47Z</time>
      </trkpt>
      <trkpt lat="50.90011" lon="1.67281">
        <ele>2.6</ele>
        <time>2019-10-05T12:30:51Z</time>
      </trkpt>
      <trkpt lat="50.90014" lon="1.67287">
        <ele>2.6</ele>
        <time>2019-10-05T12:30:56Z</time>
      </trkpt>
      <trkpt lat="50.90019" lon="1.67292">
        <ele>2.6</ele>
        <time>2019-10-05T12:31:01Z</time>
      </trkpt>
      <trkpt lat="50.90023" lon="1.67296">
        <ele>2.6</ele>
        <time>2019-10-05T12:31:05Z</time>
      </trkpt>
      <trkpt lat="50.90026" lon="1.673">
        <ele>2.6</ele>
        <time>2019-10-05T12:31:08Z</time>
      </trkpt>
      <trkpt lat="50.9003" lon="1.67304">
        <ele>2.6</ele>
        <time>2019-10-05T12:31:11Z</time>
      </trkpt>
      <trkpt lat="50.90034" lon="1.67309">
        <ele>2.6</ele>
        <time>2019-10-05T12:31:14Z</time>
      </trkpt>
      <trkpt lat="50.90038" lon="1.67313">
        <ele>2.6</ele>
        <time>2019-10-05T12:31:18Z</time>
      </trkpt>
      <trkpt lat="50.90043" lon="1.67318">
        <ele>2.6</ele>
        <time>2019-10-05T12:31:22Z</time>
      </trkpt>
      <trkpt lat="50.90048" lon="1.67322">
        <ele>2.6</ele>
        <time>2019-10-05T12:31:25Z</time>
      </trkpt>
      <trkpt lat="50.90052" lon="1.67327">
        <ele>2.6</ele>
        <time>2019-10-05T12:31:29Z</time>
      </trkpt>
      <trkpt lat="50.90056" lon="1.67334">
        <ele>2.6</ele>
        <time>2019-10-05T12:31:33Z</time>
      </trkpt>
      <trkpt lat="50.90059" lon="1.6734">
        <ele>2.6</ele>
        <time>2019-10-05T12:31:37Z</time>
      </trkpt>
      <trkpt lat="50.90063" lon="1.67345">
        <ele>2.6</ele>
        <time>2019-10-05T12:31:41Z</time>
      </trkpt>
      <trkpt lat="50.90066" lon="1.67351">
        <ele>2.6</ele>
        <time>2019-10-05T12:31:45Z</time>
      </trkpt>
      <trkpt lat="50.9007" lon="1.67356">
        <ele>2.6</ele>
        <time>2019-10-05T12:31:49Z</time>
      </trkpt>
      <trkpt lat="50.90073" lon="1.67361">
        <ele>2.6</ele>
        <time>2019-10-05T12:31:54Z</time>
      </trkpt>
      <trkpt lat="50.90078" lon="1.67365">
        <ele>2.6</ele>
        <time>2019-10-05T12:31:58Z</time>
      </trkpt>
      <trkpt lat="50.90082" lon="1.67368">
        <ele>2.6</ele>
        <time>2019-10-05T12:32:01Z</time>
      </trkpt>
      <trkpt lat="50.90086" lon="1.67372">
        <ele>2.6</ele>
        <time>2019-10-05T12:32:05Z</time>
      </trkpt>
      <trkpt lat="50.90091" lon="1.67376">
        <ele>2.6</ele>
        <time>2019-10-05T12:32:09Z</time>
      </trkpt>
      <trkpt lat="50.90095" lon="1.6738">
        <ele>2.6</ele>
        <time>2019-10-05T12:32:13Z</time>
      </trkpt>
      <trkpt lat="50.90098" lon="1.67385">
        <ele>2.6</ele>
        <time>2019-10-05T12:32:17Z</time>
      </trkpt>
      <trkpt lat="50.90102" lon="1.6739">
        <ele>2.6</ele>
        <time>2019-10-05T12:32:21Z</time>
      </trkpt>
      <trkpt lat="50.90105" lon="1.67395">
        <ele>2.6</ele>
        <time>2019-10-05T12:32:25Z</time>
      </trkpt>
      <trkpt lat="50.9011" lon="1.67401">
        <ele>2.6</ele>
        <time>2019-10-05T12:32:30Z</time>
      </trkpt>
      <trkpt lat="50.90113" lon="1.67406">
        <ele>2.6</ele>
        <time>2019-10-05T12:32:34Z</time>
      </trkpt>
      <trkpt lat="50.90115" lon="1.67412">
        <ele>2.6</ele>
        <time>2019-10-05T12:32:40Z</time>
      </trkpt>
      <trkpt lat="50.90117" lon="1.6742">
        <ele>2.6</ele>
        <time>2019-10-05T12:32:45Z</time>
      </trkpt>
      <trkpt lat="50.9012" lon="1.67427">
        <ele>2.6</ele>
        <time>2019-10-05T12:32:56Z</time>
      </trkpt>
      <trkpt lat="50.90122" lon="1.67434">
        <ele>2.6</ele>
        <time>2019-10-05T12:33:02Z</time>
      </trkpt>
      <trkpt lat="50.90125" lon="1.6744">
        <ele>2.6</ele>
        <time>2019-10-05T12:33:10Z</time>
      </trkpt>
      <trkpt lat="50.90128" lon="1.67445">
        <ele>2.6</ele>
        <time>2019-10-05T12:33:18Z</time>
      </trkpt>
      <trkpt lat="50.90132" lon="1.6745">
        <ele>2.6</ele>
        <time>2019-10-05T12:33:26Z</time>
      </trkpt>
      <trkpt lat="50.90136" lon="1.67455">
        <ele>2.6</ele>
        <time>2019-10-05T12:33:34Z</time>
      </trkpt>
      <trkpt lat="50.90138" lon="1.67461">
        <ele>2.6</ele>
        <time>2019-10-05T12:33:40Z</time>
      </trkpt>
      <trkpt lat="50.90141" lon="1.67467">
        <ele>2.6</ele>
        <time>2019-10-05T12:33:46Z</time>
      </trkpt>
      <trkpt lat="50.90144" lon="1.67473">
        <ele>2.6</ele>
        <time>2019-10-05T12:33:50Z</time>
      </trkpt>
      <trkpt lat="50.90148" lon="1.67477">
        <ele>2.6</ele>
        <time>2019-10-05T12:33:54Z</time>
      </trkpt>
      <trkpt lat="50.90153" lon="1.67481">
        <ele>2.6</ele>
        <time>2019-10-05T12:33:58Z</time>
      </trkpt>
      <trkpt lat="50.90156" lon="1.67486">
        <ele>2.6</ele>
        <time>2019-10-05T12:34:01Z</time>
      </trkpt>
      <trkpt lat="50.9016" lon="1.67491">
        <ele>2.6</ele>
        <time>2019-10-05T12:34:05Z</time>
      </trkpt>
      <trkpt lat="50.90164" lon="1.67495">
        <ele>2.6</ele>
        <time>2019-10-05T12:34:09Z</time>
      </trkpt>
      <trkpt lat="50.90168" lon="1.675">
        <ele>2.6</ele>
        <time>2019-10-05T12:34:13Z</time>
      </trkpt>
      <trkpt lat="50.90172" lon="1.67504">
        <ele>2.6</ele>
        <time>2019-10-05T12:34:18Z</time>
      </trkpt>
      <trkpt lat="50.90176" lon="1.67508">
        <ele>2.6</ele>
        <time>2019-10-05T12:34:22Z</time>
      </trkpt>
      <trkpt lat="50.90179" lon="1.67514">
        <ele>2.6</ele>
        <time>2019-10-05T12:34:26Z</time>
      </trkpt>
      <trkpt lat="50.90183" lon="1.67519">
        <ele>2.6</ele>
        <time>2019-10-05T12:34:32Z</time>
      </trkpt>
      <trkpt lat="50.90188" lon="1.67522">
        <ele>2.6</ele>
        <time>2019-10-05T12:34:41Z</time>
      </trkpt>
      <trkpt lat="50.9019" lon="1.67528">
        <ele>2.6</ele>
        <time>2019-10-05T12:34:56Z</time>
      </trkpt>
      <trkpt lat="50.90193" lon="1.67534">
        <ele>2.6</ele>
        <time>2019-10-05T12:35:05Z</time>
      </trkpt>
      <trkpt lat="50.90198" lon="1.67539">
        <ele>2.6</ele>
        <time>2019-10-05T12:35:12Z</time>
      </trkpt>
      <trkpt lat="50.90202" lon="1.67544">
        <ele>2.6</ele>
        <time>2019-10-05T12:35:17Z</time>
      </trkpt>
      <trkpt lat="50.90205" lon="1.67551">
        <ele>2.6</ele>
        <time>2019-10-05T12:35:22Z</time>
      </trkpt>
      <trkpt lat="50.90208" lon="1.67557">
        <ele>2.6</ele>
        <time>2019-10-05T12:35:28Z</time>
      </trkpt>
      <trkpt lat="50.90212" lon="1.67563">
        <ele>2.6</ele>
        <time>2019-10-05T12:35:34Z</time>
      </trkpt>
      <trkpt lat="50.90216" lon="1.67567">
        <ele>2.6</ele>
        <time>2019-10-05T12:35:40Z</time>
      </trkpt>
      <trkpt lat="50.9022" lon="1.67571">
        <ele>2.6</ele>
        <time>2019-10-05T12:35:45Z</time>
      </trkpt>
      <trkpt lat="50.90225" lon="1.67575">
        <ele>2.6</ele>
        <time>2019-10-05T12:35:50Z</time>
      </trkpt>
      <trkpt lat="50.90229" lon="1.67579">
        <ele>2.6</ele>
        <time>2019-10-05T12:35:58Z</time>
      </trkpt>
      <trkpt lat="50.90232" lon="1.67585">
        <ele>2.6</ele>
        <time>2019-10-05T12:36:04Z</time>
      </trkpt>
      <trkpt lat="50.90235" lon="1.67591">
        <ele>2.6</ele>
        <time>2019-10-05T12:36:10Z</time>
      </trkpt>
      <trkpt lat="50.90239" lon="1.67595">
        <ele>2.6</ele>
        <time>2019-10-05T12:36:16Z</time>
      </trkpt>
      <trkpt lat="50.90243" lon="1.676">
        <ele>2.6</ele>
        <time>2019-10-05T12:36:20Z</time>
      </trkpt>
      <trkpt lat="50.90246" lon="1.67605">
        <ele>2.6</ele>
        <time>2019-10-05T12:36:23Z</time>
      </trkpt>
      <trkpt lat="50.90249" lon="1.67611">
        <ele>2.6</ele>
        <time>2019-10-05T12:36:28Z</time>
      </trkpt>
      <trkpt lat="50.90253" lon="1.67614">
        <ele>2.6</ele>
        <time>2019-10-05T12:36:33Z</time>
      </trkpt>
      <trkpt lat="50.90258" lon="1.67619">
        <ele>2.6</ele>
        <time>2019-10-05T12:36:37Z</time>
      </trkpt>
      <trkpt lat="50.90262" lon="1.67624">
        <ele>2.6</ele>
        <time>2019-10-05T12:36:41Z</time>
      </trkpt>
      <trkpt lat="50.90266" lon="1.67628">
        <ele>2.6</ele>
        <time>2019-10-05T12:36:45Z</time>
      </trkpt>
      <trkpt lat="50.9027" lon="1.67634">
        <ele>2.7</ele>
        <time>2019-10-05T12:36:49Z</time>
      </trkpt>
      <trkpt lat="50.90274" lon="1.67641">
        <ele>2.8</ele>
        <time>2019-10-05T12:36:53Z</time>
      </trkpt>
      <trkpt lat="50.90279" lon="1.67646">
        <ele>2.8</ele>
        <time>2019-10-05T12:36:57Z</time>
      </trkpt>
      <trkpt lat="50.90283" lon="1.67651">
        <ele>2.8</ele>
        <time>2019-10-05T12:37:01Z</time>
      </trkpt>
      <trkpt lat="50.90287" lon="1.67656">
        <ele>2.8</ele>
        <time>2019-10-05T12:37:05Z</time>
      </trkpt>
      <trkpt lat="50.9029" lon="1.67661">
        <ele>2.8</ele>
        <time>2019-10-05T12:37:10Z</time>
      </trkpt>
      <trkpt lat="50.90294" lon="1.67666">
        <ele>2.8</ele>
        <time>2019-10-05T12:37:14Z</time>
      </trkpt>
      <trkpt lat="50.90299" lon="1.67672">
        <ele>2.8</ele>
        <time>2019-10-05T12:37:18Z</time>
      </trkpt>
      <trkpt lat="50.90302" lon="1.67679">
        <ele>2.7</ele>
        <time>2019-10-05T12:37:21Z</time>
      </trkpt>
      <trkpt lat="50.90306" lon="1.67684">
        <ele>2.6</ele>
        <time>2019-10-05T12:37:24Z</time>
      </trkpt>
      <trkpt lat="50.90309" lon="1.67689">
        <ele>2.6</ele>
        <time>2019-10-05T12:37:29Z</time>
      </trkpt>
      <trkpt lat="50.90308" lon="1.6768">
        <ele>2.6</ele>
        <time>2019-10-05T12:37:40Z</time>
      </trkpt>
      <trkpt lat="50.9031" lon="1.67687">
        <ele>2.6</ele>
        <time>2019-10-05T12:38:21Z</time>
      </trkpt>
      <trkpt lat="50.90313" lon="1.67694">
        <ele>2.6</ele>
        <time>2019-10-05T12:38:26Z</time>
      </trkpt>
      <trkpt lat="50.90316" lon="1.67699">
        <ele>2.6</ele>
        <time>2019-10-05T12:38:33Z</time>
      </trkpt>
      <trkpt lat="50.90317" lon="1.67707">
        <ele>2.6</ele>
        <time>2019-10-05T12:38:38Z</time>
      </trkpt>
      <trkpt lat="50.90317" lon="1.67714">
        <ele>2.6</ele>
        <time>2019-10-05T12:38:42Z</time>
      </trkpt>
      <trkpt lat="50.90316" lon="1.67722">
        <ele>2.6</ele>
        <time>2019-10-05T12:38:46Z</time>
      </trkpt>
      <trkpt lat="50.90314" lon="1.67728">
        <ele>2.6</ele>
        <time>2019-10-05T12:38:50Z</time>
      </trkpt>
      <trkpt lat="50.90312" lon="1.67735">
        <ele>2.6</ele>
        <time>2019-10-05T12:38:56Z</time>
      </trkpt>
      <trkpt lat="50.90307" lon="1.67735">
        <ele>2.6</ele>
        <time>2019-10-05T12:39:04Z</time>
      </trkpt>
      <trkpt lat="50.90303" lon="1.67739">
        <ele>2.6</ele>
        <time>2019-10-05T12:39:11Z</time>
      </trkpt>
      <trkpt lat="50.90303" lon="1.67747">
        <ele>2.6</ele>
        <time>2019-10-05T12:39:19Z</time>
      </trkpt>
      <trkpt lat="50.90306" lon="1.67753">
        <ele>2.6</ele>
        <time>2019-10-05T12:39:42Z</time>
      </trkpt>
      <trkpt lat="50.9031" lon="1.67757">
        <ele>2.6</ele>
        <time>2019-10-05T12:39:50Z</time>
      </trkpt>
      <trkpt lat="50.90315" lon="1.67761">
        <ele>2.6</ele>
        <time>2019-10-05T12:39:55Z</time>
      </trkpt>
      <trkpt lat="50.90319" lon="1.67765">
        <ele>2.6</ele>
        <time>2019-10-05T12:40:00Z</time>
      </trkpt>
      <trkpt lat="50.90323" lon="1.67769">
        <ele>2.6</ele>
        <time>2019-10-05T12:40:06Z</time>
      </trkpt>
      <trkpt lat="50.90328" lon="1.67774">
        <ele>2.6</ele>
        <time>2019-10-05T12:40:11Z</time>
      </trkpt>
      <trkpt lat="50.90332" lon="1.67778">
        <ele>2.6</ele>
        <time>2019-10-05T12:40:16Z</time>
      </trkpt>
      <trkpt lat="50.90336" lon="1.6778">
        <ele>2.6</ele>
        <time>2019-10-05T12:40:20Z</time>
      </trkpt>
      <trkpt lat="50.9034" lon="1.67783">
        <ele>2.6</ele>
        <time>2019-10-05T12:40:24Z</time>
      </trkpt>
      <trkpt lat="50.90345" lon="1.67788">
        <ele>2.6</ele>
        <time>2019-10-05T12:40:28Z</time>
      </trkpt>
      <trkpt lat="50.9035" lon="1.67792">
        <ele>2.6</ele>
        <time>2019-10-05T12:40:32Z</time>
      </trkpt>
      <trkpt lat="50.90354" lon="1.67796">
        <ele>2.6</ele>
        <time>2019-10-05T12:40:37Z</time>
      </trkpt>
      <trkpt lat="50.90358" lon="1.67801">
        <ele>2.6</ele>
        <time>2019-10-05T12:40:42Z</time>
      </trkpt>
      <trkpt lat="50.90362" lon="1.67806">
        <ele>2.6</ele>
        <time>2019-10-05T12:40:47Z</time>
      </trkpt>
      <trkpt lat="50.90366" lon="1.6781">
        <ele>2.6</ele>
        <time>2019-10-05T12:40:51Z</time>
      </trkpt>
      <trkpt lat="50.9037" lon="1.67814">
        <ele>2.6</ele>
        <time>2019-10-05T12:40:55Z</time>
      </trkpt>
      <trkpt lat="50.90375" lon="1.67818">
        <ele>2.6</ele>
        <time>2019-10-05T12:40:59Z</time>
      </trkpt>
      <trkpt lat="50.9038" lon="1.67822">
        <ele>2.6</ele>
        <time>2019-10-05T12:41:03Z</time>
      </trkpt>
      <trkpt lat="50.90384" lon="1.67827">
        <ele>2.6</ele>
        <time>2019-10-05T12:41:07Z</time>
      </trkpt>
      <trkpt lat="50.90388" lon="1.67831">
        <ele>2.6</ele>
        <time>2019-10-05T12:41:11Z</time>
      </trkpt>
      <trkpt lat="50.90392" lon="1.67836">
        <ele>2.6</ele>
        <time>2019-10-05T12:41:16Z</time>
      </trkpt>
      <trkpt lat="50.90396" lon="1.6784">
        <ele>2.6</ele>
        <time>2019-10-05T12:41:21Z</time>
      </trkpt>
      <trkpt lat="50.90401" lon="1.67845">
        <ele>2.6</ele>
        <time>2019-10-05T12:41:26Z</time>
      </trkpt>
      <trkpt lat="50.90406" lon="1.67848">
        <ele>2.6</ele>
        <time>2019-10-05T12:41:30Z</time>
      </trkpt>
      <trkpt lat="50.9041" lon="1.67852">
        <ele>2.6</ele>
        <time>2019-10-05T12:41:33Z</time>
      </trkpt>
      <trkpt lat="50.90414" lon="1.67857">
        <ele>2.6</ele>
        <time>2019-10-05T12:41:37Z</time>
      </trkpt>
      <trkpt lat="50.90418" lon="1.67862">
        <ele>2.6</ele>
        <time>2019-10-05T12:41:42Z</time>
      </trkpt>
      <trkpt lat="50.90422" lon="1.67867">
        <ele>2.6</ele>
        <time>2019-10-05T12:41:48Z</time>
      </trkpt>
      <trkpt lat="50.90426" lon="1.67871">
        <ele>2.6</ele>
        <time>2019-10-05T12:41:54Z</time>
      </trkpt>
      <trkpt lat="50.90431" lon="1.67876">
        <ele>2.6</ele>
        <time>2019-10-05T12:41:59Z</time>
      </trkpt>
      <trkpt lat="50.90436" lon="1.6788">
        <ele>2.6</ele>
        <time>2019-10-05T12:42:03Z</time>
      </trkpt>
      <trkpt lat="50.9044" lon="1.67884">
        <ele>2.6</ele>
        <time>2019-10-05T12:42:06Z</time>
      </trkpt>
      <trkpt lat="50.90444" lon="1.67889">
        <ele>2.6</ele>
        <time>2019-10-05T12:42:11Z</time>
      </trkpt>
      <trkpt lat="50.90447" lon="1.67893">
        <ele>2.6</ele>
        <time>2019-10-05T12:42:15Z</time>
      </trkpt>
      <trkpt lat="50.90452" lon="1.67898">
        <ele>2.6</ele>
        <time>2019-10-05T12:42:19Z</time>
      </trkpt>
      <trkpt lat="50.90457" lon="1.67903">
        <ele>2.6</ele>
        <time>2019-10-05T12:42:24Z</time>
      </trkpt>
      <trkpt lat="50.90461" lon="1.67907">
        <ele>2.6</ele>
        <time>2019-10-05T12:42:28Z</time>
      </trkpt>
      <trkpt lat="50.90465" lon="1.67911">
        <ele>2.6</ele>
        <time>2019-10-05T12:42:31Z</time>
      </trkpt>
      <trkpt lat="50.90469" lon="1.67917">
        <ele>2.6</ele>
        <time>2019-10-05T12:42:35Z</time>
      </trkpt>
      <trkpt lat="50.90473" lon="1.67922">
        <ele>2.6</ele>
        <time>2019-10-05T12:42:41Z</time>
      </trkpt>
      <trkpt lat="50.90477" lon="1.67926">
        <ele>2.6</ele>
        <time>2019-10-05T12:42:46Z</time>
      </trkpt>
      <trkpt lat="50.90481" lon="1.67931">
        <ele>2.6</ele>
        <time>2019-10-05T12:42:53Z</time>
      </trkpt>
      <trkpt lat="50.90485" lon="1.67937">
        <ele>2.6</ele>
        <time>2019-10-05T12:42:58Z</time>
      </trkpt>
      <trkpt lat="50.90489" lon="1.67942">
        <ele>2.6</ele>
        <time>2019-10-05T12:43:02Z</time>
      </trkpt>
      <trkpt lat="50.90493" lon="1.67945">
        <ele>2.6</ele>
        <time>2019-10-05T12:43:06Z</time>
      </trkpt>
      <trkpt lat="50.90498" lon="1.6795">
        <ele>2.6</ele>
        <time>2019-10-05T12:43:11Z</time>
      </trkpt>
      <trkpt lat="50.90502" lon="1.67953">
        <ele>2.6</ele>
        <time>2019-10-05T12:43:15Z</time>
      </trkpt>
      <trkpt lat="50.90506" lon="1.67956">
        <ele>2.6</ele>
        <time>2019-10-05T12:43:20Z</time>
      </trkpt>
      <trkpt lat="50.90511" lon="1.67959">
        <ele>2.6</ele>
        <time>2019-10-05T12:43:25Z</time>
      </trkpt>
      <trkpt lat="50.90516" lon="1.67963">
        <ele>2.6</ele>
        <time>2019-10-05T12:43:33Z</time>
      </trkpt>
      <trkpt lat="50.90521" lon="1.67967">
        <ele>2.6</ele>
        <time>2019-10-05T12:43:39Z</time>
      </trkpt>
      <trkpt lat="50.90526" lon="1.6797">
        <ele>2.6</ele>
        <time>2019-10-05T12:43:44Z</time>
      </trkpt>
      <trkpt lat="50.90531" lon="1.67974">
        <ele>2.6</ele>
        <time>2019-10-05T12:43:49Z</time>
      </trkpt>
      <trkpt lat="50.90536" lon="1.67976">
        <ele>2.6</ele>
        <time>2019-10-05T12:43:55Z</time>
      </trkpt>
      <trkpt lat="50.9054" lon="1.67981">
        <ele>2.6</ele>
        <time>2019-10-05T12:44:00Z</time>
      </trkpt>
      <trkpt lat="50.90544" lon="1.67986">
        <ele>2.6</ele>
        <time>2019-10-05T12:44:05Z</time>
      </trkpt>
      <trkpt lat="50.9055" lon="1.67991">
        <ele>2.6</ele>
        <time>2019-10-05T12:44:09Z</time>
      </trkpt>
      <trkpt lat="50.90552" lon="1.67997">
        <ele>2.6</ele>
        <time>2019-10-05T12:44:15Z</time>
      </trkpt>
      <trkpt lat="50.90549" lon="1.68004">
        <ele>2.6</ele>
        <time>2019-10-05T12:44:26Z</time>
      </trkpt>
      <trkpt lat="50.90546" lon="1.6801">
        <ele>2.6</ele>
        <time>2019-10-05T12:44:31Z</time>
      </trkpt>
      <trkpt lat="50.90544" lon="1.68016">
        <ele>2.6</ele>
        <time>2019-10-05T12:44:35Z</time>
      </trkpt>
      <trkpt lat="50.90541" lon="1.68022">
        <ele>2.6</ele>
        <time>2019-10-05T12:44:40Z</time>
      </trkpt>
      <trkpt lat="50.90542" lon="1.6803">
        <ele>2.6</ele>
        <time>2019-10-05T12:44:48Z</time>
      </trkpt>
      <trkpt lat="50.90544" lon="1.68039">
        <ele>2.6</ele>
        <time>2019-10-05T12:44:58Z</time>
      </trkpt>
      <trkpt lat="50.90545" lon="1.68046">
        <ele>2.6</ele>
        <time>2019-10-05T12:45:01Z</time>
      </trkpt>
      <trkpt lat="50.90547" lon="1.68054">
        <ele>2.6</ele>
        <time>2019-10-05T12:45:06Z</time>
      </trkpt>
      <trkpt lat="50.90549" lon="1.68061">
        <ele>2.6</ele>
        <time>2019-10-05T12:45:12Z</time>
      </trkpt>
      <trkpt lat="50.9055" lon="1.6807">
        <ele>2.6</ele>
        <time>2019-10-05T12:45:18Z</time>
      </trkpt>
      <trkpt lat="50.9055" lon="1.68077">
        <ele>2.6</ele>
        <time>2019-10-05T12:45:22Z</time>
      </trkpt>
      <trkpt lat="50.90552" lon="1.68085">
        <ele>2.6</ele>
        <time>2019-10-05T12:45:27Z</time>
      </trkpt>
      <trkpt lat="50.90553" lon="1.68092">
        <ele>2.6</ele>
        <time>2019-10-05T12:45:32Z</time>
      </trkpt>
      <trkpt lat="50.90554" lon="1.681">
        <ele>2.6</ele>
        <time>2019-10-05T12:45:39Z</time>
      </trkpt>
      <trkpt lat="50.90555" lon="1.68109">
        <ele>2.6</ele>
        <time>2019-10-05T12:45:44Z</time>
      </trkpt>
      <trkpt lat="50.90556" lon="1.68116">
        <ele>2.6</ele>
        <time>2019-10-05T12:45:48Z</time>
      </trkpt>
      <trkpt lat="50.90559" lon="1.68121">
        <ele>2.6</ele>
        <time>2019-10-05T12:45:53Z</time>
      </trkpt>
      <trkpt lat="50.90563" lon="1.68127">
        <ele>2.6</ele>
        <time>2019-10-05T12:45:59Z</time>
      </trkpt>
      <trkpt lat="50.90568" lon="1.68131">
        <ele>2.6</ele>
        <time>2019-10-05T12:46:03Z</time>
      </trkpt>
      <trkpt lat="50.90571" lon="1.68136">
        <ele>2.6</ele>
        <time>2019-10-05T12:46:08Z</time>
      </trkpt>
      <trkpt lat="50.90575" lon="1.68143">
        <ele>2.6</ele>
        <time>2019-10-05T12:46:14Z</time>
      </trkpt>
      <trkpt lat="50.90578" lon="1.68148">
        <ele>2.6</ele>
        <time>2019-10-05T12:46:18Z</time>
      </trkpt>
      <trkpt lat="50.90582" lon="1.68152">
        <ele>2.6</ele>
        <time>2019-10-05T12:46:24Z</time>
      </trkpt>
      <trkpt lat="50.90587" lon="1.68156">
        <ele>2.6</ele>
        <time>2019-10-05T12:46:29Z</time>
      </trkpt>
      <trkpt lat="50.90591" lon="1.68161">
        <ele>2.6</ele>
        <time>2019-10-05T12:46:33Z</time>
      </trkpt>
      <trkpt lat="50.90594" lon="1.68167">
        <ele>2.6</ele>
        <time>2019-10-05T12:46:39Z</time>
      </trkpt>
      <trkpt lat="50.90598" lon="1.68172">
        <ele>2.6</ele>
        <time>2019-10-05T12:46:45Z</time>
      </trkpt>
      <trkpt lat="50.90602" lon="1.68178">
        <ele>2.6</ele>
        <time>2019-10-05T12:46:50Z</time>
      </trkpt>
      <trkpt lat="50.90605" lon="1.68183">
        <ele>2.6</ele>
        <time>2019-10-05T12:46:54Z</time>
      </trkpt>
      <trkpt lat="50.90609" lon="1.68187">
        <ele>2.6</ele>
        <time>2019-10-05T12:46:58Z</time>
      </trkpt>
      <trkpt lat="50.90613" lon="1.68192">
        <ele>2.6</ele>
        <time>2019-10-05T12:47:02Z</time>
      </trkpt>
      <trkpt lat="50.90617" lon="1.68196">
        <ele>2.6</ele>
        <time>2019-10-05T12:47:06Z</time>
      </trkpt>
      <trkpt lat="50.90622" lon="1.682">
        <ele>2.6</ele>
        <time>2019-10-05T12:47:11Z</time>
      </trkpt>
      <trkpt lat="50.90626" lon="1.68205">
        <ele>2.6</ele>
        <time>2019-10-05T12:47:16Z</time>
      </trkpt>
      <trkpt lat="50.9063" lon="1.68209">
        <ele>2.6</ele>
        <time>2019-10-05T12:47:20Z</time>
      </trkpt>
      <trkpt lat="50.90634" lon="1.68213">
        <ele>2.6</ele>
        <time>2019-10-05T12:47:24Z</time>
      </trkpt>
      <trkpt lat="50.90639" lon="1.68216">
        <ele>2.6</ele>
        <time>2019-10-05T12:47:28Z</time>
      </trkpt>
      <trkpt lat="50.90643" lon="1.68221">
        <ele>2.6</ele>
        <time>2019-10-05T12:47:32Z</time>
      </trkpt>
      <trkpt lat="50.90646" lon="1.68227">
        <ele>2.6</ele>
        <time>2019-10-05T12:47:36Z</time>
      </trkpt>
      <trkpt lat="50.9065" lon="1.68231">
        <ele>2.6</ele>
        <time>2019-10-05T12:47:40Z</time>
      </trkpt>
      <trkpt lat="50.90654" lon="1.68236">
        <ele>2.6</ele>
        <time>2019-10-05T12:47:45Z</time>
      </trkpt>
      <trkpt lat="50.90658" lon="1.68241">
        <ele>2.6</ele>
        <time>2019-10-05T12:47:50Z</time>
      </trkpt>
      <trkpt lat="50.90661" lon="1.68248">
        <ele>2.6</ele>
        <time>2019-10-05T12:47:54Z</time>
      </trkpt>
      <trkpt lat="50.90665" lon="1.68253">
        <ele>2.6</ele>
        <time>2019-10-05T12:48:06Z</time>
      </trkpt>
      <trkpt lat="50.90669" lon="1.68256">
        <ele>2.8</ele>
        <time>2019-10-05T12:48:11Z</time>
      </trkpt>
      <trkpt lat="50.90674" lon="1.68262">
        <ele>2.8</ele>
        <time>2019-10-05T12:48:16Z</time>
      </trkpt>
      <trkpt lat="50.90677" lon="1.68267">
        <ele>2.7</ele>
        <time>2019-10-05T12:48:20Z</time>
      </trkpt>
      <trkpt lat="50.90681" lon="1.68272">
        <ele>2.6</ele>
        <time>2019-10-05T12:48:24Z</time>
      </trkpt>
      <trkpt lat="50.90685" lon="1.68277">
        <ele>2.6</ele>
        <time>2019-10-05T12:48:30Z</time>
      </trkpt>
      <trkpt lat="50.90689" lon="1.68282">
        <ele>2.6</ele>
        <time>2019-10-05T12:48:34Z</time>
      </trkpt>
      <trkpt lat="50.90692" lon="1.68286">
        <ele>2.6</ele>
        <time>2019-10-05T12:48:38Z</time>
      </trkpt>
      <trkpt lat="50.90697" lon="1.68291">
        <ele>2.6</ele>
        <time>2019-10-05T12:48:42Z</time>
      </trkpt>
      <trkpt lat="50.90701" lon="1.68296">
        <ele>2.6</ele>
        <time>2019-10-05T12:48:46Z</time>
      </trkpt>
      <trkpt lat="50.90706" lon="1.683">
        <ele>2.6</ele>
        <time>2019-10-05T12:48:50Z</time>
      </trkpt>
      <trkpt lat="50.90711" lon="1.68305">
        <ele>2.6</ele>
        <time>2019-10-05T12:48:54Z</time>
      </trkpt>
      <trkpt lat="50.90716" lon="1.68308">
        <ele>2.6</ele>
        <time>2019-10-05T12:48:58Z</time>
      </trkpt>
      <trkpt lat="50.9072" lon="1.68311">
        <ele>2.6</ele>
        <time>2019-10-05T12:49:02Z</time>
      </trkpt>
      <trkpt lat="50.90724" lon="1.68317">
        <ele>2.6</ele>
        <time>2019-10-05T12:49:06Z</time>
      </trkpt>
      <trkpt lat="50.90728" lon="1.68322">
        <ele>2.6</ele>
        <time>2019-10-05T12:49:09Z</time>
      </trkpt>
      <trkpt lat="50.90732" lon="1.68326">
        <ele>2.6</ele>
        <time>2019-10-05T12:49:13Z</time>
      </trkpt>
      <trkpt lat="50.90736" lon="1.6833">
        <ele>2.6</ele>
        <time>2019-10-05T12:49:17Z</time>
      </trkpt>
      <trkpt lat="50.90741" lon="1.68335">
        <ele>2.6</ele>
        <time>2019-10-05T12:49:22Z</time>
      </trkpt>
      <trkpt lat="50.90745" lon="1.68339">
        <ele>2.6</ele>
        <time>2019-10-05T12:49:26Z</time>
      </trkpt>
      <trkpt lat="50.90749" lon="1.68343">
        <ele>2.6</ele>
        <time>2019-10-05T12:49:32Z</time>
      </trkpt>
      <trkpt lat="50.90753" lon="1.68348">
        <ele>2.6</ele>
        <time>2019-10-05T12:49:37Z</time>
      </trkpt>
      <trkpt lat="50.90757" lon="1.68352">
        <ele>2.6</ele>
        <time>2019-10-05T12:49:41Z</time>
      </trkpt>
      <trkpt lat="50.90762" lon="1.6835">
        <ele>2.6</ele>
        <time>2019-10-05T12:49:58Z</time>
      </trkpt>
      <trkpt lat="50.90766" lon="1.68355">
        <ele>2.6</ele>
        <time>2019-10-05T12:50:23Z</time>
      </trkpt>
      <trkpt lat="50.9077" lon="1.6836">
        <ele>2.6</ele>
        <time>2019-10-05T12:50:30Z</time>
      </trkpt>
      <trkpt lat="50.90774" lon="1.68365">
        <ele>2.6</ele>
        <time>2019-10-05T12:50:34Z</time>
      </trkpt>
      <trkpt lat="50.90777" lon="1.68371">
        <ele>2.6</ele>
        <time>2019-10-05T12:50:38Z</time>
      </trkpt>
      <trkpt lat="50.90781" lon="1.68376">
        <ele>2.6</ele>
        <time>2019-10-05T12:50:41Z</time>
      </trkpt>
      <trkpt lat="50.90784" lon="1.68382">
        <ele>2.6</ele>
        <time>2019-10-05T12:50:45Z</time>
      </trkpt>
      <trkpt lat="50.90787" lon="1.68388">
        <ele>2.6</ele>
        <time>2019-10-05T12:50:54Z</time>
      </trkpt>
      <trkpt lat="50.90791" lon="1.68392">
        <ele>2.6</ele>
        <time>2019-10-05T12:51:00Z</time>
      </trkpt>
      <trkpt lat="50.90795" lon="1.68396">
        <ele>2.6</ele>
        <time>2019-10-05T12:51:05Z</time>
      </trkpt>
      <trkpt lat="50.908" lon="1.68401">
        <ele>2.6</ele>
        <time>2019-10-05T12:51:09Z</time>
      </trkpt>
      <trkpt lat="50.90804" lon="1.68405">
        <ele>2.6</ele>
        <time>2019-10-05T12:51:13Z</time>
      </trkpt>
      <trkpt lat="50.90808" lon="1.68409">
        <ele>2.6</ele>
        <time>2019-10-05T12:51:18Z</time>
      </trkpt>
      <trkpt lat="50.90812" lon="1.68413">
        <ele>2.6</ele>
        <time>2019-10-05T12:51:23Z</time>
      </trkpt>
      <trkpt lat="50.90817" lon="1.68418">
        <ele>2.6</ele>
        <time>2019-10-05T12:51:28Z</time>
      </trkpt>
      <trkpt lat="50.90821" lon="1.68423">
        <ele>2.6</ele>
        <time>2019-10-05T12:51:33Z</time>
      </trkpt>
      <trkpt lat="50.90825" lon="1.68427">
        <ele>2.6</ele>
        <time>2019-10-05T12:51:37Z</time>
      </trkpt>
      <trkpt lat="50.90829" lon="1.6843">
        <ele>2.6</ele>
        <time>2019-10-05T12:51:42Z</time>
      </trkpt>
      <trkpt lat="50.90834" lon="1.68433">
        <ele>2.6</ele>
        <time>2019-10-05T12:51:47Z</time>
      </trkpt>
      <trkpt lat="50.90839" lon="1.68437">
        <ele>2.6</ele>
        <time>2019-10-05T12:51:52Z</time>
      </trkpt>
      <trkpt lat="50.90843" lon="1.68441">
        <ele>2.6</ele>
        <time>2019-10-05T12:51:56Z</time>
      </trkpt>
      <trkpt lat="50.90848" lon="1.68445">
        <ele>2.6</ele>
        <time>2019-10-05T12:52:02Z</time>
      </trkpt>
      <trkpt lat="50.90852" lon="1.6845">
        <ele>2.6</ele>
        <time>2019-10-05T12:52:07Z</time>
      </trkpt>
      <trkpt lat="50.90855" lon="1.68454">
        <ele>2.6</ele>
        <time>2019-10-05T12:52:11Z</time>
      </trkpt>
      <trkpt lat="50.90861" lon="1.68457">
        <ele>2.6</ele>
        <time>2019-10-05T12:52:14Z</time>
      </trkpt>
      <trkpt lat="50.90866" lon="1.68459">
        <ele>2.6</ele>
        <time>2019-10-05T12:52:17Z</time>
      </trkpt>
      <trkpt lat="50.90871" lon="1.68461">
        <ele>2.6</ele>
        <time>2019-10-05T12:52:21Z</time>
      </trkpt>
      <trkpt lat="50.90876" lon="1.68466">
        <ele>2.6</ele>
        <time>2019-10-05T12:52:26Z</time>
      </trkpt>
      <trkpt lat="50.90879" lon="1.68471">
        <ele>2.6</ele>
        <time>2019-10-05T12:52:33Z</time>
      </trkpt>
      <trkpt lat="50.90883" lon="1.68476">
        <ele>2.6</ele>
        <time>2019-10-05T12:52:38Z</time>
      </trkpt>
      <trkpt lat="50.90887" lon="1.6848">
        <ele>2.6</ele>
        <time>2019-10-05T12:52:43Z</time>
      </trkpt>
      <trkpt lat="50.90891" lon="1.68485">
        <ele>2.6</ele>
        <time>2019-10-05T12:52:47Z</time>
      </trkpt>
      <trkpt lat="50.90895" lon="1.68489">
        <ele>2.6</ele>
        <time>2019-10-05T12:52:51Z</time>
      </trkpt>
      <trkpt lat="50.90899" lon="1.68493">
        <ele>2.6</ele>
        <time>2019-10-05T12:52:56Z</time>
      </trkpt>
      <trkpt lat="50.90904" lon="1.68497">
        <ele>2.6</ele>
        <time>2019-10-05T12:53:00Z</time>
      </trkpt>
      <trkpt lat="50.90909" lon="1.68501">
        <ele>2.6</ele>
        <time>2019-10-05T12:53:04Z</time>
      </trkpt>
      <trkpt lat="50.90912" lon="1.68506">
        <ele>2.6</ele>
        <time>2019-10-05T12:53:09Z</time>
      </trkpt>
      <trkpt lat="50.90916" lon="1.68511">
        <ele>2.6</ele>
        <time>2019-10-05T12:53:14Z</time>
      </trkpt>
      <trkpt lat="50.9092" lon="1.68515">
        <ele>2.6</ele>
        <time>2019-10-05T12:53:18Z</time>
      </trkpt>
      <trkpt lat="50.90925" lon="1.68519">
        <ele>2.6</ele>
        <time>2019-10-05T12:53:22Z</time>
      </trkpt>
      <trkpt lat="50.90929" lon="1.68524">
        <ele>2.6</ele>
        <time>2019-10-05T12:53:27Z</time>
      </trkpt>
      <trkpt lat="50.90933" lon="1.68529">
        <ele>2.6</ele>
        <time>2019-10-05T12:53:31Z</time>
      </trkpt>
      <trkpt lat="50.90937" lon="1.68533">
        <ele>2.6</ele>
        <time>2019-10-05T12:53:36Z</time>
      </trkpt>
      <trkpt lat="50.90941" lon="1.68537">
        <ele>2.6</ele>
        <time>2019-10-05T12:53:40Z</time>
      </trkpt>
      <trkpt lat="50.90945" lon="1.68541">
        <ele>2.6</ele>
        <time>2019-10-05T12:53:44Z</time>
      </trkpt>
      <trkpt lat="50.9095" lon="1.68544">
        <ele>2.6</ele>
        <time>2019-10-05T12:53:49Z</time>
      </trkpt>
      <trkpt lat="50.90955" lon="1.68548">
        <ele>2.6</ele>
        <time>2019-10-05T12:53:53Z</time>
      </trkpt>
      <trkpt lat="50.9096" lon="1.68551">
        <ele>2.6</ele>
        <time>2019-10-05T12:53:57Z</time>
      </trkpt>
      <trkpt lat="50.90965" lon="1.68554">
        <ele>2.6</ele>
        <time>2019-10-05T12:54:01Z</time>
      </trkpt>
      <trkpt lat="50.90969" lon="1.68557">
        <ele>2.6</ele>
        <time>2019-10-05T12:54:05Z</time>
      </trkpt>
      <trkpt lat="50.90974" lon="1.68561">
        <ele>2.6</ele>
        <time>2019-10-05T12:54:08Z</time>
      </trkpt>
      <trkpt lat="50.90978" lon="1.68566">
        <ele>2.6</ele>
        <time>2019-10-05T12:54:12Z</time>
      </trkpt>
      <trkpt lat="50.90982" lon="1.68571">
        <ele>2.6</ele>
        <time>2019-10-05T12:54:18Z</time>
      </trkpt>
      <trkpt lat="50.90986" lon="1.68576">
        <ele>2.6</ele>
        <time>2019-10-05T12:54:22Z</time>
      </trkpt>
      <trkpt lat="50.90991" lon="1.6858">
        <ele>2.6</ele>
        <time>2019-10-05T12:54:27Z</time>
      </trkpt>
      <trkpt lat="50.90994" lon="1.68585">
        <ele>1.6</ele>
        <time>2019-10-05T12:54:31Z</time>
      </trkpt>
      <trkpt lat="50.90999" lon="1.6859">
        <ele>2.1</ele>
        <time>2019-10-05T12:54:35Z</time>
      </trkpt>
      <trkpt lat="50.91003" lon="1.68595">
        <ele>2.3</ele>
        <time>2019-10-05T12:54:40Z</time>
      </trkpt>
      <trkpt lat="50.91008" lon="1.68598">
        <ele>2.4</ele>
        <time>2019-10-05T12:54:44Z</time>
      </trkpt>
      <trkpt lat="50.91013" lon="1.68602">
        <ele>2.5</ele>
        <time>2019-10-05T12:54:51Z</time>
      </trkpt>
      <trkpt lat="50.91017" lon="1.68607">
        <ele>2.5</ele>
        <time>2019-10-05T12:54:55Z</time>
      </trkpt>
      <trkpt lat="50.91022" lon="1.6861">
        <ele>2.5</ele>
        <time>2019-10-05T12:54:58Z</time>
      </trkpt>
      <trkpt lat="50.91025" lon="1.68614">
        <ele>2.5</ele>
        <time>2019-10-05T12:55:01Z</time>
      </trkpt>
      <trkpt lat="50.91029" lon="1.6862">
        <ele>2.6</ele>
        <time>2019-10-05T12:55:05Z</time>
      </trkpt>
      <trkpt lat="50.91031" lon="1.68629">
        <ele>2.6</ele>
        <time>2019-10-05T12:55:09Z</time>
      </trkpt>
      <trkpt lat="50.91032" lon="1.68636">
        <ele>2.6</ele>
        <time>2019-10-05T12:55:12Z</time>
      </trkpt>
      <trkpt lat="50.91034" lon="1.68643">
        <ele>2.6</ele>
        <time>2019-10-05T12:55:16Z</time>
      </trkpt>
      <trkpt lat="50.91034" lon="1.68651">
        <ele>2.6</ele>
        <time>2019-10-05T12:55:20Z</time>
      </trkpt>
      <trkpt lat="50.91034" lon="1.68661">
        <ele>2.6</ele>
        <time>2019-10-05T12:55:24Z</time>
      </trkpt>
      <trkpt lat="50.91033" lon="1.68669">
        <ele>2.6</ele>
        <time>2019-10-05T12:55:28Z</time>
      </trkpt>
      <trkpt lat="50.91034" lon="1.68679">
        <ele>2.6</ele>
        <time>2019-10-05T12:55:32Z</time>
      </trkpt>
      <trkpt lat="50.91034" lon="1.68686">
        <ele>2.6</ele>
        <time>2019-10-05T12:55:36Z</time>
      </trkpt>
      <trkpt lat="50.91034" lon="1.68694">
        <ele>2.6</ele>
        <time>2019-10-05T12:55:39Z</time>
      </trkpt>
      <trkpt lat="50.91034" lon="1.68701">
        <ele>2.6</ele>
        <time>2019-10-05T12:55:42Z</time>
      </trkpt>
      <trkpt lat="50.91033" lon="1.6871">
        <ele>2.6</ele>
        <time>2019-10-05T12:55:46Z</time>
      </trkpt>
      <trkpt lat="50.9103" lon="1.68717">
        <ele>2.6</ele>
        <time>2019-10-05T12:55:50Z</time>
      </trkpt>
      <trkpt lat="50.91027" lon="1.68724">
        <ele>2.6</ele>
        <time>2019-10-05T12:55:54Z</time>
      </trkpt>
      <trkpt lat="50.91032" lon="1.68725">
        <ele>2.6</ele>
        <time>2019-10-05T12:56:14Z</time>
      </trkpt>
      <trkpt lat="50.91036" lon="1.68722">
        <ele>2.6</ele>
        <time>2019-10-05T12:56:29Z</time>
      </trkpt>
      <trkpt lat="50.9104" lon="1.68719">
        <ele>2.6</ele>
        <time>2019-10-05T12:56:54Z</time>
      </trkpt>
      <trkpt lat="50.91046" lon="1.6872">
        <ele>2.6</ele>
        <time>2019-10-05T12:56:59Z</time>
      </trkpt>
      <trkpt lat="50.91052" lon="1.68721">
        <ele>2.6</ele>
        <time>2019-10-05T12:57:03Z</time>
      </trkpt>
      <trkpt lat="50.91057" lon="1.68723">
        <ele>2.6</ele>
        <time>2019-10-05T12:57:06Z</time>
      </trkpt>
      <trkpt lat="50.91062" lon="1.68724">
        <ele>2.6</ele>
        <time>2019-10-05T12:57:09Z</time>
      </trkpt>
      <trkpt lat="50.91067" lon="1.68725">
        <ele>2.6</ele>
        <time>2019-10-05T12:57:13Z</time>
      </trkpt>
      <trkpt lat="50.91072" lon="1.68726">
        <ele>2.6</ele>
        <time>2019-10-05T12:57:16Z</time>
      </trkpt>
      <trkpt lat="50.91076" lon="1.68728">
        <ele>2.6</ele>
        <time>2019-10-05T12:57:19Z</time>
      </trkpt>
      <trkpt lat="50.91082" lon="1.68729">
        <ele>2.6</ele>
        <time>2019-10-05T12:57:23Z</time>
      </trkpt>
      <trkpt lat="50.91087" lon="1.68731">
        <ele>2.6</ele>
        <time>2019-10-05T12:57:27Z</time>
      </trkpt>
      <trkpt lat="50.91092" lon="1.68734">
        <ele>2.6</ele>
        <time>2019-10-05T12:57:31Z</time>
      </trkpt>
      <trkpt lat="50.91098" lon="1.68737">
        <ele>2.6</ele>
        <time>2019-10-05T12:57:35Z</time>
      </trkpt>
      <trkpt lat="50.91102" lon="1.6874">
        <ele>2.6</ele>
        <time>2019-10-05T12:57:38Z</time>
      </trkpt>
      <trkpt lat="50.91107" lon="1.68745">
        <ele>2.6</ele>
        <time>2019-10-05T12:57:42Z</time>
      </trkpt>
      <trkpt lat="50.91111" lon="1.6875">
        <ele>2.6</ele>
        <time>2019-10-05T12:57:46Z</time>
      </trkpt>
      <trkpt lat="50.91115" lon="1.68755">
        <ele>2.6</ele>
        <time>2019-10-05T12:57:49Z</time>
      </trkpt>
      <trkpt lat="50.91118" lon="1.6876">
        <ele>2.6</ele>
        <time>2019-10-05T12:57:53Z</time>
      </trkpt>
      <trkpt lat="50.91123" lon="1.68766">
        <ele>2.6</ele>
        <time>2019-10-05T12:57:57Z</time>
      </trkpt>
      <trkpt lat="50.91127" lon="1.68771">
        <ele>2.6</ele>
        <time>2019-10-05T12:58:01Z</time>
      </trkpt>
      <trkpt lat="50.91132" lon="1.68775">
        <ele>2.6</ele>
        <time>2019-10-05T12:58:04Z</time>
      </trkpt>
      <trkpt lat="50.91136" lon="1.68779">
        <ele>2.6</ele>
        <time>2019-10-05T12:58:07Z</time>
      </trkpt>
      <trkpt lat="50.9114" lon="1.68783">
        <ele>2.6</ele>
        <time>2019-10-05T12:58:10Z</time>
      </trkpt>
      <trkpt lat="50.91144" lon="1.68787">
        <ele>2.6</ele>
        <time>2019-10-05T12:58:15Z</time>
      </trkpt>
      <trkpt lat="50.91148" lon="1.6879">
        <ele>2.6</ele>
        <time>2019-10-05T12:58:19Z</time>
      </trkpt>
      <trkpt lat="50.91153" lon="1.68793">
        <ele>2.6</ele>
        <time>2019-10-05T12:58:25Z</time>
      </trkpt>
      <trkpt lat="50.91157" lon="1.68796">
        <ele>2.6</ele>
        <time>2019-10-05T12:58:41Z</time>
      </trkpt>
      <trkpt lat="50.91161" lon="1.68798">
        <ele>2.6</ele>
        <time>2019-10-05T12:58:44Z</time>
      </trkpt>
      <trkpt lat="50.91167" lon="1.68801">
        <ele>2.6</ele>
        <time>2019-10-05T12:58:47Z</time>
      </trkpt>
      <trkpt lat="50.91171" lon="1.68805">
        <ele>2.6</ele>
        <time>2019-10-05T12:58:51Z</time>
      </trkpt>
      <trkpt lat="50.91176" lon="1.6881">
        <ele>2.6</ele>
        <time>2019-10-05T12:58:55Z</time>
      </trkpt>
      <trkpt lat="50.9118" lon="1.68814">
        <ele>2.6</ele>
        <time>2019-10-05T12:58:58Z</time>
      </trkpt>
      <trkpt lat="50.91184" lon="1.68818">
        <ele>2.6</ele>
        <time>2019-10-05T12:59:01Z</time>
      </trkpt>
      <trkpt lat="50.91189" lon="1.68823">
        <ele>2.6</ele>
        <time>2019-10-05T12:59:05Z</time>
      </trkpt>
      <trkpt lat="50.91193" lon="1.68827">
        <ele>2.6</ele>
        <time>2019-10-05T12:59:08Z</time>
      </trkpt>
      <trkpt lat="50.91198" lon="1.68831">
        <ele>2.6</ele>
        <time>2019-10-05T12:59:11Z</time>
      </trkpt>
      <trkpt lat="50.91201" lon="1.68835">
        <ele>2.6</ele>
        <time>2019-10-05T12:59:14Z</time>
      </trkpt>
      <trkpt lat="50.91205" lon="1.6884">
        <ele>2.6</ele>
        <time>2019-10-05T12:59:17Z</time>
      </trkpt>
      <trkpt lat="50.9121" lon="1.68845">
        <ele>2.6</ele>
        <time>2019-10-05T12:59:21Z</time>
      </trkpt>
      <trkpt lat="50.91214" lon="1.68849">
        <ele>2.6</ele>
        <time>2019-10-05T12:59:25Z</time>
      </trkpt>
      <trkpt lat="50.91218" lon="1.68852">
        <ele>2.6</ele>
        <time>2019-10-05T12:59:28Z</time>
      </trkpt>
      <trkpt lat="50.91223" lon="1.68855">
        <ele>2.6</ele>
        <time>2019-10-05T12:59:31Z</time>
      </trkpt>
      <trkpt lat="50.91228" lon="1.6886">
        <ele>2.6</ele>
        <time>2019-10-05T12:59:35Z</time>
      </trkpt>
      <trkpt lat="50.91232" lon="1.68866">
        <ele>2.6</ele>
        <time>2019-10-05T12:59:39Z</time>
      </trkpt>
      <trkpt lat="50.91236" lon="1.6887">
        <ele>2.6</ele>
        <time>2019-10-05T12:59:42Z</time>
      </trkpt>
      <trkpt lat="50.91239" lon="1.68875">
        <ele>2.6</ele>
        <time>2019-10-05T12:59:45Z</time>
      </trkpt>
      <trkpt lat="50.91244" lon="1.68881">
        <ele>2.6</ele>
        <time>2019-10-05T12:59:49Z</time>
      </trkpt>
      <trkpt lat="50.91248" lon="1.68886">
        <ele>2.6</ele>
        <time>2019-10-05T12:59:52Z</time>
      </trkpt>
      <trkpt lat="50.91252" lon="1.6889">
        <ele>2.6</ele>
        <time>2019-10-05T12:59:55Z</time>
      </trkpt>
      <trkpt lat="50.91257" lon="1.68894">
        <ele>2.6</ele>
        <time>2019-10-05T12:59:58Z</time>
      </trkpt>
      <trkpt lat="50.91261" lon="1.68897">
        <ele>2.6</ele>
        <time>2019-10-05T13:00:01Z</time>
      </trkpt>
      <trkpt lat="50.91266" lon="1.68901">
        <ele>2.6</ele>
        <time>2019-10-05T13:00:05Z</time>
      </trkpt>
      <trkpt lat="50.91271" lon="1.68907">
        <ele>2.6</ele>
        <time>2019-10-05T13:00:09Z</time>
      </trkpt>
      <trkpt lat="50.91276" lon="1.68911">
        <ele>2.6</ele>
        <time>2019-10-05T13:00:13Z</time>
      </trkpt>
      <trkpt lat="50.91281" lon="1.68915">
        <ele>2.6</ele>
        <time>2019-10-05T13:00:17Z</time>
      </trkpt>
      <trkpt lat="50.91285" lon="1.68921">
        <ele>2.6</ele>
        <time>2019-10-05T13:00:21Z</time>
      </trkpt>
      <trkpt lat="50.9129" lon="1.68926">
        <ele>2.6</ele>
        <time>2019-10-05T13:00:25Z</time>
      </trkpt>
      <trkpt lat="50.91295" lon="1.68931">
        <ele>2.6</ele>
        <time>2019-10-05T13:00:29Z</time>
      </trkpt>
      <trkpt lat="50.91299" lon="1.68935">
        <ele>2.6</ele>
        <time>2019-10-05T13:00:32Z</time>
      </trkpt>
      <trkpt lat="50.91304" lon="1.6894">
        <ele>2.6</ele>
        <time>2019-10-05T13:00:36Z</time>
      </trkpt>
      <trkpt lat="50.91308" lon="1.68946">
        <ele>2.6</ele>
        <time>2019-10-05T13:00:40Z</time>
      </trkpt>
      <trkpt lat="50.91311" lon="1.68952">
        <ele>2.6</ele>
        <time>2019-10-05T13:00:44Z</time>
      </trkpt>
      <trkpt lat="50.91314" lon="1.68957">
        <ele>2.6</ele>
        <time>2019-10-05T13:00:49Z</time>
      </trkpt>
      <trkpt lat="50.91316" lon="1.68966">
        <ele>2.6</ele>
        <time>2019-10-05T13:00:54Z</time>
      </trkpt>
      <trkpt lat="50.91317" lon="1.68973">
        <ele>2.6</ele>
        <time>2019-10-05T13:00:58Z</time>
      </trkpt>
      <trkpt lat="50.91319" lon="1.68981">
        <ele>2.6</ele>
        <time>2019-10-05T13:01:02Z</time>
      </trkpt>
      <trkpt lat="50.9132" lon="1.68988">
        <ele>2.6</ele>
        <time>2019-10-05T13:01:05Z</time>
      </trkpt>
      <trkpt lat="50.9132" lon="1.68996">
        <ele>2.6</ele>
        <time>2019-10-05T13:01:09Z</time>
      </trkpt>
      <trkpt lat="50.9132" lon="1.69003">
        <ele>2.6</ele>
        <time>2019-10-05T13:01:13Z</time>
      </trkpt>
      <trkpt lat="50.91323" lon="1.69009">
        <ele>2.6</ele>
        <time>2019-10-05T13:01:31Z</time>
      </trkpt>
      <trkpt lat="50.91327" lon="1.69013">
        <ele>2.6</ele>
        <time>2019-10-05T13:02:03Z</time>
      </trkpt>
      <trkpt lat="50.91333" lon="1.69025">
        <ele>2.6</ele>
        <time>2019-10-05T13:02:18Z</time>
      </trkpt>
      <trkpt lat="50.91336" lon="1.6903">
        <ele>2.6</ele>
        <time>2019-10-05T13:02:23Z</time>
      </trkpt>
      <trkpt lat="50.91341" lon="1.69034">
        <ele>2.6</ele>
        <time>2019-10-05T13:02:28Z</time>
      </trkpt>
      <trkpt lat="50.91345" lon="1.69038">
        <ele>2.6</ele>
        <time>2019-10-05T13:02:33Z</time>
      </trkpt>
      <trkpt lat="50.91349" lon="1.69042">
        <ele>2.6</ele>
        <time>2019-10-05T13:02:38Z</time>
      </trkpt>
      <trkpt lat="50.91353" lon="1.69048">
        <ele>2.6</ele>
        <time>2019-10-05T13:02:43Z</time>
      </trkpt>
      <trkpt lat="50.91357" lon="1.69052">
        <ele>2.6</ele>
        <time>2019-10-05T13:02:47Z</time>
      </trkpt>
      <trkpt lat="50.91362" lon="1.69056">
        <ele>2.6</ele>
        <time>2019-10-05T13:02:52Z</time>
      </trkpt>
      <trkpt lat="50.91366" lon="1.69061">
        <ele>2.6</ele>
        <time>2019-10-05T13:02:56Z</time>
      </trkpt>
      <trkpt lat="50.9137" lon="1.69064">
        <ele>2.6</ele>
        <time>2019-10-05T13:03:00Z</time>
      </trkpt>
      <trkpt lat="50.91375" lon="1.69069">
        <ele>2.6</ele>
        <time>2019-10-05T13:03:05Z</time>
      </trkpt>
      <trkpt lat="50.9138" lon="1.69072">
        <ele>2.6</ele>
        <time>2019-10-05T13:03:10Z</time>
      </trkpt>
      <trkpt lat="50.91385" lon="1.69075">
        <ele>2.6</ele>
        <time>2019-10-05T13:03:15Z</time>
      </trkpt>
      <trkpt lat="50.9139" lon="1.69079">
        <ele>2.6</ele>
        <time>2019-10-05T13:03:20Z</time>
      </trkpt>
      <trkpt lat="50.91394" lon="1.69083">
        <ele>2.6</ele>
        <time>2019-10-05T13:03:24Z</time>
      </trkpt>
      <trkpt lat="50.91399" lon="1.69088">
        <ele>2.6</ele>
        <time>2019-10-05T13:03:29Z</time>
      </trkpt>
      <trkpt lat="50.91403" lon="1.69092">
        <ele>2.6</ele>
        <time>2019-10-05T13:03:34Z</time>
      </trkpt>
      <trkpt lat="50.91407" lon="1.69097">
        <ele>2.6</ele>
        <time>2019-10-05T13:03:38Z</time>
      </trkpt>
      <trkpt lat="50.91411" lon="1.69101">
        <ele>2.6</ele>
        <time>2019-10-05T13:03:42Z</time>
      </trkpt>
      <trkpt lat="50.91414" lon="1.69108">
        <ele>2.6</ele>
        <time>2019-10-05T13:03:47Z</time>
      </trkpt>
      <trkpt lat="50.91416" lon="1.69115">
        <ele>2.6</ele>
        <time>2019-10-05T13:03:52Z</time>
      </trkpt>
      <trkpt lat="50.9142" lon="1.69119">
        <ele>2.6</ele>
        <time>2019-10-05T13:03:59Z</time>
      </trkpt>
      <trkpt lat="50.91424" lon="1.69122">
        <ele>2.6</ele>
        <time>2019-10-05T13:04:07Z</time>
      </trkpt>
      <trkpt lat="50.91429" lon="1.69123">
        <ele>2.6</ele>
        <time>2019-10-05T13:04:15Z</time>
      </trkpt>
      <trkpt lat="50.91433" lon="1.69127">
        <ele>2.6</ele>
        <time>2019-10-05T13:04:30Z</time>
      </trkpt>
      <trkpt lat="50.91438" lon="1.69131">
        <ele>2.6</ele>
        <time>2019-10-05T13:04:35Z</time>
      </trkpt>
      <trkpt lat="50.91443" lon="1.69133">
        <ele>2.6</ele>
        <time>2019-10-05T13:04:38Z</time>
      </trkpt>
      <trkpt lat="50.91447" lon="1.69137">
        <ele>2.6</ele>
        <time>2019-10-05T13:04:42Z</time>
      </trkpt>
      <trkpt lat="50.91453" lon="1.69139">
        <ele>2.6</ele>
        <time>2019-10-05T13:04:47Z</time>
      </trkpt>
      <trkpt lat="50.91458" lon="1.69141">
        <ele>2.6</ele>
        <time>2019-10-05T13:04:52Z</time>
      </trkpt>
      <trkpt lat="50.91462" lon="1.69144">
        <ele>2.6</ele>
        <time>2019-10-05T13:05:13Z</time>
      </trkpt>
      <trkpt lat="50.91467" lon="1.69148">
        <ele>2.6</ele>
        <time>2019-10-05T13:05:17Z</time>
      </trkpt>
      <trkpt lat="50.91472" lon="1.69154">
        <ele>2.6</ele>
        <time>2019-10-05T13:05:21Z</time>
      </trkpt>
      <trkpt lat="50.91476" lon="1.69158">
        <ele>2.6</ele>
        <time>2019-10-05T13:05:25Z</time>
      </trkpt>
      <trkpt lat="50.91481" lon="1.69162">
        <ele>2.6</ele>
        <time>2019-10-05T13:05:28Z</time>
      </trkpt>
      <trkpt lat="50.91484" lon="1.69167">
        <ele>2.6</ele>
        <time>2019-10-05T13:05:31Z</time>
      </trkpt>
      <trkpt lat="50.91489" lon="1.69171">
        <ele>2.6</ele>
        <time>2019-10-05T13:05:35Z</time>
      </trkpt>
      <trkpt lat="50.91493" lon="1.69177">
        <ele>2.6</ele>
        <time>2019-10-05T13:05:39Z</time>
      </trkpt>
      <trkpt lat="50.91497" lon="1.69183">
        <ele>2.6</ele>
        <time>2019-10-05T13:05:43Z</time>
      </trkpt>
      <trkpt lat="50.91502" lon="1.69188">
        <ele>2.6</ele>
        <time>2019-10-05T13:05:47Z</time>
      </trkpt>
      <trkpt lat="50.91506" lon="1.69192">
        <ele>2.6</ele>
        <time>2019-10-05T13:05:50Z</time>
      </trkpt>
      <trkpt lat="50.9151" lon="1.69196">
        <ele>2.6</ele>
        <time>2019-10-05T13:05:54Z</time>
      </trkpt>
      <trkpt lat="50.91515" lon="1.69199">
        <ele>2.6</ele>
        <time>2019-10-05T13:05:58Z</time>
      </trkpt>
      <trkpt lat="50.9152" lon="1.69202">
        <ele>2.6</ele>
        <time>2019-10-05T13:06:03Z</time>
      </trkpt>
      <trkpt lat="50.91525" lon="1.69206">
        <ele>2.6</ele>
        <time>2019-10-05T13:06:09Z</time>
      </trkpt>
      <trkpt lat="50.9153" lon="1.69209">
        <ele>2.6</ele>
        <time>2019-10-05T13:06:13Z</time>
      </trkpt>
      <trkpt lat="50.91534" lon="1.69212">
        <ele>2.6</ele>
        <time>2019-10-05T13:06:17Z</time>
      </trkpt>
      <trkpt lat="50.91539" lon="1.69217">
        <ele>2.6</ele>
        <time>2019-10-05T13:06:23Z</time>
      </trkpt>
      <trkpt lat="50.91543" lon="1.69217">
        <ele>2.6</ele>
        <time>2019-10-05T13:06:32Z</time>
      </trkpt>
      <trkpt lat="50.91548" lon="1.69217">
        <ele>2.6</ele>
        <time>2019-10-05T13:07:09Z</time>
      </trkpt>
      <trkpt lat="50.91553" lon="1.69218">
        <ele>2.6</ele>
        <time>2019-10-05T13:07:13Z</time>
      </trkpt>
      <trkpt lat="50.91559" lon="1.6922">
        <ele>2.6</ele>
        <time>2019-10-05T13:07:17Z</time>
      </trkpt>
      <trkpt lat="50.91555" lon="1.69215">
        <ele>2.6</ele>
        <time>2019-10-05T13:07:54Z</time>
      </trkpt>
      <trkpt lat="50.91553" lon="1.69208">
        <ele>2.6</ele>
        <time>2019-10-05T13:07:57Z</time>
      </trkpt>
      <trkpt lat="50.91553" lon="1.692">
        <ele>2.6</ele>
        <time>2019-10-05T13:08:04Z</time>
      </trkpt>
      <trkpt lat="50.91555" lon="1.69209">
        <ele>2.6</ele>
        <time>2019-10-05T13:08:48Z</time>
      </trkpt>
      <trkpt lat="50.91556" lon="1.69217">
        <ele>2.6</ele>
        <time>2019-10-05T13:08:53Z</time>
      </trkpt>
      <trkpt lat="50.91557" lon="1.69225">
        <ele>2.6</ele>
        <time>2019-10-05T13:08:58Z</time>
      </trkpt>
      <trkpt lat="50.91558" lon="1.69233">
        <ele>2.6</ele>
        <time>2019-10-05T13:09:31Z</time>
      </trkpt>
      <trkpt lat="50.9156" lon="1.69241">
        <ele>2.6</ele>
        <time>2019-10-05T13:09:38Z</time>
      </trkpt>
      <trkpt lat="50.91561" lon="1.69249">
        <ele>2.6</ele>
        <time>2019-10-05T13:09:48Z</time>
      </trkpt>
      <trkpt lat="50.91564" lon="1.69254">
        <ele>2.6</ele>
        <time>2019-10-05T13:09:57Z</time>
      </trkpt>
      <trkpt lat="50.91574" lon="1.69265">
        <ele>2.6</ele>
        <time>2019-10-05T13:10:16Z</time>
      </trkpt>
      <trkpt lat="50.91576" lon="1.69272">
        <ele>2.6</ele>
        <time>2019-10-05T13:10:22Z</time>
      </trkpt>
      <trkpt lat="50.91577" lon="1.6928">
        <ele>2.6</ele>
        <time>2019-10-05T13:10:26Z</time>
      </trkpt>
      <trkpt lat="50.91581" lon="1.69286">
        <ele>2.6</ele>
        <time>2019-10-05T13:10:38Z</time>
      </trkpt>
      <trkpt lat="50.91584" lon="1.69293">
        <ele>2.6</ele>
        <time>2019-10-05T13:10:44Z</time>
      </trkpt>
      <trkpt lat="50.91588" lon="1.69298">
        <ele>2.6</ele>
        <time>2019-10-05T13:10:50Z</time>
      </trkpt>
      <trkpt lat="50.916" lon="1.69311">
        <ele>2.6</ele>
        <time>2019-10-05T13:11:02Z</time>
      </trkpt>
      <trkpt lat="50.91603" lon="1.69315">
        <ele>2.6</ele>
        <time>2019-10-05T13:11:07Z</time>
      </trkpt>
      <trkpt lat="50.91607" lon="1.69319">
        <ele>2.6</ele>
        <time>2019-10-05T13:11:13Z</time>
      </trkpt>
      <trkpt lat="50.91612" lon="1.69324">
        <ele>2.6</ele>
        <time>2019-10-05T13:11:18Z</time>
      </trkpt>
      <trkpt lat="50.91617" lon="1.69329">
        <ele>2.6</ele>
        <time>2019-10-05T13:11:21Z</time>
      </trkpt>
      <trkpt lat="50.9162" lon="1.69335">
        <ele>2.6</ele>
        <time>2019-10-05T13:11:24Z</time>
      </trkpt>
      <trkpt lat="50.91622" lon="1.69341">
        <ele>2.6</ele>
        <time>2019-10-05T13:11:28Z</time>
      </trkpt>
      <trkpt lat="50.91626" lon="1.69347">
        <ele>2.6</ele>
        <time>2019-10-05T13:11:33Z</time>
      </trkpt>
      <trkpt lat="50.91629" lon="1.69353">
        <ele>2.6</ele>
        <time>2019-10-05T13:11:38Z</time>
      </trkpt>
      <trkpt lat="50.91633" lon="1.69359">
        <ele>2.6</ele>
        <time>2019-10-05T13:11:41Z</time>
      </trkpt>
      <trkpt lat="50.91636" lon="1.69364">
        <ele>2.6</ele>
        <time>2019-10-05T13:11:44Z</time>
      </trkpt>
      <trkpt lat="50.91641" lon="1.69368">
        <ele>2.6</ele>
        <time>2019-10-05T13:11:49Z</time>
      </trkpt>
      <trkpt lat="50.91645" lon="1.69373">
        <ele>2.6</ele>
        <time>2019-10-05T13:11:53Z</time>
      </trkpt>
      <trkpt lat="50.91649" lon="1.69379">
        <ele>2.6</ele>
        <time>2019-10-05T13:11:57Z</time>
      </trkpt>
      <trkpt lat="50.91651" lon="1.69385">
        <ele>2.6</ele>
        <time>2019-10-05T13:12:01Z</time>
      </trkpt>
      <trkpt lat="50.91654" lon="1.69392">
        <ele>2.6</ele>
        <time>2019-10-05T13:12:06Z</time>
      </trkpt>
      <trkpt lat="50.91657" lon="1.69399">
        <ele>2.6</ele>
        <time>2019-10-05T13:12:12Z</time>
      </trkpt>
      <trkpt lat="50.91661" lon="1.69405">
        <ele>2.6</ele>
        <time>2019-10-05T13:12:18Z</time>
      </trkpt>
      <trkpt lat="50.91665" lon="1.6941">
        <ele>2.6</ele>
        <time>2019-10-05T13:12:22Z</time>
      </trkpt>
      <trkpt lat="50.91669" lon="1.69415">
        <ele>2.6</ele>
        <time>2019-10-05T13:12:27Z</time>
      </trkpt>
      <trkpt lat="50.91672" lon="1.69421">
        <ele>2.6</ele>
        <time>2019-10-05T13:12:32Z</time>
      </trkpt>
      <trkpt lat="50.91675" lon="1.69427">
        <ele>2.6</ele>
        <time>2019-10-05T13:12:36Z</time>
      </trkpt>
      <trkpt lat="50.91679" lon="1.69432">
        <ele>2.6</ele>
        <time>2019-10-05T13:12:39Z</time>
      </trkpt>
      <trkpt lat="50.91681" lon="1.69438">
        <ele>2.6</ele>
        <time>2019-10-05T13:12:43Z</time>
      </trkpt>
      <trkpt lat="50.91684" lon="1.69445">
        <ele>2.6</ele>
        <time>2019-10-05T13:12:47Z</time>
      </trkpt>
      <trkpt lat="50.91687" lon="1.69451">
        <ele>2.6</ele>
        <time>2019-10-05T13:12:52Z</time>
      </trkpt>
      <trkpt lat="50.91691" lon="1.69457">
        <ele>2.6</ele>
        <time>2019-10-05T13:12:55Z</time>
      </trkpt>
      <trkpt lat="50.91694" lon="1.69464">
        <ele>2.6</ele>
        <time>2019-10-05T13:12:59Z</time>
      </trkpt>
      <trkpt lat="50.91697" lon="1.69471">
        <ele>2.6</ele>
        <time>2019-10-05T13:13:03Z</time>
      </trkpt>
      <trkpt lat="50.917" lon="1.69477">
        <ele>2.6</ele>
        <time>2019-10-05T13:13:07Z</time>
      </trkpt>
      <trkpt lat="50.91703" lon="1.69484">
        <ele>2.6</ele>
        <time>2019-10-05T13:13:14Z</time>
      </trkpt>
      <trkpt lat="50.91705" lon="1.69491">
        <ele>2.6</ele>
        <time>2019-10-05T13:13:20Z</time>
      </trkpt>
      <trkpt lat="50.91707" lon="1.69499">
        <ele>2.6</ele>
        <time>2019-10-05T13:13:24Z</time>
      </trkpt>
      <trkpt lat="50.9171" lon="1.69505">
        <ele>2.6</ele>
        <time>2019-10-05T13:13:29Z</time>
      </trkpt>
      <trkpt lat="50.91712" lon="1.69511">
        <ele>2.6</ele>
        <time>2019-10-05T13:13:33Z</time>
      </trkpt>
      <trkpt lat="50.91714" lon="1.69518">
        <ele>2.6</ele>
        <time>2019-10-05T13:13:37Z</time>
      </trkpt>
      <trkpt lat="50.91716" lon="1.69525">
        <ele>2.6</ele>
        <time>2019-10-05T13:13:40Z</time>
      </trkpt>
      <trkpt lat="50.91718" lon="1.69532">
        <ele>2.6</ele>
        <time>2019-10-05T13:13:44Z</time>
      </trkpt>
      <trkpt lat="50.9172" lon="1.69539">
        <ele>2.6</ele>
        <time>2019-10-05T13:13:49Z</time>
      </trkpt>
      <trkpt lat="50.91723" lon="1.69545">
        <ele>2.6</ele>
        <time>2019-10-05T13:13:53Z</time>
      </trkpt>
      <trkpt lat="50.91726" lon="1.69551">
        <ele>2.6</ele>
        <time>2019-10-05T13:13:58Z</time>
      </trkpt>
      <trkpt lat="50.91729" lon="1.69557">
        <ele>2.6</ele>
        <time>2019-10-05T13:14:02Z</time>
      </trkpt>
      <trkpt lat="50.91732" lon="1.69562">
        <ele>2.6</ele>
        <time>2019-10-05T13:14:06Z</time>
      </trkpt>
      <trkpt lat="50.91735" lon="1.69569">
        <ele>2.6</ele>
        <time>2019-10-05T13:14:10Z</time>
      </trkpt>
      <trkpt lat="50.91737" lon="1.69575">
        <ele>2.6</ele>
        <time>2019-10-05T13:14:15Z</time>
      </trkpt>
      <trkpt lat="50.9174" lon="1.69582">
        <ele>2.6</ele>
        <time>2019-10-05T13:14:20Z</time>
      </trkpt>
      <trkpt lat="50.91742" lon="1.6959">
        <ele>2.6</ele>
        <time>2019-10-05T13:14:26Z</time>
      </trkpt>
      <trkpt lat="50.91743" lon="1.69597">
        <ele>2.6</ele>
        <time>2019-10-05T13:14:30Z</time>
      </trkpt>
      <trkpt lat="50.91745" lon="1.69605">
        <ele>2.6</ele>
        <time>2019-10-05T13:14:36Z</time>
      </trkpt>
      <trkpt lat="50.91747" lon="1.69612">
        <ele>2.6</ele>
        <time>2019-10-05T13:14:40Z</time>
      </trkpt>
      <trkpt lat="50.9175" lon="1.69617">
        <ele>2.6</ele>
        <time>2019-10-05T13:14:44Z</time>
      </trkpt>
      <trkpt lat="50.91754" lon="1.69623">
        <ele>2.6</ele>
        <time>2019-10-05T13:14:49Z</time>
      </trkpt>
      <trkpt lat="50.91758" lon="1.69628">
        <ele>2.6</ele>
        <time>2019-10-05T13:14:54Z</time>
      </trkpt>
      <trkpt lat="50.91762" lon="1.69632">
        <ele>2.6</ele>
        <time>2019-10-05T13:15:00Z</time>
      </trkpt>
      <trkpt lat="50.91766" lon="1.69637">
        <ele>2.6</ele>
        <time>2019-10-05T13:15:06Z</time>
      </trkpt>
      <trkpt lat="50.9177" lon="1.69642">
        <ele>2.6</ele>
        <time>2019-10-05T13:15:16Z</time>
      </trkpt>
      <trkpt lat="50.91774" lon="1.69647">
        <ele>2.6</ele>
        <time>2019-10-05T13:15:23Z</time>
      </trkpt>
      <trkpt lat="50.9178" lon="1.69658">
        <ele>2.6</ele>
        <time>2019-10-05T13:16:25Z</time>
      </trkpt>
      <trkpt lat="50.91784" lon="1.69661">
        <ele>2.6</ele>
        <time>2019-10-05T13:16:33Z</time>
      </trkpt>
      <trkpt lat="50.91788" lon="1.69664">
        <ele>2.6</ele>
        <time>2019-10-05T13:17:02Z</time>
      </trkpt>
      <trkpt lat="50.91793" lon="1.69667">
        <ele>2.6</ele>
        <time>2019-10-05T13:17:11Z</time>
      </trkpt>
      <trkpt lat="50.91796" lon="1.69673">
        <ele>2.6</ele>
        <time>2019-10-05T13:18:09Z</time>
      </trkpt>
      <trkpt lat="50.918" lon="1.69677">
        <ele>2.6</ele>
        <time>2019-10-05T13:18:15Z</time>
      </trkpt>
      <trkpt lat="50.91796" lon="1.69674">
        <ele>2.6</ele>
        <time>2019-10-05T13:18:24Z</time>
      </trkpt>
      <trkpt lat="50.91792" lon="1.69671">
        <ele>2.6</ele>
        <time>2019-10-05T13:18:27Z</time>
      </trkpt>
      <trkpt lat="50.9179" lon="1.69678">
        <ele>2.6</ele>
        <time>2019-10-05T13:18:40Z</time>
      </trkpt>
      <trkpt lat="50.91792" lon="1.69686">
        <ele>2.6</ele>
        <time>2019-10-05T13:18:52Z</time>
      </trkpt>
      <trkpt lat="50.91795" lon="1.6969">
        <ele>2.6</ele>
        <time>2019-10-05T13:18:57Z</time>
      </trkpt>
      <trkpt lat="50.91798" lon="1.69697">
        <ele>2.6</ele>
        <time>2019-10-05T13:19:01Z</time>
      </trkpt>
      <trkpt lat="50.91801" lon="1.69702">
        <ele>2.6</ele>
        <time>2019-10-05T13:19:06Z</time>
      </trkpt>
      <trkpt lat="50.91805" lon="1.69708">
        <ele>2.6</ele>
        <time>2019-10-05T13:19:11Z</time>
      </trkpt>
      <trkpt lat="50.91808" lon="1.69713">
        <ele>2.6</ele>
        <time>2019-10-05T13:19:15Z</time>
      </trkpt>
      <trkpt lat="50.91812" lon="1.6972">
        <ele>2.6</ele>
        <time>2019-10-05T13:19:19Z</time>
      </trkpt>
      <trkpt lat="50.91817" lon="1.6972">
        <ele>2.6</ele>
        <time>2019-10-05T13:19:46Z</time>
      </trkpt>
      <trkpt lat="50.91821" lon="1.69722">
        <ele>2.6</ele>
        <time>2019-10-05T13:20:00Z</time>
      </trkpt>
      <trkpt lat="50.91825" lon="1.69728">
        <ele>2.6</ele>
        <time>2019-10-05T13:20:11Z</time>
      </trkpt>
      <trkpt lat="50.91827" lon="1.69734">
        <ele>2.6</ele>
        <time>2019-10-05T13:20:15Z</time>
      </trkpt>
      <trkpt lat="50.9183" lon="1.69739">
        <ele>2.6</ele>
        <time>2019-10-05T13:20:21Z</time>
      </trkpt>
      <trkpt lat="50.91835" lon="1.69742">
        <ele>2.6</ele>
        <time>2019-10-05T13:20:28Z</time>
      </trkpt>
      <trkpt lat="50.91838" lon="1.69747">
        <ele>2.6</ele>
        <time>2019-10-05T13:20:34Z</time>
      </trkpt>
      <trkpt lat="50.91841" lon="1.69753">
        <ele>2.6</ele>
        <time>2019-10-05T13:20:39Z</time>
      </trkpt>
      <trkpt lat="50.91841" lon="1.6976">
        <ele>2.6</ele>
        <time>2019-10-05T13:20:56Z</time>
      </trkpt>
      <trkpt lat="50.91844" lon="1.69767">
        <ele>2.6</ele>
        <time>2019-10-05T13:21:05Z</time>
      </trkpt>
      <trkpt lat="50.91847" lon="1.69774">
        <ele>2.6</ele>
        <time>2019-10-05T13:21:10Z</time>
      </trkpt>
      <trkpt lat="50.91851" lon="1.69778">
        <ele>2.6</ele>
        <time>2019-10-05T13:21:14Z</time>
      </trkpt>
      <trkpt lat="50.91855" lon="1.69782">
        <ele>2.6</ele>
        <time>2019-10-05T13:21:18Z</time>
      </trkpt>
      <trkpt lat="50.91859" lon="1.69787">
        <ele>2.6</ele>
        <time>2019-10-05T13:21:22Z</time>
      </trkpt>
      <trkpt lat="50.91863" lon="1.69791">
        <ele>2.6</ele>
        <time>2019-10-05T13:21:26Z</time>
      </trkpt>
      <trkpt lat="50.91867" lon="1.69795">
        <ele>2.6</ele>
        <time>2019-10-05T13:21:30Z</time>
      </trkpt>
      <trkpt lat="50.91871" lon="1.69801">
        <ele>2.6</ele>
        <time>2019-10-05T13:21:37Z</time>
      </trkpt>
      <trkpt lat="50.91874" lon="1.69806">
        <ele>2.6</ele>
        <time>2019-10-05T13:21:42Z</time>
      </trkpt>
      <trkpt lat="50.91878" lon="1.69812">
        <ele>2.6</ele>
        <time>2019-10-05T13:21:47Z</time>
      </trkpt>
      <trkpt lat="50.91881" lon="1.69818">
        <ele>2.6</ele>
        <time>2019-10-05T13:21:52Z</time>
      </trkpt>
      <trkpt lat="50.91885" lon="1.69822">
        <ele>2.6</ele>
        <time>2019-10-05T13:21:56Z</time>
      </trkpt>
      <trkpt lat="50.91885" lon="1.69829">
        <ele>2.6</ele>
        <time>2019-10-05T13:22:10Z</time>
      </trkpt>
      <trkpt lat="50.91888" lon="1.69835">
        <ele>2.6</ele>
        <time>2019-10-05T13:22:25Z</time>
      </trkpt>
      <trkpt lat="50.91893" lon="1.69839">
        <ele>2.6</ele>
        <time>2019-10-05T13:22:30Z</time>
      </trkpt>
      <trkpt lat="50.91898" lon="1.69842">
        <ele>2.6</ele>
        <time>2019-10-05T13:22:38Z</time>
      </trkpt>
      <trkpt lat="50.91903" lon="1.69847">
        <ele>2.6</ele>
        <time>2019-10-05T13:22:45Z</time>
      </trkpt>
      <trkpt lat="50.91907" lon="1.69853">
        <ele>2.6</ele>
        <time>2019-10-05T13:22:50Z</time>
      </trkpt>
      <trkpt lat="50.91911" lon="1.69859">
        <ele>2.6</ele>
        <time>2019-10-05T13:22:54Z</time>
      </trkpt>
      <trkpt lat="50.91914" lon="1.69864">
        <ele>2.6</ele>
        <time>2019-10-05T13:22:58Z</time>
      </trkpt>
      <trkpt lat="50.91918" lon="1.69871">
        <ele>2.6</ele>
        <time>2019-10-05T13:23:03Z</time>
      </trkpt>
      <trkpt lat="50.91922" lon="1.69876">
        <ele>2.6</ele>
        <time>2019-10-05T13:23:08Z</time>
      </trkpt>
      <trkpt lat="50.91926" lon="1.69881">
        <ele>2.6</ele>
        <time>2019-10-05T13:23:13Z</time>
      </trkpt>
      <trkpt lat="50.9193" lon="1.69886">
        <ele>2.6</ele>
        <time>2019-10-05T13:23:18Z</time>
      </trkpt>
      <trkpt lat="50.91935" lon="1.69892">
        <ele>2.6</ele>
        <time>2019-10-05T13:23:23Z</time>
      </trkpt>
      <trkpt lat="50.91938" lon="1.69899">
        <ele>2.6</ele>
        <time>2019-10-05T13:23:28Z</time>
      </trkpt>
      <trkpt lat="50.91942" lon="1.69905">
        <ele>2.6</ele>
        <time>2019-10-05T13:23:33Z</time>
      </trkpt>
      <trkpt lat="50.91946" lon="1.6991">
        <ele>2.6</ele>
        <time>2019-10-05T13:23:38Z</time>
      </trkpt>
      <trkpt lat="50.91949" lon="1.69915">
        <ele>2.6</ele>
        <time>2019-10-05T13:23:42Z</time>
      </trkpt>
      <trkpt lat="50.91953" lon="1.6992">
        <ele>2.6</ele>
        <time>2019-10-05T13:23:47Z</time>
      </trkpt>
      <trkpt lat="50.91957" lon="1.69924">
        <ele>2.6</ele>
        <time>2019-10-05T13:23:51Z</time>
      </trkpt>
      <trkpt lat="50.91961" lon="1.69929">
        <ele>2.6</ele>
        <time>2019-10-05T13:23:55Z</time>
      </trkpt>
      <trkpt lat="50.91965" lon="1.69934">
        <ele>2.6</ele>
        <time>2019-10-05T13:23:59Z</time>
      </trkpt>
      <trkpt lat="50.91969" lon="1.6994">
        <ele>2.6</ele>
        <time>2019-10-05T13:24:03Z</time>
      </trkpt>
      <trkpt lat="50.91972" lon="1.69946">
        <ele>2.6</ele>
        <time>2019-10-05T13:24:08Z</time>
      </trkpt>
      <trkpt lat="50.91977" lon="1.69949">
        <ele>2.6</ele>
        <time>2019-10-05T13:24:12Z</time>
      </trkpt>
      <trkpt lat="50.91981" lon="1.69952">
        <ele>2.6</ele>
        <time>2019-10-05T13:24:16Z</time>
      </trkpt>
      <trkpt lat="50.91985" lon="1.69956">
        <ele>2.6</ele>
        <time>2019-10-05T13:24:20Z</time>
      </trkpt>
      <trkpt lat="50.91989" lon="1.69962">
        <ele>2.6</ele>
        <time>2019-10-05T13:24:24Z</time>
      </trkpt>
      <trkpt lat="50.91994" lon="1.69968">
        <ele>2.6</ele>
        <time>2019-10-05T13:24:28Z</time>
      </trkpt>
      <trkpt lat="50.91997" lon="1.69973">
        <ele>2.6</ele>
        <time>2019-10-05T13:24:32Z</time>
      </trkpt>
      <trkpt lat="50.92001" lon="1.69978">
        <ele>2.6</ele>
        <time>2019-10-05T13:24:37Z</time>
      </trkpt>
      <trkpt lat="50.92006" lon="1.69984">
        <ele>2.6</ele>
        <time>2019-10-05T13:24:42Z</time>
      </trkpt>
      <trkpt lat="50.92009" lon="1.69989">
        <ele>2.6</ele>
        <time>2019-10-05T13:24:47Z</time>
      </trkpt>
      <trkpt lat="50.92014" lon="1.69996">
        <ele>2.6</ele>
        <time>2019-10-05T13:24:51Z</time>
      </trkpt>
      <trkpt lat="50.92018" lon="1.70001">
        <ele>2.6</ele>
        <time>2019-10-05T13:24:55Z</time>
      </trkpt>
      <trkpt lat="50.92022" lon="1.70006">
        <ele>2.6</ele>
        <time>2019-10-05T13:24:59Z</time>
      </trkpt>
      <trkpt lat="50.92026" lon="1.70012">
        <ele>2.6</ele>
        <time>2019-10-05T13:25:04Z</time>
      </trkpt>
      <trkpt lat="50.92029" lon="1.70018">
        <ele>2.6</ele>
        <time>2019-10-05T13:25:08Z</time>
      </trkpt>
      <trkpt lat="50.92033" lon="1.70025">
        <ele>2.6</ele>
        <time>2019-10-05T13:25:13Z</time>
      </trkpt>
      <trkpt lat="50.92036" lon="1.70031">
        <ele>2.6</ele>
        <time>2019-10-05T13:25:17Z</time>
      </trkpt>
      <trkpt lat="50.9204" lon="1.70037">
        <ele>2.6</ele>
        <time>2019-10-05T13:25:21Z</time>
      </trkpt>
      <trkpt lat="50.92044" lon="1.70042">
        <ele>2.6</ele>
        <time>2019-10-05T13:25:26Z</time>
      </trkpt>
      <trkpt lat="50.92048" lon="1.70048">
        <ele>2.6</ele>
        <time>2019-10-05T13:25:31Z</time>
      </trkpt>
      <trkpt lat="50.92053" lon="1.70054">
        <ele>2.6</ele>
        <time>2019-10-05T13:25:36Z</time>
      </trkpt>
      <trkpt lat="50.92056" lon="1.70059">
        <ele>2.6</ele>
        <time>2019-10-05T13:25:40Z</time>
      </trkpt>
      <trkpt lat="50.9206" lon="1.70063">
        <ele>2.6</ele>
        <time>2019-10-05T13:25:44Z</time>
      </trkpt>
      <trkpt lat="50.92065" lon="1.70066">
        <ele>2.6</ele>
        <time>2019-10-05T13:25:49Z</time>
      </trkpt>
      <trkpt lat="50.9207" lon="1.70071">
        <ele>2.6</ele>
        <time>2019-10-05T13:25:53Z</time>
      </trkpt>
      <trkpt lat="50.92073" lon="1.70077">
        <ele>2.6</ele>
        <time>2019-10-05T13:25:57Z</time>
      </trkpt>
      <trkpt lat="50.92077" lon="1.70083">
        <ele>2.6</ele>
        <time>2019-10-05T13:26:02Z</time>
      </trkpt>
      <trkpt lat="50.9208" lon="1.7009">
        <ele>2.6</ele>
        <time>2019-10-05T13:26:08Z</time>
      </trkpt>
      <trkpt lat="50.92084" lon="1.70096">
        <ele>2.6</ele>
        <time>2019-10-05T13:26:12Z</time>
      </trkpt>
      <trkpt lat="50.92088" lon="1.70102">
        <ele>2.6</ele>
        <time>2019-10-05T13:26:17Z</time>
      </trkpt>
      <trkpt lat="50.92091" lon="1.70107">
        <ele>2.6</ele>
        <time>2019-10-05T13:26:22Z</time>
      </trkpt>
      <trkpt lat="50.92095" lon="1.70111">
        <ele>2.6</ele>
        <time>2019-10-05T13:26:27Z</time>
      </trkpt>
      <trkpt lat="50.92099" lon="1.70117">
        <ele>2.6</ele>
        <time>2019-10-05T13:26:31Z</time>
      </trkpt>
      <trkpt lat="50.92102" lon="1.70123">
        <ele>2.6</ele>
        <time>2019-10-05T13:26:35Z</time>
      </trkpt>
      <trkpt lat="50.92105" lon="1.70128">
        <ele>2.6</ele>
        <time>2019-10-05T13:26:40Z</time>
      </trkpt>
      <trkpt lat="50.92108" lon="1.70134">
        <ele>2.6</ele>
        <time>2019-10-05T13:26:46Z</time>
      </trkpt>
      <trkpt lat="50.92112" lon="1.7014">
        <ele>2.6</ele>
        <time>2019-10-05T13:26:51Z</time>
      </trkpt>
      <trkpt lat="50.92116" lon="1.70143">
        <ele>2.6</ele>
        <time>2019-10-05T13:26:55Z</time>
      </trkpt>
      <trkpt lat="50.9212" lon="1.70148">
        <ele>2.6</ele>
        <time>2019-10-05T13:27:00Z</time>
      </trkpt>
      <trkpt lat="50.92122" lon="1.70155">
        <ele>2.6</ele>
        <time>2019-10-05T13:27:07Z</time>
      </trkpt>
      <trkpt lat="50.92125" lon="1.7016">
        <ele>2.6</ele>
        <time>2019-10-05T13:27:10Z</time>
      </trkpt>
      <trkpt lat="50.92129" lon="1.70166">
        <ele>2.6</ele>
        <time>2019-10-05T13:27:14Z</time>
      </trkpt>
      <trkpt lat="50.92133" lon="1.70172">
        <ele>2.6</ele>
        <time>2019-10-05T13:27:18Z</time>
      </trkpt>
      <trkpt lat="50.92135" lon="1.70179">
        <ele>2.6</ele>
        <time>2019-10-05T13:27:21Z</time>
      </trkpt>
      <trkpt lat="50.92138" lon="1.70185">
        <ele>2.6</ele>
        <time>2019-10-05T13:27:26Z</time>
      </trkpt>
      <trkpt lat="50.92141" lon="1.70193">
        <ele>2.6</ele>
        <time>2019-10-05T13:27:31Z</time>
      </trkpt>
      <trkpt lat="50.92144" lon="1.70198">
        <ele>2.6</ele>
        <time>2019-10-05T13:28:27Z</time>
      </trkpt>
      <trkpt lat="50.92148" lon="1.70194">
        <ele>2.6</ele>
        <time>2019-10-05T13:30:08Z</time>
      </trkpt>
      <trkpt lat="50.92153" lon="1.70195">
        <ele>2.6</ele>
        <time>2019-10-05T13:30:13Z</time>
      </trkpt>
      <trkpt lat="50.92157" lon="1.70196">
        <ele>2.6</ele>
        <time>2019-10-05T13:30:26Z</time>
      </trkpt>
      <trkpt lat="50.92161" lon="1.70201">
        <ele>2.6</ele>
        <time>2019-10-05T13:30:35Z</time>
      </trkpt>
      <trkpt lat="50.92159" lon="1.70208">
        <ele>2.6</ele>
        <time>2019-10-05T13:30:43Z</time>
      </trkpt>
      <trkpt lat="50.92161" lon="1.70216">
        <ele>2.6</ele>
        <time>2019-10-05T13:30:48Z</time>
      </trkpt>
      <trkpt lat="50.92162" lon="1.70224">
        <ele>2.6</ele>
        <time>2019-10-05T13:30:53Z</time>
      </trkpt>
      <trkpt lat="50.92164" lon="1.7023">
        <ele>2.6</ele>
        <time>2019-10-05T13:30:57Z</time>
      </trkpt>
      <trkpt lat="50.92168" lon="1.70235">
        <ele>2.6</ele>
        <time>2019-10-05T13:31:05Z</time>
      </trkpt>
      <trkpt lat="50.92171" lon="1.7024">
        <ele>2.6</ele>
        <time>2019-10-05T13:31:10Z</time>
      </trkpt>
      <trkpt lat="50.92174" lon="1.70246">
        <ele>2.6</ele>
        <time>2019-10-05T13:31:16Z</time>
      </trkpt>
      <trkpt lat="50.92178" lon="1.70251">
        <ele>2.6</ele>
        <time>2019-10-05T13:31:23Z</time>
      </trkpt>
      <trkpt lat="50.9218" lon="1.70258">
        <ele>2.6</ele>
        <time>2019-10-05T13:31:30Z</time>
      </trkpt>
      <trkpt lat="50.92179" lon="1.70265">
        <ele>2.6</ele>
        <time>2019-10-05T13:31:40Z</time>
      </trkpt>
      <trkpt lat="50.92179" lon="1.70272">
        <ele>2.6</ele>
        <time>2019-10-05T13:31:50Z</time>
      </trkpt>
      <trkpt lat="50.92181" lon="1.70279">
        <ele>2.6</ele>
        <time>2019-10-05T13:32:09Z</time>
      </trkpt>
      <trkpt lat="50.92186" lon="1.70288">
        <ele>2.6</ele>
        <time>2019-10-05T13:32:35Z</time>
      </trkpt>
      <trkpt lat="50.92186" lon="1.70296">
        <ele>2.6</ele>
        <time>2019-10-05T13:32:42Z</time>
      </trkpt>
      <trkpt lat="50.92188" lon="1.70303">
        <ele>2.6</ele>
        <time>2019-10-05T13:32:54Z</time>
      </trkpt>
      <trkpt lat="50.92194" lon="1.70308">
        <ele>2.6</ele>
        <time>2019-10-05T13:33:54Z</time>
      </trkpt>
      <trkpt lat="50.92195" lon="1.70315">
        <ele>2.6</ele>
        <time>2019-10-05T13:34:15Z</time>
      </trkpt>
      <trkpt lat="50.922" lon="1.70319">
        <ele>2.6</ele>
        <time>2019-10-05T13:34:27Z</time>
      </trkpt>
      <trkpt lat="50.92204" lon="1.70321">
        <ele>2.6</ele>
        <time>2019-10-05T13:34:37Z</time>
      </trkpt>
      <trkpt lat="50.92208" lon="1.70324">
        <ele>2.6</ele>
        <time>2019-10-05T13:34:46Z</time>
      </trkpt>
      <trkpt lat="50.92212" lon="1.70328">
        <ele>2.6</ele>
        <time>2019-10-05T13:34:57Z</time>
      </trkpt>
      <trkpt lat="50.92214" lon="1.70335">
        <ele>2.6</ele>
        <time>2019-10-05T13:35:06Z</time>
      </trkpt>
      <trkpt lat="50.92216" lon="1.70341">
        <ele>2.6</ele>
        <time>2019-10-05T13:35:13Z</time>
      </trkpt>
      <trkpt lat="50.9222" lon="1.70346">
        <ele>2.6</ele>
        <time>2019-10-05T13:35:21Z</time>
      </trkpt>
      <trkpt lat="50.92224" lon="1.70351">
        <ele>2.6</ele>
        <time>2019-10-05T13:35:27Z</time>
      </trkpt>
      <trkpt lat="50.92228" lon="1.70352">
        <ele>2.6</ele>
        <time>2019-10-05T13:35:44Z</time>
      </trkpt>
      <trkpt lat="50.92233" lon="1.70353">
        <ele>2.6</ele>
        <time>2019-10-05T13:35:54Z</time>
      </trkpt>
      <trkpt lat="50.92235" lon="1.7036">
        <ele>2.6</ele>
        <time>2019-10-05T13:36:13Z</time>
      </trkpt>
      <trkpt lat="50.92239" lon="1.70364">
        <ele>2.6</ele>
        <time>2019-10-05T13:36:23Z</time>
      </trkpt>
      <trkpt lat="50.92244" lon="1.70367">
        <ele>2.6</ele>
        <time>2019-10-05T13:36:31Z</time>
      </trkpt>
      <trkpt lat="50.92247" lon="1.70372">
        <ele>2.6</ele>
        <time>2019-10-05T13:36:41Z</time>
      </trkpt>
      <trkpt lat="50.9225" lon="1.70378">
        <ele>2.6</ele>
        <time>2019-10-05T13:36:49Z</time>
      </trkpt>
      <trkpt lat="50.92254" lon="1.70382">
        <ele>2.6</ele>
        <time>2019-10-05T13:36:55Z</time>
      </trkpt>
      <trkpt lat="50.92257" lon="1.70387">
        <ele>2.6</ele>
        <time>2019-10-05T13:37:08Z</time>
      </trkpt>
      <trkpt lat="50.92261" lon="1.70393">
        <ele>2.6</ele>
        <time>2019-10-05T13:37:14Z</time>
      </trkpt>
      <trkpt lat="50.92264" lon="1.70398">
        <ele>2.6</ele>
        <time>2019-10-05T13:37:19Z</time>
      </trkpt>
      <trkpt lat="50.92269" lon="1.70402">
        <ele>2.6</ele>
        <time>2019-10-05T13:37:25Z</time>
      </trkpt>
      <trkpt lat="50.92273" lon="1.70405">
        <ele>2.6</ele>
        <time>2019-10-05T13:37:34Z</time>
      </trkpt>
      <trkpt lat="50.92277" lon="1.70407">
        <ele>2.6</ele>
        <time>2019-10-05T13:37:46Z</time>
      </trkpt>
      <trkpt lat="50.92282" lon="1.70408">
        <ele>2.6</ele>
        <time>2019-10-05T13:37:57Z</time>
      </trkpt>
      <trkpt lat="50.92286" lon="1.70413">
        <ele>2.6</ele>
        <time>2019-10-05T13:38:06Z</time>
      </trkpt>
      <trkpt lat="50.9229" lon="1.70415">
        <ele>2.6</ele>
        <time>2019-10-05T13:38:15Z</time>
      </trkpt>
      <trkpt lat="50.92295" lon="1.70415">
        <ele>2.6</ele>
        <time>2019-10-05T13:38:23Z</time>
      </trkpt>
      <trkpt lat="50.923" lon="1.70415">
        <ele>2.6</ele>
        <time>2019-10-05T13:38:35Z</time>
      </trkpt>
      <trkpt lat="50.92304" lon="1.70412">
        <ele>2.6</ele>
        <time>2019-10-05T13:38:44Z</time>
      </trkpt>
      <trkpt lat="50.92306" lon="1.70405">
        <ele>2.6</ele>
        <time>2019-10-05T13:39:05Z</time>
      </trkpt>
      <trkpt lat="50.92309" lon="1.70399">
        <ele>2.6</ele>
        <time>2019-10-05T13:39:33Z</time>
      </trkpt>
      <trkpt lat="50.92313" lon="1.70395">
        <ele>2.6</ele>
        <time>2019-10-05T13:39:40Z</time>
      </trkpt>
      <trkpt lat="50.92317" lon="1.70399">
        <ele>2.6</ele>
        <time>2019-10-05T13:39:48Z</time>
      </trkpt>
      <trkpt lat="50.92321" lon="1.70399">
        <ele>2.6</ele>
        <time>2019-10-05T13:40:03Z</time>
      </trkpt>
      <trkpt lat="50.92317" lon="1.704">
        <ele>2.6</ele>
        <time>2019-10-05T13:40:26Z</time>
      </trkpt>
      <trkpt lat="50.92313" lon="1.70396">
        <ele>2.6</ele>
        <time>2019-10-05T13:40:37Z</time>
      </trkpt>
      <trkpt lat="50.92309" lon="1.70391">
        <ele>2.6</ele>
        <time>2019-10-05T13:40:49Z</time>
      </trkpt>
      <trkpt lat="50.92305" lon="1.70387">
        <ele>2.6</ele>
        <time>2019-10-05T13:40:55Z</time>
      </trkpt>
      <trkpt lat="50.92301" lon="1.70384">
        <ele>2.6</ele>
        <time>2019-10-05T13:40:58Z</time>
      </trkpt>
      <trkpt lat="50.92297" lon="1.7038">
        <ele>2.6</ele>
        <time>2019-10-05T13:41:03Z</time>
      </trkpt>
      <trkpt lat="50.92293" lon="1.70375">
        <ele>2.6</ele>
        <time>2019-10-05T13:41:15Z</time>
      </trkpt>
      <trkpt lat="50.92289" lon="1.70371">
        <ele>2.6</ele>
        <time>2019-10-05T13:41:21Z</time>
      </trkpt>
      <trkpt lat="50.92284" lon="1.70369">
        <ele>2.6</ele>
        <time>2019-10-05T13:41:26Z</time>
      </trkpt>
      <trkpt lat="50.92279" lon="1.70368">
        <ele>2.6</ele>
        <time>2019-10-05T13:41:38Z</time>
      </trkpt>
      <trkpt lat="50.92275" lon="1.70363">
        <ele>2.6</ele>
        <time>2019-10-05T13:41:43Z</time>
      </trkpt>
      <trkpt lat="50.9227" lon="1.7036">
        <ele>2.6</ele>
        <time>2019-10-05T13:41:48Z</time>
      </trkpt>
      <trkpt lat="50.92265" lon="1.70358">
        <ele>2.6</ele>
        <time>2019-10-05T13:41:53Z</time>
      </trkpt>
      <trkpt lat="50.92261" lon="1.70355">
        <ele>2.6</ele>
        <time>2019-10-05T13:41:57Z</time>
      </trkpt>
      <trkpt lat="50.92254" lon="1.70344">
        <ele>2.6</ele>
        <time>2019-10-05T13:42:06Z</time>
      </trkpt>
      <trkpt lat="50.92249" lon="1.7034">
        <ele>2.6</ele>
        <time>2019-10-05T13:42:10Z</time>
      </trkpt>
      <trkpt lat="50.92244" lon="1.70338">
        <ele>2.6</ele>
        <time>2019-10-05T13:42:14Z</time>
      </trkpt>
      <trkpt lat="50.92239" lon="1.70337">
        <ele>2.6</ele>
        <time>2019-10-05T13:42:18Z</time>
      </trkpt>
      <trkpt lat="50.92233" lon="1.70336">
        <ele>2.6</ele>
        <time>2019-10-05T13:42:22Z</time>
      </trkpt>
      <trkpt lat="50.92228" lon="1.70334">
        <ele>2.6</ele>
        <time>2019-10-05T13:42:26Z</time>
      </trkpt>
      <trkpt lat="50.92224" lon="1.7033">
        <ele>2.6</ele>
        <time>2019-10-05T13:42:30Z</time>
      </trkpt>
      <trkpt lat="50.9222" lon="1.70326">
        <ele>2.6</ele>
        <time>2019-10-05T13:42:34Z</time>
      </trkpt>
      <trkpt lat="50.92216" lon="1.7032">
        <ele>2.6</ele>
        <time>2019-10-05T13:42:38Z</time>
      </trkpt>
      <trkpt lat="50.92214" lon="1.70314">
        <ele>2.6</ele>
        <time>2019-10-05T13:42:43Z</time>
      </trkpt>
      <trkpt lat="50.92211" lon="1.70308">
        <ele>2.6</ele>
        <time>2019-10-05T13:42:48Z</time>
      </trkpt>
      <trkpt lat="50.92208" lon="1.70302">
        <ele>2.6</ele>
        <time>2019-10-05T13:42:53Z</time>
      </trkpt>
      <trkpt lat="50.92204" lon="1.70297">
        <ele>2.6</ele>
        <time>2019-10-05T13:42:57Z</time>
      </trkpt>
      <trkpt lat="50.922" lon="1.70293">
        <ele>2.6</ele>
        <time>2019-10-05T13:43:02Z</time>
      </trkpt>
      <trkpt lat="50.92197" lon="1.70286">
        <ele>2.6</ele>
        <time>2019-10-05T13:43:07Z</time>
      </trkpt>
      <trkpt lat="50.92193" lon="1.70282">
        <ele>2.6</ele>
        <time>2019-10-05T13:43:14Z</time>
      </trkpt>
      <trkpt lat="50.92188" lon="1.70279">
        <ele>2.6</ele>
        <time>2019-10-05T13:43:20Z</time>
      </trkpt>
      <trkpt lat="50.92184" lon="1.70276">
        <ele>2.6</ele>
        <time>2019-10-05T13:43:27Z</time>
      </trkpt>
      <trkpt lat="50.92181" lon="1.70271">
        <ele>2.6</ele>
        <time>2019-10-05T13:43:33Z</time>
      </trkpt>
      <trkpt lat="50.92177" lon="1.70267">
        <ele>2.6</ele>
        <time>2019-10-05T13:43:41Z</time>
      </trkpt>
      <trkpt lat="50.92173" lon="1.70262">
        <ele>2.6</ele>
        <time>2019-10-05T13:43:50Z</time>
      </trkpt>
      <trkpt lat="50.92168" lon="1.70261">
        <ele>2.6</ele>
        <time>2019-10-05T13:44:01Z</time>
      </trkpt>
      <trkpt lat="50.92161" lon="1.70255">
        <ele>2.6</ele>
        <time>2019-10-05T13:44:45Z</time>
      </trkpt>
      <trkpt lat="50.92157" lon="1.7025">
        <ele>2.6</ele>
        <time>2019-10-05T13:45:11Z</time>
      </trkpt>
      <trkpt lat="50.92149" lon="1.70252">
        <ele>2.6</ele>
        <time>2019-10-05T13:49:20Z</time>
      </trkpt>
      <trkpt lat="50.92145" lon="1.70258">
        <ele>2.6</ele>
        <time>2019-10-05T13:49:27Z</time>
      </trkpt>
      <trkpt lat="50.92139" lon="1.70274">
        <ele>2.6</ele>
        <time>2019-10-05T13:49:43Z</time>
      </trkpt>
      <trkpt lat="50.92136" lon="1.7028">
        <ele>2.6</ele>
        <time>2019-10-05T13:49:49Z</time>
      </trkpt>
      <trkpt lat="50.92134" lon="1.70287">
        <ele>2.6</ele>
        <time>2019-10-05T13:49:55Z</time>
      </trkpt>
      <trkpt lat="50.92132" lon="1.70294">
        <ele>2.6</ele>
        <time>2019-10-05T13:50:04Z</time>
      </trkpt>
      <trkpt lat="50.9213" lon="1.703">
        <ele>2.6</ele>
        <time>2019-10-05T13:50:14Z</time>
      </trkpt>
      <trkpt lat="50.92128" lon="1.70307">
        <ele>2.6</ele>
        <time>2019-10-05T13:50:21Z</time>
      </trkpt>
      <trkpt lat="50.92125" lon="1.70312">
        <ele>2.6</ele>
        <time>2019-10-05T13:50:28Z</time>
      </trkpt>
      <trkpt lat="50.92121" lon="1.70317">
        <ele>2.6</ele>
        <time>2019-10-05T13:50:49Z</time>
      </trkpt>
      <trkpt lat="50.92118" lon="1.70323">
        <ele>2.6</ele>
        <time>2019-10-05T13:50:55Z</time>
      </trkpt>
      <trkpt lat="50.92115" lon="1.7033">
        <ele>2.6</ele>
        <time>2019-10-05T13:51:01Z</time>
      </trkpt>
      <trkpt lat="50.92112" lon="1.70336">
        <ele>2.6</ele>
        <time>2019-10-05T13:51:07Z</time>
      </trkpt>
      <trkpt lat="50.92109" lon="1.70342">
        <ele>2.6</ele>
        <time>2019-10-05T13:51:15Z</time>
      </trkpt>
      <trkpt lat="50.92111" lon="1.70349">
        <ele>2.6</ele>
        <time>2019-10-05T13:51:50Z</time>
      </trkpt>
      <trkpt lat="50.92115" lon="1.70347">
        <ele>2.6</ele>
        <time>2019-10-05T13:51:58Z</time>
      </trkpt>
      <trkpt lat="50.92119" lon="1.70343">
        <ele>2.6</ele>
        <time>2019-10-05T13:52:05Z</time>
      </trkpt>
      <trkpt lat="50.92124" lon="1.7034">
        <ele>2.6</ele>
        <time>2019-10-05T13:52:12Z</time>
      </trkpt>
      <trkpt lat="50.92129" lon="1.70336">
        <ele>2.6</ele>
        <time>2019-10-05T13:52:17Z</time>
      </trkpt>
      <trkpt lat="50.92133" lon="1.70332">
        <ele>2.6</ele>
        <time>2019-10-05T13:52:23Z</time>
      </trkpt>
      <trkpt lat="50.92137" lon="1.70328">
        <ele>2.6</ele>
        <time>2019-10-05T13:52:28Z</time>
      </trkpt>
      <trkpt lat="50.9214" lon="1.70322">
        <ele>2.6</ele>
        <time>2019-10-05T13:52:39Z</time>
      </trkpt>
      <trkpt lat="50.92143" lon="1.70317">
        <ele>2.6</ele>
        <time>2019-10-05T13:52:53Z</time>
      </trkpt>
      <trkpt lat="50.92147" lon="1.70322">
        <ele>2.6</ele>
        <time>2019-10-05T13:53:07Z</time>
      </trkpt>
      <trkpt lat="50.92151" lon="1.70326">
        <ele>2.6</ele>
        <time>2019-10-05T13:53:28Z</time>
      </trkpt>
      <trkpt lat="50.92156" lon="1.70328">
        <ele>2.6</ele>
        <time>2019-10-05T13:53:33Z</time>
      </trkpt>
      <trkpt lat="50.92158" lon="1.70334">
        <ele>2.6</ele>
        <time>2019-10-05T13:53:47Z</time>
      </trkpt>
      <trkpt lat="50.92161" lon="1.7034">
        <ele>2.6</ele>
        <time>2019-10-05T13:53:51Z</time>
      </trkpt>
      <trkpt lat="50.92164" lon="1.70347">
        <ele>2.6</ele>
        <time>2019-10-05T13:53:56Z</time>
      </trkpt>
      <trkpt lat="50.92166" lon="1.70353">
        <ele>3.1</ele>
        <time>2019-10-05T13:54:00Z</time>
      </trkpt>
      <trkpt lat="50.9217" lon="1.70358">
        <ele>4.6</ele>
        <time>2019-10-05T13:54:06Z</time>
      </trkpt>
      <trkpt lat="50.92174" lon="1.70362">
        <ele>6.5</ele>
        <time>2019-10-05T13:54:12Z</time>
      </trkpt>
      <trkpt lat="50.92177" lon="1.70367">
        <ele>7.8</ele>
        <time>2019-10-05T13:54:16Z</time>
      </trkpt>
      <trkpt lat="50.9218" lon="1.70372">
        <ele>9.2</ele>
        <time>2019-10-05T13:54:20Z</time>
      </trkpt>
      <trkpt lat="50.92184" lon="1.70379">
        <ele>10.8</ele>
        <time>2019-10-05T13:54:25Z</time>
      </trkpt>
      <trkpt lat="50.92188" lon="1.70383">
        <ele>12.5</ele>
        <time>2019-10-05T13:54:31Z</time>
      </trkpt>
      <trkpt lat="50.92191" lon="1.70388">
        <ele>14.1</ele>
        <time>2019-10-05T13:54:37Z</time>
      </trkpt>
      <trkpt lat="50.92196" lon="1.70392">
        <ele>15.6</ele>
        <time>2019-10-05T13:54:44Z</time>
      </trkpt>
      <trkpt lat="50.92199" lon="1.70398">
        <ele>17.2</ele>
        <time>2019-10-05T13:54:52Z</time>
      </trkpt>
      <trkpt lat="50.92203" lon="1.70402">
        <ele>20.2</ele>
        <time>2019-10-05T13:55:16Z</time>
      </trkpt>
      <trkpt lat="50.92206" lon="1.70407">
        <ele>21.4</ele>
        <time>2019-10-05T13:55:24Z</time>
      </trkpt>
      <trkpt lat="50.9221" lon="1.70412">
        <ele>22.3</ele>
        <time>2019-10-05T13:55:30Z</time>
      </trkpt>
      <trkpt lat="50.92213" lon="1.70418">
        <ele>23.4</ele>
        <time>2019-10-05T13:55:37Z</time>
      </trkpt>
      <trkpt lat="50.92217" lon="1.70422">
        <ele>24.2</ele>
        <time>2019-10-05T13:55:43Z</time>
      </trkpt>
      <trkpt lat="50.9222" lon="1.70428">
        <ele>25.2</ele>
        <time>2019-10-05T13:55:50Z</time>
      </trkpt>
      <trkpt lat="50.92223" lon="1.70434">
        <ele>26.7</ele>
        <time>2019-10-05T13:56:00Z</time>
      </trkpt>
      <trkpt lat="50.92227" lon="1.7044">
        <ele>27.8</ele>
        <time>2019-10-05T13:56:08Z</time>
      </trkpt>
      <trkpt lat="50.92231" lon="1.70444">
        <ele>28.4</ele>
        <time>2019-10-05T13:56:13Z</time>
      </trkpt>
      <trkpt lat="50.92234" lon="1.70449">
        <ele>29.1</ele>
        <time>2019-10-05T13:56:19Z</time>
      </trkpt>
      <trkpt lat="50.92238" lon="1.70454">
        <ele>30.1</ele>
        <time>2019-10-05T13:56:27Z</time>
      </trkpt>
      <trkpt lat="50.92241" lon="1.70458">
        <ele>30.8</ele>
        <time>2019-10-05T13:56:33Z</time>
      </trkpt>
      <trkpt lat="50.92245" lon="1.70464">
        <ele>32.1</ele>
        <time>2019-10-05T13:56:44Z</time>
      </trkpt>
      <trkpt lat="50.92249" lon="1.70468">
        <ele>32.5</ele>
        <time>2019-10-05T13:56:52Z</time>
      </trkpt>
      <trkpt lat="50.92253" lon="1.7047">
        <ele>32.9</ele>
        <time>2019-10-05T13:57:08Z</time>
      </trkpt>
      <trkpt lat="50.92257" lon="1.70475">
        <ele>32.2</ele>
        <time>2019-10-05T13:57:28Z</time>
      </trkpt>
      <trkpt lat="50.92259" lon="1.70483">
        <ele>30.8</ele>
        <time>2019-10-05T13:57:45Z</time>
      </trkpt>
      <trkpt lat="50.92259" lon="1.7049">
        <ele>30.6</ele>
        <time>2019-10-05T13:57:52Z</time>
      </trkpt>
      <trkpt lat="50.92261" lon="1.70498">
        <ele>30.6</ele>
        <time>2019-10-05T13:57:59Z</time>
      </trkpt>
      <trkpt lat="50.92263" lon="1.70505">
        <ele>30.6</ele>
        <time>2019-10-05T13:58:05Z</time>
      </trkpt>
      <trkpt lat="50.92262" lon="1.70513">
        <ele>30.4</ele>
        <time>2019-10-05T13:58:12Z</time>
      </trkpt>
      <trkpt lat="50.92261" lon="1.7052">
        <ele>30.1</ele>
        <time>2019-10-05T13:58:19Z</time>
      </trkpt>
      <trkpt lat="50.92259" lon="1.70527">
        <ele>29.8</ele>
        <time>2019-10-05T13:58:26Z</time>
      </trkpt>
      <trkpt lat="50.92258" lon="1.70534">
        <ele>29.6</ele>
        <time>2019-10-05T13:58:32Z</time>
      </trkpt>
      <trkpt lat="50.92256" lon="1.70541">
        <ele>29.5</ele>
        <time>2019-10-05T13:58:39Z</time>
      </trkpt>
      <trkpt lat="50.92254" lon="1.70548">
        <ele>29.4</ele>
        <time>2019-10-05T13:58:45Z</time>
      </trkpt>
      <trkpt lat="50.92252" lon="1.70555">
        <ele>29.5</ele>
        <time>2019-10-05T13:58:52Z</time>
      </trkpt>
      <trkpt lat="50.9225" lon="1.70562">
        <ele>29.6</ele>
        <time>2019-10-05T13:58:57Z</time>
      </trkpt>
      <trkpt lat="50.92248" lon="1.70569">
        <ele>29.4</ele>
        <time>2019-10-05T13:59:02Z</time>
      </trkpt>
      <trkpt lat="50.92245" lon="1.70575">
        <ele>29.1</ele>
        <time>2019-10-05T13:59:07Z</time>
      </trkpt>
      <trkpt lat="50.92243" lon="1.70581">
        <ele>28.8</ele>
        <time>2019-10-05T13:59:13Z</time>
      </trkpt>
      <trkpt lat="50.92239" lon="1.70587">
        <ele>28.8</ele>
        <time>2019-10-05T13:59:18Z</time>
      </trkpt>
      <trkpt lat="50.92236" lon="1.70594">
        <ele>29</ele>
        <time>2019-10-05T13:59:24Z</time>
      </trkpt>
      <trkpt lat="50.92229" lon="1.70608">
        <ele>30.3</ele>
        <time>2019-10-05T13:59:38Z</time>
      </trkpt>
      <trkpt lat="50.92225" lon="1.70614">
        <ele>30.3</ele>
        <time>2019-10-05T13:59:42Z</time>
      </trkpt>
      <trkpt lat="50.92222" lon="1.7062">
        <ele>30.5</ele>
        <time>2019-10-05T13:59:49Z</time>
      </trkpt>
      <trkpt lat="50.92218" lon="1.70626">
        <ele>30.9</ele>
        <time>2019-10-05T13:59:54Z</time>
      </trkpt>
      <trkpt lat="50.92215" lon="1.70631">
        <ele>31.3</ele>
        <time>2019-10-05T13:59:58Z</time>
      </trkpt>
      <trkpt lat="50.92212" lon="1.70637">
        <ele>31.5</ele>
        <time>2019-10-05T14:00:03Z</time>
      </trkpt>
      <trkpt lat="50.92207" lon="1.70651">
        <ele>31.8</ele>
        <time>2019-10-05T14:00:15Z</time>
      </trkpt>
      <trkpt lat="50.92204" lon="1.70657">
        <ele>32</ele>
        <time>2019-10-05T14:00:20Z</time>
      </trkpt>
      <trkpt lat="50.92201" lon="1.70663">
        <ele>32.5</ele>
        <time>2019-10-05T14:00:25Z</time>
      </trkpt>
      <trkpt lat="50.92198" lon="1.7067">
        <ele>32.9</ele>
        <time>2019-10-05T14:00:29Z</time>
      </trkpt>
      <trkpt lat="50.92196" lon="1.70676">
        <ele>33.4</ele>
        <time>2019-10-05T14:00:33Z</time>
      </trkpt>
      <trkpt lat="50.92193" lon="1.70682">
        <ele>34</ele>
        <time>2019-10-05T14:00:38Z</time>
      </trkpt>
      <trkpt lat="50.92189" lon="1.7069">
        <ele>34.7</ele>
        <time>2019-10-05T14:00:43Z</time>
      </trkpt>
      <trkpt lat="50.92188" lon="1.70697">
        <ele>35.3</ele>
        <time>2019-10-05T14:00:47Z</time>
      </trkpt>
      <trkpt lat="50.92186" lon="1.70703">
        <ele>35.8</ele>
        <time>2019-10-05T14:00:52Z</time>
      </trkpt>
      <trkpt lat="50.92182" lon="1.70709">
        <ele>36</ele>
        <time>2019-10-05T14:00:56Z</time>
      </trkpt>
      <trkpt lat="50.92179" lon="1.70715">
        <ele>36.5</ele>
        <time>2019-10-05T14:01:01Z</time>
      </trkpt>
      <trkpt lat="50.92176" lon="1.70722">
        <ele>36.7</ele>
        <time>2019-10-05T14:01:06Z</time>
      </trkpt>
      <trkpt lat="50.92173" lon="1.70728">
        <ele>36.8</ele>
        <time>2019-10-05T14:01:11Z</time>
      </trkpt>
      <trkpt lat="50.92171" lon="1.70734">
        <ele>36.7</ele>
        <time>2019-10-05T14:01:15Z</time>
      </trkpt>
      <trkpt lat="50.92169" lon="1.70741">
        <ele>37</ele>
        <time>2019-10-05T14:01:20Z</time>
      </trkpt>
      <trkpt lat="50.92166" lon="1.70748">
        <ele>37.2</ele>
        <time>2019-10-05T14:01:26Z</time>
      </trkpt>
      <trkpt lat="50.92165" lon="1.70755">
        <ele>37</ele>
        <time>2019-10-05T14:01:34Z</time>
      </trkpt>
      <trkpt lat="50.92168" lon="1.7076">
        <ele>36.1</ele>
        <time>2019-10-05T14:01:46Z</time>
      </trkpt>
      <trkpt lat="50.92173" lon="1.70761">
        <ele>35.1</ele>
        <time>2019-10-05T14:01:55Z</time>
      </trkpt>
      <trkpt lat="50.92177" lon="1.70757">
        <ele>34.2</ele>
        <time>2019-10-05T14:02:02Z</time>
      </trkpt>
      <trkpt lat="50.92181" lon="1.70752">
        <ele>33.7</ele>
        <time>2019-10-05T14:02:06Z</time>
      </trkpt>
      <trkpt lat="50.92185" lon="1.70747">
        <ele>33.5</ele>
        <time>2019-10-05T14:02:11Z</time>
      </trkpt>
      <trkpt lat="50.92187" lon="1.7074">
        <ele>33.6</ele>
        <time>2019-10-05T14:02:19Z</time>
      </trkpt>
      <trkpt lat="50.92194" lon="1.70741">
        <ele>33.3</ele>
        <time>2019-10-05T14:02:44Z</time>
      </trkpt>
      <trkpt lat="50.92195" lon="1.70749">
        <ele>34.1</ele>
        <time>2019-10-05T14:02:51Z</time>
      </trkpt>
      <trkpt lat="50.92195" lon="1.70756">
        <ele>35.1</ele>
        <time>2019-10-05T14:02:57Z</time>
      </trkpt>
      <trkpt lat="50.92195" lon="1.70764">
        <ele>36.1</ele>
        <time>2019-10-05T14:03:03Z</time>
      </trkpt>
      <trkpt lat="50.92192" lon="1.70772">
        <ele>37.5</ele>
        <time>2019-10-05T14:03:11Z</time>
      </trkpt>
      <trkpt lat="50.92192" lon="1.7078">
        <ele>39.1</ele>
        <time>2019-10-05T14:03:17Z</time>
      </trkpt>
      <trkpt lat="50.92193" lon="1.70787">
        <ele>41.1</ele>
        <time>2019-10-05T14:03:23Z</time>
      </trkpt>
      <trkpt lat="50.92188" lon="1.7079">
        <ele>43.9</ele>
        <time>2019-10-05T14:03:36Z</time>
      </trkpt>
      <trkpt lat="50.92187" lon="1.70797">
        <ele>47.3</ele>
        <time>2019-10-05T14:03:57Z</time>
      </trkpt>
      <trkpt lat="50.92188" lon="1.70805">
        <ele>48.8</ele>
        <time>2019-10-05T14:04:05Z</time>
      </trkpt>
      <trkpt lat="50.92191" lon="1.70811">
        <ele>50</ele>
        <time>2019-10-05T14:04:11Z</time>
      </trkpt>
      <trkpt lat="50.92193" lon="1.70817">
        <ele>51.2</ele>
        <time>2019-10-05T14:04:16Z</time>
      </trkpt>
      <trkpt lat="50.92195" lon="1.70824">
        <ele>51.9</ele>
        <time>2019-10-05T14:04:20Z</time>
      </trkpt>
      <trkpt lat="50.92198" lon="1.70832">
        <ele>52.9</ele>
        <time>2019-10-05T14:04:26Z</time>
      </trkpt>
      <trkpt lat="50.92201" lon="1.70838">
        <ele>54</ele>
        <time>2019-10-05T14:04:33Z</time>
      </trkpt>
      <trkpt lat="50.92204" lon="1.70843">
        <ele>55</ele>
        <time>2019-10-05T14:04:38Z</time>
      </trkpt>
      <trkpt lat="50.92208" lon="1.70849">
        <ele>56</ele>
        <time>2019-10-05T14:04:42Z</time>
      </trkpt>
      <trkpt lat="50.92213" lon="1.70853">
        <ele>57.5</ele>
        <time>2019-10-05T14:04:47Z</time>
      </trkpt>
      <trkpt lat="50.92216" lon="1.70858">
        <ele>59.5</ele>
        <time>2019-10-05T14:04:54Z</time>
      </trkpt>
      <trkpt lat="50.92221" lon="1.70861">
        <ele>61.9</ele>
        <time>2019-10-05T14:05:03Z</time>
      </trkpt>
      <trkpt lat="50.92224" lon="1.70856">
        <ele>63.7</ele>
        <time>2019-10-05T14:05:30Z</time>
      </trkpt>
      <trkpt lat="50.92228" lon="1.70851">
        <ele>62.9</ele>
        <time>2019-10-05T14:05:38Z</time>
      </trkpt>
      <trkpt lat="50.9223" lon="1.70845">
        <ele>62.9</ele>
        <time>2019-10-05T14:05:48Z</time>
      </trkpt>
      <trkpt lat="50.92235" lon="1.70844">
        <ele>62.7</ele>
        <time>2019-10-05T14:06:00Z</time>
      </trkpt>
      <trkpt lat="50.9224" lon="1.70843">
        <ele>63.9</ele>
        <time>2019-10-05T14:06:12Z</time>
      </trkpt>
      <trkpt lat="50.92244" lon="1.70844">
        <ele>65.2</ele>
        <time>2019-10-05T14:06:19Z</time>
      </trkpt>
      <trkpt lat="50.92248" lon="1.70848">
        <ele>67.5</ele>
        <time>2019-10-05T14:06:29Z</time>
      </trkpt>
      <trkpt lat="50.92252" lon="1.70854">
        <ele>68.8</ele>
        <time>2019-10-05T14:06:35Z</time>
      </trkpt>
      <trkpt lat="50.92255" lon="1.70861">
        <ele>69.8</ele>
        <time>2019-10-05T14:06:41Z</time>
      </trkpt>
      <trkpt lat="50.92256" lon="1.70868">
        <ele>70.6</ele>
        <time>2019-10-05T14:06:46Z</time>
      </trkpt>
      <trkpt lat="50.92258" lon="1.70874">
        <ele>70.9</ele>
        <time>2019-10-05T14:06:51Z</time>
      </trkpt>
      <trkpt lat="50.92261" lon="1.70881">
        <ele>71.1</ele>
        <time>2019-10-05T14:06:56Z</time>
      </trkpt>
      <trkpt lat="50.92263" lon="1.70888">
        <ele>71.3</ele>
        <time>2019-10-05T14:07:02Z</time>
      </trkpt>
      <trkpt lat="50.92264" lon="1.70895">
        <ele>71.5</ele>
        <time>2019-10-05T14:07:06Z</time>
      </trkpt>
      <trkpt lat="50.92265" lon="1.70903">
        <ele>71.9</ele>
        <time>2019-10-05T14:07:10Z</time>
      </trkpt>
      <trkpt lat="50.92267" lon="1.70911">
        <ele>72.5</ele>
        <time>2019-10-05T14:07:15Z</time>
      </trkpt>
      <trkpt lat="50.92269" lon="1.70918">
        <ele>72.7</ele>
        <time>2019-10-05T14:07:18Z</time>
      </trkpt>
      <trkpt lat="50.92272" lon="1.70925">
        <ele>73</ele>
        <time>2019-10-05T14:07:23Z</time>
      </trkpt>
      <trkpt lat="50.92274" lon="1.70932">
        <ele>73</ele>
        <time>2019-10-05T14:07:28Z</time>
      </trkpt>
      <trkpt lat="50.92277" lon="1.70939">
        <ele>73</ele>
        <time>2019-10-05T14:07:33Z</time>
      </trkpt>
      <trkpt lat="50.9228" lon="1.70945">
        <ele>73.1</ele>
        <time>2019-10-05T14:07:38Z</time>
      </trkpt>
      <trkpt lat="50.92282" lon="1.70951">
        <ele>73.3</ele>
        <time>2019-10-05T14:07:43Z</time>
      </trkpt>
      <trkpt lat="50.92284" lon="1.70958">
        <ele>73.4</ele>
        <time>2019-10-05T14:07:48Z</time>
      </trkpt>
      <trkpt lat="50.92285" lon="1.70965">
        <ele>73.5</ele>
        <time>2019-10-05T14:07:52Z</time>
      </trkpt>
      <trkpt lat="50.92286" lon="1.70973">
        <ele>73.5</ele>
        <time>2019-10-05T14:07:58Z</time>
      </trkpt>
      <trkpt lat="50.92289" lon="1.7098">
        <ele>73.6</ele>
        <time>2019-10-05T14:08:02Z</time>
      </trkpt>
      <trkpt lat="50.92289" lon="1.70988">
        <ele>73.9</ele>
        <time>2019-10-05T14:08:08Z</time>
      </trkpt>
      <trkpt lat="50.92289" lon="1.70996">
        <ele>74.4</ele>
        <time>2019-10-05T14:08:14Z</time>
      </trkpt>
      <trkpt lat="50.9229" lon="1.71003">
        <ele>75.1</ele>
        <time>2019-10-05T14:08:20Z</time>
      </trkpt>
      <trkpt lat="50.92292" lon="1.71011">
        <ele>75.6</ele>
        <time>2019-10-05T14:08:25Z</time>
      </trkpt>
      <trkpt lat="50.92294" lon="1.71019">
        <ele>76.2</ele>
        <time>2019-10-05T14:08:30Z</time>
      </trkpt>
      <trkpt lat="50.92296" lon="1.71026">
        <ele>76.8</ele>
        <time>2019-10-05T14:08:34Z</time>
      </trkpt>
      <trkpt lat="50.92298" lon="1.71033">
        <ele>77.2</ele>
        <time>2019-10-05T14:08:37Z</time>
      </trkpt>
      <trkpt lat="50.923" lon="1.7104">
        <ele>77.8</ele>
        <time>2019-10-05T14:08:41Z</time>
      </trkpt>
      <trkpt lat="50.92302" lon="1.71047">
        <ele>78.3</ele>
        <time>2019-10-05T14:08:46Z</time>
      </trkpt>
      <trkpt lat="50.92305" lon="1.71053">
        <ele>78.7</ele>
        <time>2019-10-05T14:08:51Z</time>
      </trkpt>
      <trkpt lat="50.92307" lon="1.71059">
        <ele>78.9</ele>
        <time>2019-10-05T14:08:56Z</time>
      </trkpt>
      <trkpt lat="50.92309" lon="1.71066">
        <ele>79.2</ele>
        <time>2019-10-05T14:09:02Z</time>
      </trkpt>
      <trkpt lat="50.92312" lon="1.71072">
        <ele>79.4</ele>
        <time>2019-10-05T14:09:08Z</time>
      </trkpt>
      <trkpt lat="50.92314" lon="1.71079">
        <ele>80.2</ele>
        <time>2019-10-05T14:09:32Z</time>
      </trkpt>
      <trkpt lat="50.92318" lon="1.71084">
        <ele>80.8</ele>
        <time>2019-10-05T14:09:40Z</time>
      </trkpt>
      <trkpt lat="50.92321" lon="1.71088">
        <ele>81.5</ele>
        <time>2019-10-05T14:09:47Z</time>
      </trkpt>
      <trkpt lat="50.92325" lon="1.71092">
        <ele>82.2</ele>
        <time>2019-10-05T14:09:53Z</time>
      </trkpt>
      <trkpt lat="50.9233" lon="1.71094">
        <ele>83.5</ele>
        <time>2019-10-05T14:10:04Z</time>
      </trkpt>
      <trkpt lat="50.92333" lon="1.71098">
        <ele>83.7</ele>
        <time>2019-10-05T14:10:08Z</time>
      </trkpt>
      <trkpt lat="50.92337" lon="1.71103">
        <ele>83.9</ele>
        <time>2019-10-05T14:10:13Z</time>
      </trkpt>
      <trkpt lat="50.92339" lon="1.7111">
        <ele>84.2</ele>
        <time>2019-10-05T14:10:19Z</time>
      </trkpt>
      <trkpt lat="50.92341" lon="1.71117">
        <ele>84.5</ele>
        <time>2019-10-05T14:10:25Z</time>
      </trkpt>
      <trkpt lat="50.92346" lon="1.71121">
        <ele>85.5</ele>
        <time>2019-10-05T14:10:37Z</time>
      </trkpt>
      <trkpt lat="50.9235" lon="1.71122">
        <ele>86.2</ele>
        <time>2019-10-05T14:10:48Z</time>
      </trkpt>
      <trkpt lat="50.92354" lon="1.71121">
        <ele>86.1</ele>
        <time>2019-10-05T14:11:00Z</time>
      </trkpt>
      <trkpt lat="50.92359" lon="1.71117">
        <ele>85.8</ele>
        <time>2019-10-05T14:11:16Z</time>
      </trkpt>
      <trkpt lat="50.92364" lon="1.71115">
        <ele>85.4</ele>
        <time>2019-10-05T14:11:20Z</time>
      </trkpt>
      <trkpt lat="50.9237" lon="1.71113">
        <ele>85.3</ele>
        <time>2019-10-05T14:11:27Z</time>
      </trkpt>
      <trkpt lat="50.92375" lon="1.71113">
        <ele>85</ele>
        <time>2019-10-05T14:11:34Z</time>
      </trkpt>
      <trkpt lat="50.92379" lon="1.71112">
        <ele>84.8</ele>
        <time>2019-10-05T14:11:41Z</time>
      </trkpt>
      <trkpt lat="50.92382" lon="1.71105">
        <ele>85.3</ele>
        <time>2019-10-05T14:12:09Z</time>
      </trkpt>
      <trkpt lat="50.92384" lon="1.71099">
        <ele>85.8</ele>
        <time>2019-10-05T14:12:20Z</time>
      </trkpt>
      <trkpt lat="50.92389" lon="1.71097">
        <ele>86.6</ele>
        <time>2019-10-05T14:12:26Z</time>
      </trkpt>
      <trkpt lat="50.92393" lon="1.71097">
        <ele>87.7</ele>
        <time>2019-10-05T14:12:36Z</time>
      </trkpt>
      <trkpt lat="50.92398" lon="1.71098">
        <ele>90.4</ele>
        <time>2019-10-05T14:12:55Z</time>
      </trkpt>
      <trkpt lat="50.92402" lon="1.71102">
        <ele>91.6</ele>
        <time>2019-10-05T14:13:02Z</time>
      </trkpt>
      <trkpt lat="50.92406" lon="1.71102">
        <ele>93.7</ele>
        <time>2019-10-05T14:13:17Z</time>
      </trkpt>
      <trkpt lat="50.92409" lon="1.71107">
        <ele>93.8</ele>
        <time>2019-10-05T14:13:42Z</time>
      </trkpt>
      <trkpt lat="50.92414" lon="1.71109">
        <ele>93.8</ele>
        <time>2019-10-05T14:13:50Z</time>
      </trkpt>
      <trkpt lat="50.92414" lon="1.71102">
        <ele>93.6</ele>
        <time>2019-10-05T14:14:06Z</time>
      </trkpt>
      <trkpt lat="50.92414" lon="1.7111">
        <ele>92.7</ele>
        <time>2019-10-05T14:14:28Z</time>
      </trkpt>
      <trkpt lat="50.92415" lon="1.71117">
        <ele>92.7</ele>
        <time>2019-10-05T14:14:32Z</time>
      </trkpt>
      <trkpt lat="50.92416" lon="1.71125">
        <ele>93.3</ele>
        <time>2019-10-05T14:14:38Z</time>
      </trkpt>
      <trkpt lat="50.92419" lon="1.71131">
        <ele>94.5</ele>
        <time>2019-10-05T14:14:46Z</time>
      </trkpt>
      <trkpt lat="50.9242" lon="1.71139">
        <ele>95.6</ele>
        <time>2019-10-05T14:14:53Z</time>
      </trkpt>
      <trkpt lat="50.92422" lon="1.71145">
        <ele>96.6</ele>
        <time>2019-10-05T14:15:01Z</time>
      </trkpt>
      <trkpt lat="50.92427" lon="1.7115">
        <ele>97.3</ele>
        <time>2019-10-05T14:15:08Z</time>
      </trkpt>
      <trkpt lat="50.9243" lon="1.71155">
        <ele>97.6</ele>
        <time>2019-10-05T14:15:13Z</time>
      </trkpt>
      <trkpt lat="50.92432" lon="1.71162">
        <ele>98.1</ele>
        <time>2019-10-05T14:15:18Z</time>
      </trkpt>
      <trkpt lat="50.92435" lon="1.71169">
        <ele>98.5</ele>
        <time>2019-10-05T14:15:24Z</time>
      </trkpt>
      <trkpt lat="50.92438" lon="1.71176">
        <ele>99.1</ele>
        <time>2019-10-05T14:15:29Z</time>
      </trkpt>
      <trkpt lat="50.92442" lon="1.71182">
        <ele>99.7</ele>
        <time>2019-10-05T14:15:35Z</time>
      </trkpt>
      <trkpt lat="50.92445" lon="1.71188">
        <ele>100.5</ele>
        <time>2019-10-05T14:15:41Z</time>
      </trkpt>
      <trkpt lat="50.92447" lon="1.71194">
        <ele>101</ele>
        <time>2019-10-05T14:15:46Z</time>
      </trkpt>
      <trkpt lat="50.92451" lon="1.71199">
        <ele>101.4</ele>
        <time>2019-10-05T14:15:50Z</time>
      </trkpt>
      <trkpt lat="50.92454" lon="1.71204">
        <ele>101.8</ele>
        <time>2019-10-05T14:15:56Z</time>
      </trkpt>
      <trkpt lat="50.92458" lon="1.71209">
        <ele>102.2</ele>
        <time>2019-10-05T14:16:02Z</time>
      </trkpt>
      <trkpt lat="50.92462" lon="1.71212">
        <ele>102.5</ele>
        <time>2019-10-05T14:16:08Z</time>
      </trkpt>
      <trkpt lat="50.92467" lon="1.71217">
        <ele>102.9</ele>
        <time>2019-10-05T14:16:16Z</time>
      </trkpt>
      <trkpt lat="50.92469" lon="1.71224">
        <ele>102.9</ele>
        <time>2019-10-05T14:16:23Z</time>
      </trkpt>
      <trkpt lat="50.92472" lon="1.71229">
        <ele>102.9</ele>
        <time>2019-10-05T14:16:28Z</time>
      </trkpt>
      <trkpt lat="50.92476" lon="1.71234">
        <ele>103.1</ele>
        <time>2019-10-05T14:16:32Z</time>
      </trkpt>
      <trkpt lat="50.92479" lon="1.7124">
        <ele>103.2</ele>
        <time>2019-10-05T14:16:41Z</time>
      </trkpt>
      <trkpt lat="50.92482" lon="1.71247">
        <ele>103.2</ele>
        <time>2019-10-05T14:16:46Z</time>
      </trkpt>
      <trkpt lat="50.92483" lon="1.71255">
        <ele>103.3</ele>
        <time>2019-10-05T14:16:52Z</time>
      </trkpt>
      <trkpt lat="50.92486" lon="1.71262">
        <ele>103.5</ele>
        <time>2019-10-05T14:16:58Z</time>
      </trkpt>
      <trkpt lat="50.92489" lon="1.71269">
        <ele>103.7</ele>
        <time>2019-10-05T14:17:04Z</time>
      </trkpt>
      <trkpt lat="50.92492" lon="1.71275">
        <ele>103.9</ele>
        <time>2019-10-05T14:17:08Z</time>
      </trkpt>
      <trkpt lat="50.92494" lon="1.71281">
        <ele>104.3</ele>
        <time>2019-10-05T14:17:12Z</time>
      </trkpt>
      <trkpt lat="50.92496" lon="1.71289">
        <ele>104.6</ele>
        <time>2019-10-05T14:17:16Z</time>
      </trkpt>
      <trkpt lat="50.92497" lon="1.71298">
        <ele>105.2</ele>
        <time>2019-10-05T14:17:21Z</time>
      </trkpt>
      <trkpt lat="50.92498" lon="1.71305">
        <ele>105.7</ele>
        <time>2019-10-05T14:17:25Z</time>
      </trkpt>
      <trkpt lat="50.92499" lon="1.71313">
        <ele>106.2</ele>
        <time>2019-10-05T14:17:30Z</time>
      </trkpt>
      <trkpt lat="50.92499" lon="1.71321">
        <ele>106.7</ele>
        <time>2019-10-05T14:17:35Z</time>
      </trkpt>
      <trkpt lat="50.92499" lon="1.71329">
        <ele>106.9</ele>
        <time>2019-10-05T14:17:41Z</time>
      </trkpt>
      <trkpt lat="50.92499" lon="1.71336">
        <ele>106.9</ele>
        <time>2019-10-05T14:17:47Z</time>
      </trkpt>
      <trkpt lat="50.92499" lon="1.71343">
        <ele>106.8</ele>
        <time>2019-10-05T14:17:52Z</time>
      </trkpt>
      <trkpt lat="50.92497" lon="1.71351">
        <ele>106.8</ele>
        <time>2019-10-05T14:17:56Z</time>
      </trkpt>
      <trkpt lat="50.92497" lon="1.7136">
        <ele>107.1</ele>
        <time>2019-10-05T14:18:01Z</time>
      </trkpt>
      <trkpt lat="50.92495" lon="1.71368">
        <ele>107.5</ele>
        <time>2019-10-05T14:18:05Z</time>
      </trkpt>
      <trkpt lat="50.92492" lon="1.71375">
        <ele>107.7</ele>
        <time>2019-10-05T14:18:10Z</time>
      </trkpt>
      <trkpt lat="50.9249" lon="1.71383">
        <ele>108</ele>
        <time>2019-10-05T14:18:15Z</time>
      </trkpt>
      <trkpt lat="50.92488" lon="1.7139">
        <ele>108.2</ele>
        <time>2019-10-05T14:18:19Z</time>
      </trkpt>
      <trkpt lat="50.92486" lon="1.71397">
        <ele>108.3</ele>
        <time>2019-10-05T14:18:23Z</time>
      </trkpt>
      <trkpt lat="50.92484" lon="1.71404">
        <ele>108.4</ele>
        <time>2019-10-05T14:18:28Z</time>
      </trkpt>
      <trkpt lat="50.92483" lon="1.71411">
        <ele>108.4</ele>
        <time>2019-10-05T14:18:33Z</time>
      </trkpt>
      <trkpt lat="50.92484" lon="1.71419">
        <ele>108.2</ele>
        <time>2019-10-05T14:18:40Z</time>
      </trkpt>
      <trkpt lat="50.92486" lon="1.71425">
        <ele>108.1</ele>
        <time>2019-10-05T14:18:49Z</time>
      </trkpt>
      <trkpt lat="50.92482" lon="1.71423">
        <ele>109</ele>
        <time>2019-10-05T14:19:11Z</time>
      </trkpt>
      <trkpt lat="50.92487" lon="1.71424">
        <ele>113</ele>
        <time>2019-10-05T14:20:23Z</time>
      </trkpt>
      <trkpt lat="50.92487" lon="1.71416">
        <ele>112.1</ele>
        <time>2019-10-05T14:21:00Z</time>
      </trkpt>
      <trkpt lat="50.92491" lon="1.7141">
        <ele>111.8</ele>
        <time>2019-10-05T14:21:04Z</time>
      </trkpt>
      <trkpt lat="50.92493" lon="1.71403">
        <ele>111.5</ele>
        <time>2019-10-05T14:21:08Z</time>
      </trkpt>
      <trkpt lat="50.92495" lon="1.71396">
        <ele>111.4</ele>
        <time>2019-10-05T14:21:11Z</time>
      </trkpt>
      <trkpt lat="50.92498" lon="1.71388">
        <ele>111.2</ele>
        <time>2019-10-05T14:21:15Z</time>
      </trkpt>
      <trkpt lat="50.92502" lon="1.71381">
        <ele>111</ele>
        <time>2019-10-05T14:21:19Z</time>
      </trkpt>
      <trkpt lat="50.92505" lon="1.71374">
        <ele>110.9</ele>
        <time>2019-10-05T14:21:23Z</time>
      </trkpt>
      <trkpt lat="50.92508" lon="1.71367">
        <ele>110.7</ele>
        <time>2019-10-05T14:21:27Z</time>
      </trkpt>
      <trkpt lat="50.92512" lon="1.71362">
        <ele>110.5</ele>
        <time>2019-10-05T14:21:32Z</time>
      </trkpt>
      <trkpt lat="50.92516" lon="1.71358">
        <ele>110.5</ele>
        <time>2019-10-05T14:21:37Z</time>
      </trkpt>
      <trkpt lat="50.9252" lon="1.71353">
        <ele>110.5</ele>
        <time>2019-10-05T14:21:41Z</time>
      </trkpt>
      <trkpt lat="50.92524" lon="1.71348">
        <ele>110.5</ele>
        <time>2019-10-05T14:21:46Z</time>
      </trkpt>
      <trkpt lat="50.92528" lon="1.71344">
        <ele>110.8</ele>
        <time>2019-10-05T14:21:52Z</time>
      </trkpt>
      <trkpt lat="50.92532" lon="1.7134">
        <ele>111.2</ele>
        <time>2019-10-05T14:21:59Z</time>
      </trkpt>
      <trkpt lat="50.92537" lon="1.71336">
        <ele>111.5</ele>
        <time>2019-10-05T14:22:06Z</time>
      </trkpt>
      <trkpt lat="50.92541" lon="1.71333">
        <ele>111.4</ele>
        <time>2019-10-05T14:22:11Z</time>
      </trkpt>
      <trkpt lat="50.92545" lon="1.71329">
        <ele>111.5</ele>
        <time>2019-10-05T14:22:16Z</time>
      </trkpt>
      <trkpt lat="50.92549" lon="1.71325">
        <ele>111.6</ele>
        <time>2019-10-05T14:22:22Z</time>
      </trkpt>
      <trkpt lat="50.92553" lon="1.71321">
        <ele>111.6</ele>
        <time>2019-10-05T14:22:26Z</time>
      </trkpt>
      <trkpt lat="50.92556" lon="1.71316">
        <ele>111.7</ele>
        <time>2019-10-05T14:22:30Z</time>
      </trkpt>
      <trkpt lat="50.92559" lon="1.71309">
        <ele>111.8</ele>
        <time>2019-10-05T14:22:35Z</time>
      </trkpt>
      <trkpt lat="50.9256" lon="1.71302">
        <ele>111.8</ele>
        <time>2019-10-05T14:22:40Z</time>
      </trkpt>
      <trkpt lat="50.92561" lon="1.71295">
        <ele>111.5</ele>
        <time>2019-10-05T14:22:49Z</time>
      </trkpt>
      <trkpt lat="50.92565" lon="1.7129">
        <ele>111.7</ele>
        <time>2019-10-05T14:22:57Z</time>
      </trkpt>
      <trkpt lat="50.9257" lon="1.71287">
        <ele>112.5</ele>
        <time>2019-10-05T14:23:06Z</time>
      </trkpt>
      <trkpt lat="50.92573" lon="1.71292">
        <ele>114</ele>
        <time>2019-10-05T14:23:21Z</time>
      </trkpt>
      <trkpt lat="50.92578" lon="1.71293">
        <ele>114.6</ele>
        <time>2019-10-05T14:23:38Z</time>
      </trkpt>
      <trkpt lat="50.92582" lon="1.71295">
        <ele>114.5</ele>
        <time>2019-10-05T14:23:47Z</time>
      </trkpt>
      <trkpt lat="50.92583" lon="1.71288">
        <ele>112.1</ele>
        <time>2019-10-05T14:24:20Z</time>
      </trkpt>
      <trkpt lat="50.92579" lon="1.71283">
        <ele>112.1</ele>
        <time>2019-10-05T14:24:27Z</time>
      </trkpt>
      <trkpt lat="50.92575" lon="1.71278">
        <ele>112.1</ele>
        <time>2019-10-05T14:24:33Z</time>
      </trkpt>
      <trkpt lat="50.92572" lon="1.71272">
        <ele>111.7</ele>
        <time>2019-10-05T14:24:43Z</time>
      </trkpt>
      <trkpt lat="50.92574" lon="1.71266">
        <ele>111.5</ele>
        <time>2019-10-05T14:24:57Z</time>
      </trkpt>
      <trkpt lat="50.92575" lon="1.71259">
        <ele>111</ele>
        <time>2019-10-05T14:25:12Z</time>
      </trkpt>
      <trkpt lat="50.92574" lon="1.71251">
        <ele>110.3</ele>
        <time>2019-10-05T14:25:20Z</time>
      </trkpt>
      <trkpt lat="50.92573" lon="1.71242">
        <ele>110</ele>
        <time>2019-10-05T14:25:25Z</time>
      </trkpt>
      <trkpt lat="50.92572" lon="1.71234">
        <ele>109.6</ele>
        <time>2019-10-05T14:25:32Z</time>
      </trkpt>
      <trkpt lat="50.92573" lon="1.71226">
        <ele>109.5</ele>
        <time>2019-10-05T14:25:36Z</time>
      </trkpt>
      <trkpt lat="50.92573" lon="1.71218">
        <ele>109.4</ele>
        <time>2019-10-05T14:25:40Z</time>
      </trkpt>
      <trkpt lat="50.92573" lon="1.7121">
        <ele>109.2</ele>
        <time>2019-10-05T14:25:46Z</time>
      </trkpt>
      <trkpt lat="50.92573" lon="1.71201">
        <ele>109.2</ele>
        <time>2019-10-05T14:25:52Z</time>
      </trkpt>
      <trkpt lat="50.92572" lon="1.71194">
        <ele>109.4</ele>
        <time>2019-10-05T14:25:57Z</time>
      </trkpt>
      <trkpt lat="50.92569" lon="1.71187">
        <ele>109.6</ele>
        <time>2019-10-05T14:26:01Z</time>
      </trkpt>
      <trkpt lat="50.92566" lon="1.7118">
        <ele>109.9</ele>
        <time>2019-10-05T14:26:06Z</time>
      </trkpt>
      <trkpt lat="50.92564" lon="1.71173">
        <ele>110.4</ele>
        <time>2019-10-05T14:26:12Z</time>
      </trkpt>
      <trkpt lat="50.92562" lon="1.71166">
        <ele>110.6</ele>
        <time>2019-10-05T14:26:17Z</time>
      </trkpt>
      <trkpt lat="50.92561" lon="1.71159">
        <ele>110.7</ele>
        <time>2019-10-05T14:26:22Z</time>
      </trkpt>
      <trkpt lat="50.92559" lon="1.71152">
        <ele>110.8</ele>
        <time>2019-10-05T14:26:27Z</time>
      </trkpt>
      <trkpt lat="50.92557" lon="1.71145">
        <ele>110.8</ele>
        <time>2019-10-05T14:26:32Z</time>
      </trkpt>
      <trkpt lat="50.92554" lon="1.71137">
        <ele>110.7</ele>
        <time>2019-10-05T14:26:37Z</time>
      </trkpt>
      <trkpt lat="50.92552" lon="1.7113">
        <ele>110.7</ele>
        <time>2019-10-05T14:26:41Z</time>
      </trkpt>
      <trkpt lat="50.9255" lon="1.71123">
        <ele>110.7</ele>
        <time>2019-10-05T14:26:46Z</time>
      </trkpt>
      <trkpt lat="50.92547" lon="1.71116">
        <ele>110.6</ele>
        <time>2019-10-05T14:26:51Z</time>
      </trkpt>
      <trkpt lat="50.92544" lon="1.71108">
        <ele>110.7</ele>
        <time>2019-10-05T14:26:56Z</time>
      </trkpt>
      <trkpt lat="50.92542" lon="1.71101">
        <ele>111</ele>
        <time>2019-10-05T14:27:00Z</time>
      </trkpt>
      <trkpt lat="50.92539" lon="1.71095">
        <ele>111.4</ele>
        <time>2019-10-05T14:27:05Z</time>
      </trkpt>
      <trkpt lat="50.92535" lon="1.71089">
        <ele>111.9</ele>
        <time>2019-10-05T14:27:10Z</time>
      </trkpt>
      <trkpt lat="50.92532" lon="1.71083">
        <ele>112.3</ele>
        <time>2019-10-05T14:27:14Z</time>
      </trkpt>
      <trkpt lat="50.92529" lon="1.71078">
        <ele>112.7</ele>
        <time>2019-10-05T14:27:18Z</time>
      </trkpt>
      <trkpt lat="50.92527" lon="1.71071">
        <ele>113.1</ele>
        <time>2019-10-05T14:27:23Z</time>
      </trkpt>
      <trkpt lat="50.92524" lon="1.71064">
        <ele>113.6</ele>
        <time>2019-10-05T14:27:28Z</time>
      </trkpt>
      <trkpt lat="50.92521" lon="1.71056">
        <ele>113.9</ele>
        <time>2019-10-05T14:27:34Z</time>
      </trkpt>
      <trkpt lat="50.92519" lon="1.7105">
        <ele>113.9</ele>
        <time>2019-10-05T14:27:39Z</time>
      </trkpt>
      <trkpt lat="50.92517" lon="1.71043">
        <ele>114</ele>
        <time>2019-10-05T14:27:44Z</time>
      </trkpt>
      <trkpt lat="50.92514" lon="1.71037">
        <ele>114.1</ele>
        <time>2019-10-05T14:27:48Z</time>
      </trkpt>
      <trkpt lat="50.92512" lon="1.7103">
        <ele>114.1</ele>
        <time>2019-10-05T14:27:52Z</time>
      </trkpt>
      <trkpt lat="50.9251" lon="1.71023">
        <ele>114.1</ele>
        <time>2019-10-05T14:27:57Z</time>
      </trkpt>
      <trkpt lat="50.92508" lon="1.71015">
        <ele>114.2</ele>
        <time>2019-10-05T14:28:02Z</time>
      </trkpt>
      <trkpt lat="50.92509" lon="1.71008">
        <ele>114.4</ele>
        <time>2019-10-05T14:28:12Z</time>
      </trkpt>
      <trkpt lat="50.92504" lon="1.71007">
        <ele>114</ele>
        <time>2019-10-05T14:28:29Z</time>
      </trkpt>
      <trkpt lat="50.92501" lon="1.71003">
        <ele>113.6</ele>
        <time>2019-10-05T14:28:35Z</time>
      </trkpt>
      <trkpt lat="50.92497" lon="1.70999">
        <ele>113.3</ele>
        <time>2019-10-05T14:28:40Z</time>
      </trkpt>
      <trkpt lat="50.92492" lon="1.70996">
        <ele>113.3</ele>
        <time>2019-10-05T14:28:45Z</time>
      </trkpt>
      <trkpt lat="50.92488" lon="1.70991">
        <ele>113.5</ele>
        <time>2019-10-05T14:28:51Z</time>
      </trkpt>
      <trkpt lat="50.92483" lon="1.70987">
        <ele>113.7</ele>
        <time>2019-10-05T14:28:57Z</time>
      </trkpt>
      <trkpt lat="50.92478" lon="1.70985">
        <ele>113.8</ele>
        <time>2019-10-05T14:29:01Z</time>
      </trkpt>
      <trkpt lat="50.92475" lon="1.7098">
        <ele>113.8</ele>
        <time>2019-10-05T14:29:14Z</time>
      </trkpt>
      <trkpt lat="50.92479" lon="1.70976">
        <ele>115</ele>
        <time>2019-10-05T14:29:30Z</time>
      </trkpt>
      <trkpt lat="50.92481" lon="1.7097">
        <ele>115.7</ele>
        <time>2019-10-05T14:29:48Z</time>
      </trkpt>
      <trkpt lat="50.92477" lon="1.70966">
        <ele>116.2</ele>
        <time>2019-10-05T14:30:31Z</time>
      </trkpt>
      <trkpt lat="50.92476" lon="1.70974">
        <ele>117</ele>
        <time>2019-10-05T14:30:49Z</time>
      </trkpt>
      <trkpt lat="50.92478" lon="1.70979">
        <ele>119</ele>
        <time>2019-10-05T14:31:25Z</time>
      </trkpt>
      <trkpt lat="50.92475" lon="1.70973">
        <ele>121.2</ele>
        <time>2019-10-05T14:31:56Z</time>
      </trkpt>
      <trkpt lat="50.92474" lon="1.70965">
        <ele>120.9</ele>
        <time>2019-10-05T14:32:02Z</time>
      </trkpt>
      <trkpt lat="50.92474" lon="1.70958">
        <ele>120.2</ele>
        <time>2019-10-05T14:32:09Z</time>
      </trkpt>
      <trkpt lat="50.92475" lon="1.70949">
        <ele>119.9</ele>
        <time>2019-10-05T14:32:14Z</time>
      </trkpt>
      <trkpt lat="50.92476" lon="1.70942">
        <ele>119.3</ele>
        <time>2019-10-05T14:32:19Z</time>
      </trkpt>
      <trkpt lat="50.92477" lon="1.7095">
        <ele>117.2</ele>
        <time>2019-10-05T14:32:39Z</time>
      </trkpt>
      <trkpt lat="50.92477" lon="1.70958">
        <ele>116.7</ele>
        <time>2019-10-05T14:32:44Z</time>
      </trkpt>
      <trkpt lat="50.92478" lon="1.70965">
        <ele>116.4</ele>
        <time>2019-10-05T14:32:48Z</time>
      </trkpt>
      <trkpt lat="50.9248" lon="1.70972">
        <ele>116.5</ele>
        <time>2019-10-05T14:32:55Z</time>
      </trkpt>
      <trkpt lat="50.92483" lon="1.70977">
        <ele>117.6</ele>
        <time>2019-10-05T14:33:03Z</time>
      </trkpt>
      <trkpt lat="50.92481" lon="1.70984">
        <ele>122.6</ele>
        <time>2019-10-05T14:36:09Z</time>
      </trkpt>
      <trkpt lat="50.92486" lon="1.70981">
        <ele>119.9</ele>
        <time>2019-10-05T14:38:29Z</time>
      </trkpt>
      <trkpt lat="50.92483" lon="1.70978">
        <ele>125.5</ele>
        <time>2019-10-05T14:39:44Z</time>
      </trkpt>
      <trkpt lat="50.92479" lon="1.70978">
        <ele>125.6</ele>
        <time>2019-10-05T14:39:52Z</time>
      </trkpt>
      <trkpt lat="50.92483" lon="1.7098">
        <ele>125.4</ele>
        <time>2019-10-05T14:40:12Z</time>
      </trkpt>
      <trkpt lat="50.9248" lon="1.70975">
        <ele>124</ele>
        <time>2019-10-05T14:40:32Z</time>
      </trkpt>
      <trkpt lat="50.92473" lon="1.7098">
        <ele>121.4</ele>
        <time>2019-10-05T14:40:47Z</time>
      </trkpt>
      <trkpt lat="50.92471" lon="1.70987">
        <ele>121.4</ele>
        <time>2019-10-05T14:40:51Z</time>
      </trkpt>
      <trkpt lat="50.92469" lon="1.70994">
        <ele>121.4</ele>
        <time>2019-10-05T14:40:54Z</time>
      </trkpt>
      <trkpt lat="50.92468" lon="1.71003">
        <ele>121.6</ele>
        <time>2019-10-05T14:40:58Z</time>
      </trkpt>
      <trkpt lat="50.92468" lon="1.7101">
        <ele>122.6</ele>
        <time>2019-10-05T14:41:04Z</time>
      </trkpt>
      <trkpt lat="50.92464" lon="1.71011">
        <ele>123.7</ele>
        <time>2019-10-05T14:41:15Z</time>
      </trkpt>
      <trkpt lat="50.92462" lon="1.71019">
        <ele>119.4</ele>
        <time>2019-10-05T14:43:04Z</time>
      </trkpt>
      <trkpt lat="50.92462" lon="1.71028">
        <ele>119.3</ele>
        <time>2019-10-05T14:43:07Z</time>
      </trkpt>
      <trkpt lat="50.92462" lon="1.71035">
        <ele>119.4</ele>
        <time>2019-10-05T14:43:10Z</time>
      </trkpt>
      <trkpt lat="50.92461" lon="1.71042">
        <ele>119.5</ele>
        <time>2019-10-05T14:43:13Z</time>
      </trkpt>
      <trkpt lat="50.92461" lon="1.71049">
        <ele>119.7</ele>
        <time>2019-10-05T14:43:16Z</time>
      </trkpt>
      <trkpt lat="50.92461" lon="1.71057">
        <ele>119.9</ele>
        <time>2019-10-05T14:43:19Z</time>
      </trkpt>
      <trkpt lat="50.92461" lon="1.71066">
        <ele>120.3</ele>
        <time>2019-10-05T14:43:23Z</time>
      </trkpt>
      <trkpt lat="50.92463" lon="1.71075">
        <ele>120.8</ele>
        <time>2019-10-05T14:43:27Z</time>
      </trkpt>
      <trkpt lat="50.92466" lon="1.71083">
        <ele>121.2</ele>
        <time>2019-10-05T14:43:31Z</time>
      </trkpt>
      <trkpt lat="50.92468" lon="1.7109">
        <ele>121.6</ele>
        <time>2019-10-05T14:43:35Z</time>
      </trkpt>
      <trkpt lat="50.92471" lon="1.71097">
        <ele>122</ele>
        <time>2019-10-05T14:43:39Z</time>
      </trkpt>
      <trkpt lat="50.92475" lon="1.71103">
        <ele>122.5</ele>
        <time>2019-10-05T14:43:43Z</time>
      </trkpt>
      <trkpt lat="50.92479" lon="1.71109">
        <ele>122.9</ele>
        <time>2019-10-05T14:43:47Z</time>
      </trkpt>
      <trkpt lat="50.92482" lon="1.71114">
        <ele>123.2</ele>
        <time>2019-10-05T14:43:50Z</time>
      </trkpt>
      <trkpt lat="50.92486" lon="1.71119">
        <ele>123.5</ele>
        <time>2019-10-05T14:43:54Z</time>
      </trkpt>
      <trkpt lat="50.92491" lon="1.71123">
        <ele>123.8</ele>
        <time>2019-10-05T14:43:58Z</time>
      </trkpt>
      <trkpt lat="50.92496" lon="1.71127">
        <ele>124.1</ele>
        <time>2019-10-05T14:44:03Z</time>
      </trkpt>
      <trkpt lat="50.92501" lon="1.7113">
        <ele>124.2</ele>
        <time>2019-10-05T14:44:06Z</time>
      </trkpt>
      <trkpt lat="50.92505" lon="1.71133">
        <ele>124.3</ele>
        <time>2019-10-05T14:44:09Z</time>
      </trkpt>
      <trkpt lat="50.9251" lon="1.71137">
        <ele>124.3</ele>
        <time>2019-10-05T14:44:12Z</time>
      </trkpt>
      <trkpt lat="50.92514" lon="1.71143">
        <ele>124.2</ele>
        <time>2019-10-05T14:44:16Z</time>
      </trkpt>
      <trkpt lat="50.92517" lon="1.71149">
        <ele>124.1</ele>
        <time>2019-10-05T14:44:20Z</time>
      </trkpt>
      <trkpt lat="50.9252" lon="1.71157">
        <ele>124.1</ele>
        <time>2019-10-05T14:44:24Z</time>
      </trkpt>
      <trkpt lat="50.92523" lon="1.71166">
        <ele>124.1</ele>
        <time>2019-10-05T14:44:28Z</time>
      </trkpt>
      <trkpt lat="50.92524" lon="1.71173">
        <ele>123.9</ele>
        <time>2019-10-05T14:44:32Z</time>
      </trkpt>
      <trkpt lat="50.92526" lon="1.71181">
        <ele>123.6</ele>
        <time>2019-10-05T14:44:36Z</time>
      </trkpt>
      <trkpt lat="50.92528" lon="1.71189">
        <ele>123.4</ele>
        <time>2019-10-05T14:44:39Z</time>
      </trkpt>
      <trkpt lat="50.92529" lon="1.71196">
        <ele>123.3</ele>
        <time>2019-10-05T14:44:42Z</time>
      </trkpt>
      <trkpt lat="50.92531" lon="1.71204">
        <ele>123.2</ele>
        <time>2019-10-05T14:44:46Z</time>
      </trkpt>
      <trkpt lat="50.92532" lon="1.71212">
        <ele>123.1</ele>
        <time>2019-10-05T14:44:50Z</time>
      </trkpt>
      <trkpt lat="50.92533" lon="1.71219">
        <ele>123.1</ele>
        <time>2019-10-05T14:44:53Z</time>
      </trkpt>
      <trkpt lat="50.92534" lon="1.71226">
        <ele>123</ele>
        <time>2019-10-05T14:44:56Z</time>
      </trkpt>
      <trkpt lat="50.92535" lon="1.71234">
        <ele>123</ele>
        <time>2019-10-05T14:45:00Z</time>
      </trkpt>
      <trkpt lat="50.92535" lon="1.71242">
        <ele>122.9</ele>
        <time>2019-10-05T14:45:04Z</time>
      </trkpt>
      <trkpt lat="50.92536" lon="1.71249">
        <ele>123</ele>
        <time>2019-10-05T14:45:08Z</time>
      </trkpt>
      <trkpt lat="50.92537" lon="1.71256">
        <ele>123.2</ele>
        <time>2019-10-05T14:45:12Z</time>
      </trkpt>
      <trkpt lat="50.92539" lon="1.71264">
        <ele>123.1</ele>
        <time>2019-10-05T14:45:17Z</time>
      </trkpt>
      <trkpt lat="50.9254" lon="1.71272">
        <ele>123.2</ele>
        <time>2019-10-05T14:45:23Z</time>
      </trkpt>
      <trkpt lat="50.92541" lon="1.71279">
        <ele>123.2</ele>
        <time>2019-10-05T14:45:28Z</time>
      </trkpt>
      <trkpt lat="50.92543" lon="1.71287">
        <ele>123.2</ele>
        <time>2019-10-05T14:45:33Z</time>
      </trkpt>
      <trkpt lat="50.92543" lon="1.71294">
        <ele>123</ele>
        <time>2019-10-05T14:45:38Z</time>
      </trkpt>
      <trkpt lat="50.92543" lon="1.71303">
        <ele>122.9</ele>
        <time>2019-10-05T14:45:44Z</time>
      </trkpt>
      <trkpt lat="50.92543" lon="1.71311">
        <ele>122.9</ele>
        <time>2019-10-05T14:45:49Z</time>
      </trkpt>
      <trkpt lat="50.92542" lon="1.7132">
        <ele>122.9</ele>
        <time>2019-10-05T14:45:54Z</time>
      </trkpt>
      <trkpt lat="50.92541" lon="1.71326">
        <ele>122.7</ele>
        <time>2019-10-05T14:45:58Z</time>
      </trkpt>
      <trkpt lat="50.92538" lon="1.71333">
        <ele>122.6</ele>
        <time>2019-10-05T14:46:04Z</time>
      </trkpt>
      <trkpt lat="50.92535" lon="1.71339">
        <ele>122.6</ele>
        <time>2019-10-05T14:46:08Z</time>
      </trkpt>
      <trkpt lat="50.92531" lon="1.71346">
        <ele>122.7</ele>
        <time>2019-10-05T14:46:12Z</time>
      </trkpt>
      <trkpt lat="50.92528" lon="1.71351">
        <ele>122.7</ele>
        <time>2019-10-05T14:46:16Z</time>
      </trkpt>
      <trkpt lat="50.92525" lon="1.71355">
        <ele>121.7</ele>
        <time>2019-10-05T14:46:45Z</time>
      </trkpt>
      <trkpt lat="50.92521" lon="1.7136">
        <ele>120.1</ele>
        <time>2019-10-05T14:47:15Z</time>
      </trkpt>
      <trkpt lat="50.92522" lon="1.71367">
        <ele>118.8</ele>
        <time>2019-10-05T14:47:32Z</time>
      </trkpt>
      <trkpt lat="50.92518" lon="1.71366">
        <ele>118.3</ele>
        <time>2019-10-05T14:48:04Z</time>
      </trkpt>
      <trkpt lat="50.92523" lon="1.71371">
        <ele>117</ele>
        <time>2019-10-05T14:48:58Z</time>
      </trkpt>
      <trkpt lat="50.92518" lon="1.71375">
        <ele>115.9</ele>
        <time>2019-10-05T14:49:02Z</time>
      </trkpt>
      <trkpt lat="50.92515" lon="1.7138">
        <ele>114.7</ele>
        <time>2019-10-05T14:49:06Z</time>
      </trkpt>
      <trkpt lat="50.92512" lon="1.71386">
        <ele>113.6</ele>
        <time>2019-10-05T14:49:10Z</time>
      </trkpt>
      <trkpt lat="50.92508" lon="1.71392">
        <ele>112.6</ele>
        <time>2019-10-05T14:49:14Z</time>
      </trkpt>
      <trkpt lat="50.92505" lon="1.71398">
        <ele>111.6</ele>
        <time>2019-10-05T14:49:18Z</time>
      </trkpt>
      <trkpt lat="50.92502" lon="1.71405">
        <ele>110.3</ele>
        <time>2019-10-05T14:49:23Z</time>
      </trkpt>
      <trkpt lat="50.92499" lon="1.71411">
        <ele>108.8</ele>
        <time>2019-10-05T14:49:29Z</time>
      </trkpt>
      <trkpt lat="50.92496" lon="1.71419">
        <ele>107.6</ele>
        <time>2019-10-05T14:49:34Z</time>
      </trkpt>
      <trkpt lat="50.92486" lon="1.71445">
        <ele>102.4</ele>
        <time>2019-10-05T14:49:56Z</time>
      </trkpt>
      <trkpt lat="50.92483" lon="1.71451">
        <ele>102.1</ele>
        <time>2019-10-05T14:50:01Z</time>
      </trkpt>
      <trkpt lat="50.92479" lon="1.71462">
        <ele>101.3</ele>
        <time>2019-10-05T14:50:13Z</time>
      </trkpt>
      <trkpt lat="50.92476" lon="1.71468">
        <ele>102.1</ele>
        <time>2019-10-05T14:50:26Z</time>
      </trkpt>
      <trkpt lat="50.92474" lon="1.71474">
        <ele>103</ele>
        <time>2019-10-05T14:50:33Z</time>
      </trkpt>
      <trkpt lat="50.92472" lon="1.71482">
        <ele>104.1</ele>
        <time>2019-10-05T14:50:39Z</time>
      </trkpt>
      <trkpt lat="50.9247" lon="1.71488">
        <ele>106.6</ele>
        <time>2019-10-05T14:50:51Z</time>
      </trkpt>
      <trkpt lat="50.92465" lon="1.71487">
        <ele>108.5</ele>
        <time>2019-10-05T14:51:06Z</time>
      </trkpt>
      <trkpt lat="50.9246" lon="1.71488">
        <ele>109.1</ele>
        <time>2019-10-05T14:51:11Z</time>
      </trkpt>
      <trkpt lat="50.92458" lon="1.71493">
        <ele>110.4</ele>
        <time>2019-10-05T14:51:23Z</time>
      </trkpt>
      <trkpt lat="50.92456" lon="1.71501">
        <ele>110.9</ele>
        <time>2019-10-05T14:51:29Z</time>
      </trkpt>
      <trkpt lat="50.92454" lon="1.71508">
        <ele>111.2</ele>
        <time>2019-10-05T14:51:33Z</time>
      </trkpt>
      <trkpt lat="50.92453" lon="1.71517">
        <ele>111.4</ele>
        <time>2019-10-05T14:51:37Z</time>
      </trkpt>
      <trkpt lat="50.92451" lon="1.71524">
        <ele>111.5</ele>
        <time>2019-10-05T14:51:41Z</time>
      </trkpt>
      <trkpt lat="50.92448" lon="1.7153">
        <ele>111.5</ele>
        <time>2019-10-05T14:51:44Z</time>
      </trkpt>
      <trkpt lat="50.92446" lon="1.71538">
        <ele>111.6</ele>
        <time>2019-10-05T14:51:48Z</time>
      </trkpt>
      <trkpt lat="50.92443" lon="1.71547">
        <ele>111.7</ele>
        <time>2019-10-05T14:51:52Z</time>
      </trkpt>
      <trkpt lat="50.92441" lon="1.71554">
        <ele>111.7</ele>
        <time>2019-10-05T14:51:57Z</time>
      </trkpt>
      <trkpt lat="50.92439" lon="1.71561">
        <ele>111.7</ele>
        <time>2019-10-05T14:52:01Z</time>
      </trkpt>
      <trkpt lat="50.92437" lon="1.71567">
        <ele>111.8</ele>
        <time>2019-10-05T14:52:05Z</time>
      </trkpt>
      <trkpt lat="50.92434" lon="1.71574">
        <ele>111.9</ele>
        <time>2019-10-05T14:52:10Z</time>
      </trkpt>
      <trkpt lat="50.92432" lon="1.7158">
        <ele>112</ele>
        <time>2019-10-05T14:52:14Z</time>
      </trkpt>
      <trkpt lat="50.92429" lon="1.71587">
        <ele>112</ele>
        <time>2019-10-05T14:52:19Z</time>
      </trkpt>
      <trkpt lat="50.92427" lon="1.71594">
        <ele>111.9</ele>
        <time>2019-10-05T14:52:24Z</time>
      </trkpt>
      <trkpt lat="50.92424" lon="1.716">
        <ele>111.7</ele>
        <time>2019-10-05T14:52:30Z</time>
      </trkpt>
      <trkpt lat="50.92422" lon="1.71606">
        <ele>111.6</ele>
        <time>2019-10-05T14:52:36Z</time>
      </trkpt>
      <trkpt lat="50.9242" lon="1.71613">
        <ele>111.4</ele>
        <time>2019-10-05T14:52:40Z</time>
      </trkpt>
      <trkpt lat="50.92418" lon="1.7162">
        <ele>111.1</ele>
        <time>2019-10-05T14:52:45Z</time>
      </trkpt>
      <trkpt lat="50.92416" lon="1.71628">
        <ele>110.7</ele>
        <time>2019-10-05T14:52:50Z</time>
      </trkpt>
      <trkpt lat="50.92414" lon="1.71635">
        <ele>110.4</ele>
        <time>2019-10-05T14:52:54Z</time>
      </trkpt>
      <trkpt lat="50.92411" lon="1.71642">
        <ele>110</ele>
        <time>2019-10-05T14:53:00Z</time>
      </trkpt>
      <trkpt lat="50.92408" lon="1.71648">
        <ele>109.8</ele>
        <time>2019-10-05T14:53:04Z</time>
      </trkpt>
      <trkpt lat="50.92405" lon="1.71655">
        <ele>109.7</ele>
        <time>2019-10-05T14:53:08Z</time>
      </trkpt>
      <trkpt lat="50.92402" lon="1.71662">
        <ele>109.5</ele>
        <time>2019-10-05T14:53:14Z</time>
      </trkpt>
      <trkpt lat="50.924" lon="1.71669">
        <ele>109.5</ele>
        <time>2019-10-05T14:53:20Z</time>
      </trkpt>
      <trkpt lat="50.92398" lon="1.71676">
        <ele>109.5</ele>
        <time>2019-10-05T14:53:24Z</time>
      </trkpt>
      <trkpt lat="50.92395" lon="1.71684">
        <ele>109.6</ele>
        <time>2019-10-05T14:53:28Z</time>
      </trkpt>
      <trkpt lat="50.92393" lon="1.71691">
        <ele>109.7</ele>
        <time>2019-10-05T14:53:31Z</time>
      </trkpt>
      <trkpt lat="50.9239" lon="1.71697">
        <ele>109.7</ele>
        <time>2019-10-05T14:53:35Z</time>
      </trkpt>
      <trkpt lat="50.92388" lon="1.71705">
        <ele>110</ele>
        <time>2019-10-05T14:53:40Z</time>
      </trkpt>
      <trkpt lat="50.92386" lon="1.71712">
        <ele>110.3</ele>
        <time>2019-10-05T14:53:44Z</time>
      </trkpt>
      <trkpt lat="50.92384" lon="1.71719">
        <ele>110.6</ele>
        <time>2019-10-05T14:53:49Z</time>
      </trkpt>
      <trkpt lat="50.92382" lon="1.71725">
        <ele>110.8</ele>
        <time>2019-10-05T14:53:53Z</time>
      </trkpt>
      <trkpt lat="50.92378" lon="1.71731">
        <ele>110.8</ele>
        <time>2019-10-05T14:53:57Z</time>
      </trkpt>
      <trkpt lat="50.92376" lon="1.71737">
        <ele>110.7</ele>
        <time>2019-10-05T14:54:03Z</time>
      </trkpt>
      <trkpt lat="50.92372" lon="1.71742">
        <ele>110.7</ele>
        <time>2019-10-05T14:54:07Z</time>
      </trkpt>
      <trkpt lat="50.92367" lon="1.71744">
        <ele>110.5</ele>
        <time>2019-10-05T14:54:12Z</time>
      </trkpt>
      <trkpt lat="50.92361" lon="1.71741">
        <ele>110.1</ele>
        <time>2019-10-05T14:54:16Z</time>
      </trkpt>
      <trkpt lat="50.92357" lon="1.71738">
        <ele>109.8</ele>
        <time>2019-10-05T14:54:20Z</time>
      </trkpt>
      <trkpt lat="50.92352" lon="1.71736">
        <ele>108.8</ele>
        <time>2019-10-05T14:54:30Z</time>
      </trkpt>
      <trkpt lat="50.92348" lon="1.71734">
        <ele>108.4</ele>
        <time>2019-10-05T14:54:46Z</time>
      </trkpt>
      <trkpt lat="50.92346" lon="1.71741">
        <ele>108.1</ele>
        <time>2019-10-05T14:54:51Z</time>
      </trkpt>
      <trkpt lat="50.92345" lon="1.71748">
        <ele>108</ele>
        <time>2019-10-05T14:54:55Z</time>
      </trkpt>
      <trkpt lat="50.92344" lon="1.71755">
        <ele>108</ele>
        <time>2019-10-05T14:55:00Z</time>
      </trkpt>
      <trkpt lat="50.92341" lon="1.71761">
        <ele>106.7</ele>
        <time>2019-10-05T14:55:19Z</time>
      </trkpt>
    </trkseg>
  </trk>
</gpx>